<?xml version="1.0" encoding="UTF-8" standalone="no" ?>
<gpx xmlns="http://www.topografix.com/GPX/1/1" xmlns:xsi="http://www.w3.org/2001/XMLSchema-instance" xsi:schemaLocation="http://www.topografix.com/GPX/1/1 http://www.topografix.com/GPX/1/1/gpx.xsd" version="1.1" creator="VisuGPX - https://www.visugpx.com">
  <metadata>
    <name>Bois du Bousqueton</name>
    <desc><![CDATA[
]]></desc>
  </metadata>
  <trk>
    <name><![CDATA[HAUTE UBAYE J6]]></name>
    <desc><![CDATA[LE BOIS DU BOUSQUETON : Du ski improbable au top avec très bonne poudreuse dans les mélèzes. Que demander de plus pou clôturer cette belle semaine très conviviale]]></desc>
    <trkseg>
      <trkpt lat="44.47978" lon="6.71154">
        <ele>1759</ele>
        <time>2022-03-11T08:51:39.000Z</time>
      </trkpt>
      <trkpt lat="44.47977" lon="6.71151">
        <ele>1760.1999511719</ele>
        <time>2022-03-11T08:52:36.000Z</time>
      </trkpt>
      <trkpt lat="44.47977" lon="6.71144">
        <ele>1760.8000488281</ele>
        <time>2022-03-11T08:52:41.000Z</time>
      </trkpt>
      <trkpt lat="44.47975" lon="6.7113">
        <ele>1761.1999511719</ele>
        <time>2022-03-11T08:52:52.000Z</time>
      </trkpt>
      <trkpt lat="44.47975" lon="6.71121">
        <ele>1762.4000244141</ele>
        <time>2022-03-11T08:53:02.000Z</time>
      </trkpt>
      <trkpt lat="44.47975" lon="6.71119">
        <ele>1762.5999755859</ele>
        <time>2022-03-11T08:53:04.000Z</time>
      </trkpt>
      <trkpt lat="44.47975" lon="6.71112">
        <ele>1763.4000244141</ele>
        <time>2022-03-11T08:53:13.000Z</time>
      </trkpt>
      <trkpt lat="44.47975" lon="6.71109">
        <ele>1764</ele>
        <time>2022-03-11T08:53:16.000Z</time>
      </trkpt>
      <trkpt lat="44.47975" lon="6.71105">
        <ele>1764.5999755859</ele>
        <time>2022-03-11T08:53:21.000Z</time>
      </trkpt>
      <trkpt lat="44.47975" lon="6.71102">
        <ele>1764.8000488281</ele>
        <time>2022-03-11T08:53:24.000Z</time>
      </trkpt>
      <trkpt lat="44.47976" lon="6.71097">
        <ele>1765.5999755859</ele>
        <time>2022-03-11T08:53:30.000Z</time>
      </trkpt>
      <trkpt lat="44.47976" lon="6.71095">
        <ele>1766</ele>
        <time>2022-03-11T08:53:33.000Z</time>
      </trkpt>
      <trkpt lat="44.47977" lon="6.71089">
        <ele>1766.5999755859</ele>
        <time>2022-03-11T08:53:40.000Z</time>
      </trkpt>
      <trkpt lat="44.47977" lon="6.71087">
        <ele>1767.1999511719</ele>
        <time>2022-03-11T08:53:43.000Z</time>
      </trkpt>
      <trkpt lat="44.47977" lon="6.71082">
        <ele>1767.8000488281</ele>
        <time>2022-03-11T08:53:48.000Z</time>
      </trkpt>
      <trkpt lat="44.47978" lon="6.71077">
        <ele>1768</ele>
        <time>2022-03-11T08:53:53.000Z</time>
      </trkpt>
      <trkpt lat="44.47979" lon="6.71071">
        <ele>1768.8000488281</ele>
        <time>2022-03-11T08:53:59.000Z</time>
      </trkpt>
      <trkpt lat="44.47979" lon="6.71068">
        <ele>1769.1999511719</ele>
        <time>2022-03-11T08:54:03.000Z</time>
      </trkpt>
      <trkpt lat="44.47979" lon="6.71064">
        <ele>1769.8000488281</ele>
        <time>2022-03-11T08:54:11.000Z</time>
      </trkpt>
      <trkpt lat="44.47979" lon="6.71063">
        <ele>1769.8000488281</ele>
        <time>2022-03-11T08:54:12.000Z</time>
      </trkpt>
      <trkpt lat="44.47979" lon="6.71055">
        <ele>1770.4000244141</ele>
        <time>2022-03-11T08:54:23.000Z</time>
      </trkpt>
      <trkpt lat="44.47979" lon="6.71053">
        <ele>1770.8000488281</ele>
        <time>2022-03-11T08:54:25.000Z</time>
      </trkpt>
      <trkpt lat="44.47977" lon="6.71048">
        <ele>1771.5999755859</ele>
        <time>2022-03-11T08:54:31.000Z</time>
      </trkpt>
      <trkpt lat="44.47977" lon="6.71045">
        <ele>1772.1999511719</ele>
        <time>2022-03-11T08:54:34.000Z</time>
      </trkpt>
      <trkpt lat="44.47977" lon="6.71039">
        <ele>1773.1999511719</ele>
        <time>2022-03-11T08:54:39.000Z</time>
      </trkpt>
      <trkpt lat="44.47976" lon="6.71032">
        <ele>1774.1999511719</ele>
        <time>2022-03-11T08:54:46.000Z</time>
      </trkpt>
      <trkpt lat="44.47976" lon="6.71031">
        <ele>1774.4000244141</ele>
        <time>2022-03-11T08:54:47.000Z</time>
      </trkpt>
      <trkpt lat="44.47976" lon="6.71025">
        <ele>1775.4000244141</ele>
        <time>2022-03-11T08:54:54.000Z</time>
      </trkpt>
      <trkpt lat="44.47975" lon="6.71022">
        <ele>1776.1999511719</ele>
        <time>2022-03-11T08:54:57.000Z</time>
      </trkpt>
      <trkpt lat="44.47974" lon="6.7102">
        <ele>1776.4000244141</ele>
        <time>2022-03-11T08:55:00.000Z</time>
      </trkpt>
      <trkpt lat="44.47972" lon="6.71007">
        <ele>1777.5999755859</ele>
        <time>2022-03-11T08:55:11.000Z</time>
      </trkpt>
      <trkpt lat="44.47971" lon="6.71">
        <ele>1778.5999755859</ele>
        <time>2022-03-11T08:55:18.000Z</time>
      </trkpt>
      <trkpt lat="44.4797" lon="6.70997">
        <ele>1778.8000488281</ele>
        <time>2022-03-11T08:55:21.000Z</time>
      </trkpt>
      <trkpt lat="44.47969" lon="6.70992">
        <ele>1779.5999755859</ele>
        <time>2022-03-11T08:55:26.000Z</time>
      </trkpt>
      <trkpt lat="44.47969" lon="6.70986">
        <ele>1780.4000244141</ele>
        <time>2022-03-11T08:55:33.000Z</time>
      </trkpt>
      <trkpt lat="44.47969" lon="6.70984">
        <ele>1780.5999755859</ele>
        <time>2022-03-11T08:55:36.000Z</time>
      </trkpt>
      <trkpt lat="44.47967" lon="6.70979">
        <ele>1781.8000488281</ele>
        <time>2022-03-11T08:55:42.000Z</time>
      </trkpt>
      <trkpt lat="44.47967" lon="6.70978">
        <ele>1781.8000488281</ele>
        <time>2022-03-11T08:55:43.000Z</time>
      </trkpt>
      <trkpt lat="44.47962" lon="6.70971">
        <ele>1782.1999511719</ele>
        <time>2022-03-11T08:55:52.000Z</time>
      </trkpt>
      <trkpt lat="44.47957" lon="6.70964">
        <ele>1782.8000488281</ele>
        <time>2022-03-11T08:56:01.000Z</time>
      </trkpt>
      <trkpt lat="44.47957" lon="6.70962">
        <ele>1783</ele>
        <time>2022-03-11T08:56:02.000Z</time>
      </trkpt>
      <trkpt lat="44.47954" lon="6.70955">
        <ele>1783.1999511719</ele>
        <time>2022-03-11T08:56:10.000Z</time>
      </trkpt>
      <trkpt lat="44.47953" lon="6.70949">
        <ele>1784</ele>
        <time>2022-03-11T08:56:18.000Z</time>
      </trkpt>
      <trkpt lat="44.47953" lon="6.70947">
        <ele>1784.1999511719</ele>
        <time>2022-03-11T08:56:21.000Z</time>
      </trkpt>
      <trkpt lat="44.4795" lon="6.70941">
        <ele>1785</ele>
        <time>2022-03-11T08:56:30.000Z</time>
      </trkpt>
      <trkpt lat="44.4795" lon="6.70941">
        <ele>1785</ele>
        <time>2022-03-11T08:56:31.000Z</time>
      </trkpt>
      <trkpt lat="44.47948" lon="6.70935">
        <ele>1786</ele>
        <time>2022-03-11T08:56:41.000Z</time>
      </trkpt>
      <trkpt lat="44.47948" lon="6.70935">
        <ele>1786</ele>
        <time>2022-03-11T08:56:42.000Z</time>
      </trkpt>
      <trkpt lat="44.47948" lon="6.70933">
        <ele>1786.4000244141</ele>
        <time>2022-03-11T08:56:48.000Z</time>
      </trkpt>
      <trkpt lat="44.47946" lon="6.70936">
        <ele>1787.1999511719</ele>
        <time>2022-03-11T08:56:54.000Z</time>
      </trkpt>
      <trkpt lat="44.47946" lon="6.70936">
        <ele>1787.1999511719</ele>
        <time>2022-03-11T08:56:55.000Z</time>
      </trkpt>
      <trkpt lat="44.47946" lon="6.7094">
        <ele>1788.1999511719</ele>
        <time>2022-03-11T08:57:00.000Z</time>
      </trkpt>
      <trkpt lat="44.47947" lon="6.70942">
        <ele>1788.5999755859</ele>
        <time>2022-03-11T08:57:03.000Z</time>
      </trkpt>
      <trkpt lat="44.47943" lon="6.70938">
        <ele>1789</ele>
        <time>2022-03-11T08:57:09.000Z</time>
      </trkpt>
      <trkpt lat="44.47941" lon="6.70935">
        <ele>1789.4000244141</ele>
        <time>2022-03-11T08:57:12.000Z</time>
      </trkpt>
      <trkpt lat="44.47939" lon="6.70932">
        <ele>1790.4000244141</ele>
        <time>2022-03-11T08:57:16.000Z</time>
      </trkpt>
      <trkpt lat="44.47938" lon="6.70931">
        <ele>1790.5999755859</ele>
        <time>2022-03-11T08:57:17.000Z</time>
      </trkpt>
      <trkpt lat="44.47937" lon="6.70929">
        <ele>1791.5999755859</ele>
        <time>2022-03-11T08:57:20.000Z</time>
      </trkpt>
      <trkpt lat="44.47934" lon="6.70927">
        <ele>1792.4000244141</ele>
        <time>2022-03-11T08:57:24.000Z</time>
      </trkpt>
      <trkpt lat="44.47932" lon="6.70926">
        <ele>1792.8000488281</ele>
        <time>2022-03-11T08:57:26.000Z</time>
      </trkpt>
      <trkpt lat="44.47929" lon="6.70923">
        <ele>1793.4000244141</ele>
        <time>2022-03-11T08:57:32.000Z</time>
      </trkpt>
      <trkpt lat="44.47927" lon="6.70918">
        <ele>1793.8000488281</ele>
        <time>2022-03-11T08:57:38.000Z</time>
      </trkpt>
      <trkpt lat="44.47926" lon="6.70917">
        <ele>1794</ele>
        <time>2022-03-11T08:57:40.000Z</time>
      </trkpt>
      <trkpt lat="44.47923" lon="6.70912">
        <ele>1795</ele>
        <time>2022-03-11T08:57:48.000Z</time>
      </trkpt>
      <trkpt lat="44.47919" lon="6.709">
        <ele>1796.1999511719</ele>
        <time>2022-03-11T08:57:58.000Z</time>
      </trkpt>
      <trkpt lat="44.47919" lon="6.70889">
        <ele>1796.5999755859</ele>
        <time>2022-03-11T08:58:06.000Z</time>
      </trkpt>
      <trkpt lat="44.47918" lon="6.70885">
        <ele>1797.1999511719</ele>
        <time>2022-03-11T08:58:12.000Z</time>
      </trkpt>
      <trkpt lat="44.47918" lon="6.70882">
        <ele>1797.5999755859</ele>
        <time>2022-03-11T08:58:15.000Z</time>
      </trkpt>
      <trkpt lat="44.47918" lon="6.70875">
        <ele>1798.5999755859</ele>
        <time>2022-03-11T08:58:20.000Z</time>
      </trkpt>
      <trkpt lat="44.47918" lon="6.70873">
        <ele>1799</ele>
        <time>2022-03-11T08:58:22.000Z</time>
      </trkpt>
      <trkpt lat="44.47919" lon="6.7087">
        <ele>1799.5999755859</ele>
        <time>2022-03-11T08:58:26.000Z</time>
      </trkpt>
      <trkpt lat="44.47919" lon="6.70865">
        <ele>1800.1999511719</ele>
        <time>2022-03-11T08:58:30.000Z</time>
      </trkpt>
      <trkpt lat="44.47919" lon="6.70863">
        <ele>1800.5999755859</ele>
        <time>2022-03-11T08:58:33.000Z</time>
      </trkpt>
      <trkpt lat="44.47921" lon="6.70859">
        <ele>1801.1999511719</ele>
        <time>2022-03-11T08:58:40.000Z</time>
      </trkpt>
      <trkpt lat="44.47922" lon="6.70859">
        <ele>1801.4000244141</ele>
        <time>2022-03-11T08:58:42.000Z</time>
      </trkpt>
      <trkpt lat="44.47922" lon="6.70858">
        <ele>1801.5999755859</ele>
        <time>2022-03-11T08:58:47.000Z</time>
      </trkpt>
      <trkpt lat="44.47921" lon="6.70858">
        <ele>1802.1999511719</ele>
        <time>2022-03-11T08:59:02.000Z</time>
      </trkpt>
      <trkpt lat="44.47921" lon="6.70858">
        <ele>1802.5999755859</ele>
        <time>2022-03-11T08:59:05.000Z</time>
      </trkpt>
      <trkpt lat="44.47921" lon="6.70859">
        <ele>1803.8000488281</ele>
        <time>2022-03-11T08:59:12.000Z</time>
      </trkpt>
      <trkpt lat="44.47919" lon="6.70864">
        <ele>1804.1999511719</ele>
        <time>2022-03-11T08:59:17.000Z</time>
      </trkpt>
      <trkpt lat="44.47917" lon="6.7087">
        <ele>1804.8000488281</ele>
        <time>2022-03-11T08:59:21.000Z</time>
      </trkpt>
      <trkpt lat="44.47915" lon="6.70872">
        <ele>1805.8000488281</ele>
        <time>2022-03-11T08:59:25.000Z</time>
      </trkpt>
      <trkpt lat="44.47915" lon="6.70872">
        <ele>1806</ele>
        <time>2022-03-11T08:59:26.000Z</time>
      </trkpt>
      <trkpt lat="44.47915" lon="6.70873">
        <ele>1806.1999511719</ele>
        <time>2022-03-11T08:59:31.000Z</time>
      </trkpt>
      <trkpt lat="44.47915" lon="6.70873">
        <ele>1806.4000244141</ele>
        <time>2022-03-11T08:59:37.000Z</time>
      </trkpt>
      <trkpt lat="44.47908" lon="6.70866">
        <ele>1807</ele>
        <time>2022-03-11T08:59:45.000Z</time>
      </trkpt>
      <trkpt lat="44.47908" lon="6.70866">
        <ele>1807</ele>
        <time>2022-03-11T08:59:46.000Z</time>
      </trkpt>
      <trkpt lat="44.47907" lon="6.70858">
        <ele>1808</ele>
        <time>2022-03-11T08:59:53.000Z</time>
      </trkpt>
      <trkpt lat="44.47906" lon="6.70855">
        <ele>1809.1999511719</ele>
        <time>2022-03-11T08:59:58.000Z</time>
      </trkpt>
      <trkpt lat="44.47907" lon="6.70852">
        <ele>1809.5999755859</ele>
        <time>2022-03-11T09:00:01.000Z</time>
      </trkpt>
      <trkpt lat="44.47907" lon="6.70846">
        <ele>1810.1999511719</ele>
        <time>2022-03-11T09:00:07.000Z</time>
      </trkpt>
      <trkpt lat="44.47907" lon="6.70843">
        <ele>1810.4000244141</ele>
        <time>2022-03-11T09:00:10.000Z</time>
      </trkpt>
      <trkpt lat="44.47908" lon="6.7084">
        <ele>1810.8000488281</ele>
        <time>2022-03-11T09:00:18.000Z</time>
      </trkpt>
      <trkpt lat="44.4791" lon="6.70841">
        <ele>1811.1999511719</ele>
        <time>2022-03-11T09:00:25.000Z</time>
      </trkpt>
      <trkpt lat="44.47911" lon="6.70842">
        <ele>1811.4000244141</ele>
        <time>2022-03-11T09:00:26.000Z</time>
      </trkpt>
      <trkpt lat="44.47911" lon="6.70844">
        <ele>1812.4000244141</ele>
        <time>2022-03-11T09:00:32.000Z</time>
      </trkpt>
      <trkpt lat="44.47911" lon="6.70844">
        <ele>1812.5999755859</ele>
        <time>2022-03-11T09:00:33.000Z</time>
      </trkpt>
      <trkpt lat="44.4791" lon="6.70845">
        <ele>1813.5999755859</ele>
        <time>2022-03-11T09:00:36.000Z</time>
      </trkpt>
      <trkpt lat="44.47906" lon="6.70845">
        <ele>1814.5999755859</ele>
        <time>2022-03-11T09:00:40.000Z</time>
      </trkpt>
      <trkpt lat="44.47905" lon="6.70846">
        <ele>1814.8000488281</ele>
        <time>2022-03-11T09:00:41.000Z</time>
      </trkpt>
      <trkpt lat="44.47903" lon="6.70848">
        <ele>1815.5999755859</ele>
        <time>2022-03-11T09:00:49.000Z</time>
      </trkpt>
      <trkpt lat="44.47901" lon="6.70848">
        <ele>1816.4000244141</ele>
        <time>2022-03-11T09:00:54.000Z</time>
      </trkpt>
      <trkpt lat="44.47902" lon="6.70846">
        <ele>1816.5999755859</ele>
        <time>2022-03-11T09:00:57.000Z</time>
      </trkpt>
      <trkpt lat="44.47902" lon="6.70846">
        <ele>1816.8000488281</ele>
        <time>2022-03-11T09:01:02.000Z</time>
      </trkpt>
      <trkpt lat="44.47902" lon="6.70846">
        <ele>1817.8000488281</ele>
        <time>2022-03-11T09:01:09.000Z</time>
      </trkpt>
      <trkpt lat="44.47901" lon="6.70845">
        <ele>1818.8000488281</ele>
        <time>2022-03-11T09:01:21.000Z</time>
      </trkpt>
      <trkpt lat="44.47896" lon="6.70835">
        <ele>1819.5999755859</ele>
        <time>2022-03-11T09:01:27.000Z</time>
      </trkpt>
      <trkpt lat="44.47895" lon="6.70833">
        <ele>1819.8000488281</ele>
        <time>2022-03-11T09:01:28.000Z</time>
      </trkpt>
      <trkpt lat="44.4789" lon="6.70825">
        <ele>1820.5999755859</ele>
        <time>2022-03-11T09:01:35.000Z</time>
      </trkpt>
      <trkpt lat="44.47889" lon="6.70825">
        <ele>1821</ele>
        <time>2022-03-11T09:01:37.000Z</time>
      </trkpt>
      <trkpt lat="44.4789" lon="6.70827">
        <ele>1821.4000244141</ele>
        <time>2022-03-11T09:01:43.000Z</time>
      </trkpt>
      <trkpt lat="44.47888" lon="6.70827">
        <ele>1821.1999511719</ele>
        <time>2022-03-11T09:01:52.000Z</time>
      </trkpt>
      <trkpt lat="44.47885" lon="6.70826">
        <ele>1821.1999511719</ele>
        <time>2022-03-11T09:02:01.000Z</time>
      </trkpt>
      <trkpt lat="44.47886" lon="6.70826">
        <ele>1821.1999511719</ele>
        <time>2022-03-11T09:02:59.000Z</time>
      </trkpt>
      <trkpt lat="44.47886" lon="6.70822">
        <ele>1822</ele>
        <time>2022-03-11T09:03:25.000Z</time>
      </trkpt>
      <trkpt lat="44.47885" lon="6.70824">
        <ele>1822.5999755859</ele>
        <time>2022-03-11T09:03:28.000Z</time>
      </trkpt>
      <trkpt lat="44.47883" lon="6.70826">
        <ele>1823.1999511719</ele>
        <time>2022-03-11T09:03:30.000Z</time>
      </trkpt>
      <trkpt lat="44.47883" lon="6.70827">
        <ele>1823.4000244141</ele>
        <time>2022-03-11T09:03:31.000Z</time>
      </trkpt>
      <trkpt lat="44.4788" lon="6.70834">
        <ele>1824.4000244141</ele>
        <time>2022-03-11T09:03:36.000Z</time>
      </trkpt>
      <trkpt lat="44.47879" lon="6.70836">
        <ele>1825</ele>
        <time>2022-03-11T09:03:39.000Z</time>
      </trkpt>
      <trkpt lat="44.47879" lon="6.70839">
        <ele>1825.5999755859</ele>
        <time>2022-03-11T09:03:41.000Z</time>
      </trkpt>
      <trkpt lat="44.47878" lon="6.70842">
        <ele>1826.4000244141</ele>
        <time>2022-03-11T09:03:45.000Z</time>
      </trkpt>
      <trkpt lat="44.47878" lon="6.70842">
        <ele>1826.5999755859</ele>
        <time>2022-03-11T09:03:46.000Z</time>
      </trkpt>
      <trkpt lat="44.47874" lon="6.70846">
        <ele>1827.5999755859</ele>
        <time>2022-03-11T09:03:52.000Z</time>
      </trkpt>
      <trkpt lat="44.47869" lon="6.70849">
        <ele>1828.8000488281</ele>
        <time>2022-03-11T09:03:58.000Z</time>
      </trkpt>
      <trkpt lat="44.47868" lon="6.70849">
        <ele>1829</ele>
        <time>2022-03-11T09:03:59.000Z</time>
      </trkpt>
      <trkpt lat="44.47865" lon="6.70836">
        <ele>1829.4000244141</ele>
        <time>2022-03-11T09:04:08.000Z</time>
      </trkpt>
      <trkpt lat="44.47862" lon="6.70833">
        <ele>1829.8000488281</ele>
        <time>2022-03-11T09:04:13.000Z</time>
      </trkpt>
      <trkpt lat="44.47862" lon="6.70832">
        <ele>1829.8000488281</ele>
        <time>2022-03-11T09:04:14.000Z</time>
      </trkpt>
      <trkpt lat="44.47862" lon="6.70831">
        <ele>1829.8000488281</ele>
        <time>2022-03-11T09:04:15.000Z</time>
      </trkpt>
      <trkpt lat="44.47861" lon="6.70829">
        <ele>1829.8000488281</ele>
        <time>2022-03-11T09:04:19.000Z</time>
      </trkpt>
      <trkpt lat="44.47859" lon="6.70828">
        <ele>1831</ele>
        <time>2022-03-11T09:04:23.000Z</time>
      </trkpt>
      <trkpt lat="44.47859" lon="6.70828">
        <ele>1832</ele>
        <time>2022-03-11T09:04:24.000Z</time>
      </trkpt>
      <trkpt lat="44.47858" lon="6.70828">
        <ele>1833.4000244141</ele>
        <time>2022-03-11T09:04:26.000Z</time>
      </trkpt>
      <trkpt lat="44.47855" lon="6.70828">
        <ele>1833.5999755859</ele>
        <time>2022-03-11T09:04:30.000Z</time>
      </trkpt>
      <trkpt lat="44.4785" lon="6.7083">
        <ele>1833</ele>
        <time>2022-03-11T09:04:37.000Z</time>
      </trkpt>
      <trkpt lat="44.47849" lon="6.7083">
        <ele>1833</ele>
        <time>2022-03-11T09:04:38.000Z</time>
      </trkpt>
      <trkpt lat="44.47849" lon="6.7083">
        <ele>1833</ele>
        <time>2022-03-11T09:04:39.000Z</time>
      </trkpt>
      <trkpt lat="44.47845" lon="6.70832">
        <ele>1834.4000244141</ele>
        <time>2022-03-11T09:04:44.000Z</time>
      </trkpt>
      <trkpt lat="44.47843" lon="6.70833">
        <ele>1835.5999755859</ele>
        <time>2022-03-11T09:04:47.000Z</time>
      </trkpt>
      <trkpt lat="44.47841" lon="6.70833">
        <ele>1836</ele>
        <time>2022-03-11T09:04:49.000Z</time>
      </trkpt>
      <trkpt lat="44.4784" lon="6.70834">
        <ele>1836.5999755859</ele>
        <time>2022-03-11T09:04:51.000Z</time>
      </trkpt>
      <trkpt lat="44.47839" lon="6.70834">
        <ele>1836.5999755859</ele>
        <time>2022-03-11T09:04:52.000Z</time>
      </trkpt>
      <trkpt lat="44.47837" lon="6.70835">
        <ele>1837.1999511719</ele>
        <time>2022-03-11T09:04:57.000Z</time>
      </trkpt>
      <trkpt lat="44.47835" lon="6.70836">
        <ele>1838</ele>
        <time>2022-03-11T09:05:00.000Z</time>
      </trkpt>
      <trkpt lat="44.47833" lon="6.70837">
        <ele>1838.5999755859</ele>
        <time>2022-03-11T09:05:03.000Z</time>
      </trkpt>
      <trkpt lat="44.47832" lon="6.70837">
        <ele>1839</ele>
        <time>2022-03-11T09:05:05.000Z</time>
      </trkpt>
      <trkpt lat="44.47828" lon="6.70839">
        <ele>1840</ele>
        <time>2022-03-11T09:05:14.000Z</time>
      </trkpt>
      <trkpt lat="44.47826" lon="6.7084">
        <ele>1840</ele>
        <time>2022-03-11T09:05:16.000Z</time>
      </trkpt>
      <trkpt lat="44.47821" lon="6.70841">
        <ele>1840.8000488281</ele>
        <time>2022-03-11T09:05:23.000Z</time>
      </trkpt>
      <trkpt lat="44.47818" lon="6.70841">
        <ele>1841</ele>
        <time>2022-03-11T09:05:25.000Z</time>
      </trkpt>
      <trkpt lat="44.47814" lon="6.70837">
        <ele>1841.4000244141</ele>
        <time>2022-03-11T09:05:30.000Z</time>
      </trkpt>
      <trkpt lat="44.4781" lon="6.70826">
        <ele>1841.8000488281</ele>
        <time>2022-03-11T09:05:38.000Z</time>
      </trkpt>
      <trkpt lat="44.4781" lon="6.70823">
        <ele>1842.1999511719</ele>
        <time>2022-03-11T09:05:40.000Z</time>
      </trkpt>
      <trkpt lat="44.47809" lon="6.70819">
        <ele>1843.1999511719</ele>
        <time>2022-03-11T09:05:44.000Z</time>
      </trkpt>
      <trkpt lat="44.47808" lon="6.70818">
        <ele>1844.8000488281</ele>
        <time>2022-03-11T09:05:47.000Z</time>
      </trkpt>
      <trkpt lat="44.47808" lon="6.70818">
        <ele>1845</ele>
        <time>2022-03-11T09:05:48.000Z</time>
      </trkpt>
      <trkpt lat="44.47807" lon="6.70817">
        <ele>1845.8000488281</ele>
        <time>2022-03-11T09:05:51.000Z</time>
      </trkpt>
      <trkpt lat="44.47806" lon="6.70808">
        <ele>1846.8000488281</ele>
        <time>2022-03-11T09:05:57.000Z</time>
      </trkpt>
      <trkpt lat="44.47806" lon="6.70805">
        <ele>1847</ele>
        <time>2022-03-11T09:06:00.000Z</time>
      </trkpt>
      <trkpt lat="44.47804" lon="6.70801">
        <ele>1847.8000488281</ele>
        <time>2022-03-11T09:06:04.000Z</time>
      </trkpt>
      <trkpt lat="44.47804" lon="6.708">
        <ele>1848.1999511719</ele>
        <time>2022-03-11T09:06:05.000Z</time>
      </trkpt>
      <trkpt lat="44.47803" lon="6.70793">
        <ele>1849.4000244141</ele>
        <time>2022-03-11T09:06:13.000Z</time>
      </trkpt>
      <trkpt lat="44.47803" lon="6.70787">
        <ele>1850.1999511719</ele>
        <time>2022-03-11T09:06:20.000Z</time>
      </trkpt>
      <trkpt lat="44.47803" lon="6.70787">
        <ele>1850.4000244141</ele>
        <time>2022-03-11T09:06:21.000Z</time>
      </trkpt>
      <trkpt lat="44.47803" lon="6.70777">
        <ele>1851</ele>
        <time>2022-03-11T09:06:26.000Z</time>
      </trkpt>
      <trkpt lat="44.47803" lon="6.70769">
        <ele>1851.5999755859</ele>
        <time>2022-03-11T09:06:31.000Z</time>
      </trkpt>
      <trkpt lat="44.47803" lon="6.70764">
        <ele>1852.8000488281</ele>
        <time>2022-03-11T09:06:36.000Z</time>
      </trkpt>
      <trkpt lat="44.47803" lon="6.70763">
        <ele>1853.1999511719</ele>
        <time>2022-03-11T09:06:37.000Z</time>
      </trkpt>
      <trkpt lat="44.47804" lon="6.70759">
        <ele>1854</ele>
        <time>2022-03-11T09:06:41.000Z</time>
      </trkpt>
      <trkpt lat="44.47805" lon="6.70755">
        <ele>1854.4000244141</ele>
        <time>2022-03-11T09:06:45.000Z</time>
      </trkpt>
      <trkpt lat="44.47807" lon="6.70748">
        <ele>1855</ele>
        <time>2022-03-11T09:06:50.000Z</time>
      </trkpt>
      <trkpt lat="44.47809" lon="6.70744">
        <ele>1855.1999511719</ele>
        <time>2022-03-11T09:06:53.000Z</time>
      </trkpt>
      <trkpt lat="44.47811" lon="6.70739">
        <ele>1856</ele>
        <time>2022-03-11T09:06:59.000Z</time>
      </trkpt>
      <trkpt lat="44.47811" lon="6.70738">
        <ele>1856</ele>
        <time>2022-03-11T09:07:00.000Z</time>
      </trkpt>
      <trkpt lat="44.47812" lon="6.70735">
        <ele>1856.4000244141</ele>
        <time>2022-03-11T09:07:04.000Z</time>
      </trkpt>
      <trkpt lat="44.47813" lon="6.70731">
        <ele>1857</ele>
        <time>2022-03-11T09:07:07.000Z</time>
      </trkpt>
      <trkpt lat="44.47812" lon="6.70724">
        <ele>1858</ele>
        <time>2022-03-11T09:07:12.000Z</time>
      </trkpt>
      <trkpt lat="44.47813" lon="6.70723">
        <ele>1858.4000244141</ele>
        <time>2022-03-11T09:07:14.000Z</time>
      </trkpt>
      <trkpt lat="44.47814" lon="6.70717">
        <ele>1859.4000244141</ele>
        <time>2022-03-11T09:07:21.000Z</time>
      </trkpt>
      <trkpt lat="44.47814" lon="6.70716">
        <ele>1859.5999755859</ele>
        <time>2022-03-11T09:07:22.000Z</time>
      </trkpt>
      <trkpt lat="44.47815" lon="6.70711">
        <ele>1860.4000244141</ele>
        <time>2022-03-11T09:07:27.000Z</time>
      </trkpt>
      <trkpt lat="44.47815" lon="6.7071">
        <ele>1860.4000244141</ele>
        <time>2022-03-11T09:07:28.000Z</time>
      </trkpt>
      <trkpt lat="44.47815" lon="6.70708">
        <ele>1861</ele>
        <time>2022-03-11T09:07:31.000Z</time>
      </trkpt>
      <trkpt lat="44.47814" lon="6.70707">
        <ele>1861.8000488281</ele>
        <time>2022-03-11T09:07:34.000Z</time>
      </trkpt>
      <trkpt lat="44.47814" lon="6.70707">
        <ele>1862.4000244141</ele>
        <time>2022-03-11T09:07:37.000Z</time>
      </trkpt>
      <trkpt lat="44.47815" lon="6.70706">
        <ele>1862.8000488281</ele>
        <time>2022-03-11T09:07:40.000Z</time>
      </trkpt>
      <trkpt lat="44.47815" lon="6.70705">
        <ele>1863.8000488281</ele>
        <time>2022-03-11T09:07:45.000Z</time>
      </trkpt>
      <trkpt lat="44.47815" lon="6.70705">
        <ele>1864.4000244141</ele>
        <time>2022-03-11T09:07:48.000Z</time>
      </trkpt>
      <trkpt lat="44.47815" lon="6.70706">
        <ele>1864.8000488281</ele>
        <time>2022-03-11T09:07:49.000Z</time>
      </trkpt>
      <trkpt lat="44.47813" lon="6.70708">
        <ele>1866</ele>
        <time>2022-03-11T09:07:54.000Z</time>
      </trkpt>
      <trkpt lat="44.47813" lon="6.70709">
        <ele>1866</ele>
        <time>2022-03-11T09:07:55.000Z</time>
      </trkpt>
      <trkpt lat="44.47813" lon="6.7071">
        <ele>1867</ele>
        <time>2022-03-11T09:07:59.000Z</time>
      </trkpt>
      <trkpt lat="44.47813" lon="6.70712">
        <ele>1867.8000488281</ele>
        <time>2022-03-11T09:08:04.000Z</time>
      </trkpt>
      <trkpt lat="44.47812" lon="6.70714">
        <ele>1868.1999511719</ele>
        <time>2022-03-11T09:08:06.000Z</time>
      </trkpt>
      <trkpt lat="44.47811" lon="6.70717">
        <ele>1868.5999755859</ele>
        <time>2022-03-11T09:08:10.000Z</time>
      </trkpt>
      <trkpt lat="44.4781" lon="6.7072">
        <ele>1869.1999511719</ele>
        <time>2022-03-11T09:08:13.000Z</time>
      </trkpt>
      <trkpt lat="44.47806" lon="6.70722">
        <ele>1869.8000488281</ele>
        <time>2022-03-11T09:08:17.000Z</time>
      </trkpt>
      <trkpt lat="44.47803" lon="6.70721">
        <ele>1870.1999511719</ele>
        <time>2022-03-11T09:08:21.000Z</time>
      </trkpt>
      <trkpt lat="44.478" lon="6.70718">
        <ele>1870.5999755859</ele>
        <time>2022-03-11T09:08:24.000Z</time>
      </trkpt>
      <trkpt lat="44.47797" lon="6.70713">
        <ele>1871.4000244141</ele>
        <time>2022-03-11T09:08:28.000Z</time>
      </trkpt>
      <trkpt lat="44.47797" lon="6.7071">
        <ele>1871.5999755859</ele>
        <time>2022-03-11T09:08:30.000Z</time>
      </trkpt>
      <trkpt lat="44.47796" lon="6.70704">
        <ele>1872.5999755859</ele>
        <time>2022-03-11T09:08:36.000Z</time>
      </trkpt>
      <trkpt lat="44.47795" lon="6.70702">
        <ele>1873</ele>
        <time>2022-03-11T09:08:40.000Z</time>
      </trkpt>
      <trkpt lat="44.47795" lon="6.70703">
        <ele>1873.5999755859</ele>
        <time>2022-03-11T09:08:45.000Z</time>
      </trkpt>
      <trkpt lat="44.47794" lon="6.70705">
        <ele>1874</ele>
        <time>2022-03-11T09:08:48.000Z</time>
      </trkpt>
      <trkpt lat="44.47794" lon="6.70707">
        <ele>1874.8000488281</ele>
        <time>2022-03-11T09:08:53.000Z</time>
      </trkpt>
      <trkpt lat="44.47793" lon="6.70709">
        <ele>1875.5999755859</ele>
        <time>2022-03-11T09:08:57.000Z</time>
      </trkpt>
      <trkpt lat="44.47792" lon="6.7071">
        <ele>1876</ele>
        <time>2022-03-11T09:09:00.000Z</time>
      </trkpt>
      <trkpt lat="44.47791" lon="6.70711">
        <ele>1876.8000488281</ele>
        <time>2022-03-11T09:09:04.000Z</time>
      </trkpt>
      <trkpt lat="44.4779" lon="6.70711">
        <ele>1877</ele>
        <time>2022-03-11T09:09:06.000Z</time>
      </trkpt>
      <trkpt lat="44.47788" lon="6.70714">
        <ele>1877.8000488281</ele>
        <time>2022-03-11T09:09:11.000Z</time>
      </trkpt>
      <trkpt lat="44.47787" lon="6.70716">
        <ele>1878</ele>
        <time>2022-03-11T09:09:13.000Z</time>
      </trkpt>
      <trkpt lat="44.47779" lon="6.70713">
        <ele>1879</ele>
        <time>2022-03-11T09:09:21.000Z</time>
      </trkpt>
      <trkpt lat="44.47778" lon="6.70712">
        <ele>1879</ele>
        <time>2022-03-11T09:09:22.000Z</time>
      </trkpt>
      <trkpt lat="44.47774" lon="6.70703">
        <ele>1880</ele>
        <time>2022-03-11T09:09:32.000Z</time>
      </trkpt>
      <trkpt lat="44.47774" lon="6.70702">
        <ele>1880</ele>
        <time>2022-03-11T09:09:33.000Z</time>
      </trkpt>
      <trkpt lat="44.47774" lon="6.70698">
        <ele>1881</ele>
        <time>2022-03-11T09:09:38.000Z</time>
      </trkpt>
      <trkpt lat="44.47774" lon="6.70697">
        <ele>1881.1999511719</ele>
        <time>2022-03-11T09:09:39.000Z</time>
      </trkpt>
      <trkpt lat="44.47774" lon="6.70691">
        <ele>1882</ele>
        <time>2022-03-11T09:09:44.000Z</time>
      </trkpt>
      <trkpt lat="44.47773" lon="6.70689">
        <ele>1882.1999511719</ele>
        <time>2022-03-11T09:09:45.000Z</time>
      </trkpt>
      <trkpt lat="44.47774" lon="6.70685">
        <ele>1882.8000488281</ele>
        <time>2022-03-11T09:09:49.000Z</time>
      </trkpt>
      <trkpt lat="44.47775" lon="6.70682">
        <ele>1883.1999511719</ele>
        <time>2022-03-11T09:09:51.000Z</time>
      </trkpt>
      <trkpt lat="44.47774" lon="6.70679">
        <ele>1883.8000488281</ele>
        <time>2022-03-11T09:09:56.000Z</time>
      </trkpt>
      <trkpt lat="44.47774" lon="6.70678">
        <ele>1884.4000244141</ele>
        <time>2022-03-11T09:09:59.000Z</time>
      </trkpt>
      <trkpt lat="44.47774" lon="6.70681">
        <ele>1885.1999511719</ele>
        <time>2022-03-11T09:10:04.000Z</time>
      </trkpt>
      <trkpt lat="44.47773" lon="6.70682">
        <ele>1885.4000244141</ele>
        <time>2022-03-11T09:10:06.000Z</time>
      </trkpt>
      <trkpt lat="44.4777" lon="6.70687">
        <ele>1886</ele>
        <time>2022-03-11T09:10:11.000Z</time>
      </trkpt>
      <trkpt lat="44.47769" lon="6.70691">
        <ele>1886.4000244141</ele>
        <time>2022-03-11T09:10:17.000Z</time>
      </trkpt>
      <trkpt lat="44.4777" lon="6.70692">
        <ele>1886.4000244141</ele>
        <time>2022-03-11T09:10:18.000Z</time>
      </trkpt>
      <trkpt lat="44.47767" lon="6.70689">
        <ele>1887.4000244141</ele>
        <time>2022-03-11T09:10:24.000Z</time>
      </trkpt>
      <trkpt lat="44.47766" lon="6.70679">
        <ele>1888.5999755859</ele>
        <time>2022-03-11T09:10:32.000Z</time>
      </trkpt>
      <trkpt lat="44.47766" lon="6.70673">
        <ele>1889.1999511719</ele>
        <time>2022-03-11T09:10:39.000Z</time>
      </trkpt>
      <trkpt lat="44.47766" lon="6.7067">
        <ele>1889.5999755859</ele>
        <time>2022-03-11T09:10:42.000Z</time>
      </trkpt>
      <trkpt lat="44.47767" lon="6.70667">
        <ele>1890.1999511719</ele>
        <time>2022-03-11T09:10:45.000Z</time>
      </trkpt>
      <trkpt lat="44.47769" lon="6.7066">
        <ele>1890.5999755859</ele>
        <time>2022-03-11T09:10:53.000Z</time>
      </trkpt>
      <trkpt lat="44.47769" lon="6.70659">
        <ele>1890.8000488281</ele>
        <time>2022-03-11T09:10:54.000Z</time>
      </trkpt>
      <trkpt lat="44.47768" lon="6.70654">
        <ele>1891.8000488281</ele>
        <time>2022-03-11T09:11:00.000Z</time>
      </trkpt>
      <trkpt lat="44.47771" lon="6.70647">
        <ele>1893</ele>
        <time>2022-03-11T09:11:08.000Z</time>
      </trkpt>
      <trkpt lat="44.47772" lon="6.70647">
        <ele>1893</ele>
        <time>2022-03-11T09:11:09.000Z</time>
      </trkpt>
      <trkpt lat="44.47772" lon="6.70646">
        <ele>1893.1999511719</ele>
        <time>2022-03-11T09:11:11.000Z</time>
      </trkpt>
      <trkpt lat="44.47775" lon="6.70641">
        <ele>1893.5999755859</ele>
        <time>2022-03-11T09:11:16.000Z</time>
      </trkpt>
      <trkpt lat="44.47778" lon="6.70638">
        <ele>1893.5999755859</ele>
        <time>2022-03-11T09:11:20.000Z</time>
      </trkpt>
      <trkpt lat="44.4778" lon="6.70631">
        <ele>1893.5999755859</ele>
        <time>2022-03-11T09:11:28.000Z</time>
      </trkpt>
      <trkpt lat="44.4778" lon="6.70629">
        <ele>1894</ele>
        <time>2022-03-11T09:11:30.000Z</time>
      </trkpt>
      <trkpt lat="44.47779" lon="6.70625">
        <ele>1895.1999511719</ele>
        <time>2022-03-11T09:11:35.000Z</time>
      </trkpt>
      <trkpt lat="44.47778" lon="6.70622">
        <ele>1895.8000488281</ele>
        <time>2022-03-11T09:11:45.000Z</time>
      </trkpt>
      <trkpt lat="44.47778" lon="6.70622">
        <ele>1895</ele>
        <time>2022-03-11T09:11:54.000Z</time>
      </trkpt>
      <trkpt lat="44.47778" lon="6.70621">
        <ele>1896.1999511719</ele>
        <time>2022-03-11T09:12:02.000Z</time>
      </trkpt>
      <trkpt lat="44.47783" lon="6.7062">
        <ele>1896.1999511719</ele>
        <time>2022-03-11T09:12:17.000Z</time>
      </trkpt>
      <trkpt lat="44.47782" lon="6.7062">
        <ele>1896.8000488281</ele>
        <time>2022-03-11T09:12:40.000Z</time>
      </trkpt>
      <trkpt lat="44.47781" lon="6.70617">
        <ele>1896.8000488281</ele>
        <time>2022-03-11T09:14:39.000Z</time>
      </trkpt>
      <trkpt lat="44.47783" lon="6.7062">
        <ele>1897.1999511719</ele>
        <time>2022-03-11T09:15:34.000Z</time>
      </trkpt>
      <trkpt lat="44.47784" lon="6.7062">
        <ele>1898.1999511719</ele>
        <time>2022-03-11T09:16:42.000Z</time>
      </trkpt>
      <trkpt lat="44.47778" lon="6.7062">
        <ele>1897.1999511719</ele>
        <time>2022-03-11T09:18:40.000Z</time>
      </trkpt>
      <trkpt lat="44.47776" lon="6.70624">
        <ele>1898.1999511719</ele>
        <time>2022-03-11T09:19:00.000Z</time>
      </trkpt>
      <trkpt lat="44.47774" lon="6.70626">
        <ele>1899.4000244141</ele>
        <time>2022-03-11T09:19:06.000Z</time>
      </trkpt>
      <trkpt lat="44.47771" lon="6.70625">
        <ele>1900.4000244141</ele>
        <time>2022-03-11T09:19:12.000Z</time>
      </trkpt>
      <trkpt lat="44.47767" lon="6.70617">
        <ele>1901.5999755859</ele>
        <time>2022-03-11T09:19:17.000Z</time>
      </trkpt>
      <trkpt lat="44.47766" lon="6.70614">
        <ele>1902</ele>
        <time>2022-03-11T09:19:19.000Z</time>
      </trkpt>
      <trkpt lat="44.47764" lon="6.70609">
        <ele>1902.5999755859</ele>
        <time>2022-03-11T09:19:22.000Z</time>
      </trkpt>
      <trkpt lat="44.47764" lon="6.70604">
        <ele>1903.4000244141</ele>
        <time>2022-03-11T09:19:27.000Z</time>
      </trkpt>
      <trkpt lat="44.47764" lon="6.70604">
        <ele>1903.5999755859</ele>
        <time>2022-03-11T09:19:28.000Z</time>
      </trkpt>
      <trkpt lat="44.47764" lon="6.706">
        <ele>1904.5999755859</ele>
        <time>2022-03-11T09:19:33.000Z</time>
      </trkpt>
      <trkpt lat="44.47763" lon="6.70596">
        <ele>1905.8000488281</ele>
        <time>2022-03-11T09:19:39.000Z</time>
      </trkpt>
      <trkpt lat="44.47763" lon="6.70596">
        <ele>1906</ele>
        <time>2022-03-11T09:19:40.000Z</time>
      </trkpt>
      <trkpt lat="44.47762" lon="6.70594">
        <ele>1906.8000488281</ele>
        <time>2022-03-11T09:19:44.000Z</time>
      </trkpt>
      <trkpt lat="44.4776" lon="6.70592">
        <ele>1907.1999511719</ele>
        <time>2022-03-11T09:19:49.000Z</time>
      </trkpt>
      <trkpt lat="44.47761" lon="6.7059">
        <ele>1908</ele>
        <time>2022-03-11T09:19:52.000Z</time>
      </trkpt>
      <trkpt lat="44.47761" lon="6.70587">
        <ele>1909</ele>
        <time>2022-03-11T09:19:58.000Z</time>
      </trkpt>
      <trkpt lat="44.4776" lon="6.70587">
        <ele>1910</ele>
        <time>2022-03-11T09:20:04.000Z</time>
      </trkpt>
      <trkpt lat="44.47759" lon="6.70587">
        <ele>1910.1999511719</ele>
        <time>2022-03-11T09:20:05.000Z</time>
      </trkpt>
      <trkpt lat="44.4776" lon="6.70587">
        <ele>1910.1999511719</ele>
        <time>2022-03-11T09:20:25.000Z</time>
      </trkpt>
      <trkpt lat="44.4776" lon="6.70586">
        <ele>1911.1999511719</ele>
        <time>2022-03-11T09:20:32.000Z</time>
      </trkpt>
      <trkpt lat="44.4776" lon="6.70586">
        <ele>1912.4000244141</ele>
        <time>2022-03-11T09:20:36.000Z</time>
      </trkpt>
      <trkpt lat="44.47758" lon="6.70589">
        <ele>1913.4000244141</ele>
        <time>2022-03-11T09:20:53.000Z</time>
      </trkpt>
      <trkpt lat="44.47756" lon="6.70595">
        <ele>1914.4000244141</ele>
        <time>2022-03-11T09:21:00.000Z</time>
      </trkpt>
      <trkpt lat="44.47754" lon="6.70601">
        <ele>1915</ele>
        <time>2022-03-11T09:21:03.000Z</time>
      </trkpt>
      <trkpt lat="44.47751" lon="6.70608">
        <ele>1915.4000244141</ele>
        <time>2022-03-11T09:21:07.000Z</time>
      </trkpt>
      <trkpt lat="44.47751" lon="6.70609">
        <ele>1915.5999755859</ele>
        <time>2022-03-11T09:21:09.000Z</time>
      </trkpt>
      <trkpt lat="44.47755" lon="6.70606">
        <ele>1915.5999755859</ele>
        <time>2022-03-11T09:21:16.000Z</time>
      </trkpt>
      <trkpt lat="44.47754" lon="6.70608">
        <ele>1915.4000244141</ele>
        <time>2022-03-11T09:21:24.000Z</time>
      </trkpt>
      <trkpt lat="44.47753" lon="6.70609">
        <ele>1915.5999755859</ele>
        <time>2022-03-11T09:21:38.000Z</time>
      </trkpt>
      <trkpt lat="44.47747" lon="6.70605">
        <ele>1916.5999755859</ele>
        <time>2022-03-11T09:21:45.000Z</time>
      </trkpt>
      <trkpt lat="44.47743" lon="6.70602">
        <ele>1916.8000488281</ele>
        <time>2022-03-11T09:21:47.000Z</time>
      </trkpt>
      <trkpt lat="44.47737" lon="6.70599">
        <ele>1917.1999511719</ele>
        <time>2022-03-11T09:21:52.000Z</time>
      </trkpt>
      <trkpt lat="44.47735" lon="6.70597">
        <ele>1917.4000244141</ele>
        <time>2022-03-11T09:22:01.000Z</time>
      </trkpt>
      <trkpt lat="44.47734" lon="6.70599">
        <ele>1917.5999755859</ele>
        <time>2022-03-11T09:22:04.000Z</time>
      </trkpt>
      <trkpt lat="44.47734" lon="6.70599">
        <ele>1917.5999755859</ele>
        <time>2022-03-11T09:22:09.000Z</time>
      </trkpt>
      <trkpt lat="44.47735" lon="6.70604">
        <ele>1918.5999755859</ele>
        <time>2022-03-11T09:22:15.000Z</time>
      </trkpt>
      <trkpt lat="44.47735" lon="6.70604">
        <ele>1918.8000488281</ele>
        <time>2022-03-11T09:22:16.000Z</time>
      </trkpt>
      <trkpt lat="44.47733" lon="6.70606">
        <ele>1919.5999755859</ele>
        <time>2022-03-11T09:22:20.000Z</time>
      </trkpt>
      <trkpt lat="44.47732" lon="6.70605">
        <ele>1920.4000244141</ele>
        <time>2022-03-11T09:22:25.000Z</time>
      </trkpt>
      <trkpt lat="44.47731" lon="6.70602">
        <ele>1920.5999755859</ele>
        <time>2022-03-11T09:22:30.000Z</time>
      </trkpt>
      <trkpt lat="44.4773" lon="6.70601">
        <ele>1921.1999511719</ele>
        <time>2022-03-11T09:22:32.000Z</time>
      </trkpt>
      <trkpt lat="44.47729" lon="6.706">
        <ele>1921.8000488281</ele>
        <time>2022-03-11T09:22:35.000Z</time>
      </trkpt>
      <trkpt lat="44.47728" lon="6.70596">
        <ele>1922.8000488281</ele>
        <time>2022-03-11T09:22:41.000Z</time>
      </trkpt>
      <trkpt lat="44.47728" lon="6.70595">
        <ele>1923.1999511719</ele>
        <time>2022-03-11T09:22:43.000Z</time>
      </trkpt>
      <trkpt lat="44.47728" lon="6.70592">
        <ele>1924</ele>
        <time>2022-03-11T09:22:47.000Z</time>
      </trkpt>
      <trkpt lat="44.47729" lon="6.70587">
        <ele>1925.1999511719</ele>
        <time>2022-03-11T09:22:52.000Z</time>
      </trkpt>
      <trkpt lat="44.47729" lon="6.70585">
        <ele>1925.8000488281</ele>
        <time>2022-03-11T09:22:55.000Z</time>
      </trkpt>
      <trkpt lat="44.47728" lon="6.70582">
        <ele>1926.4000244141</ele>
        <time>2022-03-11T09:22:57.000Z</time>
      </trkpt>
      <trkpt lat="44.47729" lon="6.70578">
        <ele>1927.5999755859</ele>
        <time>2022-03-11T09:23:03.000Z</time>
      </trkpt>
      <trkpt lat="44.47729" lon="6.70575">
        <ele>1928.1999511719</ele>
        <time>2022-03-11T09:23:07.000Z</time>
      </trkpt>
      <trkpt lat="44.47729" lon="6.70573">
        <ele>1929</ele>
        <time>2022-03-11T09:23:10.000Z</time>
      </trkpt>
      <trkpt lat="44.47727" lon="6.70569">
        <ele>1930.1999511719</ele>
        <time>2022-03-11T09:23:17.000Z</time>
      </trkpt>
      <trkpt lat="44.47727" lon="6.70567">
        <ele>1930.8000488281</ele>
        <time>2022-03-11T09:23:22.000Z</time>
      </trkpt>
      <trkpt lat="44.47727" lon="6.70565">
        <ele>1931.1999511719</ele>
        <time>2022-03-11T09:23:24.000Z</time>
      </trkpt>
      <trkpt lat="44.47728" lon="6.7056">
        <ele>1931.5999755859</ele>
        <time>2022-03-11T09:23:32.000Z</time>
      </trkpt>
      <trkpt lat="44.47728" lon="6.70557">
        <ele>1932.1999511719</ele>
        <time>2022-03-11T09:23:35.000Z</time>
      </trkpt>
      <trkpt lat="44.47727" lon="6.70551">
        <ele>1932.8000488281</ele>
        <time>2022-03-11T09:23:41.000Z</time>
      </trkpt>
      <trkpt lat="44.47727" lon="6.70549">
        <ele>1933.4000244141</ele>
        <time>2022-03-11T09:23:43.000Z</time>
      </trkpt>
      <trkpt lat="44.47727" lon="6.70548">
        <ele>1933.5999755859</ele>
        <time>2022-03-11T09:23:44.000Z</time>
      </trkpt>
      <trkpt lat="44.47727" lon="6.70545">
        <ele>1934.1999511719</ele>
        <time>2022-03-11T09:23:49.000Z</time>
      </trkpt>
      <trkpt lat="44.47726" lon="6.70543">
        <ele>1934.4000244141</ele>
        <time>2022-03-11T09:23:51.000Z</time>
      </trkpt>
      <trkpt lat="44.47727" lon="6.70545">
        <ele>1935.5999755859</ele>
        <time>2022-03-11T09:23:56.000Z</time>
      </trkpt>
      <trkpt lat="44.47727" lon="6.70545">
        <ele>1935.8000488281</ele>
        <time>2022-03-11T09:23:57.000Z</time>
      </trkpt>
      <trkpt lat="44.47725" lon="6.70545">
        <ele>1936.5999755859</ele>
        <time>2022-03-11T09:24:01.000Z</time>
      </trkpt>
      <trkpt lat="44.47723" lon="6.70546">
        <ele>1937.5999755859</ele>
        <time>2022-03-11T09:24:05.000Z</time>
      </trkpt>
      <trkpt lat="44.47723" lon="6.70546">
        <ele>1938</ele>
        <time>2022-03-11T09:24:06.000Z</time>
      </trkpt>
      <trkpt lat="44.47721" lon="6.70547">
        <ele>1938.5999755859</ele>
        <time>2022-03-11T09:24:10.000Z</time>
      </trkpt>
      <trkpt lat="44.47721" lon="6.70548">
        <ele>1939</ele>
        <time>2022-03-11T09:24:13.000Z</time>
      </trkpt>
      <trkpt lat="44.47719" lon="6.70549">
        <ele>1939</ele>
        <time>2022-03-11T09:24:15.000Z</time>
      </trkpt>
      <trkpt lat="44.47716" lon="6.70551">
        <ele>1940.1999511719</ele>
        <time>2022-03-11T09:24:23.000Z</time>
      </trkpt>
      <trkpt lat="44.47713" lon="6.70553">
        <ele>1941.4000244141</ele>
        <time>2022-03-11T09:24:27.000Z</time>
      </trkpt>
      <trkpt lat="44.47711" lon="6.70553">
        <ele>1942.1999511719</ele>
        <time>2022-03-11T09:24:31.000Z</time>
      </trkpt>
      <trkpt lat="44.47709" lon="6.70553">
        <ele>1942.5999755859</ele>
        <time>2022-03-11T09:24:33.000Z</time>
      </trkpt>
      <trkpt lat="44.47707" lon="6.70554">
        <ele>1943.5999755859</ele>
        <time>2022-03-11T09:24:38.000Z</time>
      </trkpt>
      <trkpt lat="44.47704" lon="6.70556">
        <ele>1943.8000488281</ele>
        <time>2022-03-11T09:24:40.000Z</time>
      </trkpt>
      <trkpt lat="44.47701" lon="6.70556">
        <ele>1944.8000488281</ele>
        <time>2022-03-11T09:24:45.000Z</time>
      </trkpt>
      <trkpt lat="44.477" lon="6.70556">
        <ele>1944.8000488281</ele>
        <time>2022-03-11T09:24:47.000Z</time>
      </trkpt>
      <trkpt lat="44.47697" lon="6.70559">
        <ele>1945</ele>
        <time>2022-03-11T09:24:49.000Z</time>
      </trkpt>
      <trkpt lat="44.47693" lon="6.7056">
        <ele>1945.4000244141</ele>
        <time>2022-03-11T09:24:54.000Z</time>
      </trkpt>
      <trkpt lat="44.47693" lon="6.7056">
        <ele>1945.5999755859</ele>
        <time>2022-03-11T09:24:55.000Z</time>
      </trkpt>
      <trkpt lat="44.47692" lon="6.70559">
        <ele>1945.8000488281</ele>
        <time>2022-03-11T09:24:57.000Z</time>
      </trkpt>
      <trkpt lat="44.47689" lon="6.70562">
        <ele>1946.5999755859</ele>
        <time>2022-03-11T09:25:02.000Z</time>
      </trkpt>
      <trkpt lat="44.47688" lon="6.70564">
        <ele>1946.8000488281</ele>
        <time>2022-03-11T09:25:04.000Z</time>
      </trkpt>
      <trkpt lat="44.47685" lon="6.70567">
        <ele>1947.8000488281</ele>
        <time>2022-03-11T09:25:10.000Z</time>
      </trkpt>
      <trkpt lat="44.47684" lon="6.70568">
        <ele>1948</ele>
        <time>2022-03-11T09:25:11.000Z</time>
      </trkpt>
      <trkpt lat="44.47683" lon="6.70569">
        <ele>1948.4000244141</ele>
        <time>2022-03-11T09:25:13.000Z</time>
      </trkpt>
      <trkpt lat="44.47679" lon="6.7057">
        <ele>1948.8000488281</ele>
        <time>2022-03-11T09:25:19.000Z</time>
      </trkpt>
      <trkpt lat="44.47676" lon="6.70573">
        <ele>1949</ele>
        <time>2022-03-11T09:25:25.000Z</time>
      </trkpt>
      <trkpt lat="44.47675" lon="6.70574">
        <ele>1949.4000244141</ele>
        <time>2022-03-11T09:25:27.000Z</time>
      </trkpt>
      <trkpt lat="44.47672" lon="6.70576">
        <ele>1950</ele>
        <time>2022-03-11T09:25:32.000Z</time>
      </trkpt>
      <trkpt lat="44.47667" lon="6.70575">
        <ele>1951</ele>
        <time>2022-03-11T09:25:37.000Z</time>
      </trkpt>
      <trkpt lat="44.47666" lon="6.70574">
        <ele>1951.1999511719</ele>
        <time>2022-03-11T09:25:38.000Z</time>
      </trkpt>
      <trkpt lat="44.47662" lon="6.70572">
        <ele>1952.1999511719</ele>
        <time>2022-03-11T09:25:43.000Z</time>
      </trkpt>
      <trkpt lat="44.47661" lon="6.7057">
        <ele>1952.5999755859</ele>
        <time>2022-03-11T09:25:45.000Z</time>
      </trkpt>
      <trkpt lat="44.47659" lon="6.70565">
        <ele>1953.1999511719</ele>
        <time>2022-03-11T09:25:48.000Z</time>
      </trkpt>
      <trkpt lat="44.47657" lon="6.70562">
        <ele>1954.4000244141</ele>
        <time>2022-03-11T09:25:52.000Z</time>
      </trkpt>
      <trkpt lat="44.47657" lon="6.70561">
        <ele>1954.8000488281</ele>
        <time>2022-03-11T09:25:54.000Z</time>
      </trkpt>
      <trkpt lat="44.47655" lon="6.70558">
        <ele>1955.4000244141</ele>
        <time>2022-03-11T09:25:57.000Z</time>
      </trkpt>
      <trkpt lat="44.47655" lon="6.70556">
        <ele>1956.5999755859</ele>
        <time>2022-03-11T09:26:01.000Z</time>
      </trkpt>
      <trkpt lat="44.47655" lon="6.70553">
        <ele>1957.1999511719</ele>
        <time>2022-03-11T09:26:05.000Z</time>
      </trkpt>
      <trkpt lat="44.47654" lon="6.70552">
        <ele>1957.5999755859</ele>
        <time>2022-03-11T09:26:07.000Z</time>
      </trkpt>
      <trkpt lat="44.47654" lon="6.70552">
        <ele>1958.4000244141</ele>
        <time>2022-03-11T09:26:12.000Z</time>
      </trkpt>
      <trkpt lat="44.47653" lon="6.70552">
        <ele>1958.8000488281</ele>
        <time>2022-03-11T09:26:13.000Z</time>
      </trkpt>
      <trkpt lat="44.47651" lon="6.70553">
        <ele>1959.8000488281</ele>
        <time>2022-03-11T09:26:19.000Z</time>
      </trkpt>
      <trkpt lat="44.4765" lon="6.70553">
        <ele>1960.1999511719</ele>
        <time>2022-03-11T09:26:22.000Z</time>
      </trkpt>
      <trkpt lat="44.47649" lon="6.70555">
        <ele>1961</ele>
        <time>2022-03-11T09:26:26.000Z</time>
      </trkpt>
      <trkpt lat="44.47648" lon="6.70557">
        <ele>1961.5999755859</ele>
        <time>2022-03-11T09:26:29.000Z</time>
      </trkpt>
      <trkpt lat="44.47647" lon="6.70558">
        <ele>1962</ele>
        <time>2022-03-11T09:26:32.000Z</time>
      </trkpt>
      <trkpt lat="44.47641" lon="6.70557">
        <ele>1962.1999511719</ele>
        <time>2022-03-11T09:26:37.000Z</time>
      </trkpt>
      <trkpt lat="44.47636" lon="6.70554">
        <ele>1962.8000488281</ele>
        <time>2022-03-11T09:26:47.000Z</time>
      </trkpt>
      <trkpt lat="44.47634" lon="6.70553">
        <ele>1963.1999511719</ele>
        <time>2022-03-11T09:26:49.000Z</time>
      </trkpt>
      <trkpt lat="44.4763" lon="6.70552">
        <ele>1963.8000488281</ele>
        <time>2022-03-11T09:26:56.000Z</time>
      </trkpt>
      <trkpt lat="44.47629" lon="6.70551">
        <ele>1964.1999511719</ele>
        <time>2022-03-11T09:26:58.000Z</time>
      </trkpt>
      <trkpt lat="44.47627" lon="6.7055">
        <ele>1965.1999511719</ele>
        <time>2022-03-11T09:27:04.000Z</time>
      </trkpt>
      <trkpt lat="44.47626" lon="6.70547">
        <ele>1965.5999755859</ele>
        <time>2022-03-11T09:27:06.000Z</time>
      </trkpt>
      <trkpt lat="44.47622" lon="6.70548">
        <ele>1966.4000244141</ele>
        <time>2022-03-11T09:27:11.000Z</time>
      </trkpt>
      <trkpt lat="44.47623" lon="6.70548">
        <ele>1966.8000488281</ele>
        <time>2022-03-11T09:27:14.000Z</time>
      </trkpt>
      <trkpt lat="44.47619" lon="6.70549">
        <ele>1967.4000244141</ele>
        <time>2022-03-11T09:27:20.000Z</time>
      </trkpt>
      <trkpt lat="44.47617" lon="6.7055">
        <ele>1968.1999511719</ele>
        <time>2022-03-11T09:27:24.000Z</time>
      </trkpt>
      <trkpt lat="44.47615" lon="6.70549">
        <ele>1968.8000488281</ele>
        <time>2022-03-11T09:27:26.000Z</time>
      </trkpt>
      <trkpt lat="44.47612" lon="6.70541">
        <ele>1969.8000488281</ele>
        <time>2022-03-11T09:27:32.000Z</time>
      </trkpt>
      <trkpt lat="44.47612" lon="6.70539">
        <ele>1970</ele>
        <time>2022-03-11T09:27:33.000Z</time>
      </trkpt>
      <trkpt lat="44.47611" lon="6.70531">
        <ele>1970.8000488281</ele>
        <time>2022-03-11T09:27:41.000Z</time>
      </trkpt>
      <trkpt lat="44.47611" lon="6.70531">
        <ele>1971</ele>
        <time>2022-03-11T09:27:42.000Z</time>
      </trkpt>
      <trkpt lat="44.47607" lon="6.70528">
        <ele>1972</ele>
        <time>2022-03-11T09:27:50.000Z</time>
      </trkpt>
      <trkpt lat="44.47604" lon="6.70522">
        <ele>1973.1999511719</ele>
        <time>2022-03-11T09:27:58.000Z</time>
      </trkpt>
      <trkpt lat="44.47603" lon="6.7052">
        <ele>1973.5999755859</ele>
        <time>2022-03-11T09:28:00.000Z</time>
      </trkpt>
      <trkpt lat="44.47602" lon="6.70515">
        <ele>1974.1999511719</ele>
        <time>2022-03-11T09:28:04.000Z</time>
      </trkpt>
      <trkpt lat="44.47603" lon="6.70512">
        <ele>1974.8000488281</ele>
        <time>2022-03-11T09:28:09.000Z</time>
      </trkpt>
      <trkpt lat="44.47602" lon="6.70513">
        <ele>1975.1999511719</ele>
        <time>2022-03-11T09:28:12.000Z</time>
      </trkpt>
      <trkpt lat="44.476" lon="6.70515">
        <ele>1975.5999755859</ele>
        <time>2022-03-11T09:28:17.000Z</time>
      </trkpt>
      <trkpt lat="44.47599" lon="6.70516">
        <ele>1976.1999511719</ele>
        <time>2022-03-11T09:28:20.000Z</time>
      </trkpt>
      <trkpt lat="44.47599" lon="6.70518">
        <ele>1977.4000244141</ele>
        <time>2022-03-11T09:28:24.000Z</time>
      </trkpt>
      <trkpt lat="44.47599" lon="6.7052">
        <ele>1977.8000488281</ele>
        <time>2022-03-11T09:28:26.000Z</time>
      </trkpt>
      <trkpt lat="44.47599" lon="6.70521">
        <ele>1978.4000244141</ele>
        <time>2022-03-11T09:28:29.000Z</time>
      </trkpt>
      <trkpt lat="44.47598" lon="6.70521">
        <ele>1979.1999511719</ele>
        <time>2022-03-11T09:28:34.000Z</time>
      </trkpt>
      <trkpt lat="44.47596" lon="6.70521">
        <ele>1979.5999755859</ele>
        <time>2022-03-11T09:28:36.000Z</time>
      </trkpt>
      <trkpt lat="44.47588" lon="6.70517">
        <ele>1980.4000244141</ele>
        <time>2022-03-11T09:28:42.000Z</time>
      </trkpt>
      <trkpt lat="44.47586" lon="6.70513">
        <ele>1980.8000488281</ele>
        <time>2022-03-11T09:28:45.000Z</time>
      </trkpt>
      <trkpt lat="44.47584" lon="6.70509">
        <ele>1981.8000488281</ele>
        <time>2022-03-11T09:28:51.000Z</time>
      </trkpt>
      <trkpt lat="44.47583" lon="6.70508">
        <ele>1982</ele>
        <time>2022-03-11T09:28:52.000Z</time>
      </trkpt>
      <trkpt lat="44.47583" lon="6.70504">
        <ele>1983</ele>
        <time>2022-03-11T09:28:57.000Z</time>
      </trkpt>
      <trkpt lat="44.47583" lon="6.70502">
        <ele>1983.1999511719</ele>
        <time>2022-03-11T09:28:58.000Z</time>
      </trkpt>
      <trkpt lat="44.47583" lon="6.70499">
        <ele>1983.8000488281</ele>
        <time>2022-03-11T09:29:04.000Z</time>
      </trkpt>
      <trkpt lat="44.47583" lon="6.70499">
        <ele>1984</ele>
        <time>2022-03-11T09:29:06.000Z</time>
      </trkpt>
      <trkpt lat="44.47583" lon="6.70498">
        <ele>1985</ele>
        <time>2022-03-11T09:29:10.000Z</time>
      </trkpt>
      <trkpt lat="44.47582" lon="6.70496">
        <ele>1985.4000244141</ele>
        <time>2022-03-11T09:29:13.000Z</time>
      </trkpt>
      <trkpt lat="44.4758" lon="6.70496">
        <ele>1986.1999511719</ele>
        <time>2022-03-11T09:29:17.000Z</time>
      </trkpt>
      <trkpt lat="44.47577" lon="6.70498">
        <ele>1987</ele>
        <time>2022-03-11T09:29:23.000Z</time>
      </trkpt>
      <trkpt lat="44.47577" lon="6.70498">
        <ele>1987</ele>
        <time>2022-03-11T09:29:24.000Z</time>
      </trkpt>
      <trkpt lat="44.47575" lon="6.70498">
        <ele>1987.1999511719</ele>
        <time>2022-03-11T09:29:27.000Z</time>
      </trkpt>
      <trkpt lat="44.47573" lon="6.70496">
        <ele>1987.8000488281</ele>
        <time>2022-03-11T09:29:31.000Z</time>
      </trkpt>
      <trkpt lat="44.47572" lon="6.70493">
        <ele>1988.4000244141</ele>
        <time>2022-03-11T09:29:36.000Z</time>
      </trkpt>
      <trkpt lat="44.47571" lon="6.70492">
        <ele>1988.5999755859</ele>
        <time>2022-03-11T09:29:37.000Z</time>
      </trkpt>
      <trkpt lat="44.47572" lon="6.70482">
        <ele>1989.4000244141</ele>
        <time>2022-03-11T09:29:44.000Z</time>
      </trkpt>
      <trkpt lat="44.47573" lon="6.70475">
        <ele>1990.5999755859</ele>
        <time>2022-03-11T09:29:51.000Z</time>
      </trkpt>
      <trkpt lat="44.47574" lon="6.70474">
        <ele>1990.8000488281</ele>
        <time>2022-03-11T09:29:53.000Z</time>
      </trkpt>
      <trkpt lat="44.47573" lon="6.70465">
        <ele>1991.5999755859</ele>
        <time>2022-03-11T09:30:06.000Z</time>
      </trkpt>
      <trkpt lat="44.47573" lon="6.70465">
        <ele>1992.8000488281</ele>
        <time>2022-03-11T09:30:10.000Z</time>
      </trkpt>
      <trkpt lat="44.47575" lon="6.70465">
        <ele>1993.5999755859</ele>
        <time>2022-03-11T09:30:14.000Z</time>
      </trkpt>
      <trkpt lat="44.47575" lon="6.70465">
        <ele>1993.8000488281</ele>
        <time>2022-03-11T09:30:15.000Z</time>
      </trkpt>
      <trkpt lat="44.47573" lon="6.70467">
        <ele>1995</ele>
        <time>2022-03-11T09:30:21.000Z</time>
      </trkpt>
      <trkpt lat="44.47571" lon="6.70466">
        <ele>1995.5999755859</ele>
        <time>2022-03-11T09:30:24.000Z</time>
      </trkpt>
      <trkpt lat="44.4757" lon="6.70469">
        <ele>1996</ele>
        <time>2022-03-11T09:30:28.000Z</time>
      </trkpt>
      <trkpt lat="44.47569" lon="6.70469">
        <ele>1996.4000244141</ele>
        <time>2022-03-11T09:30:30.000Z</time>
      </trkpt>
      <trkpt lat="44.47567" lon="6.70471">
        <ele>1997.1999511719</ele>
        <time>2022-03-11T09:30:35.000Z</time>
      </trkpt>
      <trkpt lat="44.47566" lon="6.70474">
        <ele>1997.4000244141</ele>
        <time>2022-03-11T09:30:38.000Z</time>
      </trkpt>
      <trkpt lat="44.47563" lon="6.70476">
        <ele>1998.5999755859</ele>
        <time>2022-03-11T09:30:43.000Z</time>
      </trkpt>
      <trkpt lat="44.47561" lon="6.70477">
        <ele>1999.5999755859</ele>
        <time>2022-03-11T09:30:46.000Z</time>
      </trkpt>
      <trkpt lat="44.47561" lon="6.70477">
        <ele>1999.8000488281</ele>
        <time>2022-03-11T09:30:47.000Z</time>
      </trkpt>
      <trkpt lat="44.47557" lon="6.70475">
        <ele>2000.5999755859</ele>
        <time>2022-03-11T09:30:52.000Z</time>
      </trkpt>
      <trkpt lat="44.47555" lon="6.70474">
        <ele>2000.8000488281</ele>
        <time>2022-03-11T09:30:54.000Z</time>
      </trkpt>
      <trkpt lat="44.47552" lon="6.70468">
        <ele>2001.8000488281</ele>
        <time>2022-03-11T09:31:00.000Z</time>
      </trkpt>
      <trkpt lat="44.47551" lon="6.70467">
        <ele>2002</ele>
        <time>2022-03-11T09:31:01.000Z</time>
      </trkpt>
      <trkpt lat="44.4755" lon="6.70459">
        <ele>2003</ele>
        <time>2022-03-11T09:31:08.000Z</time>
      </trkpt>
      <trkpt lat="44.47548" lon="6.70455">
        <ele>2003.8000488281</ele>
        <time>2022-03-11T09:31:12.000Z</time>
      </trkpt>
      <trkpt lat="44.47547" lon="6.70455">
        <ele>2004</ele>
        <time>2022-03-11T09:31:13.000Z</time>
      </trkpt>
      <trkpt lat="44.47546" lon="6.7045">
        <ele>2004.5999755859</ele>
        <time>2022-03-11T09:31:19.000Z</time>
      </trkpt>
      <trkpt lat="44.47545" lon="6.70447">
        <ele>2005</ele>
        <time>2022-03-11T09:31:22.000Z</time>
      </trkpt>
      <trkpt lat="44.47544" lon="6.70444">
        <ele>2005.5999755859</ele>
        <time>2022-03-11T09:31:26.000Z</time>
      </trkpt>
      <trkpt lat="44.47543" lon="6.7044">
        <ele>2006</ele>
        <time>2022-03-11T09:31:30.000Z</time>
      </trkpt>
      <trkpt lat="44.47543" lon="6.70435">
        <ele>2007</ele>
        <time>2022-03-11T09:31:34.000Z</time>
      </trkpt>
      <trkpt lat="44.47543" lon="6.70433">
        <ele>2007.4000244141</ele>
        <time>2022-03-11T09:31:36.000Z</time>
      </trkpt>
      <trkpt lat="44.47542" lon="6.70426">
        <ele>2008.1999511719</ele>
        <time>2022-03-11T09:31:45.000Z</time>
      </trkpt>
      <trkpt lat="44.47542" lon="6.70422">
        <ele>2009.1999511719</ele>
        <time>2022-03-11T09:31:50.000Z</time>
      </trkpt>
      <trkpt lat="44.47541" lon="6.70421">
        <ele>2009.1999511719</ele>
        <time>2022-03-11T09:31:51.000Z</time>
      </trkpt>
      <trkpt lat="44.4754" lon="6.70414">
        <ele>2010.1999511719</ele>
        <time>2022-03-11T09:31:59.000Z</time>
      </trkpt>
      <trkpt lat="44.4754" lon="6.70413">
        <ele>2010.4000244141</ele>
        <time>2022-03-11T09:32:00.000Z</time>
      </trkpt>
      <trkpt lat="44.47539" lon="6.70408">
        <ele>2011.4000244141</ele>
        <time>2022-03-11T09:32:05.000Z</time>
      </trkpt>
      <trkpt lat="44.47539" lon="6.70405">
        <ele>2012</ele>
        <time>2022-03-11T09:32:09.000Z</time>
      </trkpt>
      <trkpt lat="44.47539" lon="6.70402">
        <ele>2012.4000244141</ele>
        <time>2022-03-11T09:32:12.000Z</time>
      </trkpt>
      <trkpt lat="44.47541" lon="6.70396">
        <ele>2013.5999755859</ele>
        <time>2022-03-11T09:32:20.000Z</time>
      </trkpt>
      <trkpt lat="44.47542" lon="6.70392">
        <ele>2015</ele>
        <time>2022-03-11T09:32:25.000Z</time>
      </trkpt>
      <trkpt lat="44.47542" lon="6.70389">
        <ele>2015.8000488281</ele>
        <time>2022-03-11T09:32:28.000Z</time>
      </trkpt>
      <trkpt lat="44.47542" lon="6.70387">
        <ele>2015.8000488281</ele>
        <time>2022-03-11T09:32:29.000Z</time>
      </trkpt>
      <trkpt lat="44.47543" lon="6.70383">
        <ele>2016</ele>
        <time>2022-03-11T09:32:33.000Z</time>
      </trkpt>
      <trkpt lat="44.47543" lon="6.7038">
        <ele>2016.1999511719</ele>
        <time>2022-03-11T09:32:35.000Z</time>
      </trkpt>
      <trkpt lat="44.47543" lon="6.70377">
        <ele>2017.1999511719</ele>
        <time>2022-03-11T09:32:40.000Z</time>
      </trkpt>
      <trkpt lat="44.47543" lon="6.70375">
        <ele>2017.5999755859</ele>
        <time>2022-03-11T09:32:43.000Z</time>
      </trkpt>
      <trkpt lat="44.47543" lon="6.70369">
        <ele>2017.8000488281</ele>
        <time>2022-03-11T09:32:50.000Z</time>
      </trkpt>
      <trkpt lat="44.47542" lon="6.70366">
        <ele>2018</ele>
        <time>2022-03-11T09:32:59.000Z</time>
      </trkpt>
      <trkpt lat="44.47538" lon="6.70364">
        <ele>2018.1999511719</ele>
        <time>2022-03-11T09:33:07.000Z</time>
      </trkpt>
      <trkpt lat="44.47543" lon="6.70364">
        <ele>2018</ele>
        <time>2022-03-11T09:33:16.000Z</time>
      </trkpt>
      <trkpt lat="44.47543" lon="6.70364">
        <ele>2019.4000244141</ele>
        <time>2022-03-11T09:33:23.000Z</time>
      </trkpt>
      <trkpt lat="44.47543" lon="6.70364">
        <ele>2019.5999755859</ele>
        <time>2022-03-11T09:33:26.000Z</time>
      </trkpt>
      <trkpt lat="44.47542" lon="6.70364">
        <ele>2020.4000244141</ele>
        <time>2022-03-11T09:33:29.000Z</time>
      </trkpt>
      <trkpt lat="44.4754" lon="6.70365">
        <ele>2021.5999755859</ele>
        <time>2022-03-11T09:33:36.000Z</time>
      </trkpt>
      <trkpt lat="44.47538" lon="6.70368">
        <ele>2022.5999755859</ele>
        <time>2022-03-11T09:33:42.000Z</time>
      </trkpt>
      <trkpt lat="44.47533" lon="6.7037">
        <ele>2023.1999511719</ele>
        <time>2022-03-11T09:33:46.000Z</time>
      </trkpt>
      <trkpt lat="44.4753" lon="6.70373">
        <ele>2023.5999755859</ele>
        <time>2022-03-11T09:33:52.000Z</time>
      </trkpt>
      <trkpt lat="44.47527" lon="6.70374">
        <ele>2023.8000488281</ele>
        <time>2022-03-11T09:33:56.000Z</time>
      </trkpt>
      <trkpt lat="44.47525" lon="6.70374">
        <ele>2024.4000244141</ele>
        <time>2022-03-11T09:34:04.000Z</time>
      </trkpt>
      <trkpt lat="44.47525" lon="6.70374">
        <ele>2024.5999755859</ele>
        <time>2022-03-11T09:34:07.000Z</time>
      </trkpt>
      <trkpt lat="44.47525" lon="6.70373">
        <ele>2025.8000488281</ele>
        <time>2022-03-11T09:34:14.000Z</time>
      </trkpt>
      <trkpt lat="44.47523" lon="6.70368">
        <ele>2026.8000488281</ele>
        <time>2022-03-11T09:34:23.000Z</time>
      </trkpt>
      <trkpt lat="44.47525" lon="6.70359">
        <ele>2028</ele>
        <time>2022-03-11T09:34:44.000Z</time>
      </trkpt>
      <trkpt lat="44.47525" lon="6.7036">
        <ele>2028.1999511719</ele>
        <time>2022-03-11T09:34:46.000Z</time>
      </trkpt>
      <trkpt lat="44.47523" lon="6.7036">
        <ele>2029</ele>
        <time>2022-03-11T09:34:52.000Z</time>
      </trkpt>
      <trkpt lat="44.47522" lon="6.70361">
        <ele>2029</ele>
        <time>2022-03-11T09:34:53.000Z</time>
      </trkpt>
      <trkpt lat="44.47522" lon="6.70362">
        <ele>2029.8000488281</ele>
        <time>2022-03-11T09:35:02.000Z</time>
      </trkpt>
      <trkpt lat="44.47522" lon="6.70362">
        <ele>2030</ele>
        <time>2022-03-11T09:35:06.000Z</time>
      </trkpt>
      <trkpt lat="44.47522" lon="6.70362">
        <ele>2030.4000244141</ele>
        <time>2022-03-11T09:35:14.000Z</time>
      </trkpt>
      <trkpt lat="44.4752" lon="6.70363">
        <ele>2031.1999511719</ele>
        <time>2022-03-11T09:35:20.000Z</time>
      </trkpt>
      <trkpt lat="44.47518" lon="6.70364">
        <ele>2032.1999511719</ele>
        <time>2022-03-11T09:35:28.000Z</time>
      </trkpt>
      <trkpt lat="44.47514" lon="6.70356">
        <ele>2033.4000244141</ele>
        <time>2022-03-11T09:35:37.000Z</time>
      </trkpt>
      <trkpt lat="44.47513" lon="6.70354">
        <ele>2033.5999755859</ele>
        <time>2022-03-11T09:35:38.000Z</time>
      </trkpt>
      <trkpt lat="44.47511" lon="6.70346">
        <ele>2034.4000244141</ele>
        <time>2022-03-11T09:35:43.000Z</time>
      </trkpt>
      <trkpt lat="44.4751" lon="6.70343">
        <ele>2034.8000488281</ele>
        <time>2022-03-11T09:35:47.000Z</time>
      </trkpt>
      <trkpt lat="44.4751" lon="6.70342">
        <ele>2035.4000244141</ele>
        <time>2022-03-11T09:35:51.000Z</time>
      </trkpt>
      <trkpt lat="44.47511" lon="6.7034">
        <ele>2035.5999755859</ele>
        <time>2022-03-11T09:35:54.000Z</time>
      </trkpt>
      <trkpt lat="44.47511" lon="6.7034">
        <ele>2035.8000488281</ele>
        <time>2022-03-11T09:35:59.000Z</time>
      </trkpt>
      <trkpt lat="44.47515" lon="6.70344">
        <ele>2035.8000488281</ele>
        <time>2022-03-11T09:36:04.000Z</time>
      </trkpt>
      <trkpt lat="44.47519" lon="6.70342">
        <ele>2036.1999511719</ele>
        <time>2022-03-11T09:36:10.000Z</time>
      </trkpt>
      <trkpt lat="44.47518" lon="6.70347">
        <ele>2036.4000244141</ele>
        <time>2022-03-11T09:36:14.000Z</time>
      </trkpt>
      <trkpt lat="44.47516" lon="6.7035">
        <ele>2037</ele>
        <time>2022-03-11T09:36:18.000Z</time>
      </trkpt>
      <trkpt lat="44.47516" lon="6.7035">
        <ele>2037</ele>
        <time>2022-03-11T09:36:19.000Z</time>
      </trkpt>
      <trkpt lat="44.47514" lon="6.70351">
        <ele>2037.5999755859</ele>
        <time>2022-03-11T09:36:22.000Z</time>
      </trkpt>
      <trkpt lat="44.4751" lon="6.7035">
        <ele>2038.1999511719</ele>
        <time>2022-03-11T09:36:25.000Z</time>
      </trkpt>
      <trkpt lat="44.47509" lon="6.70347">
        <ele>2038.5999755859</ele>
        <time>2022-03-11T09:36:28.000Z</time>
      </trkpt>
      <trkpt lat="44.47508" lon="6.70343">
        <ele>2038.8000488281</ele>
        <time>2022-03-11T09:36:31.000Z</time>
      </trkpt>
      <trkpt lat="44.47508" lon="6.70341">
        <ele>2039.1999511719</ele>
        <time>2022-03-11T09:36:34.000Z</time>
      </trkpt>
      <trkpt lat="44.47505" lon="6.70336">
        <ele>2039.5999755859</ele>
        <time>2022-03-11T09:36:39.000Z</time>
      </trkpt>
      <trkpt lat="44.47504" lon="6.70332">
        <ele>2040</ele>
        <time>2022-03-11T09:36:42.000Z</time>
      </trkpt>
      <trkpt lat="44.47505" lon="6.70329">
        <ele>2040.8000488281</ele>
        <time>2022-03-11T09:36:50.000Z</time>
      </trkpt>
      <trkpt lat="44.47504" lon="6.70326">
        <ele>2042</ele>
        <time>2022-03-11T09:36:57.000Z</time>
      </trkpt>
      <trkpt lat="44.47504" lon="6.70325">
        <ele>2042</ele>
        <time>2022-03-11T09:36:58.000Z</time>
      </trkpt>
      <trkpt lat="44.47504" lon="6.7032">
        <ele>2043.1999511719</ele>
        <time>2022-03-11T09:37:04.000Z</time>
      </trkpt>
      <trkpt lat="44.47504" lon="6.70318">
        <ele>2044.1999511719</ele>
        <time>2022-03-11T09:37:06.000Z</time>
      </trkpt>
      <trkpt lat="44.47504" lon="6.70318">
        <ele>2044.4000244141</ele>
        <time>2022-03-11T09:37:07.000Z</time>
      </trkpt>
      <trkpt lat="44.47505" lon="6.70314">
        <ele>2045</ele>
        <time>2022-03-11T09:37:12.000Z</time>
      </trkpt>
      <trkpt lat="44.47506" lon="6.70307">
        <ele>2045.4000244141</ele>
        <time>2022-03-11T09:37:21.000Z</time>
      </trkpt>
      <trkpt lat="44.47506" lon="6.70306">
        <ele>2045.4000244141</ele>
        <time>2022-03-11T09:37:22.000Z</time>
      </trkpt>
      <trkpt lat="44.47505" lon="6.70303">
        <ele>2045.8000488281</ele>
        <time>2022-03-11T09:37:29.000Z</time>
      </trkpt>
      <trkpt lat="44.47506" lon="6.70299">
        <ele>2046</ele>
        <time>2022-03-11T09:37:34.000Z</time>
      </trkpt>
      <trkpt lat="44.47507" lon="6.70297">
        <ele>2046.4000244141</ele>
        <time>2022-03-11T09:37:39.000Z</time>
      </trkpt>
      <trkpt lat="44.47507" lon="6.70298">
        <ele>2046.8000488281</ele>
        <time>2022-03-11T09:37:41.000Z</time>
      </trkpt>
      <trkpt lat="44.47507" lon="6.70298">
        <ele>2047.5999755859</ele>
        <time>2022-03-11T09:37:46.000Z</time>
      </trkpt>
      <trkpt lat="44.47507" lon="6.70298">
        <ele>2047.8000488281</ele>
        <time>2022-03-11T09:37:48.000Z</time>
      </trkpt>
      <trkpt lat="44.47506" lon="6.70301">
        <ele>2048.6000976562</ele>
        <time>2022-03-11T09:37:53.000Z</time>
      </trkpt>
      <trkpt lat="44.47506" lon="6.70302">
        <ele>2048.8000488281</ele>
        <time>2022-03-11T09:37:54.000Z</time>
      </trkpt>
      <trkpt lat="44.47508" lon="6.70302">
        <ele>2049.8000488281</ele>
        <time>2022-03-11T09:37:59.000Z</time>
      </trkpt>
      <trkpt lat="44.47508" lon="6.70302">
        <ele>2050</ele>
        <time>2022-03-11T09:38:00.000Z</time>
      </trkpt>
      <trkpt lat="44.47505" lon="6.703">
        <ele>2050.1999511719</ele>
        <time>2022-03-11T09:38:05.000Z</time>
      </trkpt>
      <trkpt lat="44.47504" lon="6.70297">
        <ele>2050.8000488281</ele>
        <time>2022-03-11T09:38:08.000Z</time>
      </trkpt>
      <trkpt lat="44.47503" lon="6.70294">
        <ele>2051.3999023438</ele>
        <time>2022-03-11T09:38:11.000Z</time>
      </trkpt>
      <trkpt lat="44.475" lon="6.70292">
        <ele>2051.8000488281</ele>
        <time>2022-03-11T09:38:17.000Z</time>
      </trkpt>
      <trkpt lat="44.475" lon="6.70291">
        <ele>2052</ele>
        <time>2022-03-11T09:38:18.000Z</time>
      </trkpt>
      <trkpt lat="44.47499" lon="6.70286">
        <ele>2052.1999511719</ele>
        <time>2022-03-11T09:38:23.000Z</time>
      </trkpt>
      <trkpt lat="44.47499" lon="6.70283">
        <ele>2053.1999511719</ele>
        <time>2022-03-11T09:38:29.000Z</time>
      </trkpt>
      <trkpt lat="44.47499" lon="6.70281">
        <ele>2053.8000488281</ele>
        <time>2022-03-11T09:38:31.000Z</time>
      </trkpt>
      <trkpt lat="44.47499" lon="6.70279">
        <ele>2054.1999511719</ele>
        <time>2022-03-11T09:38:34.000Z</time>
      </trkpt>
      <trkpt lat="44.47498" lon="6.70275">
        <ele>2055.3999023438</ele>
        <time>2022-03-11T09:38:39.000Z</time>
      </trkpt>
      <trkpt lat="44.47497" lon="6.70275">
        <ele>2055.8000488281</ele>
        <time>2022-03-11T09:38:42.000Z</time>
      </trkpt>
      <trkpt lat="44.47497" lon="6.70275">
        <ele>2056.1999511719</ele>
        <time>2022-03-11T09:38:51.000Z</time>
      </trkpt>
      <trkpt lat="44.47497" lon="6.70276">
        <ele>2056.3999023438</ele>
        <time>2022-03-11T09:39:08.000Z</time>
      </trkpt>
      <trkpt lat="44.47497" lon="6.70276">
        <ele>2057.3999023438</ele>
        <time>2022-03-11T09:39:13.000Z</time>
      </trkpt>
      <trkpt lat="44.47497" lon="6.70274">
        <ele>2058.3999023438</ele>
        <time>2022-03-11T09:39:21.000Z</time>
      </trkpt>
      <trkpt lat="44.47496" lon="6.70272">
        <ele>2059.1999511719</ele>
        <time>2022-03-11T09:39:27.000Z</time>
      </trkpt>
      <trkpt lat="44.47496" lon="6.7027">
        <ele>2059.3999023438</ele>
        <time>2022-03-11T09:39:34.000Z</time>
      </trkpt>
      <trkpt lat="44.47497" lon="6.70268">
        <ele>2059.1999511719</ele>
        <time>2022-03-11T09:39:40.000Z</time>
      </trkpt>
      <trkpt lat="44.47495" lon="6.70269">
        <ele>2059.3999023438</ele>
        <time>2022-03-11T09:39:44.000Z</time>
      </trkpt>
      <trkpt lat="44.47495" lon="6.70269">
        <ele>2059.3999023438</ele>
        <time>2022-03-11T09:39:45.000Z</time>
      </trkpt>
      <trkpt lat="44.47494" lon="6.70267">
        <ele>2059.8000488281</ele>
        <time>2022-03-11T09:39:47.000Z</time>
      </trkpt>
      <trkpt lat="44.47491" lon="6.70267">
        <ele>2060.6000976562</ele>
        <time>2022-03-11T09:39:52.000Z</time>
      </trkpt>
      <trkpt lat="44.47491" lon="6.70268">
        <ele>2061</ele>
        <time>2022-03-11T09:39:55.000Z</time>
      </trkpt>
      <trkpt lat="44.47492" lon="6.70269">
        <ele>2061.6000976562</ele>
        <time>2022-03-11T09:39:58.000Z</time>
      </trkpt>
      <trkpt lat="44.47491" lon="6.7027">
        <ele>2062</ele>
        <time>2022-03-11T09:40:00.000Z</time>
      </trkpt>
      <trkpt lat="44.4749" lon="6.70271">
        <ele>2062.6000976562</ele>
        <time>2022-03-11T09:40:03.000Z</time>
      </trkpt>
      <trkpt lat="44.4749" lon="6.70271">
        <ele>2062.8000488281</ele>
        <time>2022-03-11T09:40:04.000Z</time>
      </trkpt>
      <trkpt lat="44.47488" lon="6.70273">
        <ele>2063.8000488281</ele>
        <time>2022-03-11T09:40:09.000Z</time>
      </trkpt>
      <trkpt lat="44.47488" lon="6.70272">
        <ele>2064.6000976562</ele>
        <time>2022-03-11T09:40:13.000Z</time>
      </trkpt>
      <trkpt lat="44.47487" lon="6.70276">
        <ele>2064.8000488281</ele>
        <time>2022-03-11T09:40:16.000Z</time>
      </trkpt>
      <trkpt lat="44.47487" lon="6.70277">
        <ele>2065.8000488281</ele>
        <time>2022-03-11T09:40:20.000Z</time>
      </trkpt>
      <trkpt lat="44.47486" lon="6.70279">
        <ele>2066</ele>
        <time>2022-03-11T09:40:21.000Z</time>
      </trkpt>
      <trkpt lat="44.47484" lon="6.70282">
        <ele>2067.1999511719</ele>
        <time>2022-03-11T09:40:27.000Z</time>
      </trkpt>
      <trkpt lat="44.47483" lon="6.70283">
        <ele>2067.3999023438</ele>
        <time>2022-03-11T09:40:28.000Z</time>
      </trkpt>
      <trkpt lat="44.47482" lon="6.70285">
        <ele>2067.6000976562</ele>
        <time>2022-03-11T09:40:29.000Z</time>
      </trkpt>
      <trkpt lat="44.47479" lon="6.70289">
        <ele>2068.1999511719</ele>
        <time>2022-03-11T09:40:33.000Z</time>
      </trkpt>
      <trkpt lat="44.47477" lon="6.70291">
        <ele>2068.3999023438</ele>
        <time>2022-03-11T09:40:36.000Z</time>
      </trkpt>
      <trkpt lat="44.47476" lon="6.70295">
        <ele>2069.3999023438</ele>
        <time>2022-03-11T09:40:42.000Z</time>
      </trkpt>
      <trkpt lat="44.4747" lon="6.70297">
        <ele>2069.6000976562</ele>
        <time>2022-03-11T09:40:47.000Z</time>
      </trkpt>
      <trkpt lat="44.47469" lon="6.70296">
        <ele>2069.6000976562</ele>
        <time>2022-03-11T09:40:48.000Z</time>
      </trkpt>
      <trkpt lat="44.47466" lon="6.70293">
        <ele>2070.6000976562</ele>
        <time>2022-03-11T09:40:53.000Z</time>
      </trkpt>
      <trkpt lat="44.47466" lon="6.70293">
        <ele>2070.8000488281</ele>
        <time>2022-03-11T09:40:54.000Z</time>
      </trkpt>
      <trkpt lat="44.47464" lon="6.70291">
        <ele>2070.1999511719</ele>
        <time>2022-03-11T09:41:00.000Z</time>
      </trkpt>
      <trkpt lat="44.47463" lon="6.70289">
        <ele>2070.3999023438</ele>
        <time>2022-03-11T09:41:05.000Z</time>
      </trkpt>
      <trkpt lat="44.47463" lon="6.70288">
        <ele>2071</ele>
        <time>2022-03-11T09:41:11.000Z</time>
      </trkpt>
      <trkpt lat="44.47463" lon="6.70286">
        <ele>2070.3999023438</ele>
        <time>2022-03-11T09:41:21.000Z</time>
      </trkpt>
      <trkpt lat="44.47463" lon="6.70282">
        <ele>2071</ele>
        <time>2022-03-11T09:41:27.000Z</time>
      </trkpt>
      <trkpt lat="44.47461" lon="6.70281">
        <ele>2071.1999511719</ele>
        <time>2022-03-11T09:41:33.000Z</time>
      </trkpt>
      <trkpt lat="44.47462" lon="6.70281">
        <ele>2071.6000976562</ele>
        <time>2022-03-11T09:41:41.000Z</time>
      </trkpt>
      <trkpt lat="44.47459" lon="6.70285">
        <ele>2072.6000976562</ele>
        <time>2022-03-11T09:41:48.000Z</time>
      </trkpt>
      <trkpt lat="44.47459" lon="6.70285">
        <ele>2072.6000976562</ele>
        <time>2022-03-11T09:41:49.000Z</time>
      </trkpt>
      <trkpt lat="44.47459" lon="6.70285">
        <ele>2073</ele>
        <time>2022-03-11T09:41:50.000Z</time>
      </trkpt>
      <trkpt lat="44.47454" lon="6.70289">
        <ele>2074</ele>
        <time>2022-03-11T09:41:54.000Z</time>
      </trkpt>
      <trkpt lat="44.47452" lon="6.70285">
        <ele>2074.8000488281</ele>
        <time>2022-03-11T09:41:57.000Z</time>
      </trkpt>
      <trkpt lat="44.47452" lon="6.70284">
        <ele>2075.1999511719</ele>
        <time>2022-03-11T09:41:59.000Z</time>
      </trkpt>
      <trkpt lat="44.4745" lon="6.70283">
        <ele>2075.8000488281</ele>
        <time>2022-03-11T09:42:03.000Z</time>
      </trkpt>
      <trkpt lat="44.4745" lon="6.70282">
        <ele>2076.1999511719</ele>
        <time>2022-03-11T09:42:05.000Z</time>
      </trkpt>
      <trkpt lat="44.47449" lon="6.70279">
        <ele>2077.1999511719</ele>
        <time>2022-03-11T09:42:11.000Z</time>
      </trkpt>
      <trkpt lat="44.47449" lon="6.70278">
        <ele>2077.8000488281</ele>
        <time>2022-03-11T09:42:13.000Z</time>
      </trkpt>
      <trkpt lat="44.47448" lon="6.70274">
        <ele>2078.3999023438</ele>
        <time>2022-03-11T09:42:16.000Z</time>
      </trkpt>
      <trkpt lat="44.47449" lon="6.70268">
        <ele>2079</ele>
        <time>2022-03-11T09:42:20.000Z</time>
      </trkpt>
      <trkpt lat="44.47447" lon="6.70267">
        <ele>2079.3999023438</ele>
        <time>2022-03-11T09:42:23.000Z</time>
      </trkpt>
      <trkpt lat="44.47447" lon="6.70266">
        <ele>2079.8000488281</ele>
        <time>2022-03-11T09:42:28.000Z</time>
      </trkpt>
      <trkpt lat="44.4745" lon="6.70261">
        <ele>2080.3999023438</ele>
        <time>2022-03-11T09:42:37.000Z</time>
      </trkpt>
      <trkpt lat="44.4745" lon="6.70261">
        <ele>2080.6000976562</ele>
        <time>2022-03-11T09:42:40.000Z</time>
      </trkpt>
      <trkpt lat="44.47449" lon="6.70261">
        <ele>2081.6000976562</ele>
        <time>2022-03-11T09:43:00.000Z</time>
      </trkpt>
      <trkpt lat="44.47449" lon="6.70262">
        <ele>2081.8000488281</ele>
        <time>2022-03-11T09:43:02.000Z</time>
      </trkpt>
      <trkpt lat="44.47448" lon="6.70264">
        <ele>2082.1999511719</ele>
        <time>2022-03-11T09:43:09.000Z</time>
      </trkpt>
      <trkpt lat="44.47447" lon="6.70267">
        <ele>2082.6000976562</ele>
        <time>2022-03-11T09:43:11.000Z</time>
      </trkpt>
      <trkpt lat="44.47446" lon="6.70269">
        <ele>2083.6000976562</ele>
        <time>2022-03-11T09:43:14.000Z</time>
      </trkpt>
      <trkpt lat="44.47442" lon="6.70273">
        <ele>2084.6000976562</ele>
        <time>2022-03-11T09:43:19.000Z</time>
      </trkpt>
      <trkpt lat="44.47439" lon="6.7027">
        <ele>2085.6000976562</ele>
        <time>2022-03-11T09:43:24.000Z</time>
      </trkpt>
      <trkpt lat="44.47438" lon="6.70268">
        <ele>2085.8000488281</ele>
        <time>2022-03-11T09:43:25.000Z</time>
      </trkpt>
      <trkpt lat="44.47436" lon="6.70262">
        <ele>2086.3999023438</ele>
        <time>2022-03-11T09:43:31.000Z</time>
      </trkpt>
      <trkpt lat="44.47436" lon="6.70258">
        <ele>2086.8000488281</ele>
        <time>2022-03-11T09:43:34.000Z</time>
      </trkpt>
      <trkpt lat="44.47434" lon="6.70253">
        <ele>2087</ele>
        <time>2022-03-11T09:43:38.000Z</time>
      </trkpt>
      <trkpt lat="44.47435" lon="6.70245">
        <ele>2087.8000488281</ele>
        <time>2022-03-11T09:43:45.000Z</time>
      </trkpt>
      <trkpt lat="44.47436" lon="6.70236">
        <ele>2089</ele>
        <time>2022-03-11T09:43:54.000Z</time>
      </trkpt>
      <trkpt lat="44.47438" lon="6.70229">
        <ele>2089.8000488281</ele>
        <time>2022-03-11T09:44:03.000Z</time>
      </trkpt>
      <trkpt lat="44.47438" lon="6.70227">
        <ele>2090</ele>
        <time>2022-03-11T09:44:05.000Z</time>
      </trkpt>
      <trkpt lat="44.47437" lon="6.70222">
        <ele>2090.8000488281</ele>
        <time>2022-03-11T09:44:11.000Z</time>
      </trkpt>
      <trkpt lat="44.47437" lon="6.70221">
        <ele>2091.1999511719</ele>
        <time>2022-03-11T09:44:13.000Z</time>
      </trkpt>
      <trkpt lat="44.47435" lon="6.70218">
        <ele>2092.3999023438</ele>
        <time>2022-03-11T09:44:18.000Z</time>
      </trkpt>
      <trkpt lat="44.47434" lon="6.70209">
        <ele>2093.1999511719</ele>
        <time>2022-03-11T09:44:25.000Z</time>
      </trkpt>
      <trkpt lat="44.47435" lon="6.70205">
        <ele>2093.6000976562</ele>
        <time>2022-03-11T09:44:28.000Z</time>
      </trkpt>
      <trkpt lat="44.47436" lon="6.702">
        <ele>2094</ele>
        <time>2022-03-11T09:44:32.000Z</time>
      </trkpt>
      <trkpt lat="44.47436" lon="6.70192">
        <ele>2094.6000976562</ele>
        <time>2022-03-11T09:44:37.000Z</time>
      </trkpt>
      <trkpt lat="44.47437" lon="6.70186">
        <ele>2095.3999023438</ele>
        <time>2022-03-11T09:44:44.000Z</time>
      </trkpt>
      <trkpt lat="44.47437" lon="6.70186">
        <ele>2095.6000976562</ele>
        <time>2022-03-11T09:44:45.000Z</time>
      </trkpt>
      <trkpt lat="44.47434" lon="6.70187">
        <ele>2096</ele>
        <time>2022-03-11T09:44:53.000Z</time>
      </trkpt>
      <trkpt lat="44.47433" lon="6.70183">
        <ele>2096.8000488281</ele>
        <time>2022-03-11T09:45:22.000Z</time>
      </trkpt>
      <trkpt lat="44.47433" lon="6.70182">
        <ele>2096.8000488281</ele>
        <time>2022-03-11T09:45:23.000Z</time>
      </trkpt>
      <trkpt lat="44.47433" lon="6.70179">
        <ele>2097.1999511719</ele>
        <time>2022-03-11T09:45:26.000Z</time>
      </trkpt>
      <trkpt lat="44.47434" lon="6.70172">
        <ele>2097.8000488281</ele>
        <time>2022-03-11T09:45:32.000Z</time>
      </trkpt>
      <trkpt lat="44.47433" lon="6.70167">
        <ele>2098.6000976562</ele>
        <time>2022-03-11T09:45:39.000Z</time>
      </trkpt>
      <trkpt lat="44.47433" lon="6.70168">
        <ele>2099</ele>
        <time>2022-03-11T09:45:41.000Z</time>
      </trkpt>
      <trkpt lat="44.47437" lon="6.70168">
        <ele>2099.6000976562</ele>
        <time>2022-03-11T09:45:47.000Z</time>
      </trkpt>
      <trkpt lat="44.47437" lon="6.70168">
        <ele>2100</ele>
        <time>2022-03-11T09:45:49.000Z</time>
      </trkpt>
      <trkpt lat="44.47435" lon="6.70171">
        <ele>2101</ele>
        <time>2022-03-11T09:45:54.000Z</time>
      </trkpt>
      <trkpt lat="44.47435" lon="6.70172">
        <ele>2101.6000976562</ele>
        <time>2022-03-11T09:45:56.000Z</time>
      </trkpt>
      <trkpt lat="44.47435" lon="6.70173">
        <ele>2101.8000488281</ele>
        <time>2022-03-11T09:45:57.000Z</time>
      </trkpt>
      <trkpt lat="44.47435" lon="6.70174">
        <ele>2102.1999511719</ele>
        <time>2022-03-11T09:45:59.000Z</time>
      </trkpt>
      <trkpt lat="44.47436" lon="6.70177">
        <ele>2102.3999023438</ele>
        <time>2022-03-11T09:46:03.000Z</time>
      </trkpt>
      <trkpt lat="44.47436" lon="6.70181">
        <ele>2102.3999023438</ele>
        <time>2022-03-11T09:46:11.000Z</time>
      </trkpt>
      <trkpt lat="44.47436" lon="6.70181">
        <ele>2103.3999023438</ele>
        <time>2022-03-11T09:46:16.000Z</time>
      </trkpt>
      <trkpt lat="44.47437" lon="6.70181">
        <ele>2104.3999023438</ele>
        <time>2022-03-11T09:46:23.000Z</time>
      </trkpt>
      <trkpt lat="44.47437" lon="6.70181">
        <ele>2104.8000488281</ele>
        <time>2022-03-11T09:46:25.000Z</time>
      </trkpt>
      <trkpt lat="44.47437" lon="6.70181">
        <ele>2105.3999023438</ele>
        <time>2022-03-11T09:46:28.000Z</time>
      </trkpt>
      <trkpt lat="44.47435" lon="6.70183">
        <ele>2106.6000976562</ele>
        <time>2022-03-11T09:46:35.000Z</time>
      </trkpt>
      <trkpt lat="44.47435" lon="6.70185">
        <ele>2106.6000976562</ele>
        <time>2022-03-11T09:46:36.000Z</time>
      </trkpt>
      <trkpt lat="44.47428" lon="6.70186">
        <ele>2107.6000976562</ele>
        <time>2022-03-11T09:46:42.000Z</time>
      </trkpt>
      <trkpt lat="44.47427" lon="6.70186">
        <ele>2107.6000976562</ele>
        <time>2022-03-11T09:46:43.000Z</time>
      </trkpt>
      <trkpt lat="44.47424" lon="6.70181">
        <ele>2108.6000976562</ele>
        <time>2022-03-11T09:46:50.000Z</time>
      </trkpt>
      <trkpt lat="44.47423" lon="6.70179">
        <ele>2108.6000976562</ele>
        <time>2022-03-11T09:46:52.000Z</time>
      </trkpt>
      <trkpt lat="44.47421" lon="6.70177">
        <ele>2109</ele>
        <time>2022-03-11T09:46:55.000Z</time>
      </trkpt>
      <trkpt lat="44.47418" lon="6.70169">
        <ele>2109.3999023438</ele>
        <time>2022-03-11T09:47:02.000Z</time>
      </trkpt>
      <trkpt lat="44.47417" lon="6.70168">
        <ele>2109.8000488281</ele>
        <time>2022-03-11T09:47:05.000Z</time>
      </trkpt>
      <trkpt lat="44.47417" lon="6.70168">
        <ele>2109.8000488281</ele>
        <time>2022-03-11T09:47:06.000Z</time>
      </trkpt>
      <trkpt lat="44.47415" lon="6.70165">
        <ele>2111</ele>
        <time>2022-03-11T09:47:12.000Z</time>
      </trkpt>
      <trkpt lat="44.47414" lon="6.70165">
        <ele>2111.1999511719</ele>
        <time>2022-03-11T09:47:13.000Z</time>
      </trkpt>
      <trkpt lat="44.47414" lon="6.70158">
        <ele>2112</ele>
        <time>2022-03-11T09:47:18.000Z</time>
      </trkpt>
      <trkpt lat="44.47414" lon="6.70156">
        <ele>2112.6000976562</ele>
        <time>2022-03-11T09:47:20.000Z</time>
      </trkpt>
      <trkpt lat="44.47414" lon="6.70154">
        <ele>2113.1999511719</ele>
        <time>2022-03-11T09:47:23.000Z</time>
      </trkpt>
      <trkpt lat="44.47415" lon="6.70151">
        <ele>2113.6000976562</ele>
        <time>2022-03-11T09:47:26.000Z</time>
      </trkpt>
      <trkpt lat="44.47414" lon="6.7015">
        <ele>2114.6000976562</ele>
        <time>2022-03-11T09:47:30.000Z</time>
      </trkpt>
      <trkpt lat="44.47414" lon="6.70147">
        <ele>2115.6000976562</ele>
        <time>2022-03-11T09:47:36.000Z</time>
      </trkpt>
      <trkpt lat="44.47411" lon="6.70147">
        <ele>2116.1999511719</ele>
        <time>2022-03-11T09:47:43.000Z</time>
      </trkpt>
      <trkpt lat="44.47408" lon="6.70149">
        <ele>2116.6000976562</ele>
        <time>2022-03-11T09:47:49.000Z</time>
      </trkpt>
      <trkpt lat="44.47409" lon="6.7015">
        <ele>2116.6000976562</ele>
        <time>2022-03-11T09:47:50.000Z</time>
      </trkpt>
      <trkpt lat="44.47411" lon="6.70147">
        <ele>2116.8000488281</ele>
        <time>2022-03-11T09:47:54.000Z</time>
      </trkpt>
      <trkpt lat="44.47411" lon="6.70147">
        <ele>2117.1999511719</ele>
        <time>2022-03-11T09:48:01.000Z</time>
      </trkpt>
      <trkpt lat="44.4741" lon="6.70148">
        <ele>2117.8000488281</ele>
        <time>2022-03-11T09:48:06.000Z</time>
      </trkpt>
      <trkpt lat="44.4741" lon="6.70147">
        <ele>2117.6000976562</ele>
        <time>2022-03-11T09:48:07.000Z</time>
      </trkpt>
      <trkpt lat="44.47411" lon="6.70147">
        <ele>2119.1999511719</ele>
        <time>2022-03-11T09:48:15.000Z</time>
      </trkpt>
      <trkpt lat="44.4741" lon="6.70148">
        <ele>2119.3999023438</ele>
        <time>2022-03-11T09:48:16.000Z</time>
      </trkpt>
      <trkpt lat="44.47411" lon="6.70149">
        <ele>2119.8000488281</ele>
        <time>2022-03-11T09:48:23.000Z</time>
      </trkpt>
      <trkpt lat="44.4741" lon="6.70152">
        <ele>2120.1999511719</ele>
        <time>2022-03-11T09:48:27.000Z</time>
      </trkpt>
      <trkpt lat="44.47406" lon="6.70159">
        <ele>2120.8000488281</ele>
        <time>2022-03-11T09:48:30.000Z</time>
      </trkpt>
      <trkpt lat="44.47406" lon="6.70159">
        <ele>2121</ele>
        <time>2022-03-11T09:48:33.000Z</time>
      </trkpt>
      <trkpt lat="44.47405" lon="6.70159">
        <ele>2121.3999023438</ele>
        <time>2022-03-11T09:48:35.000Z</time>
      </trkpt>
      <trkpt lat="44.47406" lon="6.7016">
        <ele>2122.1999511719</ele>
        <time>2022-03-11T09:48:37.000Z</time>
      </trkpt>
      <trkpt lat="44.47407" lon="6.70159">
        <ele>2122.8000488281</ele>
        <time>2022-03-11T09:48:39.000Z</time>
      </trkpt>
      <trkpt lat="44.47406" lon="6.70156">
        <ele>2123.3999023438</ele>
        <time>2022-03-11T09:48:41.000Z</time>
      </trkpt>
      <trkpt lat="44.47405" lon="6.70156">
        <ele>2123.8000488281</ele>
        <time>2022-03-11T09:48:43.000Z</time>
      </trkpt>
      <trkpt lat="44.47403" lon="6.70157">
        <ele>2124.6000976562</ele>
        <time>2022-03-11T09:48:48.000Z</time>
      </trkpt>
      <trkpt lat="44.47402" lon="6.70159">
        <ele>2124.8000488281</ele>
        <time>2022-03-11T09:48:50.000Z</time>
      </trkpt>
      <trkpt lat="44.474" lon="6.7016">
        <ele>2125.8000488281</ele>
        <time>2022-03-11T09:48:55.000Z</time>
      </trkpt>
      <trkpt lat="44.474" lon="6.70159">
        <ele>2125.8000488281</ele>
        <time>2022-03-11T09:48:56.000Z</time>
      </trkpt>
      <trkpt lat="44.47394" lon="6.70165">
        <ele>2126.6000976562</ele>
        <time>2022-03-11T09:49:08.000Z</time>
      </trkpt>
      <trkpt lat="44.47393" lon="6.70167">
        <ele>2127.1999511719</ele>
        <time>2022-03-11T09:49:10.000Z</time>
      </trkpt>
      <trkpt lat="44.47389" lon="6.70168">
        <ele>2127.8000488281</ele>
        <time>2022-03-11T09:49:17.000Z</time>
      </trkpt>
      <trkpt lat="44.47386" lon="6.70169">
        <ele>2128.1999511719</ele>
        <time>2022-03-11T09:49:20.000Z</time>
      </trkpt>
      <trkpt lat="44.47381" lon="6.70174">
        <ele>2128.3999023438</ele>
        <time>2022-03-11T09:49:23.000Z</time>
      </trkpt>
      <trkpt lat="44.47374" lon="6.70174">
        <ele>2129.1999511719</ele>
        <time>2022-03-11T09:49:30.000Z</time>
      </trkpt>
      <trkpt lat="44.47369" lon="6.70171">
        <ele>2130.1999511719</ele>
        <time>2022-03-11T09:49:37.000Z</time>
      </trkpt>
      <trkpt lat="44.47368" lon="6.7017">
        <ele>2130.1999511719</ele>
        <time>2022-03-11T09:49:38.000Z</time>
      </trkpt>
      <trkpt lat="44.47363" lon="6.70166">
        <ele>2131</ele>
        <time>2022-03-11T09:49:45.000Z</time>
      </trkpt>
      <trkpt lat="44.47362" lon="6.70164">
        <ele>2131.1999511719</ele>
        <time>2022-03-11T09:49:47.000Z</time>
      </trkpt>
      <trkpt lat="44.47359" lon="6.7016">
        <ele>2132.1999511719</ele>
        <time>2022-03-11T09:49:53.000Z</time>
      </trkpt>
      <trkpt lat="44.47358" lon="6.7016">
        <ele>2132.3999023438</ele>
        <time>2022-03-11T09:49:55.000Z</time>
      </trkpt>
      <trkpt lat="44.47356" lon="6.70159">
        <ele>2132.6000976562</ele>
        <time>2022-03-11T09:49:57.000Z</time>
      </trkpt>
      <trkpt lat="44.47354" lon="6.70154">
        <ele>2133.6000976562</ele>
        <time>2022-03-11T09:50:03.000Z</time>
      </trkpt>
      <trkpt lat="44.47353" lon="6.70153">
        <ele>2134</ele>
        <time>2022-03-11T09:50:05.000Z</time>
      </trkpt>
      <trkpt lat="44.4735" lon="6.70152">
        <ele>2134.8000488281</ele>
        <time>2022-03-11T09:50:09.000Z</time>
      </trkpt>
      <trkpt lat="44.47349" lon="6.70151">
        <ele>2135.6000976562</ele>
        <time>2022-03-11T09:50:12.000Z</time>
      </trkpt>
      <trkpt lat="44.47347" lon="6.70147">
        <ele>2136</ele>
        <time>2022-03-11T09:50:15.000Z</time>
      </trkpt>
      <trkpt lat="44.47345" lon="6.70146">
        <ele>2136.6000976562</ele>
        <time>2022-03-11T09:50:18.000Z</time>
      </trkpt>
      <trkpt lat="44.47343" lon="6.70146">
        <ele>2137</ele>
        <time>2022-03-11T09:50:21.000Z</time>
      </trkpt>
      <trkpt lat="44.47341" lon="6.70146">
        <ele>2137.6000976562</ele>
        <time>2022-03-11T09:50:25.000Z</time>
      </trkpt>
      <trkpt lat="44.47338" lon="6.70145">
        <ele>2138</ele>
        <time>2022-03-11T09:50:31.000Z</time>
      </trkpt>
      <trkpt lat="44.47337" lon="6.70145">
        <ele>2138.1999511719</ele>
        <time>2022-03-11T09:50:33.000Z</time>
      </trkpt>
      <trkpt lat="44.47335" lon="6.70145">
        <ele>2139.1999511719</ele>
        <time>2022-03-11T09:50:38.000Z</time>
      </trkpt>
      <trkpt lat="44.47334" lon="6.70144">
        <ele>2139.3999023438</ele>
        <time>2022-03-11T09:50:39.000Z</time>
      </trkpt>
      <trkpt lat="44.47335" lon="6.70144">
        <ele>2140</ele>
        <time>2022-03-11T09:50:42.000Z</time>
      </trkpt>
      <trkpt lat="44.47333" lon="6.70143">
        <ele>2140.1999511719</ele>
        <time>2022-03-11T09:50:45.000Z</time>
      </trkpt>
      <trkpt lat="44.47329" lon="6.70141">
        <ele>2141.3999023438</ele>
        <time>2022-03-11T09:50:50.000Z</time>
      </trkpt>
      <trkpt lat="44.47325" lon="6.70139">
        <ele>2142.6000976562</ele>
        <time>2022-03-11T09:50:57.000Z</time>
      </trkpt>
      <trkpt lat="44.47319" lon="6.70135">
        <ele>2143.3999023438</ele>
        <time>2022-03-11T09:51:05.000Z</time>
      </trkpt>
      <trkpt lat="44.47319" lon="6.70134">
        <ele>2143.6000976562</ele>
        <time>2022-03-11T09:51:06.000Z</time>
      </trkpt>
      <trkpt lat="44.47318" lon="6.70131">
        <ele>2144.6000976562</ele>
        <time>2022-03-11T09:51:13.000Z</time>
      </trkpt>
      <trkpt lat="44.47319" lon="6.70131">
        <ele>2144.6000976562</ele>
        <time>2022-03-11T09:51:14.000Z</time>
      </trkpt>
      <trkpt lat="44.47315" lon="6.70127">
        <ele>2145.3999023438</ele>
        <time>2022-03-11T09:51:20.000Z</time>
      </trkpt>
      <trkpt lat="44.47314" lon="6.70125">
        <ele>2145.8000488281</ele>
        <time>2022-03-11T09:51:22.000Z</time>
      </trkpt>
      <trkpt lat="44.47311" lon="6.70123">
        <ele>2146.6000976562</ele>
        <time>2022-03-11T09:51:27.000Z</time>
      </trkpt>
      <trkpt lat="44.47308" lon="6.70119">
        <ele>2147</ele>
        <time>2022-03-11T09:51:34.000Z</time>
      </trkpt>
      <trkpt lat="44.47307" lon="6.70119">
        <ele>2147.8000488281</ele>
        <time>2022-03-11T09:51:39.000Z</time>
      </trkpt>
      <trkpt lat="44.47307" lon="6.70119">
        <ele>2148.1999511719</ele>
        <time>2022-03-11T09:51:40.000Z</time>
      </trkpt>
      <trkpt lat="44.47307" lon="6.70119">
        <ele>2148.6000976562</ele>
        <time>2022-03-11T09:51:44.000Z</time>
      </trkpt>
      <trkpt lat="44.47306" lon="6.70119">
        <ele>2148.8000488281</ele>
        <time>2022-03-11T09:51:50.000Z</time>
      </trkpt>
      <trkpt lat="44.47305" lon="6.70119">
        <ele>2149.1999511719</ele>
        <time>2022-03-11T09:51:52.000Z</time>
      </trkpt>
      <trkpt lat="44.47304" lon="6.70116">
        <ele>2149.3999023438</ele>
        <time>2022-03-11T09:51:56.000Z</time>
      </trkpt>
      <trkpt lat="44.47304" lon="6.70113">
        <ele>2150.1999511719</ele>
        <time>2022-03-11T09:52:00.000Z</time>
      </trkpt>
      <trkpt lat="44.47305" lon="6.70109">
        <ele>2150.8000488281</ele>
        <time>2022-03-11T09:52:03.000Z</time>
      </trkpt>
      <trkpt lat="44.47305" lon="6.70109">
        <ele>2151</ele>
        <time>2022-03-11T09:52:04.000Z</time>
      </trkpt>
      <trkpt lat="44.47305" lon="6.70108">
        <ele>2151.1999511719</ele>
        <time>2022-03-11T09:52:05.000Z</time>
      </trkpt>
      <trkpt lat="44.47304" lon="6.70104">
        <ele>2152.1999511719</ele>
        <time>2022-03-11T09:52:11.000Z</time>
      </trkpt>
      <trkpt lat="44.47305" lon="6.70102">
        <ele>2152.3999023438</ele>
        <time>2022-03-11T09:52:12.000Z</time>
      </trkpt>
      <trkpt lat="44.47306" lon="6.70096">
        <ele>2153.1999511719</ele>
        <time>2022-03-11T09:52:17.000Z</time>
      </trkpt>
      <trkpt lat="44.47306" lon="6.70095">
        <ele>2153.1999511719</ele>
        <time>2022-03-11T09:52:18.000Z</time>
      </trkpt>
      <trkpt lat="44.47308" lon="6.70093">
        <ele>2153.6000976562</ele>
        <time>2022-03-11T09:52:20.000Z</time>
      </trkpt>
      <trkpt lat="44.47309" lon="6.70089">
        <ele>2154.6000976562</ele>
        <time>2022-03-11T09:52:26.000Z</time>
      </trkpt>
      <trkpt lat="44.47312" lon="6.70086">
        <ele>2155.8000488281</ele>
        <time>2022-03-11T09:52:32.000Z</time>
      </trkpt>
      <trkpt lat="44.47311" lon="6.70087">
        <ele>2156.1999511719</ele>
        <time>2022-03-11T09:52:36.000Z</time>
      </trkpt>
      <trkpt lat="44.47313" lon="6.70085">
        <ele>2156.8000488281</ele>
        <time>2022-03-11T09:52:40.000Z</time>
      </trkpt>
      <trkpt lat="44.47314" lon="6.70082">
        <ele>2157</ele>
        <time>2022-03-11T09:52:42.000Z</time>
      </trkpt>
      <trkpt lat="44.47314" lon="6.70078">
        <ele>2158</ele>
        <time>2022-03-11T09:52:45.000Z</time>
      </trkpt>
      <trkpt lat="44.47315" lon="6.70075">
        <ele>2158.6000976562</ele>
        <time>2022-03-11T09:52:48.000Z</time>
      </trkpt>
      <trkpt lat="44.47315" lon="6.70075">
        <ele>2158.6000976562</ele>
        <time>2022-03-11T09:52:49.000Z</time>
      </trkpt>
      <trkpt lat="44.47315" lon="6.70074">
        <ele>2159</ele>
        <time>2022-03-11T09:52:51.000Z</time>
      </trkpt>
      <trkpt lat="44.47313" lon="6.70065">
        <ele>2160.1999511719</ele>
        <time>2022-03-11T09:52:57.000Z</time>
      </trkpt>
      <trkpt lat="44.47315" lon="6.70063">
        <ele>2160.8000488281</ele>
        <time>2022-03-11T09:53:03.000Z</time>
      </trkpt>
      <trkpt lat="44.47318" lon="6.70058">
        <ele>2161</ele>
        <time>2022-03-11T09:53:09.000Z</time>
      </trkpt>
      <trkpt lat="44.47318" lon="6.70058">
        <ele>2161</ele>
        <time>2022-03-11T09:53:10.000Z</time>
      </trkpt>
      <trkpt lat="44.47319" lon="6.70055">
        <ele>2161.1999511719</ele>
        <time>2022-03-11T09:53:13.000Z</time>
      </trkpt>
      <trkpt lat="44.4732" lon="6.70054">
        <ele>2162</ele>
        <time>2022-03-11T09:53:18.000Z</time>
      </trkpt>
      <trkpt lat="44.4732" lon="6.70053">
        <ele>2162.1999511719</ele>
        <time>2022-03-11T09:53:19.000Z</time>
      </trkpt>
      <trkpt lat="44.4732" lon="6.70053">
        <ele>2163.3999023438</ele>
        <time>2022-03-11T09:53:22.000Z</time>
      </trkpt>
      <trkpt lat="44.47321" lon="6.70052">
        <ele>2164.3999023438</ele>
        <time>2022-03-11T09:53:24.000Z</time>
      </trkpt>
      <trkpt lat="44.47321" lon="6.7005">
        <ele>2164.6000976562</ele>
        <time>2022-03-11T09:53:25.000Z</time>
      </trkpt>
      <trkpt lat="44.47319" lon="6.7005">
        <ele>2165.3999023438</ele>
        <time>2022-03-11T09:53:29.000Z</time>
      </trkpt>
      <trkpt lat="44.47314" lon="6.70051">
        <ele>2165.6000976562</ele>
        <time>2022-03-11T09:53:35.000Z</time>
      </trkpt>
      <trkpt lat="44.47313" lon="6.70051">
        <ele>2165.6000976562</ele>
        <time>2022-03-11T09:53:36.000Z</time>
      </trkpt>
      <trkpt lat="44.47313" lon="6.7005">
        <ele>2165.8000488281</ele>
        <time>2022-03-11T09:53:37.000Z</time>
      </trkpt>
      <trkpt lat="44.47311" lon="6.70047">
        <ele>2166.8000488281</ele>
        <time>2022-03-11T09:53:45.000Z</time>
      </trkpt>
      <trkpt lat="44.47309" lon="6.70044">
        <ele>2167.3999023438</ele>
        <time>2022-03-11T09:53:51.000Z</time>
      </trkpt>
      <trkpt lat="44.47307" lon="6.70044">
        <ele>2167.8000488281</ele>
        <time>2022-03-11T09:53:54.000Z</time>
      </trkpt>
      <trkpt lat="44.47304" lon="6.70042">
        <ele>2169</ele>
        <time>2022-03-11T09:53:59.000Z</time>
      </trkpt>
      <trkpt lat="44.473" lon="6.7004">
        <ele>2170</ele>
        <time>2022-03-11T09:54:03.000Z</time>
      </trkpt>
      <trkpt lat="44.47299" lon="6.70038">
        <ele>2170.6000976562</ele>
        <time>2022-03-11T09:54:07.000Z</time>
      </trkpt>
      <trkpt lat="44.47299" lon="6.70035">
        <ele>2171</ele>
        <time>2022-03-11T09:54:10.000Z</time>
      </trkpt>
      <trkpt lat="44.47295" lon="6.70035">
        <ele>2171.8000488281</ele>
        <time>2022-03-11T09:54:14.000Z</time>
      </trkpt>
      <trkpt lat="44.47293" lon="6.70033">
        <ele>2172.1999511719</ele>
        <time>2022-03-11T09:54:16.000Z</time>
      </trkpt>
      <trkpt lat="44.4729" lon="6.70032">
        <ele>2172.8000488281</ele>
        <time>2022-03-11T09:54:20.000Z</time>
      </trkpt>
      <trkpt lat="44.4729" lon="6.7003">
        <ele>2172.8000488281</ele>
        <time>2022-03-11T09:54:21.000Z</time>
      </trkpt>
      <trkpt lat="44.47289" lon="6.70025">
        <ele>2172.8000488281</ele>
        <time>2022-03-11T09:54:25.000Z</time>
      </trkpt>
      <trkpt lat="44.4729" lon="6.70018">
        <ele>2173.1999511719</ele>
        <time>2022-03-11T09:54:29.000Z</time>
      </trkpt>
      <trkpt lat="44.4729" lon="6.70017">
        <ele>2174</ele>
        <time>2022-03-11T09:54:32.000Z</time>
      </trkpt>
      <trkpt lat="44.4729" lon="6.70018">
        <ele>2174.3999023438</ele>
        <time>2022-03-11T09:54:34.000Z</time>
      </trkpt>
      <trkpt lat="44.47293" lon="6.70009">
        <ele>2175</ele>
        <time>2022-03-11T09:54:39.000Z</time>
      </trkpt>
      <trkpt lat="44.47295" lon="6.70004">
        <ele>2175.6000976562</ele>
        <time>2022-03-11T09:54:45.000Z</time>
      </trkpt>
      <trkpt lat="44.47295" lon="6.70004">
        <ele>2175.8000488281</ele>
        <time>2022-03-11T09:54:47.000Z</time>
      </trkpt>
      <trkpt lat="44.47299" lon="6.70002">
        <ele>2176.6000976562</ele>
        <time>2022-03-11T09:54:51.000Z</time>
      </trkpt>
      <trkpt lat="44.47299" lon="6.70003">
        <ele>2177.1999511719</ele>
        <time>2022-03-11T09:54:53.000Z</time>
      </trkpt>
      <trkpt lat="44.47297" lon="6.70002">
        <ele>2177.8000488281</ele>
        <time>2022-03-11T09:54:56.000Z</time>
      </trkpt>
      <trkpt lat="44.47297" lon="6.7">
        <ele>2178.8000488281</ele>
        <time>2022-03-11T09:54:58.000Z</time>
      </trkpt>
      <trkpt lat="44.47296" lon="6.7">
        <ele>2179.6000976562</ele>
        <time>2022-03-11T09:55:00.000Z</time>
      </trkpt>
      <trkpt lat="44.47293" lon="6.70001">
        <ele>2179.6000976562</ele>
        <time>2022-03-11T09:55:07.000Z</time>
      </trkpt>
      <trkpt lat="44.47288" lon="6.69999">
        <ele>2180</ele>
        <time>2022-03-11T09:55:12.000Z</time>
      </trkpt>
      <trkpt lat="44.47288" lon="6.69998">
        <ele>2180</ele>
        <time>2022-03-11T09:55:13.000Z</time>
      </trkpt>
      <trkpt lat="44.47289" lon="6.69993">
        <ele>2180.8000488281</ele>
        <time>2022-03-11T09:55:17.000Z</time>
      </trkpt>
      <trkpt lat="44.47289" lon="6.69991">
        <ele>2181</ele>
        <time>2022-03-11T09:55:19.000Z</time>
      </trkpt>
      <trkpt lat="44.47288" lon="6.69984">
        <ele>2182</ele>
        <time>2022-03-11T09:55:25.000Z</time>
      </trkpt>
      <trkpt lat="44.4729" lon="6.69979">
        <ele>2183</ele>
        <time>2022-03-11T09:55:33.000Z</time>
      </trkpt>
      <trkpt lat="44.47291" lon="6.69978">
        <ele>2183</ele>
        <time>2022-03-11T09:55:34.000Z</time>
      </trkpt>
      <trkpt lat="44.47291" lon="6.69974">
        <ele>2184</ele>
        <time>2022-03-11T09:55:41.000Z</time>
      </trkpt>
      <trkpt lat="44.47291" lon="6.69974">
        <ele>2184.1999511719</ele>
        <time>2022-03-11T09:55:42.000Z</time>
      </trkpt>
      <trkpt lat="44.47291" lon="6.6997">
        <ele>2184.3999023438</ele>
        <time>2022-03-11T09:55:45.000Z</time>
      </trkpt>
      <trkpt lat="44.47292" lon="6.69968">
        <ele>2184.6000976562</ele>
        <time>2022-03-11T09:55:47.000Z</time>
      </trkpt>
      <trkpt lat="44.47292" lon="6.69966">
        <ele>2184.6000976562</ele>
        <time>2022-03-11T09:55:48.000Z</time>
      </trkpt>
      <trkpt lat="44.47289" lon="6.69966">
        <ele>2185.1999511719</ele>
        <time>2022-03-11T09:55:52.000Z</time>
      </trkpt>
      <trkpt lat="44.47289" lon="6.69965">
        <ele>2185.1999511719</ele>
        <time>2022-03-11T09:55:53.000Z</time>
      </trkpt>
      <trkpt lat="44.47289" lon="6.69962">
        <ele>2185.8000488281</ele>
        <time>2022-03-11T09:55:59.000Z</time>
      </trkpt>
      <trkpt lat="44.4729" lon="6.69962">
        <ele>2186.3999023438</ele>
        <time>2022-03-11T09:56:04.000Z</time>
      </trkpt>
      <trkpt lat="44.47291" lon="6.69962">
        <ele>2186.3999023438</ele>
        <time>2022-03-11T09:56:05.000Z</time>
      </trkpt>
      <trkpt lat="44.47294" lon="6.69961">
        <ele>2186.8000488281</ele>
        <time>2022-03-11T09:56:10.000Z</time>
      </trkpt>
      <trkpt lat="44.47294" lon="6.6996">
        <ele>2187.6000976562</ele>
        <time>2022-03-11T09:56:13.000Z</time>
      </trkpt>
      <trkpt lat="44.47291" lon="6.6996">
        <ele>2188</ele>
        <time>2022-03-11T09:56:16.000Z</time>
      </trkpt>
      <trkpt lat="44.4729" lon="6.6996">
        <ele>2188.8000488281</ele>
        <time>2022-03-11T09:56:18.000Z</time>
      </trkpt>
      <trkpt lat="44.47285" lon="6.6996">
        <ele>2190</ele>
        <time>2022-03-11T09:56:23.000Z</time>
      </trkpt>
      <trkpt lat="44.4728" lon="6.69954">
        <ele>2191</ele>
        <time>2022-03-11T09:56:30.000Z</time>
      </trkpt>
      <trkpt lat="44.47279" lon="6.69953">
        <ele>2191.1999511719</ele>
        <time>2022-03-11T09:56:32.000Z</time>
      </trkpt>
      <trkpt lat="44.47277" lon="6.69945">
        <ele>2192</ele>
        <time>2022-03-11T09:56:40.000Z</time>
      </trkpt>
      <trkpt lat="44.47275" lon="6.69939">
        <ele>2193.1999511719</ele>
        <time>2022-03-11T09:56:48.000Z</time>
      </trkpt>
      <trkpt lat="44.47272" lon="6.69933">
        <ele>2194</ele>
        <time>2022-03-11T09:56:55.000Z</time>
      </trkpt>
      <trkpt lat="44.47273" lon="6.69932">
        <ele>2194.1999511719</ele>
        <time>2022-03-11T09:56:56.000Z</time>
      </trkpt>
      <trkpt lat="44.47271" lon="6.69925">
        <ele>2195</ele>
        <time>2022-03-11T09:57:04.000Z</time>
      </trkpt>
      <trkpt lat="44.4727" lon="6.69921">
        <ele>2195.3999023438</ele>
        <time>2022-03-11T09:57:09.000Z</time>
      </trkpt>
      <trkpt lat="44.4727" lon="6.69918">
        <ele>2195.8000488281</ele>
        <time>2022-03-11T09:57:11.000Z</time>
      </trkpt>
      <trkpt lat="44.4727" lon="6.69915">
        <ele>2196.3999023438</ele>
        <time>2022-03-11T09:57:14.000Z</time>
      </trkpt>
      <trkpt lat="44.47265" lon="6.69913">
        <ele>2197</ele>
        <time>2022-03-11T09:57:19.000Z</time>
      </trkpt>
      <trkpt lat="44.47266" lon="6.6991">
        <ele>2197.3999023438</ele>
        <time>2022-03-11T09:57:22.000Z</time>
      </trkpt>
      <trkpt lat="44.47267" lon="6.69907">
        <ele>2198</ele>
        <time>2022-03-11T09:57:25.000Z</time>
      </trkpt>
      <trkpt lat="44.4727" lon="6.69904">
        <ele>2198</ele>
        <time>2022-03-11T09:57:33.000Z</time>
      </trkpt>
      <trkpt lat="44.47269" lon="6.69903">
        <ele>2198.3999023438</ele>
        <time>2022-03-11T09:57:44.000Z</time>
      </trkpt>
      <trkpt lat="44.4727" lon="6.69902">
        <ele>2197.8000488281</ele>
        <time>2022-03-11T09:58:03.000Z</time>
      </trkpt>
      <trkpt lat="44.4727" lon="6.69894">
        <ele>2198.3999023438</ele>
        <time>2022-03-11T09:58:34.000Z</time>
      </trkpt>
      <trkpt lat="44.4727" lon="6.69892">
        <ele>2198.8000488281</ele>
        <time>2022-03-11T09:58:36.000Z</time>
      </trkpt>
      <trkpt lat="44.47268" lon="6.69886">
        <ele>2199.6000976562</ele>
        <time>2022-03-11T09:58:40.000Z</time>
      </trkpt>
      <trkpt lat="44.47266" lon="6.69885">
        <ele>2199.8000488281</ele>
        <time>2022-03-11T09:58:43.000Z</time>
      </trkpt>
      <trkpt lat="44.47265" lon="6.69875">
        <ele>2200.3999023438</ele>
        <time>2022-03-11T09:58:52.000Z</time>
      </trkpt>
      <trkpt lat="44.47265" lon="6.69873">
        <ele>2200.6000976562</ele>
        <time>2022-03-11T09:58:54.000Z</time>
      </trkpt>
      <trkpt lat="44.47266" lon="6.69859">
        <ele>2200.6000976562</ele>
        <time>2022-03-11T09:59:04.000Z</time>
      </trkpt>
      <trkpt lat="44.47266" lon="6.69852">
        <ele>2200.1999511719</ele>
        <time>2022-03-11T09:59:09.000Z</time>
      </trkpt>
      <trkpt lat="44.47267" lon="6.6985">
        <ele>2200.1999511719</ele>
        <time>2022-03-11T09:59:10.000Z</time>
      </trkpt>
      <trkpt lat="44.47268" lon="6.69842">
        <ele>2200.1999511719</ele>
        <time>2022-03-11T09:59:17.000Z</time>
      </trkpt>
      <trkpt lat="44.47268" lon="6.6984">
        <ele>2200.3999023438</ele>
        <time>2022-03-11T09:59:18.000Z</time>
      </trkpt>
      <trkpt lat="44.4727" lon="6.69829">
        <ele>2201.8000488281</ele>
        <time>2022-03-11T09:59:29.000Z</time>
      </trkpt>
      <trkpt lat="44.4727" lon="6.69829">
        <ele>2201.8000488281</ele>
        <time>2022-03-11T09:59:30.000Z</time>
      </trkpt>
      <trkpt lat="44.4727" lon="6.69826">
        <ele>2202.6000976562</ele>
        <time>2022-03-11T09:59:44.000Z</time>
      </trkpt>
      <trkpt lat="44.4727" lon="6.69826">
        <ele>2202.8000488281</ele>
        <time>2022-03-11T09:59:45.000Z</time>
      </trkpt>
      <trkpt lat="44.4727" lon="6.69824">
        <ele>2203.8000488281</ele>
        <time>2022-03-11T09:59:53.000Z</time>
      </trkpt>
      <trkpt lat="44.47268" lon="6.69823">
        <ele>2205</ele>
        <time>2022-03-11T10:00:00.000Z</time>
      </trkpt>
      <trkpt lat="44.47267" lon="6.69823">
        <ele>2205.3999023438</ele>
        <time>2022-03-11T10:00:03.000Z</time>
      </trkpt>
      <trkpt lat="44.47265" lon="6.69823">
        <ele>2205.8000488281</ele>
        <time>2022-03-11T10:00:07.000Z</time>
      </trkpt>
      <trkpt lat="44.47264" lon="6.69823">
        <ele>2206</ele>
        <time>2022-03-11T10:00:08.000Z</time>
      </trkpt>
      <trkpt lat="44.47262" lon="6.69819">
        <ele>2207.1999511719</ele>
        <time>2022-03-11T10:00:13.000Z</time>
      </trkpt>
      <trkpt lat="44.47262" lon="6.69819">
        <ele>2207.3999023438</ele>
        <time>2022-03-11T10:00:14.000Z</time>
      </trkpt>
      <trkpt lat="44.47262" lon="6.69816">
        <ele>2208.1999511719</ele>
        <time>2022-03-11T10:00:18.000Z</time>
      </trkpt>
      <trkpt lat="44.47262" lon="6.69814">
        <ele>2208.3999023438</ele>
        <time>2022-03-11T10:00:19.000Z</time>
      </trkpt>
      <trkpt lat="44.47263" lon="6.69809">
        <ele>2209.3999023438</ele>
        <time>2022-03-11T10:00:24.000Z</time>
      </trkpt>
      <trkpt lat="44.47262" lon="6.69806">
        <ele>2210.3999023438</ele>
        <time>2022-03-11T10:00:30.000Z</time>
      </trkpt>
      <trkpt lat="44.47262" lon="6.69805">
        <ele>2210.3999023438</ele>
        <time>2022-03-11T10:00:31.000Z</time>
      </trkpt>
      <trkpt lat="44.47263" lon="6.69802">
        <ele>2210.6000976562</ele>
        <time>2022-03-11T10:00:33.000Z</time>
      </trkpt>
      <trkpt lat="44.47266" lon="6.69791">
        <ele>2211.3999023438</ele>
        <time>2022-03-11T10:00:43.000Z</time>
      </trkpt>
      <trkpt lat="44.47266" lon="6.69791">
        <ele>2211.3999023438</ele>
        <time>2022-03-11T10:00:44.000Z</time>
      </trkpt>
      <trkpt lat="44.47267" lon="6.69786">
        <ele>2212</ele>
        <time>2022-03-11T10:00:50.000Z</time>
      </trkpt>
      <trkpt lat="44.47268" lon="6.69785">
        <ele>2212.3999023438</ele>
        <time>2022-03-11T10:00:52.000Z</time>
      </trkpt>
      <trkpt lat="44.47269" lon="6.69784">
        <ele>2213.6000976562</ele>
        <time>2022-03-11T10:00:56.000Z</time>
      </trkpt>
      <trkpt lat="44.47269" lon="6.69781">
        <ele>2214</ele>
        <time>2022-03-11T10:01:00.000Z</time>
      </trkpt>
      <trkpt lat="44.4727" lon="6.6978">
        <ele>2214.6000976562</ele>
        <time>2022-03-11T10:01:02.000Z</time>
      </trkpt>
      <trkpt lat="44.4727" lon="6.69779">
        <ele>2215.6000976562</ele>
        <time>2022-03-11T10:01:08.000Z</time>
      </trkpt>
      <trkpt lat="44.47268" lon="6.6978">
        <ele>2216.6000976562</ele>
        <time>2022-03-11T10:01:15.000Z</time>
      </trkpt>
      <trkpt lat="44.47268" lon="6.69778">
        <ele>2216.8000488281</ele>
        <time>2022-03-11T10:01:16.000Z</time>
      </trkpt>
      <trkpt lat="44.47265" lon="6.69775">
        <ele>2217.8000488281</ele>
        <time>2022-03-11T10:01:23.000Z</time>
      </trkpt>
      <trkpt lat="44.47264" lon="6.69774">
        <ele>2218.1999511719</ele>
        <time>2022-03-11T10:01:25.000Z</time>
      </trkpt>
      <trkpt lat="44.47262" lon="6.69774">
        <ele>2219</ele>
        <time>2022-03-11T10:01:29.000Z</time>
      </trkpt>
      <trkpt lat="44.47261" lon="6.69769">
        <ele>2220</ele>
        <time>2022-03-11T10:01:34.000Z</time>
      </trkpt>
      <trkpt lat="44.47259" lon="6.69767">
        <ele>2221.1999511719</ele>
        <time>2022-03-11T10:01:39.000Z</time>
      </trkpt>
      <trkpt lat="44.47256" lon="6.69765">
        <ele>2222.3999023438</ele>
        <time>2022-03-11T10:01:46.000Z</time>
      </trkpt>
      <trkpt lat="44.47254" lon="6.69764">
        <ele>2223</ele>
        <time>2022-03-11T10:01:51.000Z</time>
      </trkpt>
      <trkpt lat="44.47253" lon="6.69763">
        <ele>2223</ele>
        <time>2022-03-11T10:01:52.000Z</time>
      </trkpt>
      <trkpt lat="44.4725" lon="6.6976">
        <ele>2223.3999023438</ele>
        <time>2022-03-11T10:01:58.000Z</time>
      </trkpt>
      <trkpt lat="44.4725" lon="6.69756">
        <ele>2223.8000488281</ele>
        <time>2022-03-11T10:02:01.000Z</time>
      </trkpt>
      <trkpt lat="44.47251" lon="6.69753">
        <ele>2224.6000976562</ele>
        <time>2022-03-11T10:02:04.000Z</time>
      </trkpt>
      <trkpt lat="44.47251" lon="6.69748">
        <ele>2225</ele>
        <time>2022-03-11T10:02:09.000Z</time>
      </trkpt>
      <trkpt lat="44.47252" lon="6.69745">
        <ele>2226</ele>
        <time>2022-03-11T10:02:12.000Z</time>
      </trkpt>
      <trkpt lat="44.47254" lon="6.69742">
        <ele>2227</ele>
        <time>2022-03-11T10:02:16.000Z</time>
      </trkpt>
      <trkpt lat="44.47255" lon="6.6974">
        <ele>2227.6000976562</ele>
        <time>2022-03-11T10:02:19.000Z</time>
      </trkpt>
      <trkpt lat="44.47256" lon="6.69737">
        <ele>2228</ele>
        <time>2022-03-11T10:02:24.000Z</time>
      </trkpt>
      <trkpt lat="44.47256" lon="6.69736">
        <ele>2228</ele>
        <time>2022-03-11T10:02:26.000Z</time>
      </trkpt>
      <trkpt lat="44.47255" lon="6.69734">
        <ele>2228.8000488281</ele>
        <time>2022-03-11T10:02:30.000Z</time>
      </trkpt>
      <trkpt lat="44.47254" lon="6.69733">
        <ele>2229.1999511719</ele>
        <time>2022-03-11T10:02:32.000Z</time>
      </trkpt>
      <trkpt lat="44.4725" lon="6.69732">
        <ele>2230.3999023438</ele>
        <time>2022-03-11T10:02:39.000Z</time>
      </trkpt>
      <trkpt lat="44.4725" lon="6.69732">
        <ele>2230.6000976562</ele>
        <time>2022-03-11T10:02:40.000Z</time>
      </trkpt>
      <trkpt lat="44.47247" lon="6.6973">
        <ele>2231.6000976562</ele>
        <time>2022-03-11T10:02:46.000Z</time>
      </trkpt>
      <trkpt lat="44.47245" lon="6.69727">
        <ele>2232.3999023438</ele>
        <time>2022-03-11T10:02:50.000Z</time>
      </trkpt>
      <trkpt lat="44.47244" lon="6.69726">
        <ele>2232.6000976562</ele>
        <time>2022-03-11T10:02:52.000Z</time>
      </trkpt>
      <trkpt lat="44.47245" lon="6.69724">
        <ele>2233.6000976562</ele>
        <time>2022-03-11T10:02:57.000Z</time>
      </trkpt>
      <trkpt lat="44.47245" lon="6.69723">
        <ele>2233.6000976562</ele>
        <time>2022-03-11T10:02:58.000Z</time>
      </trkpt>
      <trkpt lat="44.47246" lon="6.69723">
        <ele>2234.8000488281</ele>
        <time>2022-03-11T10:03:11.000Z</time>
      </trkpt>
      <trkpt lat="44.47245" lon="6.69723">
        <ele>2235.8000488281</ele>
        <time>2022-03-11T10:03:18.000Z</time>
      </trkpt>
      <trkpt lat="44.47245" lon="6.69722">
        <ele>2237</ele>
        <time>2022-03-11T10:03:22.000Z</time>
      </trkpt>
      <trkpt lat="44.47245" lon="6.69715">
        <ele>2238</ele>
        <time>2022-03-11T10:03:30.000Z</time>
      </trkpt>
      <trkpt lat="44.47237" lon="6.69705">
        <ele>2239</ele>
        <time>2022-03-11T10:03:39.000Z</time>
      </trkpt>
      <trkpt lat="44.47236" lon="6.69704">
        <ele>2239.1999511719</ele>
        <time>2022-03-11T10:03:40.000Z</time>
      </trkpt>
      <trkpt lat="44.4723" lon="6.69699">
        <ele>2240.1999511719</ele>
        <time>2022-03-11T10:03:47.000Z</time>
      </trkpt>
      <trkpt lat="44.47228" lon="6.69695">
        <ele>2241.1999511719</ele>
        <time>2022-03-11T10:03:53.000Z</time>
      </trkpt>
      <trkpt lat="44.47225" lon="6.69692">
        <ele>2242.1999511719</ele>
        <time>2022-03-11T10:03:59.000Z</time>
      </trkpt>
      <trkpt lat="44.47225" lon="6.69691">
        <ele>2242.3999023438</ele>
        <time>2022-03-11T10:04:00.000Z</time>
      </trkpt>
      <trkpt lat="44.47222" lon="6.69688">
        <ele>2243.3999023438</ele>
        <time>2022-03-11T10:04:06.000Z</time>
      </trkpt>
      <trkpt lat="44.47221" lon="6.69685">
        <ele>2244</ele>
        <time>2022-03-11T10:04:10.000Z</time>
      </trkpt>
      <trkpt lat="44.47222" lon="6.69679">
        <ele>2244.6000976562</ele>
        <time>2022-03-11T10:04:16.000Z</time>
      </trkpt>
      <trkpt lat="44.47222" lon="6.69679">
        <ele>2245</ele>
        <time>2022-03-11T10:04:20.000Z</time>
      </trkpt>
      <trkpt lat="44.47221" lon="6.69679">
        <ele>2245.6000976562</ele>
        <time>2022-03-11T10:04:35.000Z</time>
      </trkpt>
      <trkpt lat="44.47221" lon="6.69678">
        <ele>2246.6000976562</ele>
        <time>2022-03-11T10:04:44.000Z</time>
      </trkpt>
      <trkpt lat="44.47215" lon="6.69672">
        <ele>2247.8000488281</ele>
        <time>2022-03-11T10:04:51.000Z</time>
      </trkpt>
      <trkpt lat="44.47214" lon="6.6967">
        <ele>2248</ele>
        <time>2022-03-11T10:04:52.000Z</time>
      </trkpt>
      <trkpt lat="44.4721" lon="6.69665">
        <ele>2248.8000488281</ele>
        <time>2022-03-11T10:04:57.000Z</time>
      </trkpt>
      <trkpt lat="44.47207" lon="6.69664">
        <ele>2249.1999511719</ele>
        <time>2022-03-11T10:05:00.000Z</time>
      </trkpt>
      <trkpt lat="44.47205" lon="6.69663">
        <ele>2250</ele>
        <time>2022-03-11T10:05:05.000Z</time>
      </trkpt>
      <trkpt lat="44.47203" lon="6.69661">
        <ele>2250.6000976562</ele>
        <time>2022-03-11T10:05:08.000Z</time>
      </trkpt>
      <trkpt lat="44.47201" lon="6.69659">
        <ele>2251.1999511719</ele>
        <time>2022-03-11T10:05:12.000Z</time>
      </trkpt>
      <trkpt lat="44.47198" lon="6.69658">
        <ele>2252.1999511719</ele>
        <time>2022-03-11T10:05:18.000Z</time>
      </trkpt>
      <trkpt lat="44.47198" lon="6.69658">
        <ele>2252.3999023438</ele>
        <time>2022-03-11T10:05:19.000Z</time>
      </trkpt>
      <trkpt lat="44.47194" lon="6.69658">
        <ele>2253.3999023438</ele>
        <time>2022-03-11T10:05:26.000Z</time>
      </trkpt>
      <trkpt lat="44.47193" lon="6.69659">
        <ele>2253.6000976562</ele>
        <time>2022-03-11T10:05:27.000Z</time>
      </trkpt>
      <trkpt lat="44.47191" lon="6.69659">
        <ele>2254.6000976562</ele>
        <time>2022-03-11T10:05:33.000Z</time>
      </trkpt>
      <trkpt lat="44.4719" lon="6.6966">
        <ele>2254.8000488281</ele>
        <time>2022-03-11T10:05:35.000Z</time>
      </trkpt>
      <trkpt lat="44.47187" lon="6.69658">
        <ele>2255.8000488281</ele>
        <time>2022-03-11T10:05:40.000Z</time>
      </trkpt>
      <trkpt lat="44.47186" lon="6.69656">
        <ele>2256.1999511719</ele>
        <time>2022-03-11T10:05:42.000Z</time>
      </trkpt>
      <trkpt lat="44.47183" lon="6.69648">
        <ele>2257</ele>
        <time>2022-03-11T10:05:50.000Z</time>
      </trkpt>
      <trkpt lat="44.47181" lon="6.69644">
        <ele>2258.1999511719</ele>
        <time>2022-03-11T10:05:56.000Z</time>
      </trkpt>
      <trkpt lat="44.47181" lon="6.69644">
        <ele>2258.1999511719</ele>
        <time>2022-03-11T10:05:57.000Z</time>
      </trkpt>
      <trkpt lat="44.47179" lon="6.6964">
        <ele>2259.1999511719</ele>
        <time>2022-03-11T10:06:02.000Z</time>
      </trkpt>
      <trkpt lat="44.47179" lon="6.69639">
        <ele>2259.3999023438</ele>
        <time>2022-03-11T10:06:04.000Z</time>
      </trkpt>
      <trkpt lat="44.47177" lon="6.69638">
        <ele>2260</ele>
        <time>2022-03-11T10:06:09.000Z</time>
      </trkpt>
      <trkpt lat="44.47177" lon="6.69637">
        <ele>2260.1999511719</ele>
        <time>2022-03-11T10:06:10.000Z</time>
      </trkpt>
      <trkpt lat="44.47175" lon="6.69637">
        <ele>2261.1999511719</ele>
        <time>2022-03-11T10:06:16.000Z</time>
      </trkpt>
      <trkpt lat="44.47175" lon="6.69636">
        <ele>2261.3999023438</ele>
        <time>2022-03-11T10:06:17.000Z</time>
      </trkpt>
      <trkpt lat="44.47176" lon="6.69635">
        <ele>2262</ele>
        <time>2022-03-11T10:06:25.000Z</time>
      </trkpt>
      <trkpt lat="44.47176" lon="6.69635">
        <ele>2262.1999511719</ele>
        <time>2022-03-11T10:06:29.000Z</time>
      </trkpt>
      <trkpt lat="44.47175" lon="6.69635">
        <ele>2263.6000976562</ele>
        <time>2022-03-11T10:06:38.000Z</time>
      </trkpt>
      <trkpt lat="44.47175" lon="6.69635">
        <ele>2264</ele>
        <time>2022-03-11T10:06:40.000Z</time>
      </trkpt>
      <trkpt lat="44.47173" lon="6.69635">
        <ele>2264.8000488281</ele>
        <time>2022-03-11T10:06:44.000Z</time>
      </trkpt>
      <trkpt lat="44.47169" lon="6.69635">
        <ele>2266</ele>
        <time>2022-03-11T10:06:50.000Z</time>
      </trkpt>
      <trkpt lat="44.47166" lon="6.69633">
        <ele>2267</ele>
        <time>2022-03-11T10:06:56.000Z</time>
      </trkpt>
      <trkpt lat="44.47161" lon="6.69632">
        <ele>2268.1999511719</ele>
        <time>2022-03-11T10:07:03.000Z</time>
      </trkpt>
      <trkpt lat="44.47157" lon="6.6963">
        <ele>2269.3999023438</ele>
        <time>2022-03-11T10:07:10.000Z</time>
      </trkpt>
      <trkpt lat="44.47156" lon="6.69629">
        <ele>2270</ele>
        <time>2022-03-11T10:07:13.000Z</time>
      </trkpt>
      <trkpt lat="44.47155" lon="6.69628">
        <ele>2270.6000976562</ele>
        <time>2022-03-11T10:07:16.000Z</time>
      </trkpt>
      <trkpt lat="44.47151" lon="6.69627">
        <ele>2271.6000976562</ele>
        <time>2022-03-11T10:07:23.000Z</time>
      </trkpt>
      <trkpt lat="44.4715" lon="6.69624">
        <ele>2272.8000488281</ele>
        <time>2022-03-11T10:07:29.000Z</time>
      </trkpt>
      <trkpt lat="44.47147" lon="6.69622">
        <ele>2273.8000488281</ele>
        <time>2022-03-11T10:07:34.000Z</time>
      </trkpt>
      <trkpt lat="44.47143" lon="6.6962">
        <ele>2274.8000488281</ele>
        <time>2022-03-11T10:07:42.000Z</time>
      </trkpt>
      <trkpt lat="44.4714" lon="6.69618">
        <ele>2276</ele>
        <time>2022-03-11T10:07:48.000Z</time>
      </trkpt>
      <trkpt lat="44.47138" lon="6.69618">
        <ele>2277</ele>
        <time>2022-03-11T10:07:53.000Z</time>
      </trkpt>
      <trkpt lat="44.47134" lon="6.69616">
        <ele>2278</ele>
        <time>2022-03-11T10:08:01.000Z</time>
      </trkpt>
      <trkpt lat="44.47134" lon="6.69616">
        <ele>2278</ele>
        <time>2022-03-11T10:08:02.000Z</time>
      </trkpt>
      <trkpt lat="44.47128" lon="6.69615">
        <ele>2278.8000488281</ele>
        <time>2022-03-11T10:08:13.000Z</time>
      </trkpt>
      <trkpt lat="44.47128" lon="6.69614">
        <ele>2279.1999511719</ele>
        <time>2022-03-11T10:08:15.000Z</time>
      </trkpt>
      <trkpt lat="44.47124" lon="6.69612">
        <ele>2279.3999023438</ele>
        <time>2022-03-11T10:08:36.000Z</time>
      </trkpt>
      <trkpt lat="44.47123" lon="6.69612">
        <ele>2280.1999511719</ele>
        <time>2022-03-11T10:08:42.000Z</time>
      </trkpt>
      <trkpt lat="44.47116" lon="6.69609">
        <ele>2280</ele>
        <time>2022-03-11T10:09:17.000Z</time>
      </trkpt>
      <trkpt lat="44.47115" lon="6.69608">
        <ele>2280.1999511719</ele>
        <time>2022-03-11T10:09:18.000Z</time>
      </trkpt>
      <trkpt lat="44.47108" lon="6.69604">
        <ele>2281.1999511719</ele>
        <time>2022-03-11T10:09:26.000Z</time>
      </trkpt>
      <trkpt lat="44.47103" lon="6.696">
        <ele>2281.8000488281</ele>
        <time>2022-03-11T10:09:35.000Z</time>
      </trkpt>
      <trkpt lat="44.47101" lon="6.69599">
        <ele>2282.1999511719</ele>
        <time>2022-03-11T10:09:38.000Z</time>
      </trkpt>
      <trkpt lat="44.47095" lon="6.69598">
        <ele>2283.1999511719</ele>
        <time>2022-03-11T10:09:45.000Z</time>
      </trkpt>
      <trkpt lat="44.47094" lon="6.69598">
        <ele>2283.1999511719</ele>
        <time>2022-03-11T10:09:46.000Z</time>
      </trkpt>
      <trkpt lat="44.47089" lon="6.69595">
        <ele>2284.3999023438</ele>
        <time>2022-03-11T10:09:54.000Z</time>
      </trkpt>
      <trkpt lat="44.47086" lon="6.69595">
        <ele>2285.1999511719</ele>
        <time>2022-03-11T10:09:58.000Z</time>
      </trkpt>
      <trkpt lat="44.47085" lon="6.69594">
        <ele>2285.3999023438</ele>
        <time>2022-03-11T10:10:00.000Z</time>
      </trkpt>
      <trkpt lat="44.4708" lon="6.6959">
        <ele>2286.3999023438</ele>
        <time>2022-03-11T10:10:07.000Z</time>
      </trkpt>
      <trkpt lat="44.47076" lon="6.69588">
        <ele>2287.6000976562</ele>
        <time>2022-03-11T10:10:15.000Z</time>
      </trkpt>
      <trkpt lat="44.47073" lon="6.69586">
        <ele>2288.1999511719</ele>
        <time>2022-03-11T10:10:19.000Z</time>
      </trkpt>
      <trkpt lat="44.47072" lon="6.69584">
        <ele>2288.6000976562</ele>
        <time>2022-03-11T10:10:21.000Z</time>
      </trkpt>
      <trkpt lat="44.47068" lon="6.69582">
        <ele>2289.6000976562</ele>
        <time>2022-03-11T10:10:28.000Z</time>
      </trkpt>
      <trkpt lat="44.47067" lon="6.69582">
        <ele>2289.8000488281</ele>
        <time>2022-03-11T10:10:30.000Z</time>
      </trkpt>
      <trkpt lat="44.47064" lon="6.6958">
        <ele>2290.8000488281</ele>
        <time>2022-03-11T10:10:36.000Z</time>
      </trkpt>
      <trkpt lat="44.47062" lon="6.69579">
        <ele>2291</ele>
        <time>2022-03-11T10:10:39.000Z</time>
      </trkpt>
      <trkpt lat="44.47059" lon="6.69576">
        <ele>2292</ele>
        <time>2022-03-11T10:10:44.000Z</time>
      </trkpt>
      <trkpt lat="44.47057" lon="6.69575">
        <ele>2292.6000976562</ele>
        <time>2022-03-11T10:10:48.000Z</time>
      </trkpt>
      <trkpt lat="44.47056" lon="6.69574">
        <ele>2293.1999511719</ele>
        <time>2022-03-11T10:10:50.000Z</time>
      </trkpt>
      <trkpt lat="44.47055" lon="6.69569">
        <ele>2294.1999511719</ele>
        <time>2022-03-11T10:10:55.000Z</time>
      </trkpt>
      <trkpt lat="44.47052" lon="6.69565">
        <ele>2294.8000488281</ele>
        <time>2022-03-11T10:11:01.000Z</time>
      </trkpt>
      <trkpt lat="44.47052" lon="6.69565">
        <ele>2295</ele>
        <time>2022-03-11T10:11:02.000Z</time>
      </trkpt>
      <trkpt lat="44.47051" lon="6.69564">
        <ele>2295.1999511719</ele>
        <time>2022-03-11T10:11:04.000Z</time>
      </trkpt>
      <trkpt lat="44.4705" lon="6.69559">
        <ele>2296</ele>
        <time>2022-03-11T10:11:11.000Z</time>
      </trkpt>
      <trkpt lat="44.4705" lon="6.69559">
        <ele>2296.3999023438</ele>
        <time>2022-03-11T10:11:14.000Z</time>
      </trkpt>
      <trkpt lat="44.47049" lon="6.69561">
        <ele>2296.3999023438</ele>
        <time>2022-03-11T10:11:21.000Z</time>
      </trkpt>
      <trkpt lat="44.47049" lon="6.69559">
        <ele>2296.8000488281</ele>
        <time>2022-03-11T10:11:34.000Z</time>
      </trkpt>
      <trkpt lat="44.47049" lon="6.69559">
        <ele>2296.1999511719</ele>
        <time>2022-03-11T10:12:03.000Z</time>
      </trkpt>
      <trkpt lat="44.47049" lon="6.69556">
        <ele>2296.6000976562</ele>
        <time>2022-03-11T10:12:34.000Z</time>
      </trkpt>
      <trkpt lat="44.4705" lon="6.69555">
        <ele>2296.3999023438</ele>
        <time>2022-03-11T10:12:56.000Z</time>
      </trkpt>
      <trkpt lat="44.47048" lon="6.69558">
        <ele>2296</ele>
        <time>2022-03-11T10:13:27.000Z</time>
      </trkpt>
      <trkpt lat="44.47047" lon="6.69559">
        <ele>2297.3999023438</ele>
        <time>2022-03-11T10:13:50.000Z</time>
      </trkpt>
      <trkpt lat="44.47041" lon="6.69555">
        <ele>2298.3999023438</ele>
        <time>2022-03-11T10:13:56.000Z</time>
      </trkpt>
      <trkpt lat="44.47035" lon="6.69553">
        <ele>2299.3999023438</ele>
        <time>2022-03-11T10:14:02.000Z</time>
      </trkpt>
      <trkpt lat="44.47033" lon="6.69552">
        <ele>2300</ele>
        <time>2022-03-11T10:14:04.000Z</time>
      </trkpt>
      <trkpt lat="44.47032" lon="6.6955">
        <ele>2300.6000976562</ele>
        <time>2022-03-11T10:14:07.000Z</time>
      </trkpt>
      <trkpt lat="44.47028" lon="6.69549">
        <ele>2301.6000976562</ele>
        <time>2022-03-11T10:14:14.000Z</time>
      </trkpt>
      <trkpt lat="44.47027" lon="6.69548">
        <ele>2301.8000488281</ele>
        <time>2022-03-11T10:14:15.000Z</time>
      </trkpt>
      <trkpt lat="44.47023" lon="6.69548">
        <ele>2302.8000488281</ele>
        <time>2022-03-11T10:14:21.000Z</time>
      </trkpt>
      <trkpt lat="44.4702" lon="6.69546">
        <ele>2303.3999023438</ele>
        <time>2022-03-11T10:14:27.000Z</time>
      </trkpt>
      <trkpt lat="44.47019" lon="6.69546">
        <ele>2303.6000976562</ele>
        <time>2022-03-11T10:14:28.000Z</time>
      </trkpt>
      <trkpt lat="44.47019" lon="6.69546">
        <ele>2303.8000488281</ele>
        <time>2022-03-11T10:14:29.000Z</time>
      </trkpt>
      <trkpt lat="44.47015" lon="6.69544">
        <ele>2304.3999023438</ele>
        <time>2022-03-11T10:14:35.000Z</time>
      </trkpt>
      <trkpt lat="44.47014" lon="6.69544">
        <ele>2304.8000488281</ele>
        <time>2022-03-11T10:14:37.000Z</time>
      </trkpt>
      <trkpt lat="44.47009" lon="6.69544">
        <ele>2306</ele>
        <time>2022-03-11T10:14:44.000Z</time>
      </trkpt>
      <trkpt lat="44.47009" lon="6.69544">
        <ele>2306.1999511719</ele>
        <time>2022-03-11T10:14:45.000Z</time>
      </trkpt>
      <trkpt lat="44.47007" lon="6.69545">
        <ele>2307</ele>
        <time>2022-03-11T10:14:55.000Z</time>
      </trkpt>
      <trkpt lat="44.47005" lon="6.69545">
        <ele>2307</ele>
        <time>2022-03-11T10:14:57.000Z</time>
      </trkpt>
      <trkpt lat="44.47004" lon="6.69544">
        <ele>2308.1999511719</ele>
        <time>2022-03-11T10:15:01.000Z</time>
      </trkpt>
      <trkpt lat="44.47003" lon="6.69544">
        <ele>2308.3999023438</ele>
        <time>2022-03-11T10:15:02.000Z</time>
      </trkpt>
      <trkpt lat="44.47002" lon="6.69544">
        <ele>2309.1999511719</ele>
        <time>2022-03-11T10:15:06.000Z</time>
      </trkpt>
      <trkpt lat="44.47001" lon="6.69543">
        <ele>2309.8000488281</ele>
        <time>2022-03-11T10:15:09.000Z</time>
      </trkpt>
      <trkpt lat="44.46999" lon="6.69544">
        <ele>2310.1999511719</ele>
        <time>2022-03-11T10:15:11.000Z</time>
      </trkpt>
      <trkpt lat="44.46998" lon="6.69544">
        <ele>2310.3999023438</ele>
        <time>2022-03-11T10:15:12.000Z</time>
      </trkpt>
      <trkpt lat="44.46995" lon="6.69544">
        <ele>2311.6000976562</ele>
        <time>2022-03-11T10:15:17.000Z</time>
      </trkpt>
      <trkpt lat="44.46995" lon="6.69543">
        <ele>2311.8000488281</ele>
        <time>2022-03-11T10:15:18.000Z</time>
      </trkpt>
      <trkpt lat="44.46991" lon="6.69543">
        <ele>2312.6000976562</ele>
        <time>2022-03-11T10:15:24.000Z</time>
      </trkpt>
      <trkpt lat="44.4699" lon="6.69544">
        <ele>2313.1999511719</ele>
        <time>2022-03-11T10:15:26.000Z</time>
      </trkpt>
      <trkpt lat="44.46987" lon="6.69545">
        <ele>2313.6000976562</ele>
        <time>2022-03-11T10:15:29.000Z</time>
      </trkpt>
      <trkpt lat="44.46986" lon="6.69546">
        <ele>2313.6000976562</ele>
        <time>2022-03-11T10:15:30.000Z</time>
      </trkpt>
      <trkpt lat="44.46985" lon="6.69545">
        <ele>2315</ele>
        <time>2022-03-11T10:15:35.000Z</time>
      </trkpt>
      <trkpt lat="44.46983" lon="6.69546">
        <ele>2315.3999023438</ele>
        <time>2022-03-11T10:15:37.000Z</time>
      </trkpt>
      <trkpt lat="44.46982" lon="6.69547">
        <ele>2315.3999023438</ele>
        <time>2022-03-11T10:15:39.000Z</time>
      </trkpt>
      <trkpt lat="44.46981" lon="6.69547">
        <ele>2316</ele>
        <time>2022-03-11T10:15:42.000Z</time>
      </trkpt>
      <trkpt lat="44.46979" lon="6.69548">
        <ele>2316.6000976562</ele>
        <time>2022-03-11T10:15:45.000Z</time>
      </trkpt>
      <trkpt lat="44.46977" lon="6.6955">
        <ele>2317.1999511719</ele>
        <time>2022-03-11T10:15:48.000Z</time>
      </trkpt>
      <trkpt lat="44.46974" lon="6.69552">
        <ele>2318</ele>
        <time>2022-03-11T10:15:52.000Z</time>
      </trkpt>
      <trkpt lat="44.46973" lon="6.69554">
        <ele>2318</ele>
        <time>2022-03-11T10:15:53.000Z</time>
      </trkpt>
      <trkpt lat="44.46972" lon="6.69554">
        <ele>2318.3999023438</ele>
        <time>2022-03-11T10:15:55.000Z</time>
      </trkpt>
      <trkpt lat="44.4697" lon="6.69556">
        <ele>2319</ele>
        <time>2022-03-11T10:15:59.000Z</time>
      </trkpt>
      <trkpt lat="44.46969" lon="6.69556">
        <ele>2319.3999023438</ele>
        <time>2022-03-11T10:16:01.000Z</time>
      </trkpt>
      <trkpt lat="44.46966" lon="6.69557">
        <ele>2320.3999023438</ele>
        <time>2022-03-11T10:16:06.000Z</time>
      </trkpt>
      <trkpt lat="44.46964" lon="6.69558">
        <ele>2321.3999023438</ele>
        <time>2022-03-11T10:16:12.000Z</time>
      </trkpt>
      <trkpt lat="44.46963" lon="6.69558">
        <ele>2321.8000488281</ele>
        <time>2022-03-11T10:16:13.000Z</time>
      </trkpt>
      <trkpt lat="44.46961" lon="6.6956">
        <ele>2322.1999511719</ele>
        <time>2022-03-11T10:16:18.000Z</time>
      </trkpt>
      <trkpt lat="44.46959" lon="6.6956">
        <ele>2322.3999023438</ele>
        <time>2022-03-11T10:16:21.000Z</time>
      </trkpt>
      <trkpt lat="44.46957" lon="6.69561">
        <ele>2322.8000488281</ele>
        <time>2022-03-11T10:16:24.000Z</time>
      </trkpt>
      <trkpt lat="44.46953" lon="6.69561">
        <ele>2323.8000488281</ele>
        <time>2022-03-11T10:16:31.000Z</time>
      </trkpt>
      <trkpt lat="44.46951" lon="6.69562">
        <ele>2324</ele>
        <time>2022-03-11T10:16:34.000Z</time>
      </trkpt>
      <trkpt lat="44.46947" lon="6.69566">
        <ele>2324.6000976562</ele>
        <time>2022-03-11T10:16:41.000Z</time>
      </trkpt>
      <trkpt lat="44.46946" lon="6.69567">
        <ele>2324.8000488281</ele>
        <time>2022-03-11T10:16:46.000Z</time>
      </trkpt>
      <trkpt lat="44.46944" lon="6.69568">
        <ele>2325.1999511719</ele>
        <time>2022-03-11T10:16:49.000Z</time>
      </trkpt>
      <trkpt lat="44.46945" lon="6.69567">
        <ele>2326</ele>
        <time>2022-03-11T10:16:54.000Z</time>
      </trkpt>
      <trkpt lat="44.46944" lon="6.69566">
        <ele>2326.1999511719</ele>
        <time>2022-03-11T10:16:56.000Z</time>
      </trkpt>
      <trkpt lat="44.46944" lon="6.69564">
        <ele>2326.1999511719</ele>
        <time>2022-03-11T10:16:59.000Z</time>
      </trkpt>
      <trkpt lat="44.46943" lon="6.69562">
        <ele>2326.6000976562</ele>
        <time>2022-03-11T10:17:02.000Z</time>
      </trkpt>
      <trkpt lat="44.46942" lon="6.69562">
        <ele>2327</ele>
        <time>2022-03-11T10:17:04.000Z</time>
      </trkpt>
      <trkpt lat="44.46941" lon="6.6956">
        <ele>2327.3999023438</ele>
        <time>2022-03-11T10:17:06.000Z</time>
      </trkpt>
      <trkpt lat="44.46942" lon="6.69556">
        <ele>2327.6000976562</ele>
        <time>2022-03-11T10:17:09.000Z</time>
      </trkpt>
      <trkpt lat="44.46942" lon="6.69553">
        <ele>2328</ele>
        <time>2022-03-11T10:17:12.000Z</time>
      </trkpt>
      <trkpt lat="44.46941" lon="6.69551">
        <ele>2328.3999023438</ele>
        <time>2022-03-11T10:17:16.000Z</time>
      </trkpt>
      <trkpt lat="44.46942" lon="6.69548">
        <ele>2329.1999511719</ele>
        <time>2022-03-11T10:17:20.000Z</time>
      </trkpt>
      <trkpt lat="44.46942" lon="6.69546">
        <ele>2329.3999023438</ele>
        <time>2022-03-11T10:17:23.000Z</time>
      </trkpt>
      <trkpt lat="44.46938" lon="6.69544">
        <ele>2330.1999511719</ele>
        <time>2022-03-11T10:17:30.000Z</time>
      </trkpt>
      <trkpt lat="44.46938" lon="6.69543">
        <ele>2330.3999023438</ele>
        <time>2022-03-11T10:17:32.000Z</time>
      </trkpt>
      <trkpt lat="44.46936" lon="6.69543">
        <ele>2330.8000488281</ele>
        <time>2022-03-11T10:17:39.000Z</time>
      </trkpt>
      <trkpt lat="44.46936" lon="6.69544">
        <ele>2330.8000488281</ele>
        <time>2022-03-11T10:17:48.000Z</time>
      </trkpt>
      <trkpt lat="44.46936" lon="6.69544">
        <ele>2330.6000976562</ele>
        <time>2022-03-11T10:18:02.000Z</time>
      </trkpt>
      <trkpt lat="44.46942" lon="6.69539">
        <ele>2329</ele>
        <time>2022-03-11T10:19:49.000Z</time>
      </trkpt>
      <trkpt lat="44.46941" lon="6.6954">
        <ele>2329</ele>
        <time>2022-03-11T10:19:57.000Z</time>
      </trkpt>
      <trkpt lat="44.46939" lon="6.69541">
        <ele>2330</ele>
        <time>2022-03-11T10:20:20.000Z</time>
      </trkpt>
      <trkpt lat="44.4694" lon="6.69538">
        <ele>2329.3999023438</ele>
        <time>2022-03-11T10:20:42.000Z</time>
      </trkpt>
      <trkpt lat="44.46942" lon="6.69537">
        <ele>2329.8000488281</ele>
        <time>2022-03-11T10:21:01.000Z</time>
      </trkpt>
      <trkpt lat="44.46941" lon="6.69537">
        <ele>2329.8000488281</ele>
        <time>2022-03-11T10:21:08.000Z</time>
      </trkpt>
      <trkpt lat="44.4694" lon="6.69538">
        <ele>2330</ele>
        <time>2022-03-11T10:21:10.000Z</time>
      </trkpt>
      <trkpt lat="44.46937" lon="6.69539">
        <ele>2330</ele>
        <time>2022-03-11T10:21:17.000Z</time>
      </trkpt>
      <trkpt lat="44.46939" lon="6.6954">
        <ele>2330.1999511719</ele>
        <time>2022-03-11T10:21:27.000Z</time>
      </trkpt>
      <trkpt lat="44.46939" lon="6.6954">
        <ele>2330.1999511719</ele>
        <time>2022-03-11T10:21:29.000Z</time>
      </trkpt>
      <trkpt lat="44.46939" lon="6.69543">
        <ele>2330.1999511719</ele>
        <time>2022-03-11T10:22:51.000Z</time>
      </trkpt>
      <trkpt lat="44.46937" lon="6.69543">
        <ele>2330</ele>
        <time>2022-03-11T10:23:30.000Z</time>
      </trkpt>
      <trkpt lat="44.4694" lon="6.69541">
        <ele>2330.3999023438</ele>
        <time>2022-03-11T10:25:01.000Z</time>
      </trkpt>
      <trkpt lat="44.4694" lon="6.69541">
        <ele>2331.1999511719</ele>
        <time>2022-03-11T10:25:38.000Z</time>
      </trkpt>
      <trkpt lat="44.46941" lon="6.6954">
        <ele>2330</ele>
        <time>2022-03-11T10:27:04.000Z</time>
      </trkpt>
      <trkpt lat="44.46941" lon="6.6954">
        <ele>2330.1999511719</ele>
        <time>2022-03-11T10:28:01.000Z</time>
      </trkpt>
      <trkpt lat="44.46942" lon="6.6954">
        <ele>2331.1999511719</ele>
        <time>2022-03-11T10:28:43.000Z</time>
      </trkpt>
      <trkpt lat="44.46942" lon="6.6954">
        <ele>2330.8000488281</ele>
        <time>2022-03-11T10:29:16.000Z</time>
      </trkpt>
      <trkpt lat="44.46942" lon="6.6954">
        <ele>2330.8000488281</ele>
        <time>2022-03-11T10:30:07.000Z</time>
      </trkpt>
      <trkpt lat="44.46943" lon="6.6954">
        <ele>2331.1999511719</ele>
        <time>2022-03-11T10:30:25.000Z</time>
      </trkpt>
      <trkpt lat="44.46945" lon="6.6954">
        <ele>2331</ele>
        <time>2022-03-11T10:30:44.000Z</time>
      </trkpt>
      <trkpt lat="44.46944" lon="6.69539">
        <ele>2331.3999023438</ele>
        <time>2022-03-11T10:32:19.000Z</time>
      </trkpt>
      <trkpt lat="44.46944" lon="6.69539">
        <ele>2331.6000976562</ele>
        <time>2022-03-11T10:32:28.000Z</time>
      </trkpt>
      <trkpt lat="44.46946" lon="6.69551">
        <ele>2330.1999511719</ele>
        <time>2022-03-11T10:32:30.000Z</time>
      </trkpt>
      <trkpt lat="44.46947" lon="6.69556">
        <ele>2329</ele>
        <time>2022-03-11T10:32:31.000Z</time>
      </trkpt>
      <trkpt lat="44.46949" lon="6.69567">
        <ele>2327.6000976562</ele>
        <time>2022-03-11T10:32:34.000Z</time>
      </trkpt>
      <trkpt lat="44.46954" lon="6.69576">
        <ele>2326</ele>
        <time>2022-03-11T10:32:37.000Z</time>
      </trkpt>
      <trkpt lat="44.46956" lon="6.69578">
        <ele>2324.3999023438</ele>
        <time>2022-03-11T10:32:39.000Z</time>
      </trkpt>
      <trkpt lat="44.46958" lon="6.69579">
        <ele>2324</ele>
        <time>2022-03-11T10:32:41.000Z</time>
      </trkpt>
      <trkpt lat="44.46962" lon="6.69577">
        <ele>2323.3999023438</ele>
        <time>2022-03-11T10:32:43.000Z</time>
      </trkpt>
      <trkpt lat="44.46964" lon="6.69576">
        <ele>2323</ele>
        <time>2022-03-11T10:32:44.000Z</time>
      </trkpt>
      <trkpt lat="44.46965" lon="6.69578">
        <ele>2322.3999023438</ele>
        <time>2022-03-11T10:32:45.000Z</time>
      </trkpt>
      <trkpt lat="44.46966" lon="6.6958">
        <ele>2321.8000488281</ele>
        <time>2022-03-11T10:32:46.000Z</time>
      </trkpt>
      <trkpt lat="44.46967" lon="6.69581">
        <ele>2321</ele>
        <time>2022-03-11T10:32:47.000Z</time>
      </trkpt>
      <trkpt lat="44.46968" lon="6.69581">
        <ele>2320.3999023438</ele>
        <time>2022-03-11T10:32:48.000Z</time>
      </trkpt>
      <trkpt lat="44.4697" lon="6.6958">
        <ele>2319.8000488281</ele>
        <time>2022-03-11T10:32:49.000Z</time>
      </trkpt>
      <trkpt lat="44.4697" lon="6.69579">
        <ele>2319</ele>
        <time>2022-03-11T10:32:50.000Z</time>
      </trkpt>
      <trkpt lat="44.46971" lon="6.69578">
        <ele>2318.6000976562</ele>
        <time>2022-03-11T10:32:51.000Z</time>
      </trkpt>
      <trkpt lat="44.46972" lon="6.69578">
        <ele>2317.8000488281</ele>
        <time>2022-03-11T10:32:53.000Z</time>
      </trkpt>
      <trkpt lat="44.46973" lon="6.6958">
        <ele>2317.6000976562</ele>
        <time>2022-03-11T10:32:54.000Z</time>
      </trkpt>
      <trkpt lat="44.46973" lon="6.69587">
        <ele>2316.1999511719</ele>
        <time>2022-03-11T10:32:56.000Z</time>
      </trkpt>
      <trkpt lat="44.46973" lon="6.69593">
        <ele>2314.1999511719</ele>
        <time>2022-03-11T10:32:58.000Z</time>
      </trkpt>
      <trkpt lat="44.46974" lon="6.69601">
        <ele>2312.8000488281</ele>
        <time>2022-03-11T10:33:01.000Z</time>
      </trkpt>
      <trkpt lat="44.46974" lon="6.69603">
        <ele>2312.3999023438</ele>
        <time>2022-03-11T10:33:02.000Z</time>
      </trkpt>
      <trkpt lat="44.46975" lon="6.69606">
        <ele>2311.6000976562</ele>
        <time>2022-03-11T10:33:04.000Z</time>
      </trkpt>
      <trkpt lat="44.46977" lon="6.69607">
        <ele>2310.8000488281</ele>
        <time>2022-03-11T10:33:06.000Z</time>
      </trkpt>
      <trkpt lat="44.46978" lon="6.69605">
        <ele>2310.6000976562</ele>
        <time>2022-03-11T10:33:07.000Z</time>
      </trkpt>
      <trkpt lat="44.46979" lon="6.69603">
        <ele>2310.3999023438</ele>
        <time>2022-03-11T10:33:08.000Z</time>
      </trkpt>
      <trkpt lat="44.46981" lon="6.69601">
        <ele>2309.1999511719</ele>
        <time>2022-03-11T10:33:09.000Z</time>
      </trkpt>
      <trkpt lat="44.46981" lon="6.696">
        <ele>2307.6000976562</ele>
        <time>2022-03-11T10:33:11.000Z</time>
      </trkpt>
      <trkpt lat="44.46984" lon="6.696">
        <ele>2306.6000976562</ele>
        <time>2022-03-11T10:33:14.000Z</time>
      </trkpt>
      <trkpt lat="44.46985" lon="6.69602">
        <ele>2306.1999511719</ele>
        <time>2022-03-11T10:33:15.000Z</time>
      </trkpt>
      <trkpt lat="44.46986" lon="6.69606">
        <ele>2305.1999511719</ele>
        <time>2022-03-11T10:33:16.000Z</time>
      </trkpt>
      <trkpt lat="44.46988" lon="6.69611">
        <ele>2303.3999023438</ele>
        <time>2022-03-11T10:33:18.000Z</time>
      </trkpt>
      <trkpt lat="44.46988" lon="6.69613">
        <ele>2303</ele>
        <time>2022-03-11T10:33:19.000Z</time>
      </trkpt>
      <trkpt lat="44.4699" lon="6.69615">
        <ele>2302.6000976562</ele>
        <time>2022-03-11T10:33:20.000Z</time>
      </trkpt>
      <trkpt lat="44.46991" lon="6.69613">
        <ele>2302</ele>
        <time>2022-03-11T10:33:21.000Z</time>
      </trkpt>
      <trkpt lat="44.46993" lon="6.6961">
        <ele>2301.3999023438</ele>
        <time>2022-03-11T10:33:22.000Z</time>
      </trkpt>
      <trkpt lat="44.46994" lon="6.69608">
        <ele>2300.6000976562</ele>
        <time>2022-03-11T10:33:23.000Z</time>
      </trkpt>
      <trkpt lat="44.46995" lon="6.69606">
        <ele>2299.6000976562</ele>
        <time>2022-03-11T10:33:25.000Z</time>
      </trkpt>
      <trkpt lat="44.46996" lon="6.69605">
        <ele>2299.3999023438</ele>
        <time>2022-03-11T10:33:26.000Z</time>
      </trkpt>
      <trkpt lat="44.47" lon="6.69607">
        <ele>2299.1999511719</ele>
        <time>2022-03-11T10:33:29.000Z</time>
      </trkpt>
      <trkpt lat="44.47003" lon="6.69617">
        <ele>2298.1999511719</ele>
        <time>2022-03-11T10:33:31.000Z</time>
      </trkpt>
      <trkpt lat="44.47003" lon="6.69621">
        <ele>2296.6000976562</ele>
        <time>2022-03-11T10:33:32.000Z</time>
      </trkpt>
      <trkpt lat="44.47002" lon="6.69624">
        <ele>2295</ele>
        <time>2022-03-11T10:33:33.000Z</time>
      </trkpt>
      <trkpt lat="44.47002" lon="6.69625">
        <ele>2294</ele>
        <time>2022-03-11T10:33:34.000Z</time>
      </trkpt>
      <trkpt lat="44.47003" lon="6.69626">
        <ele>2293.6000976562</ele>
        <time>2022-03-11T10:33:35.000Z</time>
      </trkpt>
      <trkpt lat="44.47006" lon="6.69622">
        <ele>2293</ele>
        <time>2022-03-11T10:33:37.000Z</time>
      </trkpt>
      <trkpt lat="44.47008" lon="6.69619">
        <ele>2292</ele>
        <time>2022-03-11T10:33:38.000Z</time>
      </trkpt>
      <trkpt lat="44.47011" lon="6.69614">
        <ele>2290.6000976562</ele>
        <time>2022-03-11T10:33:40.000Z</time>
      </trkpt>
      <trkpt lat="44.47012" lon="6.69612">
        <ele>2290.1999511719</ele>
        <time>2022-03-11T10:33:41.000Z</time>
      </trkpt>
      <trkpt lat="44.47014" lon="6.69613">
        <ele>2290</ele>
        <time>2022-03-11T10:33:42.000Z</time>
      </trkpt>
      <trkpt lat="44.47022" lon="6.69629">
        <ele>2288.1999511719</ele>
        <time>2022-03-11T10:33:45.000Z</time>
      </trkpt>
      <trkpt lat="44.47025" lon="6.69638">
        <ele>2286.6000976562</ele>
        <time>2022-03-11T10:33:46.000Z</time>
      </trkpt>
      <trkpt lat="44.47028" lon="6.69645">
        <ele>2285</ele>
        <time>2022-03-11T10:33:47.000Z</time>
      </trkpt>
      <trkpt lat="44.47031" lon="6.69651">
        <ele>2283.8000488281</ele>
        <time>2022-03-11T10:33:48.000Z</time>
      </trkpt>
      <trkpt lat="44.47033" lon="6.69656">
        <ele>2283.1999511719</ele>
        <time>2022-03-11T10:33:49.000Z</time>
      </trkpt>
      <trkpt lat="44.47037" lon="6.69665">
        <ele>2282.8000488281</ele>
        <time>2022-03-11T10:33:51.000Z</time>
      </trkpt>
      <trkpt lat="44.4704" lon="6.69675">
        <ele>2283.1999511719</ele>
        <time>2022-03-11T10:33:54.000Z</time>
      </trkpt>
      <trkpt lat="44.47048" lon="6.69697">
        <ele>2282</ele>
        <time>2022-03-11T10:34:01.000Z</time>
      </trkpt>
      <trkpt lat="44.47049" lon="6.697">
        <ele>2281.6000976562</ele>
        <time>2022-03-11T10:34:02.000Z</time>
      </trkpt>
      <trkpt lat="44.47059" lon="6.69715">
        <ele>2280.3999023438</ele>
        <time>2022-03-11T10:34:08.000Z</time>
      </trkpt>
      <trkpt lat="44.47069" lon="6.69726">
        <ele>2279</ele>
        <time>2022-03-11T10:34:11.000Z</time>
      </trkpt>
      <trkpt lat="44.47072" lon="6.69731">
        <ele>2278.3999023438</ele>
        <time>2022-03-11T10:34:12.000Z</time>
      </trkpt>
      <trkpt lat="44.47072" lon="6.69735">
        <ele>2277.8000488281</ele>
        <time>2022-03-11T10:34:13.000Z</time>
      </trkpt>
      <trkpt lat="44.47072" lon="6.69738">
        <ele>2276.8000488281</ele>
        <time>2022-03-11T10:34:14.000Z</time>
      </trkpt>
      <trkpt lat="44.47072" lon="6.69739">
        <ele>2276</ele>
        <time>2022-03-11T10:34:15.000Z</time>
      </trkpt>
      <trkpt lat="44.47072" lon="6.69739">
        <ele>2275.6000976562</ele>
        <time>2022-03-11T10:34:16.000Z</time>
      </trkpt>
      <trkpt lat="44.47072" lon="6.69739">
        <ele>2275.1999511719</ele>
        <time>2022-03-11T10:34:17.000Z</time>
      </trkpt>
      <trkpt lat="44.47072" lon="6.69739">
        <ele>2275</ele>
        <time>2022-03-11T10:34:19.000Z</time>
      </trkpt>
      <trkpt lat="44.4707" lon="6.69738">
        <ele>2275</ele>
        <time>2022-03-11T10:34:31.000Z</time>
      </trkpt>
      <trkpt lat="44.47063" lon="6.69737">
        <ele>2274.6000976562</ele>
        <time>2022-03-11T10:35:23.000Z</time>
      </trkpt>
      <trkpt lat="44.47063" lon="6.69737">
        <ele>2274.3999023438</ele>
        <time>2022-03-11T10:35:48.000Z</time>
      </trkpt>
      <trkpt lat="44.47067" lon="6.69746">
        <ele>2272.8000488281</ele>
        <time>2022-03-11T10:36:31.000Z</time>
      </trkpt>
      <trkpt lat="44.47068" lon="6.69755">
        <ele>2271</ele>
        <time>2022-03-11T10:36:33.000Z</time>
      </trkpt>
      <trkpt lat="44.4707" lon="6.69759">
        <ele>2270.1999511719</ele>
        <time>2022-03-11T10:36:34.000Z</time>
      </trkpt>
      <trkpt lat="44.47073" lon="6.69761">
        <ele>2269.8000488281</ele>
        <time>2022-03-11T10:36:35.000Z</time>
      </trkpt>
      <trkpt lat="44.47078" lon="6.69764">
        <ele>2268.6000976562</ele>
        <time>2022-03-11T10:36:36.000Z</time>
      </trkpt>
      <trkpt lat="44.4708" lon="6.69768">
        <ele>2268</ele>
        <time>2022-03-11T10:36:37.000Z</time>
      </trkpt>
      <trkpt lat="44.47081" lon="6.69774">
        <ele>2266</ele>
        <time>2022-03-11T10:36:38.000Z</time>
      </trkpt>
      <trkpt lat="44.4708" lon="6.69779">
        <ele>2265</ele>
        <time>2022-03-11T10:36:39.000Z</time>
      </trkpt>
      <trkpt lat="44.47079" lon="6.69783">
        <ele>2264</ele>
        <time>2022-03-11T10:36:40.000Z</time>
      </trkpt>
      <trkpt lat="44.47075" lon="6.69788">
        <ele>2262.8000488281</ele>
        <time>2022-03-11T10:36:41.000Z</time>
      </trkpt>
      <trkpt lat="44.47079" lon="6.69791">
        <ele>2262</ele>
        <time>2022-03-11T10:36:42.000Z</time>
      </trkpt>
      <trkpt lat="44.47082" lon="6.69796">
        <ele>2261.1999511719</ele>
        <time>2022-03-11T10:36:43.000Z</time>
      </trkpt>
      <trkpt lat="44.47084" lon="6.69802">
        <ele>2259.8000488281</ele>
        <time>2022-03-11T10:36:44.000Z</time>
      </trkpt>
      <trkpt lat="44.47088" lon="6.69808">
        <ele>2259</ele>
        <time>2022-03-11T10:36:45.000Z</time>
      </trkpt>
      <trkpt lat="44.47092" lon="6.69807">
        <ele>2258.1999511719</ele>
        <time>2022-03-11T10:36:46.000Z</time>
      </trkpt>
      <trkpt lat="44.47097" lon="6.69807">
        <ele>2256.1999511719</ele>
        <time>2022-03-11T10:36:47.000Z</time>
      </trkpt>
      <trkpt lat="44.47102" lon="6.69808">
        <ele>2255.1999511719</ele>
        <time>2022-03-11T10:36:48.000Z</time>
      </trkpt>
      <trkpt lat="44.47109" lon="6.69814">
        <ele>2253</ele>
        <time>2022-03-11T10:36:50.000Z</time>
      </trkpt>
      <trkpt lat="44.47109" lon="6.69826">
        <ele>2250.3999023438</ele>
        <time>2022-03-11T10:36:52.000Z</time>
      </trkpt>
      <trkpt lat="44.47109" lon="6.69831">
        <ele>2248.8000488281</ele>
        <time>2022-03-11T10:36:53.000Z</time>
      </trkpt>
      <trkpt lat="44.47109" lon="6.69836">
        <ele>2248</ele>
        <time>2022-03-11T10:36:54.000Z</time>
      </trkpt>
      <trkpt lat="44.4711" lon="6.69838">
        <ele>2247.6000976562</ele>
        <time>2022-03-11T10:36:55.000Z</time>
      </trkpt>
      <trkpt lat="44.47115" lon="6.69837">
        <ele>2247</ele>
        <time>2022-03-11T10:36:57.000Z</time>
      </trkpt>
      <trkpt lat="44.47126" lon="6.69832">
        <ele>2245.6000976562</ele>
        <time>2022-03-11T10:36:59.000Z</time>
      </trkpt>
      <trkpt lat="44.4713" lon="6.6983">
        <ele>2244.6000976562</ele>
        <time>2022-03-11T10:37:00.000Z</time>
      </trkpt>
      <trkpt lat="44.47136" lon="6.69831">
        <ele>2243.8000488281</ele>
        <time>2022-03-11T10:37:01.000Z</time>
      </trkpt>
      <trkpt lat="44.4714" lon="6.69835">
        <ele>2243.1999511719</ele>
        <time>2022-03-11T10:37:02.000Z</time>
      </trkpt>
      <trkpt lat="44.4714" lon="6.69841">
        <ele>2242.6000976562</ele>
        <time>2022-03-11T10:37:03.000Z</time>
      </trkpt>
      <trkpt lat="44.47141" lon="6.69847">
        <ele>2241.8000488281</ele>
        <time>2022-03-11T10:37:04.000Z</time>
      </trkpt>
      <trkpt lat="44.4714" lon="6.69853">
        <ele>2239.8000488281</ele>
        <time>2022-03-11T10:37:05.000Z</time>
      </trkpt>
      <trkpt lat="44.4714" lon="6.69859">
        <ele>2238.6000976562</ele>
        <time>2022-03-11T10:37:06.000Z</time>
      </trkpt>
      <trkpt lat="44.4714" lon="6.69864">
        <ele>2237.8000488281</ele>
        <time>2022-03-11T10:37:07.000Z</time>
      </trkpt>
      <trkpt lat="44.47141" lon="6.69867">
        <ele>2237.1999511719</ele>
        <time>2022-03-11T10:37:08.000Z</time>
      </trkpt>
      <trkpt lat="44.47142" lon="6.69869">
        <ele>2236.6000976562</ele>
        <time>2022-03-11T10:37:09.000Z</time>
      </trkpt>
      <trkpt lat="44.47145" lon="6.6987">
        <ele>2236.1999511719</ele>
        <time>2022-03-11T10:37:10.000Z</time>
      </trkpt>
      <trkpt lat="44.47151" lon="6.69874">
        <ele>2235.6000976562</ele>
        <time>2022-03-11T10:37:12.000Z</time>
      </trkpt>
      <trkpt lat="44.47154" lon="6.69876">
        <ele>2234.8000488281</ele>
        <time>2022-03-11T10:37:13.000Z</time>
      </trkpt>
      <trkpt lat="44.47158" lon="6.69879">
        <ele>2233.1999511719</ele>
        <time>2022-03-11T10:37:14.000Z</time>
      </trkpt>
      <trkpt lat="44.47163" lon="6.69884">
        <ele>2232.1999511719</ele>
        <time>2022-03-11T10:37:15.000Z</time>
      </trkpt>
      <trkpt lat="44.47166" lon="6.6989">
        <ele>2230.6000976562</ele>
        <time>2022-03-11T10:37:16.000Z</time>
      </trkpt>
      <trkpt lat="44.47169" lon="6.69895">
        <ele>2229.1999511719</ele>
        <time>2022-03-11T10:37:17.000Z</time>
      </trkpt>
      <trkpt lat="44.47172" lon="6.69899">
        <ele>2228.1999511719</ele>
        <time>2022-03-11T10:37:18.000Z</time>
      </trkpt>
      <trkpt lat="44.47175" lon="6.69903">
        <ele>2226.3999023438</ele>
        <time>2022-03-11T10:37:19.000Z</time>
      </trkpt>
      <trkpt lat="44.47178" lon="6.69908">
        <ele>2225.3999023438</ele>
        <time>2022-03-11T10:37:20.000Z</time>
      </trkpt>
      <trkpt lat="44.47181" lon="6.69912">
        <ele>2224.8000488281</ele>
        <time>2022-03-11T10:37:21.000Z</time>
      </trkpt>
      <trkpt lat="44.47182" lon="6.6992">
        <ele>2223</ele>
        <time>2022-03-11T10:37:23.000Z</time>
      </trkpt>
      <trkpt lat="44.47184" lon="6.69921">
        <ele>2222</ele>
        <time>2022-03-11T10:37:24.000Z</time>
      </trkpt>
      <trkpt lat="44.47186" lon="6.69925">
        <ele>2221.1999511719</ele>
        <time>2022-03-11T10:37:25.000Z</time>
      </trkpt>
      <trkpt lat="44.47188" lon="6.69928">
        <ele>2220.6000976562</ele>
        <time>2022-03-11T10:37:26.000Z</time>
      </trkpt>
      <trkpt lat="44.4719" lon="6.69931">
        <ele>2220.1999511719</ele>
        <time>2022-03-11T10:37:27.000Z</time>
      </trkpt>
      <trkpt lat="44.47192" lon="6.69931">
        <ele>2219.6000976562</ele>
        <time>2022-03-11T10:37:28.000Z</time>
      </trkpt>
      <trkpt lat="44.47194" lon="6.69931">
        <ele>2219</ele>
        <time>2022-03-11T10:37:29.000Z</time>
      </trkpt>
      <trkpt lat="44.47195" lon="6.69931">
        <ele>2218.3999023438</ele>
        <time>2022-03-11T10:37:30.000Z</time>
      </trkpt>
      <trkpt lat="44.47195" lon="6.69931">
        <ele>2218</ele>
        <time>2022-03-11T10:37:31.000Z</time>
      </trkpt>
      <trkpt lat="44.47188" lon="6.69937">
        <ele>2217.3999023438</ele>
        <time>2022-03-11T10:37:36.000Z</time>
      </trkpt>
      <trkpt lat="44.47187" lon="6.69936">
        <ele>2217</ele>
        <time>2022-03-11T10:37:44.000Z</time>
      </trkpt>
      <trkpt lat="44.47189" lon="6.69937">
        <ele>2216.6000976562</ele>
        <time>2022-03-11T10:37:54.000Z</time>
      </trkpt>
      <trkpt lat="44.47188" lon="6.69936">
        <ele>2216.3999023438</ele>
        <time>2022-03-11T10:38:02.000Z</time>
      </trkpt>
      <trkpt lat="44.47187" lon="6.69936">
        <ele>2216</ele>
        <time>2022-03-11T10:38:40.000Z</time>
      </trkpt>
      <trkpt lat="44.47189" lon="6.69934">
        <ele>2215.8000488281</ele>
        <time>2022-03-11T10:38:41.000Z</time>
      </trkpt>
      <trkpt lat="44.47194" lon="6.69928">
        <ele>2215.6000976562</ele>
        <time>2022-03-11T10:38:43.000Z</time>
      </trkpt>
      <trkpt lat="44.47201" lon="6.69921">
        <ele>2214.8000488281</ele>
        <time>2022-03-11T10:38:45.000Z</time>
      </trkpt>
      <trkpt lat="44.47209" lon="6.69915">
        <ele>2213.6000976562</ele>
        <time>2022-03-11T10:38:47.000Z</time>
      </trkpt>
      <trkpt lat="44.47218" lon="6.69908">
        <ele>2213</ele>
        <time>2022-03-11T10:38:49.000Z</time>
      </trkpt>
      <trkpt lat="44.47226" lon="6.69903">
        <ele>2212</ele>
        <time>2022-03-11T10:38:51.000Z</time>
      </trkpt>
      <trkpt lat="44.47233" lon="6.699">
        <ele>2210.6000976562</ele>
        <time>2022-03-11T10:38:53.000Z</time>
      </trkpt>
      <trkpt lat="44.47242" lon="6.69897">
        <ele>2208.3999023438</ele>
        <time>2022-03-11T10:38:55.000Z</time>
      </trkpt>
      <trkpt lat="44.47247" lon="6.69897">
        <ele>2206.1999511719</ele>
        <time>2022-03-11T10:38:56.000Z</time>
      </trkpt>
      <trkpt lat="44.47251" lon="6.69895">
        <ele>2205</ele>
        <time>2022-03-11T10:38:57.000Z</time>
      </trkpt>
      <trkpt lat="44.47258" lon="6.69889">
        <ele>2203.6000976562</ele>
        <time>2022-03-11T10:38:59.000Z</time>
      </trkpt>
      <trkpt lat="44.47266" lon="6.69883">
        <ele>2202</ele>
        <time>2022-03-11T10:39:01.000Z</time>
      </trkpt>
      <trkpt lat="44.4727" lon="6.69883">
        <ele>2201.6000976562</ele>
        <time>2022-03-11T10:39:02.000Z</time>
      </trkpt>
      <trkpt lat="44.47277" lon="6.6989">
        <ele>2200.6000976562</ele>
        <time>2022-03-11T10:39:04.000Z</time>
      </trkpt>
      <trkpt lat="44.47281" lon="6.69892">
        <ele>2199.3999023438</ele>
        <time>2022-03-11T10:39:05.000Z</time>
      </trkpt>
      <trkpt lat="44.4729" lon="6.69896">
        <ele>2197.3999023438</ele>
        <time>2022-03-11T10:39:07.000Z</time>
      </trkpt>
      <trkpt lat="44.47295" lon="6.69899">
        <ele>2196.3999023438</ele>
        <time>2022-03-11T10:39:08.000Z</time>
      </trkpt>
      <trkpt lat="44.47298" lon="6.69904">
        <ele>2195</ele>
        <time>2022-03-11T10:39:09.000Z</time>
      </trkpt>
      <trkpt lat="44.47302" lon="6.69909">
        <ele>2193</ele>
        <time>2022-03-11T10:39:10.000Z</time>
      </trkpt>
      <trkpt lat="44.47305" lon="6.69914">
        <ele>2191.3999023438</ele>
        <time>2022-03-11T10:39:11.000Z</time>
      </trkpt>
      <trkpt lat="44.47308" lon="6.6992">
        <ele>2190.1999511719</ele>
        <time>2022-03-11T10:39:12.000Z</time>
      </trkpt>
      <trkpt lat="44.47309" lon="6.69926">
        <ele>2187.8000488281</ele>
        <time>2022-03-11T10:39:13.000Z</time>
      </trkpt>
      <trkpt lat="44.4731" lon="6.69931">
        <ele>2186.6000976562</ele>
        <time>2022-03-11T10:39:14.000Z</time>
      </trkpt>
      <trkpt lat="44.4731" lon="6.69938">
        <ele>2185.1999511719</ele>
        <time>2022-03-11T10:39:16.000Z</time>
      </trkpt>
      <trkpt lat="44.47311" lon="6.69941">
        <ele>2185</ele>
        <time>2022-03-11T10:39:17.000Z</time>
      </trkpt>
      <trkpt lat="44.47314" lon="6.6995">
        <ele>2184.3999023438</ele>
        <time>2022-03-11T10:39:20.000Z</time>
      </trkpt>
      <trkpt lat="44.47316" lon="6.69949">
        <ele>2184.1999511719</ele>
        <time>2022-03-11T10:39:21.000Z</time>
      </trkpt>
      <trkpt lat="44.4732" lon="6.69948">
        <ele>2183.3999023438</ele>
        <time>2022-03-11T10:39:22.000Z</time>
      </trkpt>
      <trkpt lat="44.47328" lon="6.69948">
        <ele>2181.3999023438</ele>
        <time>2022-03-11T10:39:24.000Z</time>
      </trkpt>
      <trkpt lat="44.4733" lon="6.69951">
        <ele>2180.1999511719</ele>
        <time>2022-03-11T10:39:25.000Z</time>
      </trkpt>
      <trkpt lat="44.47331" lon="6.69954">
        <ele>2179</ele>
        <time>2022-03-11T10:39:26.000Z</time>
      </trkpt>
      <trkpt lat="44.47332" lon="6.69958">
        <ele>2177.8000488281</ele>
        <time>2022-03-11T10:39:27.000Z</time>
      </trkpt>
      <trkpt lat="44.47333" lon="6.69962">
        <ele>2175.8000488281</ele>
        <time>2022-03-11T10:39:28.000Z</time>
      </trkpt>
      <trkpt lat="44.47334" lon="6.69964">
        <ele>2174.6000976562</ele>
        <time>2022-03-11T10:39:29.000Z</time>
      </trkpt>
      <trkpt lat="44.47335" lon="6.69974">
        <ele>2173.3999023438</ele>
        <time>2022-03-11T10:39:32.000Z</time>
      </trkpt>
      <trkpt lat="44.47337" lon="6.69979">
        <ele>2173.1999511719</ele>
        <time>2022-03-11T10:39:33.000Z</time>
      </trkpt>
      <trkpt lat="44.4734" lon="6.69985">
        <ele>2172</ele>
        <time>2022-03-11T10:39:35.000Z</time>
      </trkpt>
      <trkpt lat="44.47342" lon="6.69989">
        <ele>2171.1999511719</ele>
        <time>2022-03-11T10:39:36.000Z</time>
      </trkpt>
      <trkpt lat="44.47342" lon="6.69992">
        <ele>2170</ele>
        <time>2022-03-11T10:39:37.000Z</time>
      </trkpt>
      <trkpt lat="44.47342" lon="6.69998">
        <ele>2169</ele>
        <time>2022-03-11T10:39:39.000Z</time>
      </trkpt>
      <trkpt lat="44.47343" lon="6.70001">
        <ele>2167.6000976562</ele>
        <time>2022-03-11T10:39:40.000Z</time>
      </trkpt>
      <trkpt lat="44.47345" lon="6.70004">
        <ele>2166.1999511719</ele>
        <time>2022-03-11T10:39:41.000Z</time>
      </trkpt>
      <trkpt lat="44.47346" lon="6.70007">
        <ele>2164.6000976562</ele>
        <time>2022-03-11T10:39:42.000Z</time>
      </trkpt>
      <trkpt lat="44.47349" lon="6.70009">
        <ele>2163</ele>
        <time>2022-03-11T10:39:44.000Z</time>
      </trkpt>
      <trkpt lat="44.4735" lon="6.7001">
        <ele>2162.3999023438</ele>
        <time>2022-03-11T10:39:45.000Z</time>
      </trkpt>
      <trkpt lat="44.47349" lon="6.7001">
        <ele>2162</ele>
        <time>2022-03-11T10:39:46.000Z</time>
      </trkpt>
      <trkpt lat="44.47348" lon="6.70015">
        <ele>2161.3999023438</ele>
        <time>2022-03-11T10:39:53.000Z</time>
      </trkpt>
      <trkpt lat="44.4735" lon="6.70014">
        <ele>2161.3999023438</ele>
        <time>2022-03-11T10:40:05.000Z</time>
      </trkpt>
      <trkpt lat="44.47349" lon="6.70012">
        <ele>2161.6000976562</ele>
        <time>2022-03-11T10:40:30.000Z</time>
      </trkpt>
      <trkpt lat="44.47349" lon="6.7001">
        <ele>2161.1999511719</ele>
        <time>2022-03-11T10:40:51.000Z</time>
      </trkpt>
      <trkpt lat="44.47347" lon="6.7001">
        <ele>2161.1999511719</ele>
        <time>2022-03-11T10:40:54.000Z</time>
      </trkpt>
      <trkpt lat="44.47346" lon="6.70012">
        <ele>2161.3999023438</ele>
        <time>2022-03-11T10:41:00.000Z</time>
      </trkpt>
      <trkpt lat="44.47346" lon="6.70012">
        <ele>2161.1999511719</ele>
        <time>2022-03-11T10:41:01.000Z</time>
      </trkpt>
      <trkpt lat="44.47345" lon="6.70013">
        <ele>2161</ele>
        <time>2022-03-11T10:41:08.000Z</time>
      </trkpt>
      <trkpt lat="44.47346" lon="6.70015">
        <ele>2161.1999511719</ele>
        <time>2022-03-11T10:41:15.000Z</time>
      </trkpt>
      <trkpt lat="44.47346" lon="6.70015">
        <ele>2161</ele>
        <time>2022-03-11T10:41:22.000Z</time>
      </trkpt>
      <trkpt lat="44.47347" lon="6.70015">
        <ele>2160.6000976562</ele>
        <time>2022-03-11T10:41:23.000Z</time>
      </trkpt>
      <trkpt lat="44.47349" lon="6.70006">
        <ele>2159.6000976562</ele>
        <time>2022-03-11T10:41:25.000Z</time>
      </trkpt>
      <trkpt lat="44.47357" lon="6.69998">
        <ele>2159.3999023438</ele>
        <time>2022-03-11T10:41:27.000Z</time>
      </trkpt>
      <trkpt lat="44.47361" lon="6.69997">
        <ele>2158.6000976562</ele>
        <time>2022-03-11T10:41:28.000Z</time>
      </trkpt>
      <trkpt lat="44.47365" lon="6.69999">
        <ele>2157.8000488281</ele>
        <time>2022-03-11T10:41:29.000Z</time>
      </trkpt>
      <trkpt lat="44.47369" lon="6.70001">
        <ele>2157</ele>
        <time>2022-03-11T10:41:30.000Z</time>
      </trkpt>
      <trkpt lat="44.47378" lon="6.70004">
        <ele>2155.8000488281</ele>
        <time>2022-03-11T10:41:32.000Z</time>
      </trkpt>
      <trkpt lat="44.47386" lon="6.7001">
        <ele>2153.1999511719</ele>
        <time>2022-03-11T10:41:34.000Z</time>
      </trkpt>
      <trkpt lat="44.47389" lon="6.70013">
        <ele>2152</ele>
        <time>2022-03-11T10:41:35.000Z</time>
      </trkpt>
      <trkpt lat="44.47392" lon="6.70016">
        <ele>2150</ele>
        <time>2022-03-11T10:41:36.000Z</time>
      </trkpt>
      <trkpt lat="44.47395" lon="6.70019">
        <ele>2148.3999023438</ele>
        <time>2022-03-11T10:41:37.000Z</time>
      </trkpt>
      <trkpt lat="44.47397" lon="6.70022">
        <ele>2147.3999023438</ele>
        <time>2022-03-11T10:41:38.000Z</time>
      </trkpt>
      <trkpt lat="44.474" lon="6.70029">
        <ele>2145.8000488281</ele>
        <time>2022-03-11T10:41:40.000Z</time>
      </trkpt>
      <trkpt lat="44.47403" lon="6.7003">
        <ele>2144.6000976562</ele>
        <time>2022-03-11T10:41:41.000Z</time>
      </trkpt>
      <trkpt lat="44.47409" lon="6.70029">
        <ele>2143</ele>
        <time>2022-03-11T10:41:43.000Z</time>
      </trkpt>
      <trkpt lat="44.47415" lon="6.70031">
        <ele>2141.3999023438</ele>
        <time>2022-03-11T10:41:45.000Z</time>
      </trkpt>
      <trkpt lat="44.47421" lon="6.70039">
        <ele>2139.3999023438</ele>
        <time>2022-03-11T10:41:47.000Z</time>
      </trkpt>
      <trkpt lat="44.47421" lon="6.70043">
        <ele>2137.6000976562</ele>
        <time>2022-03-11T10:41:48.000Z</time>
      </trkpt>
      <trkpt lat="44.47422" lon="6.70046">
        <ele>2136.6000976562</ele>
        <time>2022-03-11T10:41:49.000Z</time>
      </trkpt>
      <trkpt lat="44.47422" lon="6.7005">
        <ele>2136</ele>
        <time>2022-03-11T10:41:50.000Z</time>
      </trkpt>
      <trkpt lat="44.47421" lon="6.70053">
        <ele>2135.3999023438</ele>
        <time>2022-03-11T10:41:52.000Z</time>
      </trkpt>
      <trkpt lat="44.47421" lon="6.70053">
        <ele>2134.8000488281</ele>
        <time>2022-03-11T10:41:53.000Z</time>
      </trkpt>
      <trkpt lat="44.47423" lon="6.70054">
        <ele>2133.6000976562</ele>
        <time>2022-03-11T10:41:55.000Z</time>
      </trkpt>
      <trkpt lat="44.47426" lon="6.70056">
        <ele>2131.6000976562</ele>
        <time>2022-03-11T10:41:57.000Z</time>
      </trkpt>
      <trkpt lat="44.4743" lon="6.70059">
        <ele>2130.8000488281</ele>
        <time>2022-03-11T10:41:58.000Z</time>
      </trkpt>
      <trkpt lat="44.47433" lon="6.70062">
        <ele>2129.1999511719</ele>
        <time>2022-03-11T10:41:59.000Z</time>
      </trkpt>
      <trkpt lat="44.47434" lon="6.70064">
        <ele>2128</ele>
        <time>2022-03-11T10:42:00.000Z</time>
      </trkpt>
      <trkpt lat="44.47433" lon="6.70066">
        <ele>2126</ele>
        <time>2022-03-11T10:42:01.000Z</time>
      </trkpt>
      <trkpt lat="44.47433" lon="6.70068">
        <ele>2125</ele>
        <time>2022-03-11T10:42:02.000Z</time>
      </trkpt>
      <trkpt lat="44.47431" lon="6.70068">
        <ele>2124.3999023438</ele>
        <time>2022-03-11T10:42:03.000Z</time>
      </trkpt>
      <trkpt lat="44.47431" lon="6.70067">
        <ele>2124</ele>
        <time>2022-03-11T10:42:04.000Z</time>
      </trkpt>
      <trkpt lat="44.47431" lon="6.70068">
        <ele>2123.6000976562</ele>
        <time>2022-03-11T10:42:05.000Z</time>
      </trkpt>
      <trkpt lat="44.47432" lon="6.7007">
        <ele>2123</ele>
        <time>2022-03-11T10:42:06.000Z</time>
      </trkpt>
      <trkpt lat="44.47432" lon="6.70073">
        <ele>2122</ele>
        <time>2022-03-11T10:42:07.000Z</time>
      </trkpt>
      <trkpt lat="44.47435" lon="6.70081">
        <ele>2120</ele>
        <time>2022-03-11T10:42:09.000Z</time>
      </trkpt>
      <trkpt lat="44.4744" lon="6.70087">
        <ele>2118.1999511719</ele>
        <time>2022-03-11T10:42:11.000Z</time>
      </trkpt>
      <trkpt lat="44.47442" lon="6.7009">
        <ele>2117</ele>
        <time>2022-03-11T10:42:14.000Z</time>
      </trkpt>
      <trkpt lat="44.47444" lon="6.7009">
        <ele>2116.6000976562</ele>
        <time>2022-03-11T10:42:15.000Z</time>
      </trkpt>
      <trkpt lat="44.47451" lon="6.70095">
        <ele>2115.1999511719</ele>
        <time>2022-03-11T10:42:17.000Z</time>
      </trkpt>
      <trkpt lat="44.47453" lon="6.70099">
        <ele>2113.6000976562</ele>
        <time>2022-03-11T10:42:18.000Z</time>
      </trkpt>
      <trkpt lat="44.47453" lon="6.70103">
        <ele>2111.8000488281</ele>
        <time>2022-03-11T10:42:19.000Z</time>
      </trkpt>
      <trkpt lat="44.47452" lon="6.70105">
        <ele>2110.8000488281</ele>
        <time>2022-03-11T10:42:20.000Z</time>
      </trkpt>
      <trkpt lat="44.47451" lon="6.70106">
        <ele>2110.1999511719</ele>
        <time>2022-03-11T10:42:21.000Z</time>
      </trkpt>
      <trkpt lat="44.4745" lon="6.70105">
        <ele>2109.6000976562</ele>
        <time>2022-03-11T10:42:22.000Z</time>
      </trkpt>
      <trkpt lat="44.47453" lon="6.70103">
        <ele>2108.1999511719</ele>
        <time>2022-03-11T10:42:24.000Z</time>
      </trkpt>
      <trkpt lat="44.47455" lon="6.70104">
        <ele>2107.8000488281</ele>
        <time>2022-03-11T10:42:25.000Z</time>
      </trkpt>
      <trkpt lat="44.47458" lon="6.70106">
        <ele>2106.3999023438</ele>
        <time>2022-03-11T10:42:26.000Z</time>
      </trkpt>
      <trkpt lat="44.4746" lon="6.70108">
        <ele>2105</ele>
        <time>2022-03-11T10:42:27.000Z</time>
      </trkpt>
      <trkpt lat="44.47461" lon="6.70109">
        <ele>2103.8000488281</ele>
        <time>2022-03-11T10:42:28.000Z</time>
      </trkpt>
      <trkpt lat="44.47461" lon="6.70111">
        <ele>2102.6000976562</ele>
        <time>2022-03-11T10:42:29.000Z</time>
      </trkpt>
      <trkpt lat="44.47461" lon="6.70111">
        <ele>2101.8000488281</ele>
        <time>2022-03-11T10:42:30.000Z</time>
      </trkpt>
      <trkpt lat="44.47461" lon="6.70113">
        <ele>2101.3999023438</ele>
        <time>2022-03-11T10:42:31.000Z</time>
      </trkpt>
      <trkpt lat="44.47461" lon="6.70117">
        <ele>2100.6000976562</ele>
        <time>2022-03-11T10:42:34.000Z</time>
      </trkpt>
      <trkpt lat="44.4746" lon="6.70121">
        <ele>2100.1999511719</ele>
        <time>2022-03-11T10:42:36.000Z</time>
      </trkpt>
      <trkpt lat="44.4746" lon="6.7012">
        <ele>2099.3999023438</ele>
        <time>2022-03-11T10:42:41.000Z</time>
      </trkpt>
      <trkpt lat="44.47456" lon="6.70119">
        <ele>2099.3999023438</ele>
        <time>2022-03-11T10:42:49.000Z</time>
      </trkpt>
      <trkpt lat="44.47458" lon="6.70118">
        <ele>2099</ele>
        <time>2022-03-11T10:43:04.000Z</time>
      </trkpt>
      <trkpt lat="44.4746" lon="6.70117">
        <ele>2098.6000976562</ele>
        <time>2022-03-11T10:43:06.000Z</time>
      </trkpt>
      <trkpt lat="44.4746" lon="6.70116">
        <ele>2098</ele>
        <time>2022-03-11T10:43:07.000Z</time>
      </trkpt>
      <trkpt lat="44.47462" lon="6.70113">
        <ele>2097.3999023438</ele>
        <time>2022-03-11T10:43:14.000Z</time>
      </trkpt>
      <trkpt lat="44.47464" lon="6.70111">
        <ele>2097.1999511719</ele>
        <time>2022-03-11T10:43:20.000Z</time>
      </trkpt>
      <trkpt lat="44.47465" lon="6.70112">
        <ele>2097</ele>
        <time>2022-03-11T10:43:21.000Z</time>
      </trkpt>
      <trkpt lat="44.47465" lon="6.70112">
        <ele>2096.3999023438</ele>
        <time>2022-03-11T10:43:22.000Z</time>
      </trkpt>
      <trkpt lat="44.47466" lon="6.70113">
        <ele>2096</ele>
        <time>2022-03-11T10:43:24.000Z</time>
      </trkpt>
      <trkpt lat="44.47467" lon="6.70113">
        <ele>2095.3999023438</ele>
        <time>2022-03-11T10:43:42.000Z</time>
      </trkpt>
      <trkpt lat="44.47469" lon="6.70113">
        <ele>2095.1999511719</ele>
        <time>2022-03-11T10:43:49.000Z</time>
      </trkpt>
      <trkpt lat="44.47473" lon="6.70113">
        <ele>2094</ele>
        <time>2022-03-11T10:43:50.000Z</time>
      </trkpt>
      <trkpt lat="44.47476" lon="6.70116">
        <ele>2092.8000488281</ele>
        <time>2022-03-11T10:43:51.000Z</time>
      </trkpt>
      <trkpt lat="44.4748" lon="6.70124">
        <ele>2090.1999511719</ele>
        <time>2022-03-11T10:43:53.000Z</time>
      </trkpt>
      <trkpt lat="44.47481" lon="6.70128">
        <ele>2088.8000488281</ele>
        <time>2022-03-11T10:43:54.000Z</time>
      </trkpt>
      <trkpt lat="44.47482" lon="6.70131">
        <ele>2088</ele>
        <time>2022-03-11T10:43:55.000Z</time>
      </trkpt>
      <trkpt lat="44.47484" lon="6.70132">
        <ele>2087.3999023438</ele>
        <time>2022-03-11T10:43:56.000Z</time>
      </trkpt>
      <trkpt lat="44.47489" lon="6.70138">
        <ele>2086.3999023438</ele>
        <time>2022-03-11T10:43:58.000Z</time>
      </trkpt>
      <trkpt lat="44.4749" lon="6.70143">
        <ele>2085.1999511719</ele>
        <time>2022-03-11T10:43:59.000Z</time>
      </trkpt>
      <trkpt lat="44.4749" lon="6.70147">
        <ele>2083.6000976562</ele>
        <time>2022-03-11T10:44:00.000Z</time>
      </trkpt>
      <trkpt lat="44.4749" lon="6.70149">
        <ele>2082</ele>
        <time>2022-03-11T10:44:01.000Z</time>
      </trkpt>
      <trkpt lat="44.47491" lon="6.70151">
        <ele>2081</ele>
        <time>2022-03-11T10:44:02.000Z</time>
      </trkpt>
      <trkpt lat="44.47494" lon="6.70153">
        <ele>2080.6000976562</ele>
        <time>2022-03-11T10:44:03.000Z</time>
      </trkpt>
      <trkpt lat="44.47496" lon="6.70156">
        <ele>2079.6000976562</ele>
        <time>2022-03-11T10:44:04.000Z</time>
      </trkpt>
      <trkpt lat="44.47497" lon="6.70159">
        <ele>2078</ele>
        <time>2022-03-11T10:44:05.000Z</time>
      </trkpt>
      <trkpt lat="44.47498" lon="6.70162">
        <ele>2076.6000976562</ele>
        <time>2022-03-11T10:44:06.000Z</time>
      </trkpt>
      <trkpt lat="44.47499" lon="6.70171">
        <ele>2074.8000488281</ele>
        <time>2022-03-11T10:44:08.000Z</time>
      </trkpt>
      <trkpt lat="44.47499" lon="6.70176">
        <ele>2073.8000488281</ele>
        <time>2022-03-11T10:44:09.000Z</time>
      </trkpt>
      <trkpt lat="44.475" lon="6.70183">
        <ele>2073.1999511719</ele>
        <time>2022-03-11T10:44:10.000Z</time>
      </trkpt>
      <trkpt lat="44.47501" lon="6.7019">
        <ele>2072.1999511719</ele>
        <time>2022-03-11T10:44:11.000Z</time>
      </trkpt>
      <trkpt lat="44.47503" lon="6.70193">
        <ele>2071.3999023438</ele>
        <time>2022-03-11T10:44:12.000Z</time>
      </trkpt>
      <trkpt lat="44.47505" lon="6.70195">
        <ele>2070.3999023438</ele>
        <time>2022-03-11T10:44:13.000Z</time>
      </trkpt>
      <trkpt lat="44.47509" lon="6.70202">
        <ele>2068.6000976562</ele>
        <time>2022-03-11T10:44:15.000Z</time>
      </trkpt>
      <trkpt lat="44.47511" lon="6.70207">
        <ele>2067.6000976562</ele>
        <time>2022-03-11T10:44:16.000Z</time>
      </trkpt>
      <trkpt lat="44.47512" lon="6.70212">
        <ele>2066.3999023438</ele>
        <time>2022-03-11T10:44:17.000Z</time>
      </trkpt>
      <trkpt lat="44.47513" lon="6.70217">
        <ele>2065.1999511719</ele>
        <time>2022-03-11T10:44:18.000Z</time>
      </trkpt>
      <trkpt lat="44.47514" lon="6.70219">
        <ele>2064.1999511719</ele>
        <time>2022-03-11T10:44:19.000Z</time>
      </trkpt>
      <trkpt lat="44.47519" lon="6.70223">
        <ele>2063</ele>
        <time>2022-03-11T10:44:21.000Z</time>
      </trkpt>
      <trkpt lat="44.4752" lon="6.70226">
        <ele>2062.1999511719</ele>
        <time>2022-03-11T10:44:22.000Z</time>
      </trkpt>
      <trkpt lat="44.47521" lon="6.70228">
        <ele>2061.6000976562</ele>
        <time>2022-03-11T10:44:23.000Z</time>
      </trkpt>
      <trkpt lat="44.47524" lon="6.70232">
        <ele>2060</ele>
        <time>2022-03-11T10:44:25.000Z</time>
      </trkpt>
      <trkpt lat="44.47525" lon="6.70236">
        <ele>2059</ele>
        <time>2022-03-11T10:44:26.000Z</time>
      </trkpt>
      <trkpt lat="44.47526" lon="6.7024">
        <ele>2057.3999023438</ele>
        <time>2022-03-11T10:44:27.000Z</time>
      </trkpt>
      <trkpt lat="44.47527" lon="6.70244">
        <ele>2056</ele>
        <time>2022-03-11T10:44:28.000Z</time>
      </trkpt>
      <trkpt lat="44.47527" lon="6.70248">
        <ele>2055.1999511719</ele>
        <time>2022-03-11T10:44:29.000Z</time>
      </trkpt>
      <trkpt lat="44.47528" lon="6.7025">
        <ele>2054.6000976562</ele>
        <time>2022-03-11T10:44:30.000Z</time>
      </trkpt>
      <trkpt lat="44.4753" lon="6.70254">
        <ele>2053</ele>
        <time>2022-03-11T10:44:32.000Z</time>
      </trkpt>
      <trkpt lat="44.47531" lon="6.70259">
        <ele>2051.3999023438</ele>
        <time>2022-03-11T10:44:33.000Z</time>
      </trkpt>
      <trkpt lat="44.47534" lon="6.70265">
        <ele>2049.1999511719</ele>
        <time>2022-03-11T10:44:35.000Z</time>
      </trkpt>
      <trkpt lat="44.47535" lon="6.70265">
        <ele>2048</ele>
        <time>2022-03-11T10:44:36.000Z</time>
      </trkpt>
      <trkpt lat="44.47538" lon="6.70255">
        <ele>2046.5999755859</ele>
        <time>2022-03-11T10:44:39.000Z</time>
      </trkpt>
      <trkpt lat="44.47538" lon="6.70251">
        <ele>2045.1999511719</ele>
        <time>2022-03-11T10:44:40.000Z</time>
      </trkpt>
      <trkpt lat="44.47538" lon="6.70247">
        <ele>2044.1999511719</ele>
        <time>2022-03-11T10:44:42.000Z</time>
      </trkpt>
      <trkpt lat="44.47539" lon="6.70245">
        <ele>2043.8000488281</ele>
        <time>2022-03-11T10:44:43.000Z</time>
      </trkpt>
      <trkpt lat="44.47543" lon="6.70247">
        <ele>2042.5999755859</ele>
        <time>2022-03-11T10:44:45.000Z</time>
      </trkpt>
      <trkpt lat="44.47544" lon="6.70249">
        <ele>2042</ele>
        <time>2022-03-11T10:44:46.000Z</time>
      </trkpt>
      <trkpt lat="44.47544" lon="6.7025">
        <ele>2041.5999755859</ele>
        <time>2022-03-11T10:44:47.000Z</time>
      </trkpt>
      <trkpt lat="44.47547" lon="6.7026">
        <ele>2041</ele>
        <time>2022-03-11T10:44:51.000Z</time>
      </trkpt>
      <trkpt lat="44.4755" lon="6.70272">
        <ele>2040</ele>
        <time>2022-03-11T10:44:53.000Z</time>
      </trkpt>
      <trkpt lat="44.4755" lon="6.70276">
        <ele>2038.5999755859</ele>
        <time>2022-03-11T10:44:54.000Z</time>
      </trkpt>
      <trkpt lat="44.4755" lon="6.70278">
        <ele>2037.5999755859</ele>
        <time>2022-03-11T10:44:55.000Z</time>
      </trkpt>
      <trkpt lat="44.4755" lon="6.70279">
        <ele>2037</ele>
        <time>2022-03-11T10:44:56.000Z</time>
      </trkpt>
      <trkpt lat="44.47551" lon="6.70279">
        <ele>2036.5999755859</ele>
        <time>2022-03-11T10:44:57.000Z</time>
      </trkpt>
      <trkpt lat="44.47555" lon="6.70277">
        <ele>2036</ele>
        <time>2022-03-11T10:45:00.000Z</time>
      </trkpt>
      <trkpt lat="44.47562" lon="6.70274">
        <ele>2035.1999511719</ele>
        <time>2022-03-11T10:45:03.000Z</time>
      </trkpt>
      <trkpt lat="44.47564" lon="6.70273">
        <ele>2034.5999755859</ele>
        <time>2022-03-11T10:45:04.000Z</time>
      </trkpt>
      <trkpt lat="44.47566" lon="6.70271">
        <ele>2034.1999511719</ele>
        <time>2022-03-11T10:45:05.000Z</time>
      </trkpt>
      <trkpt lat="44.47575" lon="6.70263">
        <ele>2032.8000488281</ele>
        <time>2022-03-11T10:45:08.000Z</time>
      </trkpt>
      <trkpt lat="44.47578" lon="6.7026">
        <ele>2032</ele>
        <time>2022-03-11T10:45:09.000Z</time>
      </trkpt>
      <trkpt lat="44.4758" lon="6.70258">
        <ele>2031.4000244141</ele>
        <time>2022-03-11T10:45:10.000Z</time>
      </trkpt>
      <trkpt lat="44.47586" lon="6.70255">
        <ele>2030.5999755859</ele>
        <time>2022-03-11T10:45:13.000Z</time>
      </trkpt>
      <trkpt lat="44.47589" lon="6.70254">
        <ele>2030.1999511719</ele>
        <time>2022-03-11T10:45:14.000Z</time>
      </trkpt>
      <trkpt lat="44.47601" lon="6.70257">
        <ele>2029.4000244141</ele>
        <time>2022-03-11T10:45:18.000Z</time>
      </trkpt>
      <trkpt lat="44.47603" lon="6.70263">
        <ele>2028.8000488281</ele>
        <time>2022-03-11T10:45:19.000Z</time>
      </trkpt>
      <trkpt lat="44.47605" lon="6.70271">
        <ele>2028.1999511719</ele>
        <time>2022-03-11T10:45:20.000Z</time>
      </trkpt>
      <trkpt lat="44.47605" lon="6.70278">
        <ele>2026.5999755859</ele>
        <time>2022-03-11T10:45:21.000Z</time>
      </trkpt>
      <trkpt lat="44.47604" lon="6.70285">
        <ele>2025.8000488281</ele>
        <time>2022-03-11T10:45:22.000Z</time>
      </trkpt>
      <trkpt lat="44.47603" lon="6.7029">
        <ele>2024.5999755859</ele>
        <time>2022-03-11T10:45:23.000Z</time>
      </trkpt>
      <trkpt lat="44.47602" lon="6.70299">
        <ele>2023.8000488281</ele>
        <time>2022-03-11T10:45:25.000Z</time>
      </trkpt>
      <trkpt lat="44.47602" lon="6.70305">
        <ele>2023.4000244141</ele>
        <time>2022-03-11T10:45:26.000Z</time>
      </trkpt>
      <trkpt lat="44.476" lon="6.70314">
        <ele>2022.1999511719</ele>
        <time>2022-03-11T10:45:28.000Z</time>
      </trkpt>
      <trkpt lat="44.476" lon="6.70318">
        <ele>2021.5999755859</ele>
        <time>2022-03-11T10:45:29.000Z</time>
      </trkpt>
      <trkpt lat="44.476" lon="6.70323">
        <ele>2021.1999511719</ele>
        <time>2022-03-11T10:45:30.000Z</time>
      </trkpt>
      <trkpt lat="44.47597" lon="6.70329">
        <ele>2020</ele>
        <time>2022-03-11T10:45:33.000Z</time>
      </trkpt>
      <trkpt lat="44.47597" lon="6.70328">
        <ele>2019.8000488281</ele>
        <time>2022-03-11T10:45:34.000Z</time>
      </trkpt>
      <trkpt lat="44.47593" lon="6.70327">
        <ele>2019.1999511719</ele>
        <time>2022-03-11T10:45:43.000Z</time>
      </trkpt>
      <trkpt lat="44.47594" lon="6.70331">
        <ele>2019.4000244141</ele>
        <time>2022-03-11T10:45:52.000Z</time>
      </trkpt>
      <trkpt lat="44.47594" lon="6.70332">
        <ele>2019</ele>
        <time>2022-03-11T10:46:13.000Z</time>
      </trkpt>
      <trkpt lat="44.47594" lon="6.70332">
        <ele>2019</ele>
        <time>2022-03-11T10:46:21.000Z</time>
      </trkpt>
      <trkpt lat="44.47595" lon="6.70332">
        <ele>2019.5999755859</ele>
        <time>2022-03-11T10:46:32.000Z</time>
      </trkpt>
      <trkpt lat="44.47598" lon="6.70327">
        <ele>2019.4000244141</ele>
        <time>2022-03-11T10:47:10.000Z</time>
      </trkpt>
      <trkpt lat="44.47602" lon="6.70322">
        <ele>2018.5999755859</ele>
        <time>2022-03-11T10:47:12.000Z</time>
      </trkpt>
      <trkpt lat="44.47609" lon="6.70317">
        <ele>2017.4000244141</ele>
        <time>2022-03-11T10:47:14.000Z</time>
      </trkpt>
      <trkpt lat="44.4762" lon="6.70312">
        <ele>2016</ele>
        <time>2022-03-11T10:47:16.000Z</time>
      </trkpt>
      <trkpt lat="44.47625" lon="6.7031">
        <ele>2015</ele>
        <time>2022-03-11T10:47:17.000Z</time>
      </trkpt>
      <trkpt lat="44.47629" lon="6.70308">
        <ele>2014.1999511719</ele>
        <time>2022-03-11T10:47:18.000Z</time>
      </trkpt>
      <trkpt lat="44.47632" lon="6.70306">
        <ele>2013.5999755859</ele>
        <time>2022-03-11T10:47:19.000Z</time>
      </trkpt>
      <trkpt lat="44.47635" lon="6.70304">
        <ele>2013</ele>
        <time>2022-03-11T10:47:20.000Z</time>
      </trkpt>
      <trkpt lat="44.47637" lon="6.70301">
        <ele>2012.4000244141</ele>
        <time>2022-03-11T10:47:21.000Z</time>
      </trkpt>
      <trkpt lat="44.47639" lon="6.70296">
        <ele>2011.8000488281</ele>
        <time>2022-03-11T10:47:24.000Z</time>
      </trkpt>
      <trkpt lat="44.47641" lon="6.70289">
        <ele>2011.4000244141</ele>
        <time>2022-03-11T10:47:27.000Z</time>
      </trkpt>
      <trkpt lat="44.47644" lon="6.70283">
        <ele>2010.4000244141</ele>
        <time>2022-03-11T10:47:29.000Z</time>
      </trkpt>
      <trkpt lat="44.47651" lon="6.70275">
        <ele>2009.1999511719</ele>
        <time>2022-03-11T10:47:32.000Z</time>
      </trkpt>
      <trkpt lat="44.47652" lon="6.70274">
        <ele>2009</ele>
        <time>2022-03-11T10:47:34.000Z</time>
      </trkpt>
      <trkpt lat="44.47654" lon="6.70276">
        <ele>2008.1999511719</ele>
        <time>2022-03-11T10:47:42.000Z</time>
      </trkpt>
      <trkpt lat="44.47652" lon="6.70274">
        <ele>2008.5999755859</ele>
        <time>2022-03-11T10:47:53.000Z</time>
      </trkpt>
      <trkpt lat="44.47655" lon="6.70268">
        <ele>2007.8000488281</ele>
        <time>2022-03-11T10:47:57.000Z</time>
      </trkpt>
      <trkpt lat="44.47655" lon="6.70266">
        <ele>2007.1999511719</ele>
        <time>2022-03-11T10:47:58.000Z</time>
      </trkpt>
      <trkpt lat="44.47655" lon="6.70264">
        <ele>2006.8000488281</ele>
        <time>2022-03-11T10:47:59.000Z</time>
      </trkpt>
      <trkpt lat="44.47656" lon="6.70258">
        <ele>2005.5999755859</ele>
        <time>2022-03-11T10:48:01.000Z</time>
      </trkpt>
      <trkpt lat="44.47658" lon="6.70252">
        <ele>2004.4000244141</ele>
        <time>2022-03-11T10:48:04.000Z</time>
      </trkpt>
      <trkpt lat="44.47658" lon="6.70244">
        <ele>2003.1999511719</ele>
        <time>2022-03-11T10:48:06.000Z</time>
      </trkpt>
      <trkpt lat="44.4766" lon="6.70238">
        <ele>2002</ele>
        <time>2022-03-11T10:48:08.000Z</time>
      </trkpt>
      <trkpt lat="44.47661" lon="6.70234">
        <ele>2001.5999755859</ele>
        <time>2022-03-11T10:48:09.000Z</time>
      </trkpt>
      <trkpt lat="44.47662" lon="6.70228">
        <ele>2000.8000488281</ele>
        <time>2022-03-11T10:48:11.000Z</time>
      </trkpt>
      <trkpt lat="44.47668" lon="6.70221">
        <ele>1999.5999755859</ele>
        <time>2022-03-11T10:48:14.000Z</time>
      </trkpt>
      <trkpt lat="44.47669" lon="6.70218">
        <ele>1998.8000488281</ele>
        <time>2022-03-11T10:48:15.000Z</time>
      </trkpt>
      <trkpt lat="44.47669" lon="6.70215">
        <ele>1998.1999511719</ele>
        <time>2022-03-11T10:48:16.000Z</time>
      </trkpt>
      <trkpt lat="44.47671" lon="6.70212">
        <ele>1997.1999511719</ele>
        <time>2022-03-11T10:48:18.000Z</time>
      </trkpt>
      <trkpt lat="44.47674" lon="6.70213">
        <ele>1997</ele>
        <time>2022-03-11T10:48:19.000Z</time>
      </trkpt>
      <trkpt lat="44.47679" lon="6.70219">
        <ele>1995.5999755859</ele>
        <time>2022-03-11T10:48:21.000Z</time>
      </trkpt>
      <trkpt lat="44.4768" lon="6.70221">
        <ele>1994.5999755859</ele>
        <time>2022-03-11T10:48:22.000Z</time>
      </trkpt>
      <trkpt lat="44.47683" lon="6.70222">
        <ele>1993.8000488281</ele>
        <time>2022-03-11T10:48:23.000Z</time>
      </trkpt>
      <trkpt lat="44.47686" lon="6.70223">
        <ele>1993.4000244141</ele>
        <time>2022-03-11T10:48:24.000Z</time>
      </trkpt>
      <trkpt lat="44.47688" lon="6.70224">
        <ele>1992.1999511719</ele>
        <time>2022-03-11T10:48:25.000Z</time>
      </trkpt>
      <trkpt lat="44.47691" lon="6.70225">
        <ele>1990.5999755859</ele>
        <time>2022-03-11T10:48:26.000Z</time>
      </trkpt>
      <trkpt lat="44.47694" lon="6.70228">
        <ele>1989.5999755859</ele>
        <time>2022-03-11T10:48:27.000Z</time>
      </trkpt>
      <trkpt lat="44.47695" lon="6.7023">
        <ele>1987.8000488281</ele>
        <time>2022-03-11T10:48:28.000Z</time>
      </trkpt>
      <trkpt lat="44.47698" lon="6.70232">
        <ele>1985.8000488281</ele>
        <time>2022-03-11T10:48:29.000Z</time>
      </trkpt>
      <trkpt lat="44.477" lon="6.70234">
        <ele>1984.5999755859</ele>
        <time>2022-03-11T10:48:30.000Z</time>
      </trkpt>
      <trkpt lat="44.47703" lon="6.70235">
        <ele>1983</ele>
        <time>2022-03-11T10:48:31.000Z</time>
      </trkpt>
      <trkpt lat="44.47708" lon="6.7024">
        <ele>1980.1999511719</ele>
        <time>2022-03-11T10:48:33.000Z</time>
      </trkpt>
      <trkpt lat="44.47711" lon="6.70244">
        <ele>1979</ele>
        <time>2022-03-11T10:48:34.000Z</time>
      </trkpt>
      <trkpt lat="44.47712" lon="6.70249">
        <ele>1977.8000488281</ele>
        <time>2022-03-11T10:48:35.000Z</time>
      </trkpt>
      <trkpt lat="44.47713" lon="6.70255">
        <ele>1976.1999511719</ele>
        <time>2022-03-11T10:48:36.000Z</time>
      </trkpt>
      <trkpt lat="44.47714" lon="6.70261">
        <ele>1974.5999755859</ele>
        <time>2022-03-11T10:48:37.000Z</time>
      </trkpt>
      <trkpt lat="44.47712" lon="6.70272">
        <ele>1971.8000488281</ele>
        <time>2022-03-11T10:48:39.000Z</time>
      </trkpt>
      <trkpt lat="44.47712" lon="6.70275">
        <ele>1970.1999511719</ele>
        <time>2022-03-11T10:48:40.000Z</time>
      </trkpt>
      <trkpt lat="44.47713" lon="6.70279">
        <ele>1969.1999511719</ele>
        <time>2022-03-11T10:48:41.000Z</time>
      </trkpt>
      <trkpt lat="44.47716" lon="6.70279">
        <ele>1968.4000244141</ele>
        <time>2022-03-11T10:48:42.000Z</time>
      </trkpt>
      <trkpt lat="44.47723" lon="6.70281">
        <ele>1966.1999511719</ele>
        <time>2022-03-11T10:48:44.000Z</time>
      </trkpt>
      <trkpt lat="44.47726" lon="6.70285">
        <ele>1963.8000488281</ele>
        <time>2022-03-11T10:48:45.000Z</time>
      </trkpt>
      <trkpt lat="44.4773" lon="6.70288">
        <ele>1962.5999755859</ele>
        <time>2022-03-11T10:48:46.000Z</time>
      </trkpt>
      <trkpt lat="44.47739" lon="6.70292">
        <ele>1960.1999511719</ele>
        <time>2022-03-11T10:48:48.000Z</time>
      </trkpt>
      <trkpt lat="44.47743" lon="6.70296">
        <ele>1958.8000488281</ele>
        <time>2022-03-11T10:48:49.000Z</time>
      </trkpt>
      <trkpt lat="44.47748" lon="6.70301">
        <ele>1958</ele>
        <time>2022-03-11T10:48:50.000Z</time>
      </trkpt>
      <trkpt lat="44.47751" lon="6.70306">
        <ele>1956.1999511719</ele>
        <time>2022-03-11T10:48:51.000Z</time>
      </trkpt>
      <trkpt lat="44.47754" lon="6.70312">
        <ele>1955.1999511719</ele>
        <time>2022-03-11T10:48:52.000Z</time>
      </trkpt>
      <trkpt lat="44.47755" lon="6.70318">
        <ele>1953.8000488281</ele>
        <time>2022-03-11T10:48:53.000Z</time>
      </trkpt>
      <trkpt lat="44.47755" lon="6.70322">
        <ele>1952.1999511719</ele>
        <time>2022-03-11T10:48:54.000Z</time>
      </trkpt>
      <trkpt lat="44.47756" lon="6.70326">
        <ele>1951</ele>
        <time>2022-03-11T10:48:55.000Z</time>
      </trkpt>
      <trkpt lat="44.47755" lon="6.70332">
        <ele>1950.1999511719</ele>
        <time>2022-03-11T10:48:56.000Z</time>
      </trkpt>
      <trkpt lat="44.47754" lon="6.70336">
        <ele>1948.8000488281</ele>
        <time>2022-03-11T10:48:57.000Z</time>
      </trkpt>
      <trkpt lat="44.47752" lon="6.70341">
        <ele>1947.8000488281</ele>
        <time>2022-03-11T10:48:58.000Z</time>
      </trkpt>
      <trkpt lat="44.4775" lon="6.70347">
        <ele>1946.5999755859</ele>
        <time>2022-03-11T10:48:59.000Z</time>
      </trkpt>
      <trkpt lat="44.47746" lon="6.70359">
        <ele>1944.8000488281</ele>
        <time>2022-03-11T10:49:01.000Z</time>
      </trkpt>
      <trkpt lat="44.47744" lon="6.70362">
        <ele>1944.4000244141</ele>
        <time>2022-03-11T10:49:02.000Z</time>
      </trkpt>
      <trkpt lat="44.47741" lon="6.70364">
        <ele>1943.8000488281</ele>
        <time>2022-03-11T10:49:04.000Z</time>
      </trkpt>
      <trkpt lat="44.47741" lon="6.70364">
        <ele>1943.4000244141</ele>
        <time>2022-03-11T10:49:05.000Z</time>
      </trkpt>
      <trkpt lat="44.47737" lon="6.70359">
        <ele>1943</ele>
        <time>2022-03-11T10:49:10.000Z</time>
      </trkpt>
      <trkpt lat="44.47734" lon="6.70354">
        <ele>1943</ele>
        <time>2022-03-11T10:49:19.000Z</time>
      </trkpt>
      <trkpt lat="44.47734" lon="6.70356">
        <ele>1942.8000488281</ele>
        <time>2022-03-11T10:49:23.000Z</time>
      </trkpt>
      <trkpt lat="44.47735" lon="6.70358">
        <ele>1942.5999755859</ele>
        <time>2022-03-11T10:49:26.000Z</time>
      </trkpt>
      <trkpt lat="44.47735" lon="6.7036">
        <ele>1942.8000488281</ele>
        <time>2022-03-11T10:49:47.000Z</time>
      </trkpt>
      <trkpt lat="44.47736" lon="6.70363">
        <ele>1942.5999755859</ele>
        <time>2022-03-11T10:49:54.000Z</time>
      </trkpt>
      <trkpt lat="44.4774" lon="6.70366">
        <ele>1942.4000244141</ele>
        <time>2022-03-11T10:49:58.000Z</time>
      </trkpt>
      <trkpt lat="44.47741" lon="6.70367">
        <ele>1942.1999511719</ele>
        <time>2022-03-11T10:50:03.000Z</time>
      </trkpt>
      <trkpt lat="44.47728" lon="6.70344">
        <ele>1942.4000244141</ele>
        <time>2022-03-11T10:50:34.000Z</time>
      </trkpt>
      <trkpt lat="44.47728" lon="6.70344">
        <ele>1942.4000244141</ele>
        <time>2022-03-11T10:50:35.000Z</time>
      </trkpt>
      <trkpt lat="44.47728" lon="6.70344">
        <ele>1942.4000244141</ele>
        <time>2022-03-11T10:50:44.000Z</time>
      </trkpt>
      <trkpt lat="44.47728" lon="6.70344">
        <ele>1941.5999755859</ele>
        <time>2022-03-11T10:50:55.000Z</time>
      </trkpt>
      <trkpt lat="44.47732" lon="6.70355">
        <ele>1941.4000244141</ele>
        <time>2022-03-11T10:51:25.000Z</time>
      </trkpt>
      <trkpt lat="44.47741" lon="6.70364">
        <ele>1941.5999755859</ele>
        <time>2022-03-11T10:52:27.000Z</time>
      </trkpt>
      <trkpt lat="44.4774" lon="6.7037">
        <ele>1941.5999755859</ele>
        <time>2022-03-11T10:53:10.000Z</time>
      </trkpt>
      <trkpt lat="44.47737" lon="6.70368">
        <ele>1940.5999755859</ele>
        <time>2022-03-11T10:54:16.000Z</time>
      </trkpt>
      <trkpt lat="44.47739" lon="6.70369">
        <ele>1940.5999755859</ele>
        <time>2022-03-11T10:54:53.000Z</time>
      </trkpt>
      <trkpt lat="44.47739" lon="6.70369">
        <ele>1940.4000244141</ele>
        <time>2022-03-11T10:54:59.000Z</time>
      </trkpt>
      <trkpt lat="44.47739" lon="6.70369">
        <ele>1940.1999511719</ele>
        <time>2022-03-11T10:55:02.000Z</time>
      </trkpt>
      <trkpt lat="44.47741" lon="6.70366">
        <ele>1939.8000488281</ele>
        <time>2022-03-11T10:55:06.000Z</time>
      </trkpt>
      <trkpt lat="44.47743" lon="6.70364">
        <ele>1940.1999511719</ele>
        <time>2022-03-11T10:55:14.000Z</time>
      </trkpt>
      <trkpt lat="44.47744" lon="6.70365">
        <ele>1940.1999511719</ele>
        <time>2022-03-11T10:55:20.000Z</time>
      </trkpt>
      <trkpt lat="44.47744" lon="6.70365">
        <ele>1940.1999511719</ele>
        <time>2022-03-11T10:55:21.000Z</time>
      </trkpt>
      <trkpt lat="44.47742" lon="6.70367">
        <ele>1940.1999511719</ele>
        <time>2022-03-11T10:55:24.000Z</time>
      </trkpt>
      <trkpt lat="44.47744" lon="6.70366">
        <ele>1939.8000488281</ele>
        <time>2022-03-11T10:55:32.000Z</time>
      </trkpt>
      <trkpt lat="44.47743" lon="6.70366">
        <ele>1939.8000488281</ele>
        <time>2022-03-11T10:55:38.000Z</time>
      </trkpt>
      <trkpt lat="44.47745" lon="6.70367">
        <ele>1939.5999755859</ele>
        <time>2022-03-11T10:55:45.000Z</time>
      </trkpt>
      <trkpt lat="44.47741" lon="6.70366">
        <ele>1939.5999755859</ele>
        <time>2022-03-11T10:56:19.000Z</time>
      </trkpt>
      <trkpt lat="44.4774" lon="6.70364">
        <ele>1940.4000244141</ele>
        <time>2022-03-11T10:56:53.000Z</time>
      </trkpt>
      <trkpt lat="44.47737" lon="6.70364">
        <ele>1940.5999755859</ele>
        <time>2022-03-11T10:57:02.000Z</time>
      </trkpt>
      <trkpt lat="44.47741" lon="6.70363">
        <ele>1941</ele>
        <time>2022-03-11T11:00:53.000Z</time>
      </trkpt>
      <trkpt lat="44.47745" lon="6.70354">
        <ele>1941.5999755859</ele>
        <time>2022-03-11T11:00:59.000Z</time>
      </trkpt>
      <trkpt lat="44.47746" lon="6.70353">
        <ele>1941.5999755859</ele>
        <time>2022-03-11T11:01:01.000Z</time>
      </trkpt>
      <trkpt lat="44.47746" lon="6.7035">
        <ele>1942.1999511719</ele>
        <time>2022-03-11T11:01:05.000Z</time>
      </trkpt>
      <trkpt lat="44.47745" lon="6.70348">
        <ele>1942.5999755859</ele>
        <time>2022-03-11T11:01:08.000Z</time>
      </trkpt>
      <trkpt lat="44.47743" lon="6.70345">
        <ele>1943</ele>
        <time>2022-03-11T11:01:11.000Z</time>
      </trkpt>
      <trkpt lat="44.47744" lon="6.7034">
        <ele>1943.5999755859</ele>
        <time>2022-03-11T11:01:16.000Z</time>
      </trkpt>
      <trkpt lat="44.47745" lon="6.70336">
        <ele>1944.1999511719</ele>
        <time>2022-03-11T11:01:20.000Z</time>
      </trkpt>
      <trkpt lat="44.47745" lon="6.70333">
        <ele>1944.8000488281</ele>
        <time>2022-03-11T11:01:23.000Z</time>
      </trkpt>
      <trkpt lat="44.47745" lon="6.7033">
        <ele>1945</ele>
        <time>2022-03-11T11:01:26.000Z</time>
      </trkpt>
      <trkpt lat="44.47743" lon="6.70329">
        <ele>1945</ele>
        <time>2022-03-11T11:01:27.000Z</time>
      </trkpt>
      <trkpt lat="44.47743" lon="6.70326">
        <ele>1945.8000488281</ele>
        <time>2022-03-11T11:01:31.000Z</time>
      </trkpt>
      <trkpt lat="44.47749" lon="6.70322">
        <ele>1946.1999511719</ele>
        <time>2022-03-11T11:01:37.000Z</time>
      </trkpt>
      <trkpt lat="44.47749" lon="6.70316">
        <ele>1946.5999755859</ele>
        <time>2022-03-11T11:01:41.000Z</time>
      </trkpt>
      <trkpt lat="44.47748" lon="6.70313">
        <ele>1946.8000488281</ele>
        <time>2022-03-11T11:01:43.000Z</time>
      </trkpt>
      <trkpt lat="44.47748" lon="6.70312">
        <ele>1946.8000488281</ele>
        <time>2022-03-11T11:01:44.000Z</time>
      </trkpt>
      <trkpt lat="44.47749" lon="6.70311">
        <ele>1947.4000244141</ele>
        <time>2022-03-11T11:01:48.000Z</time>
      </trkpt>
      <trkpt lat="44.47751" lon="6.70305">
        <ele>1948</ele>
        <time>2022-03-11T11:01:54.000Z</time>
      </trkpt>
      <trkpt lat="44.4775" lon="6.70305">
        <ele>1948.1999511719</ele>
        <time>2022-03-11T11:01:55.000Z</time>
      </trkpt>
      <trkpt lat="44.47749" lon="6.70298">
        <ele>1949.1999511719</ele>
        <time>2022-03-11T11:02:03.000Z</time>
      </trkpt>
      <trkpt lat="44.4775" lon="6.70297">
        <ele>1949.4000244141</ele>
        <time>2022-03-11T11:02:04.000Z</time>
      </trkpt>
      <trkpt lat="44.47753" lon="6.70291">
        <ele>1950.1999511719</ele>
        <time>2022-03-11T11:02:11.000Z</time>
      </trkpt>
      <trkpt lat="44.47753" lon="6.7029">
        <ele>1950.1999511719</ele>
        <time>2022-03-11T11:02:12.000Z</time>
      </trkpt>
      <trkpt lat="44.47756" lon="6.70286">
        <ele>1950.5999755859</ele>
        <time>2022-03-11T11:02:19.000Z</time>
      </trkpt>
      <trkpt lat="44.47758" lon="6.70282">
        <ele>1950.8000488281</ele>
        <time>2022-03-11T11:02:25.000Z</time>
      </trkpt>
      <trkpt lat="44.47763" lon="6.70276">
        <ele>1951.1999511719</ele>
        <time>2022-03-11T11:02:32.000Z</time>
      </trkpt>
      <trkpt lat="44.47763" lon="6.70275">
        <ele>1951.1999511719</ele>
        <time>2022-03-11T11:02:33.000Z</time>
      </trkpt>
      <trkpt lat="44.47765" lon="6.70272">
        <ele>1951.8000488281</ele>
        <time>2022-03-11T11:02:38.000Z</time>
      </trkpt>
      <trkpt lat="44.47766" lon="6.70269">
        <ele>1952.4000244141</ele>
        <time>2022-03-11T11:02:41.000Z</time>
      </trkpt>
      <trkpt lat="44.47768" lon="6.70266">
        <ele>1953.5999755859</ele>
        <time>2022-03-11T11:02:44.000Z</time>
      </trkpt>
      <trkpt lat="44.47771" lon="6.70263">
        <ele>1954.1999511719</ele>
        <time>2022-03-11T11:02:51.000Z</time>
      </trkpt>
      <trkpt lat="44.47771" lon="6.70261">
        <ele>1954.5999755859</ele>
        <time>2022-03-11T11:02:53.000Z</time>
      </trkpt>
      <trkpt lat="44.47772" lon="6.70256">
        <ele>1954.8000488281</ele>
        <time>2022-03-11T11:02:57.000Z</time>
      </trkpt>
      <trkpt lat="44.47774" lon="6.70249">
        <ele>1954.1999511719</ele>
        <time>2022-03-11T11:03:03.000Z</time>
      </trkpt>
      <trkpt lat="44.47777" lon="6.70239">
        <ele>1954.8000488281</ele>
        <time>2022-03-11T11:03:12.000Z</time>
      </trkpt>
      <trkpt lat="44.47777" lon="6.70235">
        <ele>1955.1999511719</ele>
        <time>2022-03-11T11:03:16.000Z</time>
      </trkpt>
      <trkpt lat="44.47781" lon="6.70231">
        <ele>1955.8000488281</ele>
        <time>2022-03-11T11:03:20.000Z</time>
      </trkpt>
      <trkpt lat="44.47782" lon="6.70227">
        <ele>1956</ele>
        <time>2022-03-11T11:03:24.000Z</time>
      </trkpt>
      <trkpt lat="44.47781" lon="6.70218">
        <ele>1956.5999755859</ele>
        <time>2022-03-11T11:03:32.000Z</time>
      </trkpt>
      <trkpt lat="44.4778" lon="6.70215">
        <ele>1956.8000488281</ele>
        <time>2022-03-11T11:03:34.000Z</time>
      </trkpt>
      <trkpt lat="44.47785" lon="6.70211">
        <ele>1957</ele>
        <time>2022-03-11T11:03:38.000Z</time>
      </trkpt>
      <trkpt lat="44.47786" lon="6.70205">
        <ele>1957.5999755859</ele>
        <time>2022-03-11T11:03:45.000Z</time>
      </trkpt>
      <trkpt lat="44.47787" lon="6.70201">
        <ele>1957.5999755859</ele>
        <time>2022-03-11T11:03:51.000Z</time>
      </trkpt>
      <trkpt lat="44.47789" lon="6.70197">
        <ele>1957.8000488281</ele>
        <time>2022-03-11T11:03:55.000Z</time>
      </trkpt>
      <trkpt lat="44.47793" lon="6.70193">
        <ele>1958.8000488281</ele>
        <time>2022-03-11T11:04:00.000Z</time>
      </trkpt>
      <trkpt lat="44.47794" lon="6.70192">
        <ele>1959</ele>
        <time>2022-03-11T11:04:01.000Z</time>
      </trkpt>
      <trkpt lat="44.47796" lon="6.70183">
        <ele>1959.8000488281</ele>
        <time>2022-03-11T11:04:09.000Z</time>
      </trkpt>
      <trkpt lat="44.47798" lon="6.70179">
        <ele>1960</ele>
        <time>2022-03-11T11:04:14.000Z</time>
      </trkpt>
      <trkpt lat="44.47799" lon="6.70177">
        <ele>1960</ele>
        <time>2022-03-11T11:04:15.000Z</time>
      </trkpt>
      <trkpt lat="44.47798" lon="6.70171">
        <ele>1960.1999511719</ele>
        <time>2022-03-11T11:04:20.000Z</time>
      </trkpt>
      <trkpt lat="44.47802" lon="6.70167">
        <ele>1960.8000488281</ele>
        <time>2022-03-11T11:04:26.000Z</time>
      </trkpt>
      <trkpt lat="44.47814" lon="6.70162">
        <ele>1960.8000488281</ele>
        <time>2022-03-11T11:04:35.000Z</time>
      </trkpt>
      <trkpt lat="44.47819" lon="6.70161">
        <ele>1961</ele>
        <time>2022-03-11T11:04:37.000Z</time>
      </trkpt>
      <trkpt lat="44.47825" lon="6.70157">
        <ele>1962.1999511719</ele>
        <time>2022-03-11T11:04:45.000Z</time>
      </trkpt>
      <trkpt lat="44.47832" lon="6.70149">
        <ele>1963.1999511719</ele>
        <time>2022-03-11T11:04:53.000Z</time>
      </trkpt>
      <trkpt lat="44.47833" lon="6.70146">
        <ele>1963.4000244141</ele>
        <time>2022-03-11T11:04:55.000Z</time>
      </trkpt>
      <trkpt lat="44.47837" lon="6.7014">
        <ele>1963.5999755859</ele>
        <time>2022-03-11T11:05:01.000Z</time>
      </trkpt>
      <trkpt lat="44.4784" lon="6.70132">
        <ele>1964.4000244141</ele>
        <time>2022-03-11T11:05:11.000Z</time>
      </trkpt>
      <trkpt lat="44.47841" lon="6.70129">
        <ele>1964.5999755859</ele>
        <time>2022-03-11T11:05:16.000Z</time>
      </trkpt>
      <trkpt lat="44.47842" lon="6.70126">
        <ele>1965.4000244141</ele>
        <time>2022-03-11T11:05:22.000Z</time>
      </trkpt>
      <trkpt lat="44.47842" lon="6.70123">
        <ele>1965.8000488281</ele>
        <time>2022-03-11T11:05:26.000Z</time>
      </trkpt>
      <trkpt lat="44.47841" lon="6.7012">
        <ele>1966.5999755859</ele>
        <time>2022-03-11T11:05:33.000Z</time>
      </trkpt>
      <trkpt lat="44.4784" lon="6.70117">
        <ele>1967.8000488281</ele>
        <time>2022-03-11T11:05:40.000Z</time>
      </trkpt>
      <trkpt lat="44.47841" lon="6.70114">
        <ele>1968.5999755859</ele>
        <time>2022-03-11T11:05:46.000Z</time>
      </trkpt>
      <trkpt lat="44.47842" lon="6.70114">
        <ele>1969</ele>
        <time>2022-03-11T11:05:48.000Z</time>
      </trkpt>
      <trkpt lat="44.4784" lon="6.70115">
        <ele>1969.4000244141</ele>
        <time>2022-03-11T11:05:53.000Z</time>
      </trkpt>
      <trkpt lat="44.47838" lon="6.70114">
        <ele>1970</ele>
        <time>2022-03-11T11:05:57.000Z</time>
      </trkpt>
      <trkpt lat="44.47837" lon="6.70113">
        <ele>1970.4000244141</ele>
        <time>2022-03-11T11:06:00.000Z</time>
      </trkpt>
      <trkpt lat="44.47835" lon="6.70114">
        <ele>1971</ele>
        <time>2022-03-11T11:06:06.000Z</time>
      </trkpt>
      <trkpt lat="44.47833" lon="6.70114">
        <ele>1971.4000244141</ele>
        <time>2022-03-11T11:06:08.000Z</time>
      </trkpt>
      <trkpt lat="44.47834" lon="6.70115">
        <ele>1972.4000244141</ele>
        <time>2022-03-11T11:06:12.000Z</time>
      </trkpt>
      <trkpt lat="44.47834" lon="6.70111">
        <ele>1973</ele>
        <time>2022-03-11T11:06:15.000Z</time>
      </trkpt>
      <trkpt lat="44.47833" lon="6.70104">
        <ele>1973.4000244141</ele>
        <time>2022-03-11T11:06:20.000Z</time>
      </trkpt>
      <trkpt lat="44.47833" lon="6.70104">
        <ele>1973.5999755859</ele>
        <time>2022-03-11T11:06:21.000Z</time>
      </trkpt>
      <trkpt lat="44.47833" lon="6.70101">
        <ele>1974.5999755859</ele>
        <time>2022-03-11T11:06:26.000Z</time>
      </trkpt>
      <trkpt lat="44.47835" lon="6.701">
        <ele>1975</ele>
        <time>2022-03-11T11:06:29.000Z</time>
      </trkpt>
      <trkpt lat="44.47835" lon="6.70097">
        <ele>1975.5999755859</ele>
        <time>2022-03-11T11:06:32.000Z</time>
      </trkpt>
      <trkpt lat="44.47837" lon="6.70097">
        <ele>1975.8000488281</ele>
        <time>2022-03-11T11:06:36.000Z</time>
      </trkpt>
      <trkpt lat="44.47829" lon="6.7009">
        <ele>1976.4000244141</ele>
        <time>2022-03-11T11:06:41.000Z</time>
      </trkpt>
      <trkpt lat="44.47823" lon="6.70083">
        <ele>1976.5999755859</ele>
        <time>2022-03-11T11:06:42.000Z</time>
      </trkpt>
      <trkpt lat="44.4782" lon="6.70083">
        <ele>1977.1999511719</ele>
        <time>2022-03-11T11:06:48.000Z</time>
      </trkpt>
      <trkpt lat="44.47818" lon="6.70082">
        <ele>1977.8000488281</ele>
        <time>2022-03-11T11:06:50.000Z</time>
      </trkpt>
      <trkpt lat="44.47816" lon="6.70081">
        <ele>1978.8000488281</ele>
        <time>2022-03-11T11:06:55.000Z</time>
      </trkpt>
      <trkpt lat="44.47817" lon="6.70084">
        <ele>1979.8000488281</ele>
        <time>2022-03-11T11:07:05.000Z</time>
      </trkpt>
      <trkpt lat="44.47819" lon="6.70086">
        <ele>1980.1999511719</ele>
        <time>2022-03-11T11:07:06.000Z</time>
      </trkpt>
      <trkpt lat="44.47822" lon="6.70084">
        <ele>1981</ele>
        <time>2022-03-11T11:07:14.000Z</time>
      </trkpt>
      <trkpt lat="44.47823" lon="6.70084">
        <ele>1981.1999511719</ele>
        <time>2022-03-11T11:07:15.000Z</time>
      </trkpt>
      <trkpt lat="44.47827" lon="6.70084">
        <ele>1982.4000244141</ele>
        <time>2022-03-11T11:07:19.000Z</time>
      </trkpt>
      <trkpt lat="44.47827" lon="6.70084">
        <ele>1982.5999755859</ele>
        <time>2022-03-11T11:07:20.000Z</time>
      </trkpt>
      <trkpt lat="44.47828" lon="6.70084">
        <ele>1982.8000488281</ele>
        <time>2022-03-11T11:07:23.000Z</time>
      </trkpt>
      <trkpt lat="44.47826" lon="6.70081">
        <ele>1983.4000244141</ele>
        <time>2022-03-11T11:07:27.000Z</time>
      </trkpt>
      <trkpt lat="44.47827" lon="6.7008">
        <ele>1983.5999755859</ele>
        <time>2022-03-11T11:07:28.000Z</time>
      </trkpt>
      <trkpt lat="44.47827" lon="6.70077">
        <ele>1984.5999755859</ele>
        <time>2022-03-11T11:07:34.000Z</time>
      </trkpt>
      <trkpt lat="44.47829" lon="6.70073">
        <ele>1985.4000244141</ele>
        <time>2022-03-11T11:07:42.000Z</time>
      </trkpt>
      <trkpt lat="44.47829" lon="6.7007">
        <ele>1985.5999755859</ele>
        <time>2022-03-11T11:07:45.000Z</time>
      </trkpt>
      <trkpt lat="44.47831" lon="6.70067">
        <ele>1987</ele>
        <time>2022-03-11T11:07:51.000Z</time>
      </trkpt>
      <trkpt lat="44.4783" lon="6.70059">
        <ele>1987.8000488281</ele>
        <time>2022-03-11T11:07:58.000Z</time>
      </trkpt>
      <trkpt lat="44.4783" lon="6.70058">
        <ele>1988</ele>
        <time>2022-03-11T11:07:59.000Z</time>
      </trkpt>
      <trkpt lat="44.47833" lon="6.70059">
        <ele>1988.4000244141</ele>
        <time>2022-03-11T11:08:05.000Z</time>
      </trkpt>
      <trkpt lat="44.47832" lon="6.70058">
        <ele>1988.5999755859</ele>
        <time>2022-03-11T11:08:14.000Z</time>
      </trkpt>
      <trkpt lat="44.47831" lon="6.70058">
        <ele>1989.1999511719</ele>
        <time>2022-03-11T11:08:19.000Z</time>
      </trkpt>
      <trkpt lat="44.47829" lon="6.70059">
        <ele>1989.8000488281</ele>
        <time>2022-03-11T11:08:24.000Z</time>
      </trkpt>
      <trkpt lat="44.47827" lon="6.70058">
        <ele>1990.4000244141</ele>
        <time>2022-03-11T11:08:27.000Z</time>
      </trkpt>
      <trkpt lat="44.47821" lon="6.70051">
        <ele>1991.5999755859</ele>
        <time>2022-03-11T11:08:34.000Z</time>
      </trkpt>
      <trkpt lat="44.47821" lon="6.70051">
        <ele>1991.8000488281</ele>
        <time>2022-03-11T11:08:35.000Z</time>
      </trkpt>
      <trkpt lat="44.47821" lon="6.70046">
        <ele>1992.4000244141</ele>
        <time>2022-03-11T11:08:43.000Z</time>
      </trkpt>
      <trkpt lat="44.4782" lon="6.70045">
        <ele>1992.5999755859</ele>
        <time>2022-03-11T11:08:46.000Z</time>
      </trkpt>
      <trkpt lat="44.4782" lon="6.70044">
        <ele>1993</ele>
        <time>2022-03-11T11:08:49.000Z</time>
      </trkpt>
      <trkpt lat="44.47819" lon="6.70043">
        <ele>1993.5999755859</ele>
        <time>2022-03-11T11:08:54.000Z</time>
      </trkpt>
      <trkpt lat="44.4782" lon="6.70038">
        <ele>1994.4000244141</ele>
        <time>2022-03-11T11:08:59.000Z</time>
      </trkpt>
      <trkpt lat="44.47818" lon="6.70033">
        <ele>1994.8000488281</ele>
        <time>2022-03-11T11:09:04.000Z</time>
      </trkpt>
      <trkpt lat="44.47819" lon="6.70032">
        <ele>1995</ele>
        <time>2022-03-11T11:09:06.000Z</time>
      </trkpt>
      <trkpt lat="44.47819" lon="6.70028">
        <ele>1995.5999755859</ele>
        <time>2022-03-11T11:09:12.000Z</time>
      </trkpt>
      <trkpt lat="44.47819" lon="6.70028">
        <ele>1995.8000488281</ele>
        <time>2022-03-11T11:09:13.000Z</time>
      </trkpt>
      <trkpt lat="44.47818" lon="6.70023">
        <ele>1996.8000488281</ele>
        <time>2022-03-11T11:09:20.000Z</time>
      </trkpt>
      <trkpt lat="44.47819" lon="6.70018">
        <ele>1997.5999755859</ele>
        <time>2022-03-11T11:09:28.000Z</time>
      </trkpt>
      <trkpt lat="44.4782" lon="6.70013">
        <ele>1998</ele>
        <time>2022-03-11T11:09:34.000Z</time>
      </trkpt>
      <trkpt lat="44.47819" lon="6.70012">
        <ele>1998.1999511719</ele>
        <time>2022-03-11T11:09:35.000Z</time>
      </trkpt>
      <trkpt lat="44.47819" lon="6.70009">
        <ele>1999</ele>
        <time>2022-03-11T11:09:42.000Z</time>
      </trkpt>
      <trkpt lat="44.47819" lon="6.70008">
        <ele>1999.1999511719</ele>
        <time>2022-03-11T11:09:44.000Z</time>
      </trkpt>
      <trkpt lat="44.47823" lon="6.70007">
        <ele>1999.5999755859</ele>
        <time>2022-03-11T11:09:50.000Z</time>
      </trkpt>
      <trkpt lat="44.47824" lon="6.70008">
        <ele>1999.8000488281</ele>
        <time>2022-03-11T11:09:58.000Z</time>
      </trkpt>
      <trkpt lat="44.47823" lon="6.7001">
        <ele>2000.1999511719</ele>
        <time>2022-03-11T11:10:19.000Z</time>
      </trkpt>
      <trkpt lat="44.47822" lon="6.70011">
        <ele>2000.8000488281</ele>
        <time>2022-03-11T11:10:21.000Z</time>
      </trkpt>
      <trkpt lat="44.47821" lon="6.70012">
        <ele>2001.4000244141</ele>
        <time>2022-03-11T11:10:23.000Z</time>
      </trkpt>
      <trkpt lat="44.4782" lon="6.70011">
        <ele>2001.5999755859</ele>
        <time>2022-03-11T11:10:28.000Z</time>
      </trkpt>
      <trkpt lat="44.47817" lon="6.7001">
        <ele>2002</ele>
        <time>2022-03-11T11:10:34.000Z</time>
      </trkpt>
      <trkpt lat="44.47817" lon="6.70013">
        <ele>2002.5999755859</ele>
        <time>2022-03-11T11:10:38.000Z</time>
      </trkpt>
      <trkpt lat="44.47816" lon="6.70015">
        <ele>2002.8000488281</ele>
        <time>2022-03-11T11:10:41.000Z</time>
      </trkpt>
      <trkpt lat="44.47815" lon="6.70016">
        <ele>2003.5999755859</ele>
        <time>2022-03-11T11:10:46.000Z</time>
      </trkpt>
      <trkpt lat="44.47812" lon="6.70019">
        <ele>2004.5999755859</ele>
        <time>2022-03-11T11:10:52.000Z</time>
      </trkpt>
      <trkpt lat="44.47811" lon="6.70019">
        <ele>2004.8000488281</ele>
        <time>2022-03-11T11:10:53.000Z</time>
      </trkpt>
      <trkpt lat="44.4781" lon="6.70018">
        <ele>2005.5999755859</ele>
        <time>2022-03-11T11:10:59.000Z</time>
      </trkpt>
      <trkpt lat="44.47809" lon="6.70019">
        <ele>2005.8000488281</ele>
        <time>2022-03-11T11:11:01.000Z</time>
      </trkpt>
      <trkpt lat="44.47804" lon="6.70017">
        <ele>2006.1999511719</ele>
        <time>2022-03-11T11:11:07.000Z</time>
      </trkpt>
      <trkpt lat="44.47803" lon="6.70015">
        <ele>2007</ele>
        <time>2022-03-11T11:11:13.000Z</time>
      </trkpt>
      <trkpt lat="44.47803" lon="6.70018">
        <ele>2007.8000488281</ele>
        <time>2022-03-11T11:11:18.000Z</time>
      </trkpt>
      <trkpt lat="44.47802" lon="6.70019">
        <ele>2008</ele>
        <time>2022-03-11T11:11:20.000Z</time>
      </trkpt>
      <trkpt lat="44.47799" lon="6.70019">
        <ele>2008</ele>
        <time>2022-03-11T11:11:25.000Z</time>
      </trkpt>
      <trkpt lat="44.47797" lon="6.70019">
        <ele>2008</ele>
        <time>2022-03-11T11:11:30.000Z</time>
      </trkpt>
      <trkpt lat="44.47794" lon="6.7002">
        <ele>2009</ele>
        <time>2022-03-11T11:11:36.000Z</time>
      </trkpt>
      <trkpt lat="44.47794" lon="6.70021">
        <ele>2009.1999511719</ele>
        <time>2022-03-11T11:11:38.000Z</time>
      </trkpt>
      <trkpt lat="44.47792" lon="6.7002">
        <ele>2010</ele>
        <time>2022-03-11T11:11:43.000Z</time>
      </trkpt>
      <trkpt lat="44.47791" lon="6.70019">
        <ele>2010.5999755859</ele>
        <time>2022-03-11T11:11:46.000Z</time>
      </trkpt>
      <trkpt lat="44.4779" lon="6.7002">
        <ele>2011</ele>
        <time>2022-03-11T11:11:52.000Z</time>
      </trkpt>
      <trkpt lat="44.4779" lon="6.70019">
        <ele>2011.1999511719</ele>
        <time>2022-03-11T11:11:53.000Z</time>
      </trkpt>
      <trkpt lat="44.47786" lon="6.70014">
        <ele>2012</ele>
        <time>2022-03-11T11:12:00.000Z</time>
      </trkpt>
      <trkpt lat="44.47785" lon="6.70011">
        <ele>2012.1999511719</ele>
        <time>2022-03-11T11:12:03.000Z</time>
      </trkpt>
      <trkpt lat="44.47783" lon="6.70009">
        <ele>2012.8000488281</ele>
        <time>2022-03-11T11:12:09.000Z</time>
      </trkpt>
      <trkpt lat="44.47785" lon="6.70012">
        <ele>2013.1999511719</ele>
        <time>2022-03-11T11:12:15.000Z</time>
      </trkpt>
      <trkpt lat="44.47786" lon="6.70013">
        <ele>2013.4000244141</ele>
        <time>2022-03-11T11:12:18.000Z</time>
      </trkpt>
      <trkpt lat="44.47787" lon="6.70013">
        <ele>2013</ele>
        <time>2022-03-11T11:12:28.000Z</time>
      </trkpt>
      <trkpt lat="44.47786" lon="6.7001">
        <ele>2014.4000244141</ele>
        <time>2022-03-11T11:13:16.000Z</time>
      </trkpt>
      <trkpt lat="44.47786" lon="6.7001">
        <ele>2015.4000244141</ele>
        <time>2022-03-11T11:13:22.000Z</time>
      </trkpt>
      <trkpt lat="44.47786" lon="6.70012">
        <ele>2016.5999755859</ele>
        <time>2022-03-11T11:13:31.000Z</time>
      </trkpt>
      <trkpt lat="44.47785" lon="6.70015">
        <ele>2017.5999755859</ele>
        <time>2022-03-11T11:13:38.000Z</time>
      </trkpt>
      <trkpt lat="44.47784" lon="6.70015">
        <ele>2018.5999755859</ele>
        <time>2022-03-11T11:13:46.000Z</time>
      </trkpt>
      <trkpt lat="44.4778" lon="6.70012">
        <ele>2019</ele>
        <time>2022-03-11T11:13:50.000Z</time>
      </trkpt>
      <trkpt lat="44.47773" lon="6.70005">
        <ele>2019.1999511719</ele>
        <time>2022-03-11T11:13:57.000Z</time>
      </trkpt>
      <trkpt lat="44.47769" lon="6.69999">
        <ele>2019.5999755859</ele>
        <time>2022-03-11T11:14:01.000Z</time>
      </trkpt>
      <trkpt lat="44.47769" lon="6.69998">
        <ele>2019.8000488281</ele>
        <time>2022-03-11T11:14:02.000Z</time>
      </trkpt>
      <trkpt lat="44.47768" lon="6.69996">
        <ele>2020.4000244141</ele>
        <time>2022-03-11T11:14:06.000Z</time>
      </trkpt>
      <trkpt lat="44.47769" lon="6.69993">
        <ele>2021</ele>
        <time>2022-03-11T11:14:11.000Z</time>
      </trkpt>
      <trkpt lat="44.47769" lon="6.69993">
        <ele>2021.1999511719</ele>
        <time>2022-03-11T11:14:12.000Z</time>
      </trkpt>
      <trkpt lat="44.47769" lon="6.6999">
        <ele>2021.8000488281</ele>
        <time>2022-03-11T11:14:16.000Z</time>
      </trkpt>
      <trkpt lat="44.47769" lon="6.69989">
        <ele>2022.1999511719</ele>
        <time>2022-03-11T11:14:18.000Z</time>
      </trkpt>
      <trkpt lat="44.47768" lon="6.69986">
        <ele>2022.4000244141</ele>
        <time>2022-03-11T11:14:21.000Z</time>
      </trkpt>
      <trkpt lat="44.47774" lon="6.69984">
        <ele>2023.1999511719</ele>
        <time>2022-03-11T11:14:27.000Z</time>
      </trkpt>
      <trkpt lat="44.47773" lon="6.69983">
        <ele>2023.4000244141</ele>
        <time>2022-03-11T11:14:35.000Z</time>
      </trkpt>
      <trkpt lat="44.47775" lon="6.69983">
        <ele>2024.4000244141</ele>
        <time>2022-03-11T11:14:40.000Z</time>
      </trkpt>
      <trkpt lat="44.47774" lon="6.69985">
        <ele>2025.5999755859</ele>
        <time>2022-03-11T11:14:44.000Z</time>
      </trkpt>
      <trkpt lat="44.47773" lon="6.69986">
        <ele>2026</ele>
        <time>2022-03-11T11:14:46.000Z</time>
      </trkpt>
      <trkpt lat="44.47771" lon="6.69987">
        <ele>2026.4000244141</ele>
        <time>2022-03-11T11:14:54.000Z</time>
      </trkpt>
      <trkpt lat="44.47772" lon="6.69989">
        <ele>2026.5999755859</ele>
        <time>2022-03-11T11:14:56.000Z</time>
      </trkpt>
      <trkpt lat="44.47772" lon="6.6999">
        <ele>2026.8000488281</ele>
        <time>2022-03-11T11:15:00.000Z</time>
      </trkpt>
      <trkpt lat="44.47773" lon="6.69982">
        <ele>2027.1999511719</ele>
        <time>2022-03-11T11:15:07.000Z</time>
      </trkpt>
      <trkpt lat="44.47773" lon="6.6998">
        <ele>2027.5999755859</ele>
        <time>2022-03-11T11:15:09.000Z</time>
      </trkpt>
      <trkpt lat="44.47774" lon="6.69977">
        <ele>2028.4000244141</ele>
        <time>2022-03-11T11:15:13.000Z</time>
      </trkpt>
      <trkpt lat="44.47773" lon="6.69974">
        <ele>2028.5999755859</ele>
        <time>2022-03-11T11:15:15.000Z</time>
      </trkpt>
      <trkpt lat="44.47768" lon="6.69967">
        <ele>2029.1999511719</ele>
        <time>2022-03-11T11:15:20.000Z</time>
      </trkpt>
      <trkpt lat="44.47768" lon="6.69964">
        <ele>2029.5999755859</ele>
        <time>2022-03-11T11:15:24.000Z</time>
      </trkpt>
      <trkpt lat="44.47769" lon="6.69965">
        <ele>2030</ele>
        <time>2022-03-11T11:15:27.000Z</time>
      </trkpt>
      <trkpt lat="44.47769" lon="6.69966">
        <ele>2030.8000488281</ele>
        <time>2022-03-11T11:15:31.000Z</time>
      </trkpt>
      <trkpt lat="44.47768" lon="6.69966">
        <ele>2030.8000488281</ele>
        <time>2022-03-11T11:15:32.000Z</time>
      </trkpt>
      <trkpt lat="44.47768" lon="6.69966">
        <ele>2031.8000488281</ele>
        <time>2022-03-11T11:15:37.000Z</time>
      </trkpt>
      <trkpt lat="44.47768" lon="6.69969">
        <ele>2031.8000488281</ele>
        <time>2022-03-11T11:15:42.000Z</time>
      </trkpt>
      <trkpt lat="44.47763" lon="6.69968">
        <ele>2032.8000488281</ele>
        <time>2022-03-11T11:15:47.000Z</time>
      </trkpt>
      <trkpt lat="44.47762" lon="6.69968">
        <ele>2033.1999511719</ele>
        <time>2022-03-11T11:15:48.000Z</time>
      </trkpt>
      <trkpt lat="44.47762" lon="6.69968">
        <ele>2033.8000488281</ele>
        <time>2022-03-11T11:15:52.000Z</time>
      </trkpt>
      <trkpt lat="44.47762" lon="6.69969">
        <ele>2034.4000244141</ele>
        <time>2022-03-11T11:15:55.000Z</time>
      </trkpt>
      <trkpt lat="44.47759" lon="6.6997">
        <ele>2035</ele>
        <time>2022-03-11T11:15:58.000Z</time>
      </trkpt>
      <trkpt lat="44.47758" lon="6.69971">
        <ele>2035.4000244141</ele>
        <time>2022-03-11T11:16:02.000Z</time>
      </trkpt>
      <trkpt lat="44.47756" lon="6.69974">
        <ele>2036</ele>
        <time>2022-03-11T11:16:07.000Z</time>
      </trkpt>
      <trkpt lat="44.47757" lon="6.69977">
        <ele>2036</ele>
        <time>2022-03-11T11:16:09.000Z</time>
      </trkpt>
      <trkpt lat="44.47756" lon="6.69974">
        <ele>2036.1999511719</ele>
        <time>2022-03-11T11:16:12.000Z</time>
      </trkpt>
      <trkpt lat="44.47754" lon="6.69973">
        <ele>2037</ele>
        <time>2022-03-11T11:16:18.000Z</time>
      </trkpt>
      <trkpt lat="44.47755" lon="6.69974">
        <ele>2037</ele>
        <time>2022-03-11T11:16:20.000Z</time>
      </trkpt>
      <trkpt lat="44.47754" lon="6.69971">
        <ele>2037.5999755859</ele>
        <time>2022-03-11T11:16:25.000Z</time>
      </trkpt>
      <trkpt lat="44.47752" lon="6.69968">
        <ele>2038.1999511719</ele>
        <time>2022-03-11T11:16:28.000Z</time>
      </trkpt>
      <trkpt lat="44.47752" lon="6.69966">
        <ele>2039.1999511719</ele>
        <time>2022-03-11T11:16:36.000Z</time>
      </trkpt>
      <trkpt lat="44.47752" lon="6.69964">
        <ele>2040.4000244141</ele>
        <time>2022-03-11T11:16:43.000Z</time>
      </trkpt>
      <trkpt lat="44.47752" lon="6.69963">
        <ele>2040.8000488281</ele>
        <time>2022-03-11T11:16:45.000Z</time>
      </trkpt>
      <trkpt lat="44.47754" lon="6.69964">
        <ele>2041.1999511719</ele>
        <time>2022-03-11T11:16:49.000Z</time>
      </trkpt>
      <trkpt lat="44.47753" lon="6.69963">
        <ele>2041.4000244141</ele>
        <time>2022-03-11T11:16:52.000Z</time>
      </trkpt>
      <trkpt lat="44.47751" lon="6.69963">
        <ele>2042</ele>
        <time>2022-03-11T11:16:56.000Z</time>
      </trkpt>
      <trkpt lat="44.47749" lon="6.69963">
        <ele>2042.5999755859</ele>
        <time>2022-03-11T11:17:01.000Z</time>
      </trkpt>
      <trkpt lat="44.47749" lon="6.69963">
        <ele>2042.8000488281</ele>
        <time>2022-03-11T11:17:03.000Z</time>
      </trkpt>
      <trkpt lat="44.47744" lon="6.69958">
        <ele>2043.4000244141</ele>
        <time>2022-03-11T11:17:12.000Z</time>
      </trkpt>
      <trkpt lat="44.47744" lon="6.69958">
        <ele>2043.8000488281</ele>
        <time>2022-03-11T11:17:13.000Z</time>
      </trkpt>
      <trkpt lat="44.47742" lon="6.69959">
        <ele>2044.8000488281</ele>
        <time>2022-03-11T11:17:19.000Z</time>
      </trkpt>
      <trkpt lat="44.47741" lon="6.69961">
        <ele>2044.8000488281</ele>
        <time>2022-03-11T11:17:21.000Z</time>
      </trkpt>
      <trkpt lat="44.47736" lon="6.69961">
        <ele>2045.5999755859</ele>
        <time>2022-03-11T11:17:30.000Z</time>
      </trkpt>
      <trkpt lat="44.47732" lon="6.69961">
        <ele>2046</ele>
        <time>2022-03-11T11:17:34.000Z</time>
      </trkpt>
      <trkpt lat="44.47733" lon="6.69962">
        <ele>2047</ele>
        <time>2022-03-11T11:17:41.000Z</time>
      </trkpt>
      <trkpt lat="44.47732" lon="6.6996">
        <ele>2048</ele>
        <time>2022-03-11T11:17:49.000Z</time>
      </trkpt>
      <trkpt lat="44.47732" lon="6.6996">
        <ele>2048</ele>
        <time>2022-03-11T11:17:53.000Z</time>
      </trkpt>
      <trkpt lat="44.47727" lon="6.69965">
        <ele>2048.6000976562</ele>
        <time>2022-03-11T11:19:08.000Z</time>
      </trkpt>
      <trkpt lat="44.47726" lon="6.69965">
        <ele>2049</ele>
        <time>2022-03-11T11:19:23.000Z</time>
      </trkpt>
      <trkpt lat="44.47725" lon="6.69963">
        <ele>2050.1999511719</ele>
        <time>2022-03-11T11:19:31.000Z</time>
      </trkpt>
      <trkpt lat="44.47725" lon="6.69958">
        <ele>2051.1999511719</ele>
        <time>2022-03-11T11:19:43.000Z</time>
      </trkpt>
      <trkpt lat="44.47726" lon="6.69953">
        <ele>2052.1999511719</ele>
        <time>2022-03-11T11:19:54.000Z</time>
      </trkpt>
      <trkpt lat="44.47726" lon="6.69947">
        <ele>2053.1999511719</ele>
        <time>2022-03-11T11:20:02.000Z</time>
      </trkpt>
      <trkpt lat="44.47728" lon="6.69943">
        <ele>2054.3999023438</ele>
        <time>2022-03-11T11:20:17.000Z</time>
      </trkpt>
      <trkpt lat="44.47734" lon="6.69943">
        <ele>2054.1999511719</ele>
        <time>2022-03-11T11:20:43.000Z</time>
      </trkpt>
      <trkpt lat="44.47736" lon="6.69942">
        <ele>2054.3999023438</ele>
        <time>2022-03-11T11:20:47.000Z</time>
      </trkpt>
      <trkpt lat="44.47735" lon="6.69939">
        <ele>2054.3999023438</ele>
        <time>2022-03-11T11:20:50.000Z</time>
      </trkpt>
      <trkpt lat="44.47733" lon="6.69933">
        <ele>2054.3999023438</ele>
        <time>2022-03-11T11:21:13.000Z</time>
      </trkpt>
      <trkpt lat="44.4773" lon="6.69934">
        <ele>2055</ele>
        <time>2022-03-11T11:21:18.000Z</time>
      </trkpt>
      <trkpt lat="44.47726" lon="6.69935">
        <ele>2055.1999511719</ele>
        <time>2022-03-11T11:21:25.000Z</time>
      </trkpt>
      <trkpt lat="44.47726" lon="6.69935">
        <ele>2055.3999023438</ele>
        <time>2022-03-11T11:21:26.000Z</time>
      </trkpt>
      <trkpt lat="44.47725" lon="6.69936">
        <ele>2055.8000488281</ele>
        <time>2022-03-11T11:21:33.000Z</time>
      </trkpt>
      <trkpt lat="44.47722" lon="6.69935">
        <ele>2056.3999023438</ele>
        <time>2022-03-11T11:21:42.000Z</time>
      </trkpt>
      <trkpt lat="44.47722" lon="6.69936">
        <ele>2057.3999023438</ele>
        <time>2022-03-11T11:21:53.000Z</time>
      </trkpt>
      <trkpt lat="44.47722" lon="6.69937">
        <ele>2058</ele>
        <time>2022-03-11T11:21:57.000Z</time>
      </trkpt>
      <trkpt lat="44.47719" lon="6.69941">
        <ele>2058.6000976562</ele>
        <time>2022-03-11T11:22:00.000Z</time>
      </trkpt>
      <trkpt lat="44.47713" lon="6.69947">
        <ele>2059.1999511719</ele>
        <time>2022-03-11T11:22:04.000Z</time>
      </trkpt>
      <trkpt lat="44.4771" lon="6.69949">
        <ele>2059.6000976562</ele>
        <time>2022-03-11T11:22:06.000Z</time>
      </trkpt>
      <trkpt lat="44.47706" lon="6.69953">
        <ele>2060.6000976562</ele>
        <time>2022-03-11T11:22:12.000Z</time>
      </trkpt>
      <trkpt lat="44.47706" lon="6.69953">
        <ele>2060.8000488281</ele>
        <time>2022-03-11T11:22:13.000Z</time>
      </trkpt>
      <trkpt lat="44.47704" lon="6.69951">
        <ele>2061.8000488281</ele>
        <time>2022-03-11T11:22:18.000Z</time>
      </trkpt>
      <trkpt lat="44.47698" lon="6.69942">
        <ele>2062.8000488281</ele>
        <time>2022-03-11T11:22:25.000Z</time>
      </trkpt>
      <trkpt lat="44.47698" lon="6.69942">
        <ele>2063</ele>
        <time>2022-03-11T11:22:26.000Z</time>
      </trkpt>
      <trkpt lat="44.47699" lon="6.6994">
        <ele>2063.6000976562</ele>
        <time>2022-03-11T11:22:30.000Z</time>
      </trkpt>
      <trkpt lat="44.47699" lon="6.69938">
        <ele>2064</ele>
        <time>2022-03-11T11:22:34.000Z</time>
      </trkpt>
      <trkpt lat="44.47699" lon="6.69937">
        <ele>2064.6000976562</ele>
        <time>2022-03-11T11:22:36.000Z</time>
      </trkpt>
      <trkpt lat="44.47699" lon="6.69938">
        <ele>2064.6000976562</ele>
        <time>2022-03-11T11:22:37.000Z</time>
      </trkpt>
      <trkpt lat="44.477" lon="6.69935">
        <ele>2065.1999511719</ele>
        <time>2022-03-11T11:22:40.000Z</time>
      </trkpt>
      <trkpt lat="44.477" lon="6.69932">
        <ele>2065.6000976562</ele>
        <time>2022-03-11T11:22:42.000Z</time>
      </trkpt>
      <trkpt lat="44.477" lon="6.69925">
        <ele>2066.1999511719</ele>
        <time>2022-03-11T11:22:49.000Z</time>
      </trkpt>
      <trkpt lat="44.477" lon="6.69924">
        <ele>2066.3999023438</ele>
        <time>2022-03-11T11:22:50.000Z</time>
      </trkpt>
      <trkpt lat="44.47702" lon="6.69921">
        <ele>2067.3999023438</ele>
        <time>2022-03-11T11:22:56.000Z</time>
      </trkpt>
      <trkpt lat="44.47703" lon="6.69921">
        <ele>2067.6000976562</ele>
        <time>2022-03-11T11:22:57.000Z</time>
      </trkpt>
      <trkpt lat="44.47702" lon="6.69918">
        <ele>2068.6000976562</ele>
        <time>2022-03-11T11:23:03.000Z</time>
      </trkpt>
      <trkpt lat="44.47703" lon="6.69916">
        <ele>2068.8000488281</ele>
        <time>2022-03-11T11:23:04.000Z</time>
      </trkpt>
      <trkpt lat="44.47704" lon="6.69912">
        <ele>2069.6000976562</ele>
        <time>2022-03-11T11:23:08.000Z</time>
      </trkpt>
      <trkpt lat="44.47706" lon="6.69913">
        <ele>2070</ele>
        <time>2022-03-11T11:23:13.000Z</time>
      </trkpt>
      <trkpt lat="44.47706" lon="6.69906">
        <ele>2070.6000976562</ele>
        <time>2022-03-11T11:23:19.000Z</time>
      </trkpt>
      <trkpt lat="44.47707" lon="6.69904">
        <ele>2071</ele>
        <time>2022-03-11T11:23:21.000Z</time>
      </trkpt>
      <trkpt lat="44.47707" lon="6.699">
        <ele>2071.3999023438</ele>
        <time>2022-03-11T11:23:26.000Z</time>
      </trkpt>
      <trkpt lat="44.47707" lon="6.699">
        <ele>2071.3999023438</ele>
        <time>2022-03-11T11:23:27.000Z</time>
      </trkpt>
      <trkpt lat="44.4771" lon="6.69903">
        <ele>2071.3999023438</ele>
        <time>2022-03-11T11:23:31.000Z</time>
      </trkpt>
      <trkpt lat="44.4771" lon="6.69904">
        <ele>2072.1999511719</ele>
        <time>2022-03-11T11:23:33.000Z</time>
      </trkpt>
      <trkpt lat="44.47707" lon="6.69903">
        <ele>2073</ele>
        <time>2022-03-11T11:23:38.000Z</time>
      </trkpt>
      <trkpt lat="44.47707" lon="6.69903">
        <ele>2073.1999511719</ele>
        <time>2022-03-11T11:23:39.000Z</time>
      </trkpt>
      <trkpt lat="44.47704" lon="6.69904">
        <ele>2074.1999511719</ele>
        <time>2022-03-11T11:23:45.000Z</time>
      </trkpt>
      <trkpt lat="44.47704" lon="6.69904">
        <ele>2074.3999023438</ele>
        <time>2022-03-11T11:23:46.000Z</time>
      </trkpt>
      <trkpt lat="44.47708" lon="6.69903">
        <ele>2075.1999511719</ele>
        <time>2022-03-11T11:23:53.000Z</time>
      </trkpt>
      <trkpt lat="44.47707" lon="6.69904">
        <ele>2075.3999023438</ele>
        <time>2022-03-11T11:23:57.000Z</time>
      </trkpt>
      <trkpt lat="44.47708" lon="6.69904">
        <ele>2075.6000976562</ele>
        <time>2022-03-11T11:23:59.000Z</time>
      </trkpt>
      <trkpt lat="44.47703" lon="6.69907">
        <ele>2076</ele>
        <time>2022-03-11T11:24:06.000Z</time>
      </trkpt>
      <trkpt lat="44.47702" lon="6.69907">
        <ele>2076.6000976562</ele>
        <time>2022-03-11T11:24:09.000Z</time>
      </trkpt>
      <trkpt lat="44.47699" lon="6.69909">
        <ele>2077</ele>
        <time>2022-03-11T11:24:13.000Z</time>
      </trkpt>
      <trkpt lat="44.47694" lon="6.69911">
        <ele>2076.8000488281</ele>
        <time>2022-03-11T11:24:19.000Z</time>
      </trkpt>
      <trkpt lat="44.47691" lon="6.69912">
        <ele>2076.3999023438</ele>
        <time>2022-03-11T11:24:22.000Z</time>
      </trkpt>
      <trkpt lat="44.47688" lon="6.69916">
        <ele>2077.6000976562</ele>
        <time>2022-03-11T11:24:29.000Z</time>
      </trkpt>
      <trkpt lat="44.47688" lon="6.69915">
        <ele>2077.8000488281</ele>
        <time>2022-03-11T11:24:30.000Z</time>
      </trkpt>
      <trkpt lat="44.47686" lon="6.69909">
        <ele>2078.8000488281</ele>
        <time>2022-03-11T11:24:36.000Z</time>
      </trkpt>
      <trkpt lat="44.47685" lon="6.69908">
        <ele>2079.1999511719</ele>
        <time>2022-03-11T11:24:38.000Z</time>
      </trkpt>
      <trkpt lat="44.47685" lon="6.69906">
        <ele>2079.8000488281</ele>
        <time>2022-03-11T11:24:40.000Z</time>
      </trkpt>
      <trkpt lat="44.47683" lon="6.69901">
        <ele>2080.3999023438</ele>
        <time>2022-03-11T11:24:44.000Z</time>
      </trkpt>
      <trkpt lat="44.4768" lon="6.69898">
        <ele>2081</ele>
        <time>2022-03-11T11:24:49.000Z</time>
      </trkpt>
      <trkpt lat="44.47679" lon="6.69897">
        <ele>2081.1999511719</ele>
        <time>2022-03-11T11:24:50.000Z</time>
      </trkpt>
      <trkpt lat="44.47673" lon="6.69887">
        <ele>2082</ele>
        <time>2022-03-11T11:24:56.000Z</time>
      </trkpt>
      <trkpt lat="44.47669" lon="6.69884">
        <ele>2082.6000976562</ele>
        <time>2022-03-11T11:25:02.000Z</time>
      </trkpt>
      <trkpt lat="44.47671" lon="6.69886">
        <ele>2082.6000976562</ele>
        <time>2022-03-11T11:25:04.000Z</time>
      </trkpt>
      <trkpt lat="44.47674" lon="6.69884">
        <ele>2083</ele>
        <time>2022-03-11T11:25:08.000Z</time>
      </trkpt>
      <trkpt lat="44.47677" lon="6.69884">
        <ele>2084</ele>
        <time>2022-03-11T11:25:15.000Z</time>
      </trkpt>
      <trkpt lat="44.47677" lon="6.69884">
        <ele>2084.1999511719</ele>
        <time>2022-03-11T11:25:16.000Z</time>
      </trkpt>
      <trkpt lat="44.47678" lon="6.69884">
        <ele>2085.1999511719</ele>
        <time>2022-03-11T11:25:31.000Z</time>
      </trkpt>
      <trkpt lat="44.47678" lon="6.69884">
        <ele>2085.1999511719</ele>
        <time>2022-03-11T11:25:32.000Z</time>
      </trkpt>
      <trkpt lat="44.47683" lon="6.69877">
        <ele>2086</ele>
        <time>2022-03-11T11:25:40.000Z</time>
      </trkpt>
      <trkpt lat="44.47685" lon="6.69874">
        <ele>2086.1999511719</ele>
        <time>2022-03-11T11:25:43.000Z</time>
      </trkpt>
      <trkpt lat="44.47686" lon="6.69872">
        <ele>2086.6000976562</ele>
        <time>2022-03-11T11:25:45.000Z</time>
      </trkpt>
      <trkpt lat="44.47686" lon="6.69868">
        <ele>2087.1999511719</ele>
        <time>2022-03-11T11:25:51.000Z</time>
      </trkpt>
      <trkpt lat="44.47687" lon="6.69867">
        <ele>2087.3999023438</ele>
        <time>2022-03-11T11:25:53.000Z</time>
      </trkpt>
      <trkpt lat="44.47689" lon="6.69865">
        <ele>2087.8000488281</ele>
        <time>2022-03-11T11:25:58.000Z</time>
      </trkpt>
      <trkpt lat="44.47688" lon="6.6986">
        <ele>2087.8000488281</ele>
        <time>2022-03-11T11:26:06.000Z</time>
      </trkpt>
      <trkpt lat="44.47689" lon="6.69862">
        <ele>2087.8000488281</ele>
        <time>2022-03-11T11:26:13.000Z</time>
      </trkpt>
      <trkpt lat="44.4769" lon="6.69862">
        <ele>2088.3999023438</ele>
        <time>2022-03-11T11:26:35.000Z</time>
      </trkpt>
      <trkpt lat="44.47691" lon="6.69863">
        <ele>2089.3999023438</ele>
        <time>2022-03-11T11:26:51.000Z</time>
      </trkpt>
      <trkpt lat="44.47694" lon="6.69864">
        <ele>2090.6000976562</ele>
        <time>2022-03-11T11:27:01.000Z</time>
      </trkpt>
      <trkpt lat="44.47693" lon="6.69866">
        <ele>2091</ele>
        <time>2022-03-11T11:27:19.000Z</time>
      </trkpt>
      <trkpt lat="44.47694" lon="6.69867">
        <ele>2091</ele>
        <time>2022-03-11T11:27:20.000Z</time>
      </trkpt>
      <trkpt lat="44.47695" lon="6.69871">
        <ele>2091.1999511719</ele>
        <time>2022-03-11T11:27:23.000Z</time>
      </trkpt>
      <trkpt lat="44.47695" lon="6.69873">
        <ele>2091.1999511719</ele>
        <time>2022-03-11T11:27:25.000Z</time>
      </trkpt>
      <trkpt lat="44.47695" lon="6.69873">
        <ele>2091.6000976562</ele>
        <time>2022-03-11T11:27:29.000Z</time>
      </trkpt>
      <trkpt lat="44.47695" lon="6.69873">
        <ele>2091.6000976562</ele>
        <time>2022-03-11T11:27:31.000Z</time>
      </trkpt>
      <trkpt lat="44.47687" lon="6.69878">
        <ele>2091.8000488281</ele>
        <time>2022-03-11T11:27:38.000Z</time>
      </trkpt>
      <trkpt lat="44.47684" lon="6.69881">
        <ele>2092.1999511719</ele>
        <time>2022-03-11T11:27:45.000Z</time>
      </trkpt>
      <trkpt lat="44.47681" lon="6.69883">
        <ele>2092.6000976562</ele>
        <time>2022-03-11T11:27:50.000Z</time>
      </trkpt>
      <trkpt lat="44.47679" lon="6.69885">
        <ele>2093.3999023438</ele>
        <time>2022-03-11T11:27:55.000Z</time>
      </trkpt>
      <trkpt lat="44.47678" lon="6.69886">
        <ele>2093.8000488281</ele>
        <time>2022-03-11T11:27:58.000Z</time>
      </trkpt>
      <trkpt lat="44.47673" lon="6.69886">
        <ele>2094</ele>
        <time>2022-03-11T11:28:03.000Z</time>
      </trkpt>
      <trkpt lat="44.47671" lon="6.69888">
        <ele>2095</ele>
        <time>2022-03-11T11:28:08.000Z</time>
      </trkpt>
      <trkpt lat="44.47671" lon="6.69889">
        <ele>2095.3999023438</ele>
        <time>2022-03-11T11:28:11.000Z</time>
      </trkpt>
      <trkpt lat="44.47669" lon="6.6989">
        <ele>2096</ele>
        <time>2022-03-11T11:28:14.000Z</time>
      </trkpt>
      <trkpt lat="44.47664" lon="6.69891">
        <ele>2096.1999511719</ele>
        <time>2022-03-11T11:28:20.000Z</time>
      </trkpt>
      <trkpt lat="44.47661" lon="6.69893">
        <ele>2096.1999511719</ele>
        <time>2022-03-11T11:28:25.000Z</time>
      </trkpt>
      <trkpt lat="44.47659" lon="6.69892">
        <ele>2096.1999511719</ele>
        <time>2022-03-11T11:28:27.000Z</time>
      </trkpt>
      <trkpt lat="44.47659" lon="6.69891">
        <ele>2097.1999511719</ele>
        <time>2022-03-11T11:28:32.000Z</time>
      </trkpt>
      <trkpt lat="44.47659" lon="6.6989">
        <ele>2097.6000976562</ele>
        <time>2022-03-11T11:28:34.000Z</time>
      </trkpt>
      <trkpt lat="44.47657" lon="6.69882">
        <ele>2098.1999511719</ele>
        <time>2022-03-11T11:28:43.000Z</time>
      </trkpt>
      <trkpt lat="44.47655" lon="6.69879">
        <ele>2098.8000488281</ele>
        <time>2022-03-11T11:28:50.000Z</time>
      </trkpt>
      <trkpt lat="44.47656" lon="6.69878">
        <ele>2099.1999511719</ele>
        <time>2022-03-11T11:28:52.000Z</time>
      </trkpt>
      <trkpt lat="44.47655" lon="6.69873">
        <ele>2099.6000976562</ele>
        <time>2022-03-11T11:28:58.000Z</time>
      </trkpt>
      <trkpt lat="44.47654" lon="6.69869">
        <ele>2100.3999023438</ele>
        <time>2022-03-11T11:29:04.000Z</time>
      </trkpt>
      <trkpt lat="44.47654" lon="6.69869">
        <ele>2100.6000976562</ele>
        <time>2022-03-11T11:29:07.000Z</time>
      </trkpt>
      <trkpt lat="44.47653" lon="6.69867">
        <ele>2100.8000488281</ele>
        <time>2022-03-11T11:29:09.000Z</time>
      </trkpt>
      <trkpt lat="44.47655" lon="6.69864">
        <ele>2101.3999023438</ele>
        <time>2022-03-11T11:29:15.000Z</time>
      </trkpt>
      <trkpt lat="44.47654" lon="6.69861">
        <ele>2101.8000488281</ele>
        <time>2022-03-11T11:29:22.000Z</time>
      </trkpt>
      <trkpt lat="44.47656" lon="6.69859">
        <ele>2102.3999023438</ele>
        <time>2022-03-11T11:29:30.000Z</time>
      </trkpt>
      <trkpt lat="44.47656" lon="6.69859">
        <ele>2102.3999023438</ele>
        <time>2022-03-11T11:29:36.000Z</time>
      </trkpt>
      <trkpt lat="44.4766" lon="6.69856">
        <ele>2102</ele>
        <time>2022-03-11T11:30:03.000Z</time>
      </trkpt>
      <trkpt lat="44.47661" lon="6.69858">
        <ele>2103.3999023438</ele>
        <time>2022-03-11T11:30:32.000Z</time>
      </trkpt>
      <trkpt lat="44.47659" lon="6.69859">
        <ele>2103.3999023438</ele>
        <time>2022-03-11T11:30:35.000Z</time>
      </trkpt>
      <trkpt lat="44.47658" lon="6.69861">
        <ele>2103.6000976562</ele>
        <time>2022-03-11T11:30:38.000Z</time>
      </trkpt>
      <trkpt lat="44.47654" lon="6.69864">
        <ele>2104.6000976562</ele>
        <time>2022-03-11T11:30:47.000Z</time>
      </trkpt>
      <trkpt lat="44.47652" lon="6.69865">
        <ele>2104.8000488281</ele>
        <time>2022-03-11T11:30:49.000Z</time>
      </trkpt>
      <trkpt lat="44.4765" lon="6.69867">
        <ele>2105.1999511719</ele>
        <time>2022-03-11T11:30:53.000Z</time>
      </trkpt>
      <trkpt lat="44.47649" lon="6.69868">
        <ele>2105.6000976562</ele>
        <time>2022-03-11T11:30:57.000Z</time>
      </trkpt>
      <trkpt lat="44.47649" lon="6.69868">
        <ele>2105.8000488281</ele>
        <time>2022-03-11T11:30:58.000Z</time>
      </trkpt>
      <trkpt lat="44.47647" lon="6.69871">
        <ele>2106.1999511719</ele>
        <time>2022-03-11T11:31:02.000Z</time>
      </trkpt>
      <trkpt lat="44.47646" lon="6.69871">
        <ele>2106.8000488281</ele>
        <time>2022-03-11T11:31:06.000Z</time>
      </trkpt>
      <trkpt lat="44.47644" lon="6.69873">
        <ele>2107</ele>
        <time>2022-03-11T11:31:09.000Z</time>
      </trkpt>
      <trkpt lat="44.4764" lon="6.69874">
        <ele>2107.8000488281</ele>
        <time>2022-03-11T11:31:14.000Z</time>
      </trkpt>
      <trkpt lat="44.47637" lon="6.69873">
        <ele>2108.6000976562</ele>
        <time>2022-03-11T11:31:18.000Z</time>
      </trkpt>
      <trkpt lat="44.47637" lon="6.69872">
        <ele>2108.8000488281</ele>
        <time>2022-03-11T11:31:20.000Z</time>
      </trkpt>
      <trkpt lat="44.47632" lon="6.69866">
        <ele>2109.8000488281</ele>
        <time>2022-03-11T11:31:26.000Z</time>
      </trkpt>
      <trkpt lat="44.47631" lon="6.69865">
        <ele>2110</ele>
        <time>2022-03-11T11:31:27.000Z</time>
      </trkpt>
      <trkpt lat="44.47631" lon="6.69862">
        <ele>2110.3999023438</ele>
        <time>2022-03-11T11:31:33.000Z</time>
      </trkpt>
      <trkpt lat="44.47631" lon="6.69862">
        <ele>2111</ele>
        <time>2022-03-11T11:31:39.000Z</time>
      </trkpt>
      <trkpt lat="44.47631" lon="6.69859">
        <ele>2111.3999023438</ele>
        <time>2022-03-11T11:31:42.000Z</time>
      </trkpt>
      <trkpt lat="44.47631" lon="6.69859">
        <ele>2112</ele>
        <time>2022-03-11T11:31:48.000Z</time>
      </trkpt>
      <trkpt lat="44.4763" lon="6.69859">
        <ele>2112.1999511719</ele>
        <time>2022-03-11T11:31:49.000Z</time>
      </trkpt>
      <trkpt lat="44.47626" lon="6.69858">
        <ele>2113.1999511719</ele>
        <time>2022-03-11T11:31:58.000Z</time>
      </trkpt>
      <trkpt lat="44.47625" lon="6.69858">
        <ele>2113.8000488281</ele>
        <time>2022-03-11T11:32:04.000Z</time>
      </trkpt>
      <trkpt lat="44.47623" lon="6.6986">
        <ele>2114.1999511719</ele>
        <time>2022-03-11T11:32:08.000Z</time>
      </trkpt>
      <trkpt lat="44.47624" lon="6.6986">
        <ele>2114.3999023438</ele>
        <time>2022-03-11T11:32:11.000Z</time>
      </trkpt>
      <trkpt lat="44.47622" lon="6.69862">
        <ele>2115.1999511719</ele>
        <time>2022-03-11T11:32:17.000Z</time>
      </trkpt>
      <trkpt lat="44.47619" lon="6.69861">
        <ele>2115.8000488281</ele>
        <time>2022-03-11T11:32:22.000Z</time>
      </trkpt>
      <trkpt lat="44.47618" lon="6.69861">
        <ele>2116.1999511719</ele>
        <time>2022-03-11T11:32:26.000Z</time>
      </trkpt>
      <trkpt lat="44.47615" lon="6.69863">
        <ele>2117</ele>
        <time>2022-03-11T11:32:33.000Z</time>
      </trkpt>
      <trkpt lat="44.47614" lon="6.69862">
        <ele>2117.3999023438</ele>
        <time>2022-03-11T11:32:35.000Z</time>
      </trkpt>
      <trkpt lat="44.47613" lon="6.69861">
        <ele>2118.3999023438</ele>
        <time>2022-03-11T11:32:42.000Z</time>
      </trkpt>
      <trkpt lat="44.47612" lon="6.69861">
        <ele>2118.3999023438</ele>
        <time>2022-03-11T11:32:43.000Z</time>
      </trkpt>
      <trkpt lat="44.47608" lon="6.69861">
        <ele>2119.3999023438</ele>
        <time>2022-03-11T11:32:50.000Z</time>
      </trkpt>
      <trkpt lat="44.4761" lon="6.69861">
        <ele>2120</ele>
        <time>2022-03-11T11:32:53.000Z</time>
      </trkpt>
      <trkpt lat="44.47611" lon="6.69863">
        <ele>2120.6000976562</ele>
        <time>2022-03-11T11:32:57.000Z</time>
      </trkpt>
      <trkpt lat="44.47611" lon="6.69864">
        <ele>2121.1999511719</ele>
        <time>2022-03-11T11:33:01.000Z</time>
      </trkpt>
      <trkpt lat="44.47606" lon="6.69864">
        <ele>2121.8000488281</ele>
        <time>2022-03-11T11:33:06.000Z</time>
      </trkpt>
      <trkpt lat="44.47605" lon="6.69863">
        <ele>2122.1999511719</ele>
        <time>2022-03-11T11:33:08.000Z</time>
      </trkpt>
      <trkpt lat="44.47601" lon="6.69859">
        <ele>2122.8000488281</ele>
        <time>2022-03-11T11:33:16.000Z</time>
      </trkpt>
      <trkpt lat="44.476" lon="6.69859">
        <ele>2122.8000488281</ele>
        <time>2022-03-11T11:33:17.000Z</time>
      </trkpt>
      <trkpt lat="44.47598" lon="6.69859">
        <ele>2123</ele>
        <time>2022-03-11T11:33:24.000Z</time>
      </trkpt>
      <trkpt lat="44.47596" lon="6.69855">
        <ele>2122.8000488281</ele>
        <time>2022-03-11T11:33:31.000Z</time>
      </trkpt>
      <trkpt lat="44.47594" lon="6.69847">
        <ele>2124</ele>
        <time>2022-03-11T11:33:40.000Z</time>
      </trkpt>
      <trkpt lat="44.47594" lon="6.69846">
        <ele>2124.1999511719</ele>
        <time>2022-03-11T11:33:41.000Z</time>
      </trkpt>
      <trkpt lat="44.47595" lon="6.69844">
        <ele>2125</ele>
        <time>2022-03-11T11:33:46.000Z</time>
      </trkpt>
      <trkpt lat="44.47595" lon="6.69841">
        <ele>2125.8000488281</ele>
        <time>2022-03-11T11:33:50.000Z</time>
      </trkpt>
      <trkpt lat="44.47594" lon="6.69839">
        <ele>2126.1999511719</ele>
        <time>2022-03-11T11:33:52.000Z</time>
      </trkpt>
      <trkpt lat="44.47595" lon="6.69836">
        <ele>2126.6000976562</ele>
        <time>2022-03-11T11:33:58.000Z</time>
      </trkpt>
      <trkpt lat="44.47596" lon="6.69832">
        <ele>2127.1999511719</ele>
        <time>2022-03-11T11:34:04.000Z</time>
      </trkpt>
      <trkpt lat="44.47595" lon="6.69827">
        <ele>2127.3999023438</ele>
        <time>2022-03-11T11:34:08.000Z</time>
      </trkpt>
      <trkpt lat="44.47597" lon="6.69828">
        <ele>2127.3999023438</ele>
        <time>2022-03-11T11:34:15.000Z</time>
      </trkpt>
      <trkpt lat="44.47597" lon="6.69827">
        <ele>2128</ele>
        <time>2022-03-11T11:34:23.000Z</time>
      </trkpt>
      <trkpt lat="44.47597" lon="6.69827">
        <ele>2128.1999511719</ele>
        <time>2022-03-11T11:34:28.000Z</time>
      </trkpt>
      <trkpt lat="44.47596" lon="6.69829">
        <ele>2129.1999511719</ele>
        <time>2022-03-11T11:34:50.000Z</time>
      </trkpt>
      <trkpt lat="44.47597" lon="6.69829">
        <ele>2129.3999023438</ele>
        <time>2022-03-11T11:34:51.000Z</time>
      </trkpt>
      <trkpt lat="44.47592" lon="6.69831">
        <ele>2130</ele>
        <time>2022-03-11T11:34:57.000Z</time>
      </trkpt>
      <trkpt lat="44.47591" lon="6.69832">
        <ele>2130.1999511719</ele>
        <time>2022-03-11T11:35:00.000Z</time>
      </trkpt>
      <trkpt lat="44.4759" lon="6.69835">
        <ele>2130.3999023438</ele>
        <time>2022-03-11T11:35:05.000Z</time>
      </trkpt>
      <trkpt lat="44.4759" lon="6.69838">
        <ele>2131</ele>
        <time>2022-03-11T11:35:09.000Z</time>
      </trkpt>
      <trkpt lat="44.47591" lon="6.69839">
        <ele>2131.1999511719</ele>
        <time>2022-03-11T11:35:11.000Z</time>
      </trkpt>
      <trkpt lat="44.47593" lon="6.6984">
        <ele>2131.3999023438</ele>
        <time>2022-03-11T11:35:13.000Z</time>
      </trkpt>
      <trkpt lat="44.47595" lon="6.6984">
        <ele>2132.1999511719</ele>
        <time>2022-03-11T11:35:18.000Z</time>
      </trkpt>
      <trkpt lat="44.47594" lon="6.69838">
        <ele>2132.3999023438</ele>
        <time>2022-03-11T11:35:20.000Z</time>
      </trkpt>
      <trkpt lat="44.47593" lon="6.69837">
        <ele>2132.6000976562</ele>
        <time>2022-03-11T11:35:21.000Z</time>
      </trkpt>
      <trkpt lat="44.47588" lon="6.69828">
        <ele>2132.8000488281</ele>
        <time>2022-03-11T11:35:28.000Z</time>
      </trkpt>
      <trkpt lat="44.47588" lon="6.69826">
        <ele>2133.3999023438</ele>
        <time>2022-03-11T11:35:47.000Z</time>
      </trkpt>
      <trkpt lat="44.47588" lon="6.69825">
        <ele>2133.3999023438</ele>
        <time>2022-03-11T11:35:48.000Z</time>
      </trkpt>
      <trkpt lat="44.47587" lon="6.69823">
        <ele>2134.6000976562</ele>
        <time>2022-03-11T11:35:53.000Z</time>
      </trkpt>
      <trkpt lat="44.47586" lon="6.69822">
        <ele>2135.8000488281</ele>
        <time>2022-03-11T11:35:58.000Z</time>
      </trkpt>
      <trkpt lat="44.47584" lon="6.69809">
        <ele>2136.3999023438</ele>
        <time>2022-03-11T11:36:03.000Z</time>
      </trkpt>
      <trkpt lat="44.47583" lon="6.69801">
        <ele>2136.8000488281</ele>
        <time>2022-03-11T11:36:06.000Z</time>
      </trkpt>
      <trkpt lat="44.47582" lon="6.69795">
        <ele>2137.1999511719</ele>
        <time>2022-03-11T11:36:09.000Z</time>
      </trkpt>
      <trkpt lat="44.47581" lon="6.69795">
        <ele>2137.6000976562</ele>
        <time>2022-03-11T11:36:14.000Z</time>
      </trkpt>
      <trkpt lat="44.47581" lon="6.69796">
        <ele>2138</ele>
        <time>2022-03-11T11:36:17.000Z</time>
      </trkpt>
      <trkpt lat="44.47579" lon="6.69795">
        <ele>2138.3999023438</ele>
        <time>2022-03-11T11:36:22.000Z</time>
      </trkpt>
      <trkpt lat="44.47578" lon="6.69795">
        <ele>2139</ele>
        <time>2022-03-11T11:36:26.000Z</time>
      </trkpt>
      <trkpt lat="44.47578" lon="6.69795">
        <ele>2139.3999023438</ele>
        <time>2022-03-11T11:36:30.000Z</time>
      </trkpt>
      <trkpt lat="44.47577" lon="6.69799">
        <ele>2140.1999511719</ele>
        <time>2022-03-11T11:36:35.000Z</time>
      </trkpt>
      <trkpt lat="44.47579" lon="6.69798">
        <ele>2140.3999023438</ele>
        <time>2022-03-11T11:36:38.000Z</time>
      </trkpt>
      <trkpt lat="44.47575" lon="6.69798">
        <ele>2141.1999511719</ele>
        <time>2022-03-11T11:36:46.000Z</time>
      </trkpt>
      <trkpt lat="44.47575" lon="6.698">
        <ele>2141.3999023438</ele>
        <time>2022-03-11T11:36:48.000Z</time>
      </trkpt>
      <trkpt lat="44.47572" lon="6.69801">
        <ele>2142.3999023438</ele>
        <time>2022-03-11T11:36:53.000Z</time>
      </trkpt>
      <trkpt lat="44.47571" lon="6.69803">
        <ele>2143.1999511719</ele>
        <time>2022-03-11T11:36:57.000Z</time>
      </trkpt>
      <trkpt lat="44.47571" lon="6.69803">
        <ele>2143.3999023438</ele>
        <time>2022-03-11T11:36:58.000Z</time>
      </trkpt>
      <trkpt lat="44.47569" lon="6.69806">
        <ele>2144</ele>
        <time>2022-03-11T11:37:04.000Z</time>
      </trkpt>
      <trkpt lat="44.47565" lon="6.69807">
        <ele>2144.3999023438</ele>
        <time>2022-03-11T11:37:13.000Z</time>
      </trkpt>
      <trkpt lat="44.47565" lon="6.69807">
        <ele>2144.3999023438</ele>
        <time>2022-03-11T11:37:14.000Z</time>
      </trkpt>
      <trkpt lat="44.47563" lon="6.69805">
        <ele>2145.3999023438</ele>
        <time>2022-03-11T11:37:21.000Z</time>
      </trkpt>
      <trkpt lat="44.47559" lon="6.69802">
        <ele>2146.3999023438</ele>
        <time>2022-03-11T11:37:29.000Z</time>
      </trkpt>
      <trkpt lat="44.47559" lon="6.69802">
        <ele>2146.6000976562</ele>
        <time>2022-03-11T11:37:30.000Z</time>
      </trkpt>
      <trkpt lat="44.47556" lon="6.69796">
        <ele>2147.6000976562</ele>
        <time>2022-03-11T11:37:35.000Z</time>
      </trkpt>
      <trkpt lat="44.47556" lon="6.698">
        <ele>2148</ele>
        <time>2022-03-11T11:37:40.000Z</time>
      </trkpt>
      <trkpt lat="44.47554" lon="6.698">
        <ele>2148.6000976562</ele>
        <time>2022-03-11T11:37:47.000Z</time>
      </trkpt>
      <trkpt lat="44.47554" lon="6.69801">
        <ele>2148.6000976562</ele>
        <time>2022-03-11T11:37:48.000Z</time>
      </trkpt>
      <trkpt lat="44.47554" lon="6.69803">
        <ele>2149.8000488281</ele>
        <time>2022-03-11T11:37:54.000Z</time>
      </trkpt>
      <trkpt lat="44.47552" lon="6.69806">
        <ele>2150.3999023438</ele>
        <time>2022-03-11T11:38:01.000Z</time>
      </trkpt>
      <trkpt lat="44.47553" lon="6.69803">
        <ele>2150.8000488281</ele>
        <time>2022-03-11T11:38:05.000Z</time>
      </trkpt>
      <trkpt lat="44.47553" lon="6.69803">
        <ele>2150.8000488281</ele>
        <time>2022-03-11T11:38:09.000Z</time>
      </trkpt>
      <trkpt lat="44.47553" lon="6.698">
        <ele>2151.8000488281</ele>
        <time>2022-03-11T11:38:32.000Z</time>
      </trkpt>
      <trkpt lat="44.47552" lon="6.69802">
        <ele>2153</ele>
        <time>2022-03-11T11:38:43.000Z</time>
      </trkpt>
      <trkpt lat="44.4755" lon="6.69802">
        <ele>2154.1999511719</ele>
        <time>2022-03-11T11:38:50.000Z</time>
      </trkpt>
      <trkpt lat="44.47547" lon="6.69801">
        <ele>2155.3999023438</ele>
        <time>2022-03-11T11:38:59.000Z</time>
      </trkpt>
      <trkpt lat="44.47547" lon="6.69794">
        <ele>2156</ele>
        <time>2022-03-11T11:39:02.000Z</time>
      </trkpt>
      <trkpt lat="44.47546" lon="6.69786">
        <ele>2156.3999023438</ele>
        <time>2022-03-11T11:39:07.000Z</time>
      </trkpt>
      <trkpt lat="44.47546" lon="6.69784">
        <ele>2156.6000976562</ele>
        <time>2022-03-11T11:39:08.000Z</time>
      </trkpt>
      <trkpt lat="44.47545" lon="6.69781">
        <ele>2157.6000976562</ele>
        <time>2022-03-11T11:39:13.000Z</time>
      </trkpt>
      <trkpt lat="44.47545" lon="6.69781">
        <ele>2157.6000976562</ele>
        <time>2022-03-11T11:39:14.000Z</time>
      </trkpt>
      <trkpt lat="44.47544" lon="6.69779">
        <ele>2158.6000976562</ele>
        <time>2022-03-11T11:39:20.000Z</time>
      </trkpt>
      <trkpt lat="44.47544" lon="6.69778">
        <ele>2158.8000488281</ele>
        <time>2022-03-11T11:39:22.000Z</time>
      </trkpt>
      <trkpt lat="44.47544" lon="6.69772">
        <ele>2159.3999023438</ele>
        <time>2022-03-11T11:39:31.000Z</time>
      </trkpt>
      <trkpt lat="44.4754" lon="6.69768">
        <ele>2159.6000976562</ele>
        <time>2022-03-11T11:39:40.000Z</time>
      </trkpt>
      <trkpt lat="44.47542" lon="6.69768">
        <ele>2159.6000976562</ele>
        <time>2022-03-11T11:39:51.000Z</time>
      </trkpt>
      <trkpt lat="44.47542" lon="6.69768">
        <ele>2159.8000488281</ele>
        <time>2022-03-11T11:39:55.000Z</time>
      </trkpt>
      <trkpt lat="44.47543" lon="6.69767">
        <ele>2160.8000488281</ele>
        <time>2022-03-11T11:40:13.000Z</time>
      </trkpt>
      <trkpt lat="44.47546" lon="6.69763">
        <ele>2161.8000488281</ele>
        <time>2022-03-11T11:40:29.000Z</time>
      </trkpt>
      <trkpt lat="44.47546" lon="6.69762">
        <ele>2162.8000488281</ele>
        <time>2022-03-11T11:40:45.000Z</time>
      </trkpt>
      <trkpt lat="44.47546" lon="6.69762">
        <ele>2163.8000488281</ele>
        <time>2022-03-11T11:40:54.000Z</time>
      </trkpt>
      <trkpt lat="44.47543" lon="6.69762">
        <ele>2165.1999511719</ele>
        <time>2022-03-11T11:41:00.000Z</time>
      </trkpt>
      <trkpt lat="44.47543" lon="6.69759">
        <ele>2166.1999511719</ele>
        <time>2022-03-11T11:41:03.000Z</time>
      </trkpt>
      <trkpt lat="44.47542" lon="6.69753">
        <ele>2167.3999023438</ele>
        <time>2022-03-11T11:41:10.000Z</time>
      </trkpt>
      <trkpt lat="44.47542" lon="6.69749">
        <ele>2168.3999023438</ele>
        <time>2022-03-11T11:41:15.000Z</time>
      </trkpt>
      <trkpt lat="44.47542" lon="6.69739">
        <ele>2169.6000976562</ele>
        <time>2022-03-11T11:41:28.000Z</time>
      </trkpt>
      <trkpt lat="44.47544" lon="6.69734">
        <ele>2170.8000488281</ele>
        <time>2022-03-11T11:41:38.000Z</time>
      </trkpt>
      <trkpt lat="44.47544" lon="6.69732">
        <ele>2171.8000488281</ele>
        <time>2022-03-11T11:41:46.000Z</time>
      </trkpt>
      <trkpt lat="44.47544" lon="6.69731">
        <ele>2173</ele>
        <time>2022-03-11T11:41:52.000Z</time>
      </trkpt>
      <trkpt lat="44.47542" lon="6.69729">
        <ele>2174</ele>
        <time>2022-03-11T11:41:59.000Z</time>
      </trkpt>
      <trkpt lat="44.47541" lon="6.69724">
        <ele>2175.1999511719</ele>
        <time>2022-03-11T11:42:07.000Z</time>
      </trkpt>
      <trkpt lat="44.47541" lon="6.69722">
        <ele>2176.1999511719</ele>
        <time>2022-03-11T11:42:12.000Z</time>
      </trkpt>
      <trkpt lat="44.47541" lon="6.6972">
        <ele>2177.1999511719</ele>
        <time>2022-03-11T11:42:18.000Z</time>
      </trkpt>
      <trkpt lat="44.47541" lon="6.69718">
        <ele>2178.3999023438</ele>
        <time>2022-03-11T11:42:25.000Z</time>
      </trkpt>
      <trkpt lat="44.47541" lon="6.69713">
        <ele>2179.3999023438</ele>
        <time>2022-03-11T11:42:31.000Z</time>
      </trkpt>
      <trkpt lat="44.4754" lon="6.69709">
        <ele>2180.3999023438</ele>
        <time>2022-03-11T11:42:39.000Z</time>
      </trkpt>
      <trkpt lat="44.4754" lon="6.69703">
        <ele>2181.6000976562</ele>
        <time>2022-03-11T11:42:51.000Z</time>
      </trkpt>
      <trkpt lat="44.4754" lon="6.697">
        <ele>2182.6000976562</ele>
        <time>2022-03-11T11:42:56.000Z</time>
      </trkpt>
      <trkpt lat="44.47541" lon="6.69697">
        <ele>2183.8000488281</ele>
        <time>2022-03-11T11:43:05.000Z</time>
      </trkpt>
      <trkpt lat="44.47541" lon="6.69696">
        <ele>2185</ele>
        <time>2022-03-11T11:43:10.000Z</time>
      </trkpt>
      <trkpt lat="44.47543" lon="6.69688">
        <ele>2186.1999511719</ele>
        <time>2022-03-11T11:43:38.000Z</time>
      </trkpt>
      <trkpt lat="44.47544" lon="6.69683">
        <ele>2186.3999023438</ele>
        <time>2022-03-11T11:43:41.000Z</time>
      </trkpt>
      <trkpt lat="44.47547" lon="6.69674">
        <ele>2186.8000488281</ele>
        <time>2022-03-11T11:43:47.000Z</time>
      </trkpt>
      <trkpt lat="44.47546" lon="6.69672">
        <ele>2187.1999511719</ele>
        <time>2022-03-11T11:43:54.000Z</time>
      </trkpt>
      <trkpt lat="44.47545" lon="6.6967">
        <ele>2187.3999023438</ele>
        <time>2022-03-11T11:43:55.000Z</time>
      </trkpt>
      <trkpt lat="44.47542" lon="6.69659">
        <ele>2188.6000976562</ele>
        <time>2022-03-11T11:44:02.000Z</time>
      </trkpt>
      <trkpt lat="44.47542" lon="6.69653">
        <ele>2189.1999511719</ele>
        <time>2022-03-11T11:44:08.000Z</time>
      </trkpt>
      <trkpt lat="44.47543" lon="6.69652">
        <ele>2189.8000488281</ele>
        <time>2022-03-11T11:44:12.000Z</time>
      </trkpt>
      <trkpt lat="44.47542" lon="6.69649">
        <ele>2190.1999511719</ele>
        <time>2022-03-11T11:44:15.000Z</time>
      </trkpt>
      <trkpt lat="44.47542" lon="6.69648">
        <ele>2190.1999511719</ele>
        <time>2022-03-11T11:44:25.000Z</time>
      </trkpt>
      <trkpt lat="44.47544" lon="6.69652">
        <ele>2190.8000488281</ele>
        <time>2022-03-11T11:44:35.000Z</time>
      </trkpt>
      <trkpt lat="44.47545" lon="6.69654">
        <ele>2191.8000488281</ele>
        <time>2022-03-11T11:44:55.000Z</time>
      </trkpt>
      <trkpt lat="44.47547" lon="6.69656">
        <ele>2193</ele>
        <time>2022-03-11T11:45:09.000Z</time>
      </trkpt>
      <trkpt lat="44.47547" lon="6.69656">
        <ele>2194</ele>
        <time>2022-03-11T11:45:19.000Z</time>
      </trkpt>
      <trkpt lat="44.47545" lon="6.69656">
        <ele>2195.3999023438</ele>
        <time>2022-03-11T11:45:24.000Z</time>
      </trkpt>
      <trkpt lat="44.47541" lon="6.69656">
        <ele>2196.1999511719</ele>
        <time>2022-03-11T11:45:31.000Z</time>
      </trkpt>
      <trkpt lat="44.4754" lon="6.69653">
        <ele>2196.3999023438</ele>
        <time>2022-03-11T11:45:34.000Z</time>
      </trkpt>
      <trkpt lat="44.4754" lon="6.69643">
        <ele>2197.6000976562</ele>
        <time>2022-03-11T11:45:44.000Z</time>
      </trkpt>
      <trkpt lat="44.4754" lon="6.69636">
        <ele>2198.8000488281</ele>
        <time>2022-03-11T11:45:54.000Z</time>
      </trkpt>
      <trkpt lat="44.47542" lon="6.6963">
        <ele>2200</ele>
        <time>2022-03-11T11:46:04.000Z</time>
      </trkpt>
      <trkpt lat="44.47543" lon="6.69629">
        <ele>2201</ele>
        <time>2022-03-11T11:46:11.000Z</time>
      </trkpt>
      <trkpt lat="44.47543" lon="6.69627">
        <ele>2202</ele>
        <time>2022-03-11T11:46:17.000Z</time>
      </trkpt>
      <trkpt lat="44.47543" lon="6.69627">
        <ele>2203</ele>
        <time>2022-03-11T11:46:24.000Z</time>
      </trkpt>
      <trkpt lat="44.47543" lon="6.69622">
        <ele>2204.3999023438</ele>
        <time>2022-03-11T11:46:33.000Z</time>
      </trkpt>
      <trkpt lat="44.4754" lon="6.6962">
        <ele>2205.3999023438</ele>
        <time>2022-03-11T11:46:38.000Z</time>
      </trkpt>
      <trkpt lat="44.47539" lon="6.69617">
        <ele>2205.6000976562</ele>
        <time>2022-03-11T11:46:40.000Z</time>
      </trkpt>
      <trkpt lat="44.47534" lon="6.6961">
        <ele>2206.3999023438</ele>
        <time>2022-03-11T11:46:46.000Z</time>
      </trkpt>
      <trkpt lat="44.47534" lon="6.69609">
        <ele>2206.8000488281</ele>
        <time>2022-03-11T11:46:49.000Z</time>
      </trkpt>
      <trkpt lat="44.4753" lon="6.69608">
        <ele>2207.6000976562</ele>
        <time>2022-03-11T11:46:55.000Z</time>
      </trkpt>
      <trkpt lat="44.47527" lon="6.69603">
        <ele>2208.1999511719</ele>
        <time>2022-03-11T11:46:59.000Z</time>
      </trkpt>
      <trkpt lat="44.47524" lon="6.69601">
        <ele>2208.8000488281</ele>
        <time>2022-03-11T11:47:03.000Z</time>
      </trkpt>
      <trkpt lat="44.47523" lon="6.696">
        <ele>2209</ele>
        <time>2022-03-11T11:47:04.000Z</time>
      </trkpt>
      <trkpt lat="44.4752" lon="6.69599">
        <ele>2209.3999023438</ele>
        <time>2022-03-11T11:47:08.000Z</time>
      </trkpt>
      <trkpt lat="44.4752" lon="6.69599">
        <ele>2209.8000488281</ele>
        <time>2022-03-11T11:47:11.000Z</time>
      </trkpt>
      <trkpt lat="44.4752" lon="6.69597">
        <ele>2210</ele>
        <time>2022-03-11T11:47:13.000Z</time>
      </trkpt>
      <trkpt lat="44.47518" lon="6.69596">
        <ele>2210.8000488281</ele>
        <time>2022-03-11T11:47:17.000Z</time>
      </trkpt>
      <trkpt lat="44.47518" lon="6.69596">
        <ele>2211.6000976562</ele>
        <time>2022-03-11T11:47:22.000Z</time>
      </trkpt>
      <trkpt lat="44.47518" lon="6.69598">
        <ele>2211.8000488281</ele>
        <time>2022-03-11T11:47:26.000Z</time>
      </trkpt>
      <trkpt lat="44.47516" lon="6.69597">
        <ele>2212.6000976562</ele>
        <time>2022-03-11T11:47:31.000Z</time>
      </trkpt>
      <trkpt lat="44.47515" lon="6.69596">
        <ele>2213</ele>
        <time>2022-03-11T11:47:33.000Z</time>
      </trkpt>
      <trkpt lat="44.47513" lon="6.69596">
        <ele>2214</ele>
        <time>2022-03-11T11:47:39.000Z</time>
      </trkpt>
      <trkpt lat="44.47512" lon="6.69594">
        <ele>2215</ele>
        <time>2022-03-11T11:47:46.000Z</time>
      </trkpt>
      <trkpt lat="44.47511" lon="6.69594">
        <ele>2215.1999511719</ele>
        <time>2022-03-11T11:47:47.000Z</time>
      </trkpt>
      <trkpt lat="44.47507" lon="6.69594">
        <ele>2215.8000488281</ele>
        <time>2022-03-11T11:47:53.000Z</time>
      </trkpt>
      <trkpt lat="44.47507" lon="6.69593">
        <ele>2216.1999511719</ele>
        <time>2022-03-11T11:47:55.000Z</time>
      </trkpt>
      <trkpt lat="44.47504" lon="6.69594">
        <ele>2216.6000976562</ele>
        <time>2022-03-11T11:48:00.000Z</time>
      </trkpt>
      <trkpt lat="44.475" lon="6.69593">
        <ele>2217.1999511719</ele>
        <time>2022-03-11T11:48:03.000Z</time>
      </trkpt>
      <trkpt lat="44.47495" lon="6.6959">
        <ele>2218</ele>
        <time>2022-03-11T11:48:10.000Z</time>
      </trkpt>
      <trkpt lat="44.47494" lon="6.69589">
        <ele>2218.3999023438</ele>
        <time>2022-03-11T11:48:12.000Z</time>
      </trkpt>
      <trkpt lat="44.47493" lon="6.69589">
        <ele>2218.8000488281</ele>
        <time>2022-03-11T11:48:17.000Z</time>
      </trkpt>
      <trkpt lat="44.47491" lon="6.69581">
        <ele>2218.8000488281</ele>
        <time>2022-03-11T11:48:25.000Z</time>
      </trkpt>
      <trkpt lat="44.47491" lon="6.69581">
        <ele>2219.3999023438</ele>
        <time>2022-03-11T11:48:32.000Z</time>
      </trkpt>
      <trkpt lat="44.47489" lon="6.69579">
        <ele>2220.1999511719</ele>
        <time>2022-03-11T11:48:41.000Z</time>
      </trkpt>
      <trkpt lat="44.47489" lon="6.6958">
        <ele>2220.3999023438</ele>
        <time>2022-03-11T11:48:43.000Z</time>
      </trkpt>
      <trkpt lat="44.47488" lon="6.69579">
        <ele>2220.8000488281</ele>
        <time>2022-03-11T11:48:47.000Z</time>
      </trkpt>
      <trkpt lat="44.47488" lon="6.69578">
        <ele>2221</ele>
        <time>2022-03-11T11:49:07.000Z</time>
      </trkpt>
      <trkpt lat="44.47488" lon="6.69576">
        <ele>2220.6000976562</ele>
        <time>2022-03-11T11:49:17.000Z</time>
      </trkpt>
      <trkpt lat="44.47488" lon="6.69563">
        <ele>2220.8000488281</ele>
        <time>2022-03-11T11:50:02.000Z</time>
      </trkpt>
      <trkpt lat="44.4749" lon="6.69559">
        <ele>2221.3999023438</ele>
        <time>2022-03-11T11:50:06.000Z</time>
      </trkpt>
      <trkpt lat="44.4749" lon="6.69556">
        <ele>2221.6000976562</ele>
        <time>2022-03-11T11:50:10.000Z</time>
      </trkpt>
      <trkpt lat="44.47492" lon="6.69552">
        <ele>2222.3999023438</ele>
        <time>2022-03-11T11:50:16.000Z</time>
      </trkpt>
      <trkpt lat="44.47492" lon="6.69552">
        <ele>2222.3999023438</ele>
        <time>2022-03-11T11:50:17.000Z</time>
      </trkpt>
      <trkpt lat="44.47492" lon="6.69552">
        <ele>2222.8000488281</ele>
        <time>2022-03-11T11:50:23.000Z</time>
      </trkpt>
      <trkpt lat="44.47493" lon="6.69549">
        <ele>2223.3999023438</ele>
        <time>2022-03-11T11:50:46.000Z</time>
      </trkpt>
      <trkpt lat="44.47493" lon="6.69547">
        <ele>2223.6000976562</ele>
        <time>2022-03-11T11:50:50.000Z</time>
      </trkpt>
      <trkpt lat="44.47497" lon="6.69534">
        <ele>2224.1999511719</ele>
        <time>2022-03-11T11:51:04.000Z</time>
      </trkpt>
      <trkpt lat="44.47497" lon="6.69529">
        <ele>2224.6000976562</ele>
        <time>2022-03-11T11:51:07.000Z</time>
      </trkpt>
      <trkpt lat="44.47497" lon="6.69525">
        <ele>2225.8000488281</ele>
        <time>2022-03-11T11:51:11.000Z</time>
      </trkpt>
      <trkpt lat="44.47497" lon="6.69524">
        <ele>2226.6000976562</ele>
        <time>2022-03-11T11:51:18.000Z</time>
      </trkpt>
      <trkpt lat="44.47497" lon="6.69523">
        <ele>2226.8000488281</ele>
        <time>2022-03-11T11:51:19.000Z</time>
      </trkpt>
      <trkpt lat="44.47497" lon="6.69523">
        <ele>2227.6000976562</ele>
        <time>2022-03-11T11:51:28.000Z</time>
      </trkpt>
      <trkpt lat="44.47497" lon="6.69518">
        <ele>2228</ele>
        <time>2022-03-11T11:51:44.000Z</time>
      </trkpt>
      <trkpt lat="44.47499" lon="6.69517">
        <ele>2229</ele>
        <time>2022-03-11T11:51:54.000Z</time>
      </trkpt>
      <trkpt lat="44.47501" lon="6.69516">
        <ele>2230</ele>
        <time>2022-03-11T11:52:06.000Z</time>
      </trkpt>
      <trkpt lat="44.47501" lon="6.69515">
        <ele>2231.1999511719</ele>
        <time>2022-03-11T11:52:14.000Z</time>
      </trkpt>
      <trkpt lat="44.47501" lon="6.69515">
        <ele>2232.1999511719</ele>
        <time>2022-03-11T11:52:19.000Z</time>
      </trkpt>
      <trkpt lat="44.47501" lon="6.69515">
        <ele>2233.1999511719</ele>
        <time>2022-03-11T11:52:25.000Z</time>
      </trkpt>
      <trkpt lat="44.47498" lon="6.6951">
        <ele>2234.3999023438</ele>
        <time>2022-03-11T11:52:31.000Z</time>
      </trkpt>
      <trkpt lat="44.47497" lon="6.69504">
        <ele>2235.3999023438</ele>
        <time>2022-03-11T11:52:40.000Z</time>
      </trkpt>
      <trkpt lat="44.47497" lon="6.69498">
        <ele>2236.6000976562</ele>
        <time>2022-03-11T11:52:51.000Z</time>
      </trkpt>
      <trkpt lat="44.47497" lon="6.69492">
        <ele>2237.6000976562</ele>
        <time>2022-03-11T11:52:58.000Z</time>
      </trkpt>
      <trkpt lat="44.47498" lon="6.6948">
        <ele>2238.6000976562</ele>
        <time>2022-03-11T11:53:08.000Z</time>
      </trkpt>
      <trkpt lat="44.47498" lon="6.69473">
        <ele>2239.6000976562</ele>
        <time>2022-03-11T11:53:17.000Z</time>
      </trkpt>
      <trkpt lat="44.47498" lon="6.6947">
        <ele>2240.6000976562</ele>
        <time>2022-03-11T11:53:22.000Z</time>
      </trkpt>
      <trkpt lat="44.47498" lon="6.69464">
        <ele>2241.8000488281</ele>
        <time>2022-03-11T11:53:30.000Z</time>
      </trkpt>
      <trkpt lat="44.47497" lon="6.69462">
        <ele>2242.8000488281</ele>
        <time>2022-03-11T11:53:37.000Z</time>
      </trkpt>
      <trkpt lat="44.47497" lon="6.69461">
        <ele>2244</ele>
        <time>2022-03-11T11:53:49.000Z</time>
      </trkpt>
      <trkpt lat="44.47496" lon="6.69461">
        <ele>2245.1999511719</ele>
        <time>2022-03-11T11:53:57.000Z</time>
      </trkpt>
      <trkpt lat="44.47494" lon="6.69461">
        <ele>2246.1999511719</ele>
        <time>2022-03-11T11:54:04.000Z</time>
      </trkpt>
      <trkpt lat="44.4749" lon="6.69459">
        <ele>2247.1999511719</ele>
        <time>2022-03-11T11:54:16.000Z</time>
      </trkpt>
      <trkpt lat="44.47488" lon="6.69455">
        <ele>2248.3999023438</ele>
        <time>2022-03-11T11:54:24.000Z</time>
      </trkpt>
      <trkpt lat="44.47486" lon="6.69452">
        <ele>2249.8000488281</ele>
        <time>2022-03-11T11:54:31.000Z</time>
      </trkpt>
      <trkpt lat="44.47486" lon="6.69451">
        <ele>2250.3999023438</ele>
        <time>2022-03-11T11:54:36.000Z</time>
      </trkpt>
      <trkpt lat="44.47485" lon="6.69451">
        <ele>2250.8000488281</ele>
        <time>2022-03-11T11:54:40.000Z</time>
      </trkpt>
      <trkpt lat="44.47485" lon="6.69451">
        <ele>2252</ele>
        <time>2022-03-11T11:54:51.000Z</time>
      </trkpt>
      <trkpt lat="44.47485" lon="6.69451">
        <ele>2253.1999511719</ele>
        <time>2022-03-11T11:55:02.000Z</time>
      </trkpt>
      <trkpt lat="44.47485" lon="6.69451">
        <ele>2254.1999511719</ele>
        <time>2022-03-11T11:55:16.000Z</time>
      </trkpt>
      <trkpt lat="44.47485" lon="6.6945">
        <ele>2255.1999511719</ele>
        <time>2022-03-11T11:55:27.000Z</time>
      </trkpt>
      <trkpt lat="44.47485" lon="6.6945">
        <ele>2256.3999023438</ele>
        <time>2022-03-11T11:55:37.000Z</time>
      </trkpt>
      <trkpt lat="44.47485" lon="6.6945">
        <ele>2257.3999023438</ele>
        <time>2022-03-11T11:55:49.000Z</time>
      </trkpt>
      <trkpt lat="44.47484" lon="6.6945">
        <ele>2258.3999023438</ele>
        <time>2022-03-11T11:56:04.000Z</time>
      </trkpt>
      <trkpt lat="44.47484" lon="6.6945">
        <ele>2259.3999023438</ele>
        <time>2022-03-11T11:56:11.000Z</time>
      </trkpt>
      <trkpt lat="44.47484" lon="6.6945">
        <ele>2260.3999023438</ele>
        <time>2022-03-11T11:56:20.000Z</time>
      </trkpt>
      <trkpt lat="44.47472" lon="6.69455">
        <ele>2261.6000976562</ele>
        <time>2022-03-11T11:56:34.000Z</time>
      </trkpt>
      <trkpt lat="44.47456" lon="6.69462">
        <ele>2262</ele>
        <time>2022-03-11T11:56:38.000Z</time>
      </trkpt>
      <trkpt lat="44.47443" lon="6.69467">
        <ele>2262.6000976562</ele>
        <time>2022-03-11T11:56:41.000Z</time>
      </trkpt>
      <trkpt lat="44.47438" lon="6.69467">
        <ele>2263.1999511719</ele>
        <time>2022-03-11T11:56:46.000Z</time>
      </trkpt>
      <trkpt lat="44.47433" lon="6.69465">
        <ele>2263.8000488281</ele>
        <time>2022-03-11T11:56:49.000Z</time>
      </trkpt>
      <trkpt lat="44.47429" lon="6.69463">
        <ele>2264.6000976562</ele>
        <time>2022-03-11T11:56:53.000Z</time>
      </trkpt>
      <trkpt lat="44.47428" lon="6.69462">
        <ele>2264.8000488281</ele>
        <time>2022-03-11T11:56:55.000Z</time>
      </trkpt>
      <trkpt lat="44.47424" lon="6.69463">
        <ele>2266</ele>
        <time>2022-03-11T11:57:01.000Z</time>
      </trkpt>
      <trkpt lat="44.47423" lon="6.69464">
        <ele>2266</ele>
        <time>2022-03-11T11:57:02.000Z</time>
      </trkpt>
      <trkpt lat="44.47418" lon="6.69465">
        <ele>2267.1999511719</ele>
        <time>2022-03-11T11:57:08.000Z</time>
      </trkpt>
      <trkpt lat="44.47417" lon="6.69465">
        <ele>2267.8000488281</ele>
        <time>2022-03-11T11:57:11.000Z</time>
      </trkpt>
      <trkpt lat="44.47415" lon="6.69466">
        <ele>2268.1999511719</ele>
        <time>2022-03-11T11:57:14.000Z</time>
      </trkpt>
      <trkpt lat="44.47413" lon="6.69468">
        <ele>2268.6000976562</ele>
        <time>2022-03-11T11:57:19.000Z</time>
      </trkpt>
      <trkpt lat="44.47411" lon="6.69468">
        <ele>2269.3999023438</ele>
        <time>2022-03-11T11:57:24.000Z</time>
      </trkpt>
      <trkpt lat="44.4741" lon="6.69468">
        <ele>2270.1999511719</ele>
        <time>2022-03-11T11:57:28.000Z</time>
      </trkpt>
      <trkpt lat="44.47409" lon="6.69467">
        <ele>2270.6000976562</ele>
        <time>2022-03-11T11:57:30.000Z</time>
      </trkpt>
      <trkpt lat="44.47407" lon="6.69469">
        <ele>2271</ele>
        <time>2022-03-11T11:57:35.000Z</time>
      </trkpt>
      <trkpt lat="44.47405" lon="6.69469">
        <ele>2271.6000976562</ele>
        <time>2022-03-11T11:57:41.000Z</time>
      </trkpt>
      <trkpt lat="44.47405" lon="6.69469">
        <ele>2271.8000488281</ele>
        <time>2022-03-11T11:57:43.000Z</time>
      </trkpt>
      <trkpt lat="44.47403" lon="6.69466">
        <ele>2272.6000976562</ele>
        <time>2022-03-11T11:57:50.000Z</time>
      </trkpt>
      <trkpt lat="44.47402" lon="6.69467">
        <ele>2273</ele>
        <time>2022-03-11T11:57:56.000Z</time>
      </trkpt>
      <trkpt lat="44.47403" lon="6.69466">
        <ele>2273.6000976562</ele>
        <time>2022-03-11T11:58:01.000Z</time>
      </trkpt>
      <trkpt lat="44.47403" lon="6.69466">
        <ele>2273.8000488281</ele>
        <time>2022-03-11T11:58:05.000Z</time>
      </trkpt>
      <trkpt lat="44.47403" lon="6.69465">
        <ele>2274.8000488281</ele>
        <time>2022-03-11T11:58:19.000Z</time>
      </trkpt>
      <trkpt lat="44.47402" lon="6.69465">
        <ele>2276</ele>
        <time>2022-03-11T11:58:25.000Z</time>
      </trkpt>
      <trkpt lat="44.47399" lon="6.69463">
        <ele>2277</ele>
        <time>2022-03-11T11:58:32.000Z</time>
      </trkpt>
      <trkpt lat="44.47395" lon="6.69455">
        <ele>2278</ele>
        <time>2022-03-11T11:58:44.000Z</time>
      </trkpt>
      <trkpt lat="44.47394" lon="6.69455">
        <ele>2279.1999511719</ele>
        <time>2022-03-11T11:58:50.000Z</time>
      </trkpt>
      <trkpt lat="44.47393" lon="6.69455">
        <ele>2280.1999511719</ele>
        <time>2022-03-11T11:58:57.000Z</time>
      </trkpt>
      <trkpt lat="44.47387" lon="6.69459">
        <ele>2281</ele>
        <time>2022-03-11T11:59:03.000Z</time>
      </trkpt>
      <trkpt lat="44.47386" lon="6.6946">
        <ele>2281.1999511719</ele>
        <time>2022-03-11T11:59:04.000Z</time>
      </trkpt>
      <trkpt lat="44.47381" lon="6.69461">
        <ele>2282</ele>
        <time>2022-03-11T11:59:09.000Z</time>
      </trkpt>
      <trkpt lat="44.47381" lon="6.6946">
        <ele>2282.1999511719</ele>
        <time>2022-03-11T11:59:11.000Z</time>
      </trkpt>
      <trkpt lat="44.4738" lon="6.69459">
        <ele>2282.8000488281</ele>
        <time>2022-03-11T11:59:15.000Z</time>
      </trkpt>
      <trkpt lat="44.47379" lon="6.69461">
        <ele>2283.3999023438</ele>
        <time>2022-03-11T11:59:18.000Z</time>
      </trkpt>
      <trkpt lat="44.47378" lon="6.69462">
        <ele>2283.8000488281</ele>
        <time>2022-03-11T11:59:21.000Z</time>
      </trkpt>
      <trkpt lat="44.47376" lon="6.69462">
        <ele>2284.3999023438</ele>
        <time>2022-03-11T11:59:27.000Z</time>
      </trkpt>
      <trkpt lat="44.47375" lon="6.69462">
        <ele>2284.6000976562</ele>
        <time>2022-03-11T11:59:29.000Z</time>
      </trkpt>
      <trkpt lat="44.47373" lon="6.69464">
        <ele>2285.6000976562</ele>
        <time>2022-03-11T11:59:36.000Z</time>
      </trkpt>
      <trkpt lat="44.47372" lon="6.69464">
        <ele>2285.8000488281</ele>
        <time>2022-03-11T11:59:38.000Z</time>
      </trkpt>
      <trkpt lat="44.47368" lon="6.69465">
        <ele>2286.6000976562</ele>
        <time>2022-03-11T11:59:45.000Z</time>
      </trkpt>
      <trkpt lat="44.47364" lon="6.69464">
        <ele>2287.1999511719</ele>
        <time>2022-03-11T11:59:51.000Z</time>
      </trkpt>
      <trkpt lat="44.47362" lon="6.69462">
        <ele>2287.8000488281</ele>
        <time>2022-03-11T11:59:55.000Z</time>
      </trkpt>
      <trkpt lat="44.4736" lon="6.69462">
        <ele>2288</ele>
        <time>2022-03-11T11:59:58.000Z</time>
      </trkpt>
      <trkpt lat="44.47358" lon="6.69461">
        <ele>2288.8000488281</ele>
        <time>2022-03-11T12:00:01.000Z</time>
      </trkpt>
      <trkpt lat="44.47355" lon="6.69455">
        <ele>2289.8000488281</ele>
        <time>2022-03-11T12:00:06.000Z</time>
      </trkpt>
      <trkpt lat="44.47355" lon="6.69455">
        <ele>2290</ele>
        <time>2022-03-11T12:00:07.000Z</time>
      </trkpt>
      <trkpt lat="44.47354" lon="6.69448">
        <ele>2291</ele>
        <time>2022-03-11T12:00:15.000Z</time>
      </trkpt>
      <trkpt lat="44.47354" lon="6.69447">
        <ele>2291.1999511719</ele>
        <time>2022-03-11T12:00:16.000Z</time>
      </trkpt>
      <trkpt lat="44.47354" lon="6.6944">
        <ele>2292</ele>
        <time>2022-03-11T12:00:23.000Z</time>
      </trkpt>
      <trkpt lat="44.47354" lon="6.69439">
        <ele>2292.1999511719</ele>
        <time>2022-03-11T12:00:25.000Z</time>
      </trkpt>
      <trkpt lat="44.47355" lon="6.69433">
        <ele>2293</ele>
        <time>2022-03-11T12:00:31.000Z</time>
      </trkpt>
      <trkpt lat="44.47355" lon="6.6943">
        <ele>2293.3999023438</ele>
        <time>2022-03-11T12:00:34.000Z</time>
      </trkpt>
      <trkpt lat="44.47356" lon="6.69426">
        <ele>2294.1999511719</ele>
        <time>2022-03-11T12:00:39.000Z</time>
      </trkpt>
      <trkpt lat="44.47356" lon="6.69423">
        <ele>2294.8000488281</ele>
        <time>2022-03-11T12:00:43.000Z</time>
      </trkpt>
      <trkpt lat="44.47356" lon="6.69421">
        <ele>2295.3999023438</ele>
        <time>2022-03-11T12:00:46.000Z</time>
      </trkpt>
      <trkpt lat="44.47354" lon="6.69417">
        <ele>2296</ele>
        <time>2022-03-11T12:00:51.000Z</time>
      </trkpt>
      <trkpt lat="44.47354" lon="6.69417">
        <ele>2296.3999023438</ele>
        <time>2022-03-11T12:00:53.000Z</time>
      </trkpt>
      <trkpt lat="44.47354" lon="6.69415">
        <ele>2297.6000976562</ele>
        <time>2022-03-11T12:00:58.000Z</time>
      </trkpt>
      <trkpt lat="44.47353" lon="6.69415">
        <ele>2298</ele>
        <time>2022-03-11T12:01:00.000Z</time>
      </trkpt>
      <trkpt lat="44.47353" lon="6.6942">
        <ele>2298.8000488281</ele>
        <time>2022-03-11T12:01:05.000Z</time>
      </trkpt>
      <trkpt lat="44.47351" lon="6.69421">
        <ele>2299</ele>
        <time>2022-03-11T12:01:07.000Z</time>
      </trkpt>
      <trkpt lat="44.47348" lon="6.69421">
        <ele>2299.8000488281</ele>
        <time>2022-03-11T12:01:12.000Z</time>
      </trkpt>
      <trkpt lat="44.47346" lon="6.69419">
        <ele>2300.1999511719</ele>
        <time>2022-03-11T12:01:16.000Z</time>
      </trkpt>
      <trkpt lat="44.47345" lon="6.69415">
        <ele>2300.8000488281</ele>
        <time>2022-03-11T12:01:20.000Z</time>
      </trkpt>
      <trkpt lat="44.47342" lon="6.69415">
        <ele>2301.8000488281</ele>
        <time>2022-03-11T12:01:25.000Z</time>
      </trkpt>
      <trkpt lat="44.47341" lon="6.69414">
        <ele>2301.8000488281</ele>
        <time>2022-03-11T12:01:26.000Z</time>
      </trkpt>
      <trkpt lat="44.47337" lon="6.69415">
        <ele>2302.8000488281</ele>
        <time>2022-03-11T12:01:33.000Z</time>
      </trkpt>
      <trkpt lat="44.47334" lon="6.69415">
        <ele>2303.6000976562</ele>
        <time>2022-03-11T12:01:39.000Z</time>
      </trkpt>
      <trkpt lat="44.47333" lon="6.69416">
        <ele>2304</ele>
        <time>2022-03-11T12:01:41.000Z</time>
      </trkpt>
      <trkpt lat="44.47331" lon="6.69415">
        <ele>2304.8000488281</ele>
        <time>2022-03-11T12:01:46.000Z</time>
      </trkpt>
      <trkpt lat="44.47331" lon="6.69415">
        <ele>2305</ele>
        <time>2022-03-11T12:01:48.000Z</time>
      </trkpt>
      <trkpt lat="44.47331" lon="6.69414">
        <ele>2305.8000488281</ele>
        <time>2022-03-11T12:01:54.000Z</time>
      </trkpt>
      <trkpt lat="44.47331" lon="6.69413">
        <ele>2306</ele>
        <time>2022-03-11T12:01:59.000Z</time>
      </trkpt>
      <trkpt lat="44.47331" lon="6.69413">
        <ele>2306</ele>
        <time>2022-03-11T12:02:02.000Z</time>
      </trkpt>
      <trkpt lat="44.47331" lon="6.6941">
        <ele>2307.1999511719</ele>
        <time>2022-03-11T12:02:30.000Z</time>
      </trkpt>
      <trkpt lat="44.4733" lon="6.6941">
        <ele>2308.3999023438</ele>
        <time>2022-03-11T12:02:37.000Z</time>
      </trkpt>
      <trkpt lat="44.47331" lon="6.69399">
        <ele>2309.3999023438</ele>
        <time>2022-03-11T12:02:58.000Z</time>
      </trkpt>
      <trkpt lat="44.47332" lon="6.69396">
        <ele>2310.3999023438</ele>
        <time>2022-03-11T12:03:15.000Z</time>
      </trkpt>
      <trkpt lat="44.47331" lon="6.694">
        <ele>2311.3999023438</ele>
        <time>2022-03-11T12:03:40.000Z</time>
      </trkpt>
      <trkpt lat="44.47329" lon="6.69402">
        <ele>2312.3999023438</ele>
        <time>2022-03-11T12:04:15.000Z</time>
      </trkpt>
      <trkpt lat="44.47327" lon="6.69401">
        <ele>2313.6000976562</ele>
        <time>2022-03-11T12:04:24.000Z</time>
      </trkpt>
      <trkpt lat="44.47326" lon="6.69399">
        <ele>2314.6000976562</ele>
        <time>2022-03-11T12:04:30.000Z</time>
      </trkpt>
      <trkpt lat="44.47326" lon="6.69394">
        <ele>2315.8000488281</ele>
        <time>2022-03-11T12:04:37.000Z</time>
      </trkpt>
      <trkpt lat="44.47326" lon="6.6939">
        <ele>2317</ele>
        <time>2022-03-11T12:04:52.000Z</time>
      </trkpt>
      <trkpt lat="44.47326" lon="6.6939">
        <ele>2318</ele>
        <time>2022-03-11T12:05:01.000Z</time>
      </trkpt>
      <trkpt lat="44.47324" lon="6.6939">
        <ele>2319.1999511719</ele>
        <time>2022-03-11T12:05:09.000Z</time>
      </trkpt>
      <trkpt lat="44.47322" lon="6.6938">
        <ele>2320.1999511719</ele>
        <time>2022-03-11T12:05:19.000Z</time>
      </trkpt>
      <trkpt lat="44.47322" lon="6.69379">
        <ele>2320.3999023438</ele>
        <time>2022-03-11T12:05:20.000Z</time>
      </trkpt>
      <trkpt lat="44.47322" lon="6.69372">
        <ele>2321.1999511719</ele>
        <time>2022-03-11T12:05:24.000Z</time>
      </trkpt>
      <trkpt lat="44.47323" lon="6.69368">
        <ele>2321.6000976562</ele>
        <time>2022-03-11T12:05:29.000Z</time>
      </trkpt>
      <trkpt lat="44.47325" lon="6.69366">
        <ele>2322.3999023438</ele>
        <time>2022-03-11T12:05:34.000Z</time>
      </trkpt>
      <trkpt lat="44.47326" lon="6.69366">
        <ele>2322.8000488281</ele>
        <time>2022-03-11T12:05:39.000Z</time>
      </trkpt>
      <trkpt lat="44.47326" lon="6.69367">
        <ele>2323.1999511719</ele>
        <time>2022-03-11T12:05:41.000Z</time>
      </trkpt>
      <trkpt lat="44.47326" lon="6.69367">
        <ele>2323.3999023438</ele>
        <time>2022-03-11T12:05:45.000Z</time>
      </trkpt>
      <trkpt lat="44.47326" lon="6.69367">
        <ele>2323.3999023438</ele>
        <time>2022-03-11T12:05:46.000Z</time>
      </trkpt>
      <trkpt lat="44.47324" lon="6.69367">
        <ele>2324.6000976562</ele>
        <time>2022-03-11T12:06:03.000Z</time>
      </trkpt>
      <trkpt lat="44.47321" lon="6.69367">
        <ele>2325.6000976562</ele>
        <time>2022-03-11T12:06:08.000Z</time>
      </trkpt>
      <trkpt lat="44.4732" lon="6.69367">
        <ele>2326.8000488281</ele>
        <time>2022-03-11T12:06:12.000Z</time>
      </trkpt>
      <trkpt lat="44.47316" lon="6.69366">
        <ele>2327.8000488281</ele>
        <time>2022-03-11T12:06:20.000Z</time>
      </trkpt>
      <trkpt lat="44.47317" lon="6.69355">
        <ele>2328.8000488281</ele>
        <time>2022-03-11T12:06:28.000Z</time>
      </trkpt>
      <trkpt lat="44.47317" lon="6.69352">
        <ele>2329.1999511719</ele>
        <time>2022-03-11T12:06:29.000Z</time>
      </trkpt>
      <trkpt lat="44.47317" lon="6.69344">
        <ele>2330</ele>
        <time>2022-03-11T12:06:35.000Z</time>
      </trkpt>
      <trkpt lat="44.47317" lon="6.69344">
        <ele>2330.1999511719</ele>
        <time>2022-03-11T12:06:37.000Z</time>
      </trkpt>
      <trkpt lat="44.47315" lon="6.69343">
        <ele>2331</ele>
        <time>2022-03-11T12:06:43.000Z</time>
      </trkpt>
      <trkpt lat="44.47313" lon="6.69341">
        <ele>2331.3999023438</ele>
        <time>2022-03-11T12:06:46.000Z</time>
      </trkpt>
      <trkpt lat="44.4731" lon="6.69342">
        <ele>2332</ele>
        <time>2022-03-11T12:06:53.000Z</time>
      </trkpt>
      <trkpt lat="44.47308" lon="6.6934">
        <ele>2332.3999023438</ele>
        <time>2022-03-11T12:06:57.000Z</time>
      </trkpt>
      <trkpt lat="44.47305" lon="6.69338">
        <ele>2333.3999023438</ele>
        <time>2022-03-11T12:07:05.000Z</time>
      </trkpt>
      <trkpt lat="44.47306" lon="6.69338">
        <ele>2333.8000488281</ele>
        <time>2022-03-11T12:07:14.000Z</time>
      </trkpt>
      <trkpt lat="44.47306" lon="6.69338">
        <ele>2333.6000976562</ele>
        <time>2022-03-11T12:07:31.000Z</time>
      </trkpt>
      <trkpt lat="44.47307" lon="6.69338">
        <ele>2333.3999023438</ele>
        <time>2022-03-11T12:07:59.000Z</time>
      </trkpt>
      <trkpt lat="44.47308" lon="6.69339">
        <ele>2333.3999023438</ele>
        <time>2022-03-11T12:08:05.000Z</time>
      </trkpt>
      <trkpt lat="44.47308" lon="6.69336">
        <ele>2333.3999023438</ele>
        <time>2022-03-11T12:08:46.000Z</time>
      </trkpt>
      <trkpt lat="44.47308" lon="6.69334">
        <ele>2333.3999023438</ele>
        <time>2022-03-11T12:09:14.000Z</time>
      </trkpt>
      <trkpt lat="44.47307" lon="6.69334">
        <ele>2334.3999023438</ele>
        <time>2022-03-11T12:09:22.000Z</time>
      </trkpt>
      <trkpt lat="44.47306" lon="6.69334">
        <ele>2335.3999023438</ele>
        <time>2022-03-11T12:09:29.000Z</time>
      </trkpt>
      <trkpt lat="44.47305" lon="6.69334">
        <ele>2336.6000976562</ele>
        <time>2022-03-11T12:09:35.000Z</time>
      </trkpt>
      <trkpt lat="44.47302" lon="6.69332">
        <ele>2337.6000976562</ele>
        <time>2022-03-11T12:09:56.000Z</time>
      </trkpt>
      <trkpt lat="44.47302" lon="6.69332">
        <ele>2338.6000976562</ele>
        <time>2022-03-11T12:10:03.000Z</time>
      </trkpt>
      <trkpt lat="44.473" lon="6.69332">
        <ele>2339.8000488281</ele>
        <time>2022-03-11T12:10:11.000Z</time>
      </trkpt>
      <trkpt lat="44.47299" lon="6.69334">
        <ele>2340.8000488281</ele>
        <time>2022-03-11T12:10:17.000Z</time>
      </trkpt>
      <trkpt lat="44.47298" lon="6.69336">
        <ele>2342</ele>
        <time>2022-03-11T12:10:24.000Z</time>
      </trkpt>
      <trkpt lat="44.47296" lon="6.6934">
        <ele>2343.1999511719</ele>
        <time>2022-03-11T12:10:32.000Z</time>
      </trkpt>
      <trkpt lat="44.47293" lon="6.69346">
        <ele>2344.3999023438</ele>
        <time>2022-03-11T12:10:42.000Z</time>
      </trkpt>
      <trkpt lat="44.47293" lon="6.69347">
        <ele>2345.6000976562</ele>
        <time>2022-03-11T12:10:45.000Z</time>
      </trkpt>
      <trkpt lat="44.47292" lon="6.69347">
        <ele>2346.1999511719</ele>
        <time>2022-03-11T12:10:47.000Z</time>
      </trkpt>
      <trkpt lat="44.47292" lon="6.69347">
        <ele>2346.6000976562</ele>
        <time>2022-03-11T12:10:49.000Z</time>
      </trkpt>
      <trkpt lat="44.47291" lon="6.69348">
        <ele>2347.8000488281</ele>
        <time>2022-03-11T12:10:55.000Z</time>
      </trkpt>
      <trkpt lat="44.4729" lon="6.69348">
        <ele>2348.8000488281</ele>
        <time>2022-03-11T12:11:04.000Z</time>
      </trkpt>
      <trkpt lat="44.4729" lon="6.69348">
        <ele>2350</ele>
        <time>2022-03-11T12:11:16.000Z</time>
      </trkpt>
      <trkpt lat="44.47289" lon="6.69349">
        <ele>2351</ele>
        <time>2022-03-11T12:11:26.000Z</time>
      </trkpt>
      <trkpt lat="44.47277" lon="6.6936">
        <ele>2352.3999023438</ele>
        <time>2022-03-11T12:11:37.000Z</time>
      </trkpt>
      <trkpt lat="44.47273" lon="6.69362">
        <ele>2352.6000976562</ele>
        <time>2022-03-11T12:11:38.000Z</time>
      </trkpt>
      <trkpt lat="44.47271" lon="6.69365">
        <ele>2352.8000488281</ele>
        <time>2022-03-11T12:11:39.000Z</time>
      </trkpt>
      <trkpt lat="44.47268" lon="6.69367">
        <ele>2353</ele>
        <time>2022-03-11T12:11:40.000Z</time>
      </trkpt>
      <trkpt lat="44.47262" lon="6.69372">
        <ele>2353.3999023438</ele>
        <time>2022-03-11T12:11:45.000Z</time>
      </trkpt>
      <trkpt lat="44.4726" lon="6.69374">
        <ele>2354.1999511719</ele>
        <time>2022-03-11T12:11:49.000Z</time>
      </trkpt>
      <trkpt lat="44.4726" lon="6.69374">
        <ele>2354.6000976562</ele>
        <time>2022-03-11T12:11:50.000Z</time>
      </trkpt>
      <trkpt lat="44.47258" lon="6.69375">
        <ele>2355.1999511719</ele>
        <time>2022-03-11T12:11:54.000Z</time>
      </trkpt>
      <trkpt lat="44.47257" lon="6.69375">
        <ele>2355.6000976562</ele>
        <time>2022-03-11T12:11:56.000Z</time>
      </trkpt>
      <trkpt lat="44.47253" lon="6.69375">
        <ele>2356.6000976562</ele>
        <time>2022-03-11T12:12:02.000Z</time>
      </trkpt>
      <trkpt lat="44.47253" lon="6.69375">
        <ele>2356.8000488281</ele>
        <time>2022-03-11T12:12:03.000Z</time>
      </trkpt>
      <trkpt lat="44.47252" lon="6.69375">
        <ele>2356.8000488281</ele>
        <time>2022-03-11T12:12:04.000Z</time>
      </trkpt>
      <trkpt lat="44.47246" lon="6.69373">
        <ele>2358</ele>
        <time>2022-03-11T12:12:13.000Z</time>
      </trkpt>
      <trkpt lat="44.47244" lon="6.69371">
        <ele>2359</ele>
        <time>2022-03-11T12:12:19.000Z</time>
      </trkpt>
      <trkpt lat="44.47243" lon="6.69369">
        <ele>2359.6000976562</ele>
        <time>2022-03-11T12:12:23.000Z</time>
      </trkpt>
      <trkpt lat="44.47243" lon="6.69369">
        <ele>2360.1999511719</ele>
        <time>2022-03-11T12:12:26.000Z</time>
      </trkpt>
      <trkpt lat="44.47242" lon="6.69369">
        <ele>2360.8000488281</ele>
        <time>2022-03-11T12:12:33.000Z</time>
      </trkpt>
      <trkpt lat="44.4724" lon="6.69365">
        <ele>2361.1999511719</ele>
        <time>2022-03-11T12:13:39.000Z</time>
      </trkpt>
      <trkpt lat="44.47241" lon="6.69364">
        <ele>2361.1999511719</ele>
        <time>2022-03-11T12:14:45.000Z</time>
      </trkpt>
      <trkpt lat="44.47241" lon="6.69364">
        <ele>2362.3999023438</ele>
        <time>2022-03-11T12:14:58.000Z</time>
      </trkpt>
      <trkpt lat="44.47238" lon="6.69363">
        <ele>2361</ele>
        <time>2022-03-11T12:16:00.000Z</time>
      </trkpt>
      <trkpt lat="44.47238" lon="6.69363">
        <ele>2362.1999511719</ele>
        <time>2022-03-11T12:16:13.000Z</time>
      </trkpt>
      <trkpt lat="44.47238" lon="6.69363">
        <ele>2361.1999511719</ele>
        <time>2022-03-11T12:16:54.000Z</time>
      </trkpt>
      <trkpt lat="44.47238" lon="6.69363">
        <ele>2361.3999023438</ele>
        <time>2022-03-11T12:17:11.000Z</time>
      </trkpt>
      <trkpt lat="44.47238" lon="6.69363">
        <ele>2362.1999511719</ele>
        <time>2022-03-11T12:18:34.000Z</time>
      </trkpt>
      <trkpt lat="44.47239" lon="6.69363">
        <ele>2362.1999511719</ele>
        <time>2022-03-11T12:18:43.000Z</time>
      </trkpt>
      <trkpt lat="44.47244" lon="6.69369">
        <ele>2361.3999023438</ele>
        <time>2022-03-11T12:18:45.000Z</time>
      </trkpt>
      <trkpt lat="44.47247" lon="6.6937">
        <ele>2361.1999511719</ele>
        <time>2022-03-11T12:18:46.000Z</time>
      </trkpt>
      <trkpt lat="44.47253" lon="6.6937">
        <ele>2360</ele>
        <time>2022-03-11T12:18:48.000Z</time>
      </trkpt>
      <trkpt lat="44.47257" lon="6.6937">
        <ele>2358.8000488281</ele>
        <time>2022-03-11T12:18:49.000Z</time>
      </trkpt>
      <trkpt lat="44.47263" lon="6.69371">
        <ele>2357.1999511719</ele>
        <time>2022-03-11T12:18:51.000Z</time>
      </trkpt>
      <trkpt lat="44.47266" lon="6.6937">
        <ele>2356</ele>
        <time>2022-03-11T12:18:52.000Z</time>
      </trkpt>
      <trkpt lat="44.4727" lon="6.69368">
        <ele>2354.1999511719</ele>
        <time>2022-03-11T12:18:54.000Z</time>
      </trkpt>
      <trkpt lat="44.47273" lon="6.69366">
        <ele>2353</ele>
        <time>2022-03-11T12:18:56.000Z</time>
      </trkpt>
      <trkpt lat="44.47273" lon="6.69366">
        <ele>2352.8000488281</ele>
        <time>2022-03-11T12:18:57.000Z</time>
      </trkpt>
      <trkpt lat="44.47272" lon="6.69365">
        <ele>2351.8000488281</ele>
        <time>2022-03-11T12:19:01.000Z</time>
      </trkpt>
      <trkpt lat="44.47272" lon="6.69365">
        <ele>2351.8000488281</ele>
        <time>2022-03-11T12:19:02.000Z</time>
      </trkpt>
      <trkpt lat="44.47273" lon="6.6936">
        <ele>2351.8000488281</ele>
        <time>2022-03-11T12:19:11.000Z</time>
      </trkpt>
      <trkpt lat="44.47273" lon="6.69358">
        <ele>2351.6000976562</ele>
        <time>2022-03-11T12:19:12.000Z</time>
      </trkpt>
      <trkpt lat="44.47272" lon="6.69354">
        <ele>2351.6000976562</ele>
        <time>2022-03-11T12:19:17.000Z</time>
      </trkpt>
      <trkpt lat="44.47276" lon="6.69354">
        <ele>2351.6000976562</ele>
        <time>2022-03-11T12:19:21.000Z</time>
      </trkpt>
      <trkpt lat="44.47277" lon="6.69355">
        <ele>2351.6000976562</ele>
        <time>2022-03-11T12:19:22.000Z</time>
      </trkpt>
      <trkpt lat="44.4728" lon="6.69354">
        <ele>2350.1999511719</ele>
        <time>2022-03-11T12:19:24.000Z</time>
      </trkpt>
      <trkpt lat="44.47283" lon="6.69351">
        <ele>2348.3999023438</ele>
        <time>2022-03-11T12:19:26.000Z</time>
      </trkpt>
      <trkpt lat="44.47286" lon="6.69347">
        <ele>2347.1999511719</ele>
        <time>2022-03-11T12:19:28.000Z</time>
      </trkpt>
      <trkpt lat="44.47289" lon="6.69345">
        <ele>2345.8000488281</ele>
        <time>2022-03-11T12:19:30.000Z</time>
      </trkpt>
      <trkpt lat="44.47289" lon="6.69345">
        <ele>2345</ele>
        <time>2022-03-11T12:19:31.000Z</time>
      </trkpt>
      <trkpt lat="44.47289" lon="6.69345">
        <ele>2344.6000976562</ele>
        <time>2022-03-11T12:19:32.000Z</time>
      </trkpt>
      <trkpt lat="44.4729" lon="6.69347">
        <ele>2343.6000976562</ele>
        <time>2022-03-11T12:19:44.000Z</time>
      </trkpt>
      <trkpt lat="44.4729" lon="6.69347">
        <ele>2343.6000976562</ele>
        <time>2022-03-11T12:19:48.000Z</time>
      </trkpt>
      <trkpt lat="44.4729" lon="6.69347">
        <ele>2343.6000976562</ele>
        <time>2022-03-11T12:19:50.000Z</time>
      </trkpt>
      <trkpt lat="44.4729" lon="6.69347">
        <ele>2342.6000976562</ele>
        <time>2022-03-11T12:20:04.000Z</time>
      </trkpt>
      <trkpt lat="44.4729" lon="6.69346">
        <ele>2341.8000488281</ele>
        <time>2022-03-11T12:20:14.000Z</time>
      </trkpt>
      <trkpt lat="44.47291" lon="6.69342">
        <ele>2341.3999023438</ele>
        <time>2022-03-11T12:20:16.000Z</time>
      </trkpt>
      <trkpt lat="44.47291" lon="6.69342">
        <ele>2340</ele>
        <time>2022-03-11T12:20:18.000Z</time>
      </trkpt>
      <trkpt lat="44.47293" lon="6.69342">
        <ele>2339</ele>
        <time>2022-03-11T12:20:23.000Z</time>
      </trkpt>
      <trkpt lat="44.47293" lon="6.69342">
        <ele>2338.8000488281</ele>
        <time>2022-03-11T12:20:24.000Z</time>
      </trkpt>
      <trkpt lat="44.47293" lon="6.69336">
        <ele>2337.8000488281</ele>
        <time>2022-03-11T12:20:30.000Z</time>
      </trkpt>
      <trkpt lat="44.47297" lon="6.69333">
        <ele>2337.3999023438</ele>
        <time>2022-03-11T12:20:49.000Z</time>
      </trkpt>
      <trkpt lat="44.47298" lon="6.69332">
        <ele>2336.8000488281</ele>
        <time>2022-03-11T12:21:06.000Z</time>
      </trkpt>
      <trkpt lat="44.47298" lon="6.69329">
        <ele>2337</ele>
        <time>2022-03-11T12:21:18.000Z</time>
      </trkpt>
      <trkpt lat="44.47295" lon="6.69333">
        <ele>2337.1999511719</ele>
        <time>2022-03-11T12:21:51.000Z</time>
      </trkpt>
      <trkpt lat="44.47295" lon="6.69334">
        <ele>2337.1999511719</ele>
        <time>2022-03-11T12:21:58.000Z</time>
      </trkpt>
      <trkpt lat="44.47295" lon="6.69333">
        <ele>2337.1999511719</ele>
        <time>2022-03-11T12:22:08.000Z</time>
      </trkpt>
      <trkpt lat="44.47294" lon="6.69334">
        <ele>2337</ele>
        <time>2022-03-11T12:22:30.000Z</time>
      </trkpt>
      <trkpt lat="44.47298" lon="6.69327">
        <ele>2336.3999023438</ele>
        <time>2022-03-11T12:23:29.000Z</time>
      </trkpt>
      <trkpt lat="44.47299" lon="6.69324">
        <ele>2336.3999023438</ele>
        <time>2022-03-11T12:24:32.000Z</time>
      </trkpt>
      <trkpt lat="44.47298" lon="6.69322">
        <ele>2336.3999023438</ele>
        <time>2022-03-11T12:26:13.000Z</time>
      </trkpt>
      <trkpt lat="44.47296" lon="6.69321">
        <ele>2336.1999511719</ele>
        <time>2022-03-11T12:26:16.000Z</time>
      </trkpt>
      <trkpt lat="44.47292" lon="6.6932">
        <ele>2336.1999511719</ele>
        <time>2022-03-11T12:26:19.000Z</time>
      </trkpt>
      <trkpt lat="44.47286" lon="6.69316">
        <ele>2336.1999511719</ele>
        <time>2022-03-11T12:26:23.000Z</time>
      </trkpt>
      <trkpt lat="44.47285" lon="6.69314">
        <ele>2336.1999511719</ele>
        <time>2022-03-11T12:26:26.000Z</time>
      </trkpt>
      <trkpt lat="44.47285" lon="6.69313">
        <ele>2336.1999511719</ele>
        <time>2022-03-11T12:26:28.000Z</time>
      </trkpt>
      <trkpt lat="44.47287" lon="6.69315">
        <ele>2336.1999511719</ele>
        <time>2022-03-11T12:26:31.000Z</time>
      </trkpt>
      <trkpt lat="44.4729" lon="6.69318">
        <ele>2336</ele>
        <time>2022-03-11T12:26:36.000Z</time>
      </trkpt>
      <trkpt lat="44.47291" lon="6.69319">
        <ele>2336</ele>
        <time>2022-03-11T12:26:42.000Z</time>
      </trkpt>
      <trkpt lat="44.47293" lon="6.69322">
        <ele>2336.1999511719</ele>
        <time>2022-03-11T12:26:45.000Z</time>
      </trkpt>
      <trkpt lat="44.47298" lon="6.69328">
        <ele>2336.1999511719</ele>
        <time>2022-03-11T12:26:50.000Z</time>
      </trkpt>
      <trkpt lat="44.47299" lon="6.69328">
        <ele>2336</ele>
        <time>2022-03-11T12:26:51.000Z</time>
      </trkpt>
      <trkpt lat="44.47299" lon="6.69327">
        <ele>2336</ele>
        <time>2022-03-11T12:26:55.000Z</time>
      </trkpt>
      <trkpt lat="44.473" lon="6.69329">
        <ele>2335.8000488281</ele>
        <time>2022-03-11T12:27:00.000Z</time>
      </trkpt>
      <trkpt lat="44.47301" lon="6.69329">
        <ele>2335.8000488281</ele>
        <time>2022-03-11T12:27:01.000Z</time>
      </trkpt>
      <trkpt lat="44.47299" lon="6.69328">
        <ele>2335.8000488281</ele>
        <time>2022-03-11T12:27:07.000Z</time>
      </trkpt>
      <trkpt lat="44.47296" lon="6.69326">
        <ele>2336</ele>
        <time>2022-03-11T12:27:15.000Z</time>
      </trkpt>
      <trkpt lat="44.47293" lon="6.69326">
        <ele>2336</ele>
        <time>2022-03-11T12:27:22.000Z</time>
      </trkpt>
      <trkpt lat="44.47292" lon="6.69327">
        <ele>2336</ele>
        <time>2022-03-11T12:27:28.000Z</time>
      </trkpt>
      <trkpt lat="44.4729" lon="6.69329">
        <ele>2335.8000488281</ele>
        <time>2022-03-11T12:27:34.000Z</time>
      </trkpt>
      <trkpt lat="44.4729" lon="6.69329">
        <ele>2335.8000488281</ele>
        <time>2022-03-11T12:27:35.000Z</time>
      </trkpt>
      <trkpt lat="44.47291" lon="6.69325">
        <ele>2335.8000488281</ele>
        <time>2022-03-11T12:27:43.000Z</time>
      </trkpt>
      <trkpt lat="44.47291" lon="6.69325">
        <ele>2336.1999511719</ele>
        <time>2022-03-11T12:27:49.000Z</time>
      </trkpt>
      <trkpt lat="44.47294" lon="6.69327">
        <ele>2336</ele>
        <time>2022-03-11T12:27:57.000Z</time>
      </trkpt>
      <trkpt lat="44.47293" lon="6.6933">
        <ele>2336</ele>
        <time>2022-03-11T12:28:05.000Z</time>
      </trkpt>
      <trkpt lat="44.47293" lon="6.69331">
        <ele>2336</ele>
        <time>2022-03-11T12:28:10.000Z</time>
      </trkpt>
      <trkpt lat="44.47295" lon="6.69332">
        <ele>2336.1999511719</ele>
        <time>2022-03-11T12:28:13.000Z</time>
      </trkpt>
      <trkpt lat="44.47295" lon="6.69334">
        <ele>2336.1999511719</ele>
        <time>2022-03-11T12:28:18.000Z</time>
      </trkpt>
      <trkpt lat="44.47297" lon="6.69331">
        <ele>2336</ele>
        <time>2022-03-11T12:28:25.000Z</time>
      </trkpt>
      <trkpt lat="44.47299" lon="6.69328">
        <ele>2336.3999023438</ele>
        <time>2022-03-11T12:28:34.000Z</time>
      </trkpt>
      <trkpt lat="44.473" lon="6.69327">
        <ele>2336.1999511719</ele>
        <time>2022-03-11T12:28:40.000Z</time>
      </trkpt>
      <trkpt lat="44.473" lon="6.69331">
        <ele>2336.1999511719</ele>
        <time>2022-03-11T12:28:48.000Z</time>
      </trkpt>
      <trkpt lat="44.47297" lon="6.69331">
        <ele>2336.1999511719</ele>
        <time>2022-03-11T12:28:54.000Z</time>
      </trkpt>
      <trkpt lat="44.47297" lon="6.69332">
        <ele>2336.1999511719</ele>
        <time>2022-03-11T12:29:00.000Z</time>
      </trkpt>
      <trkpt lat="44.47297" lon="6.69332">
        <ele>2335.8000488281</ele>
        <time>2022-03-11T12:29:11.000Z</time>
      </trkpt>
      <trkpt lat="44.47294" lon="6.69328">
        <ele>2335.6000976562</ele>
        <time>2022-03-11T12:30:04.000Z</time>
      </trkpt>
      <trkpt lat="44.47301" lon="6.69322">
        <ele>2335.6000976562</ele>
        <time>2022-03-11T12:31:24.000Z</time>
      </trkpt>
      <trkpt lat="44.47301" lon="6.69323">
        <ele>2335.1999511719</ele>
        <time>2022-03-11T12:31:30.000Z</time>
      </trkpt>
      <trkpt lat="44.47297" lon="6.69327">
        <ele>2335.6000976562</ele>
        <time>2022-03-11T12:33:14.000Z</time>
      </trkpt>
      <trkpt lat="44.47302" lon="6.69327">
        <ele>2335.6000976562</ele>
        <time>2022-03-11T12:34:48.000Z</time>
      </trkpt>
      <trkpt lat="44.47302" lon="6.69323">
        <ele>2335.8000488281</ele>
        <time>2022-03-11T12:35:37.000Z</time>
      </trkpt>
      <trkpt lat="44.47304" lon="6.69321">
        <ele>2336</ele>
        <time>2022-03-11T12:35:45.000Z</time>
      </trkpt>
      <trkpt lat="44.47303" lon="6.69321">
        <ele>2336</ele>
        <time>2022-03-11T12:36:01.000Z</time>
      </trkpt>
      <trkpt lat="44.473" lon="6.69321">
        <ele>2336.8000488281</ele>
        <time>2022-03-11T12:37:17.000Z</time>
      </trkpt>
      <trkpt lat="44.473" lon="6.6932">
        <ele>2336.3999023438</ele>
        <time>2022-03-11T12:38:57.000Z</time>
      </trkpt>
      <trkpt lat="44.47299" lon="6.69321">
        <ele>2335.8000488281</ele>
        <time>2022-03-11T12:41:15.000Z</time>
      </trkpt>
      <trkpt lat="44.47299" lon="6.69321">
        <ele>2336</ele>
        <time>2022-03-11T12:42:02.000Z</time>
      </trkpt>
      <trkpt lat="44.47299" lon="6.69322">
        <ele>2336.8000488281</ele>
        <time>2022-03-11T12:44:51.000Z</time>
      </trkpt>
      <trkpt lat="44.47299" lon="6.69322">
        <ele>2336.8000488281</ele>
        <time>2022-03-11T12:45:31.000Z</time>
      </trkpt>
      <trkpt lat="44.47299" lon="6.69323">
        <ele>2337.1999511719</ele>
        <time>2022-03-11T12:46:14.000Z</time>
      </trkpt>
      <trkpt lat="44.473" lon="6.69324">
        <ele>2337.6000976562</ele>
        <time>2022-03-11T12:46:50.000Z</time>
      </trkpt>
      <trkpt lat="44.47301" lon="6.69324">
        <ele>2337.3999023438</ele>
        <time>2022-03-11T12:46:59.000Z</time>
      </trkpt>
      <trkpt lat="44.47301" lon="6.69325">
        <ele>2337.3999023438</ele>
        <time>2022-03-11T12:47:18.000Z</time>
      </trkpt>
      <trkpt lat="44.47303" lon="6.69332">
        <ele>2337.6000976562</ele>
        <time>2022-03-11T12:47:58.000Z</time>
      </trkpt>
      <trkpt lat="44.47301" lon="6.6933">
        <ele>2337.8000488281</ele>
        <time>2022-03-11T12:48:18.000Z</time>
      </trkpt>
      <trkpt lat="44.47301" lon="6.69329">
        <ele>2337.6000976562</ele>
        <time>2022-03-11T12:50:52.000Z</time>
      </trkpt>
      <trkpt lat="44.47309" lon="6.69335">
        <ele>2336.6000976562</ele>
        <time>2022-03-11T12:50:54.000Z</time>
      </trkpt>
      <trkpt lat="44.47313" lon="6.69339">
        <ele>2335.1999511719</ele>
        <time>2022-03-11T12:50:55.000Z</time>
      </trkpt>
      <trkpt lat="44.47317" lon="6.69344">
        <ele>2333.8000488281</ele>
        <time>2022-03-11T12:50:56.000Z</time>
      </trkpt>
      <trkpt lat="44.47321" lon="6.69356">
        <ele>2332.1999511719</ele>
        <time>2022-03-11T12:50:58.000Z</time>
      </trkpt>
      <trkpt lat="44.47325" lon="6.69359">
        <ele>2330.3999023438</ele>
        <time>2022-03-11T12:50:59.000Z</time>
      </trkpt>
      <trkpt lat="44.47329" lon="6.69361">
        <ele>2328.3999023438</ele>
        <time>2022-03-11T12:51:00.000Z</time>
      </trkpt>
      <trkpt lat="44.47333" lon="6.69363">
        <ele>2327.1999511719</ele>
        <time>2022-03-11T12:51:01.000Z</time>
      </trkpt>
      <trkpt lat="44.47335" lon="6.69364">
        <ele>2325.8000488281</ele>
        <time>2022-03-11T12:51:02.000Z</time>
      </trkpt>
      <trkpt lat="44.47335" lon="6.69364">
        <ele>2324.6000976562</ele>
        <time>2022-03-11T12:51:03.000Z</time>
      </trkpt>
      <trkpt lat="44.47335" lon="6.69364">
        <ele>2323.8000488281</ele>
        <time>2022-03-11T12:51:04.000Z</time>
      </trkpt>
      <trkpt lat="44.47335" lon="6.69364">
        <ele>2323.3999023438</ele>
        <time>2022-03-11T12:51:05.000Z</time>
      </trkpt>
      <trkpt lat="44.47338" lon="6.69362">
        <ele>2322.8000488281</ele>
        <time>2022-03-11T12:51:14.000Z</time>
      </trkpt>
      <trkpt lat="44.47339" lon="6.69361">
        <ele>2322.6000976562</ele>
        <time>2022-03-11T12:51:15.000Z</time>
      </trkpt>
      <trkpt lat="44.4734" lon="6.6936">
        <ele>2322</ele>
        <time>2022-03-11T12:51:17.000Z</time>
      </trkpt>
      <trkpt lat="44.47341" lon="6.69359">
        <ele>2321.6000976562</ele>
        <time>2022-03-11T12:51:18.000Z</time>
      </trkpt>
      <trkpt lat="44.47343" lon="6.69361">
        <ele>2320.8000488281</ele>
        <time>2022-03-11T12:51:23.000Z</time>
      </trkpt>
      <trkpt lat="44.47344" lon="6.69366">
        <ele>2320.6000976562</ele>
        <time>2022-03-11T12:51:25.000Z</time>
      </trkpt>
      <trkpt lat="44.47343" lon="6.69369">
        <ele>2319.3999023438</ele>
        <time>2022-03-11T12:51:26.000Z</time>
      </trkpt>
      <trkpt lat="44.47345" lon="6.69372">
        <ele>2318.3999023438</ele>
        <time>2022-03-11T12:51:27.000Z</time>
      </trkpt>
      <trkpt lat="44.47346" lon="6.69377">
        <ele>2318</ele>
        <time>2022-03-11T12:51:28.000Z</time>
      </trkpt>
      <trkpt lat="44.47345" lon="6.69381">
        <ele>2316.6000976562</ele>
        <time>2022-03-11T12:51:29.000Z</time>
      </trkpt>
      <trkpt lat="44.47345" lon="6.69385">
        <ele>2314.8000488281</ele>
        <time>2022-03-11T12:51:30.000Z</time>
      </trkpt>
      <trkpt lat="44.47345" lon="6.6939">
        <ele>2312.8000488281</ele>
        <time>2022-03-11T12:51:31.000Z</time>
      </trkpt>
      <trkpt lat="44.47344" lon="6.69396">
        <ele>2311.1999511719</ele>
        <time>2022-03-11T12:51:32.000Z</time>
      </trkpt>
      <trkpt lat="44.47344" lon="6.69401">
        <ele>2309.3999023438</ele>
        <time>2022-03-11T12:51:33.000Z</time>
      </trkpt>
      <trkpt lat="44.47345" lon="6.69407">
        <ele>2307.6000976562</ele>
        <time>2022-03-11T12:51:34.000Z</time>
      </trkpt>
      <trkpt lat="44.47347" lon="6.69412">
        <ele>2306</ele>
        <time>2022-03-11T12:51:35.000Z</time>
      </trkpt>
      <trkpt lat="44.4735" lon="6.69415">
        <ele>2304</ele>
        <time>2022-03-11T12:51:36.000Z</time>
      </trkpt>
      <trkpt lat="44.47355" lon="6.69416">
        <ele>2301.1999511719</ele>
        <time>2022-03-11T12:51:37.000Z</time>
      </trkpt>
      <trkpt lat="44.4736" lon="6.69417">
        <ele>2299.6000976562</ele>
        <time>2022-03-11T12:51:38.000Z</time>
      </trkpt>
      <trkpt lat="44.47366" lon="6.69419">
        <ele>2297.8000488281</ele>
        <time>2022-03-11T12:51:39.000Z</time>
      </trkpt>
      <trkpt lat="44.47376" lon="6.69422">
        <ele>2295.8000488281</ele>
        <time>2022-03-11T12:51:41.000Z</time>
      </trkpt>
      <trkpt lat="44.4738" lon="6.69422">
        <ele>2293.3999023438</ele>
        <time>2022-03-11T12:51:42.000Z</time>
      </trkpt>
      <trkpt lat="44.47383" lon="6.69422">
        <ele>2291.8000488281</ele>
        <time>2022-03-11T12:51:43.000Z</time>
      </trkpt>
      <trkpt lat="44.47386" lon="6.69421">
        <ele>2290.6000976562</ele>
        <time>2022-03-11T12:51:45.000Z</time>
      </trkpt>
      <trkpt lat="44.47383" lon="6.6942">
        <ele>2290</ele>
        <time>2022-03-11T12:51:48.000Z</time>
      </trkpt>
      <trkpt lat="44.47384" lon="6.69419">
        <ele>2289.8000488281</ele>
        <time>2022-03-11T12:51:52.000Z</time>
      </trkpt>
      <trkpt lat="44.47387" lon="6.69418">
        <ele>2289.8000488281</ele>
        <time>2022-03-11T12:51:55.000Z</time>
      </trkpt>
      <trkpt lat="44.47393" lon="6.69416">
        <ele>2289</ele>
        <time>2022-03-11T12:51:57.000Z</time>
      </trkpt>
      <trkpt lat="44.47401" lon="6.69415">
        <ele>2287.6000976562</ele>
        <time>2022-03-11T12:51:59.000Z</time>
      </trkpt>
      <trkpt lat="44.47404" lon="6.69414">
        <ele>2286.1999511719</ele>
        <time>2022-03-11T12:52:00.000Z</time>
      </trkpt>
      <trkpt lat="44.47405" lon="6.69414">
        <ele>2285.3999023438</ele>
        <time>2022-03-11T12:52:01.000Z</time>
      </trkpt>
      <trkpt lat="44.47406" lon="6.69413">
        <ele>2285</ele>
        <time>2022-03-11T12:52:02.000Z</time>
      </trkpt>
      <trkpt lat="44.4741" lon="6.69422">
        <ele>2284.1999511719</ele>
        <time>2022-03-11T12:52:05.000Z</time>
      </trkpt>
      <trkpt lat="44.4741" lon="6.69434">
        <ele>2283.1999511719</ele>
        <time>2022-03-11T12:52:07.000Z</time>
      </trkpt>
      <trkpt lat="44.4741" lon="6.69439">
        <ele>2282.1999511719</ele>
        <time>2022-03-11T12:52:08.000Z</time>
      </trkpt>
      <trkpt lat="44.47411" lon="6.69444">
        <ele>2280</ele>
        <time>2022-03-11T12:52:09.000Z</time>
      </trkpt>
      <trkpt lat="44.47413" lon="6.69449">
        <ele>2278</ele>
        <time>2022-03-11T12:52:10.000Z</time>
      </trkpt>
      <trkpt lat="44.47415" lon="6.69454">
        <ele>2275.8000488281</ele>
        <time>2022-03-11T12:52:11.000Z</time>
      </trkpt>
      <trkpt lat="44.47416" lon="6.69457">
        <ele>2274</ele>
        <time>2022-03-11T12:52:12.000Z</time>
      </trkpt>
      <trkpt lat="44.47418" lon="6.6946">
        <ele>2272</ele>
        <time>2022-03-11T12:52:13.000Z</time>
      </trkpt>
      <trkpt lat="44.4742" lon="6.69463">
        <ele>2270.3999023438</ele>
        <time>2022-03-11T12:52:14.000Z</time>
      </trkpt>
      <trkpt lat="44.4742" lon="6.69465">
        <ele>2269</ele>
        <time>2022-03-11T12:52:16.000Z</time>
      </trkpt>
      <trkpt lat="44.4742" lon="6.69466">
        <ele>2268.1999511719</ele>
        <time>2022-03-11T12:52:17.000Z</time>
      </trkpt>
      <trkpt lat="44.47419" lon="6.69468">
        <ele>2267.6000976562</ele>
        <time>2022-03-11T12:52:18.000Z</time>
      </trkpt>
      <trkpt lat="44.4742" lon="6.69471">
        <ele>2267</ele>
        <time>2022-03-11T12:52:25.000Z</time>
      </trkpt>
      <trkpt lat="44.47417" lon="6.69474">
        <ele>2267</ele>
        <time>2022-03-11T12:52:38.000Z</time>
      </trkpt>
      <trkpt lat="44.47416" lon="6.69467">
        <ele>2267</ele>
        <time>2022-03-11T12:54:07.000Z</time>
      </trkpt>
      <trkpt lat="44.47426" lon="6.6947">
        <ele>2267</ele>
        <time>2022-03-11T12:54:09.000Z</time>
      </trkpt>
      <trkpt lat="44.47431" lon="6.69471">
        <ele>2266</ele>
        <time>2022-03-11T12:54:10.000Z</time>
      </trkpt>
      <trkpt lat="44.47435" lon="6.69471">
        <ele>2264.8000488281</ele>
        <time>2022-03-11T12:54:11.000Z</time>
      </trkpt>
      <trkpt lat="44.47444" lon="6.69471">
        <ele>2263.1999511719</ele>
        <time>2022-03-11T12:54:13.000Z</time>
      </trkpt>
      <trkpt lat="44.47446" lon="6.69469">
        <ele>2262</ele>
        <time>2022-03-11T12:54:14.000Z</time>
      </trkpt>
      <trkpt lat="44.47449" lon="6.69468">
        <ele>2260.1999511719</ele>
        <time>2022-03-11T12:54:15.000Z</time>
      </trkpt>
      <trkpt lat="44.47452" lon="6.69466">
        <ele>2259.1999511719</ele>
        <time>2022-03-11T12:54:16.000Z</time>
      </trkpt>
      <trkpt lat="44.47453" lon="6.69466">
        <ele>2258.3999023438</ele>
        <time>2022-03-11T12:54:17.000Z</time>
      </trkpt>
      <trkpt lat="44.47455" lon="6.69466">
        <ele>2257.8000488281</ele>
        <time>2022-03-11T12:54:18.000Z</time>
      </trkpt>
      <trkpt lat="44.47459" lon="6.69464">
        <ele>2256.8000488281</ele>
        <time>2022-03-11T12:54:22.000Z</time>
      </trkpt>
      <trkpt lat="44.47465" lon="6.69461">
        <ele>2255.6000976562</ele>
        <time>2022-03-11T12:54:24.000Z</time>
      </trkpt>
      <trkpt lat="44.47473" lon="6.69459">
        <ele>2253.6000976562</ele>
        <time>2022-03-11T12:54:26.000Z</time>
      </trkpt>
      <trkpt lat="44.47475" lon="6.6946">
        <ele>2252.3999023438</ele>
        <time>2022-03-11T12:54:27.000Z</time>
      </trkpt>
      <trkpt lat="44.47478" lon="6.69462">
        <ele>2250.6000976562</ele>
        <time>2022-03-11T12:54:28.000Z</time>
      </trkpt>
      <trkpt lat="44.4748" lon="6.69464">
        <ele>2248.8000488281</ele>
        <time>2022-03-11T12:54:29.000Z</time>
      </trkpt>
      <trkpt lat="44.47483" lon="6.69467">
        <ele>2248</ele>
        <time>2022-03-11T12:54:30.000Z</time>
      </trkpt>
      <trkpt lat="44.47486" lon="6.69468">
        <ele>2246.1999511719</ele>
        <time>2022-03-11T12:54:31.000Z</time>
      </trkpt>
      <trkpt lat="44.4749" lon="6.69469">
        <ele>2244.8000488281</ele>
        <time>2022-03-11T12:54:32.000Z</time>
      </trkpt>
      <trkpt lat="44.47499" lon="6.69467">
        <ele>2241.8000488281</ele>
        <time>2022-03-11T12:54:34.000Z</time>
      </trkpt>
      <trkpt lat="44.47504" lon="6.69466">
        <ele>2240.3999023438</ele>
        <time>2022-03-11T12:54:35.000Z</time>
      </trkpt>
      <trkpt lat="44.47509" lon="6.69466">
        <ele>2239.3999023438</ele>
        <time>2022-03-11T12:54:36.000Z</time>
      </trkpt>
      <trkpt lat="44.47513" lon="6.69468">
        <ele>2238.1999511719</ele>
        <time>2022-03-11T12:54:37.000Z</time>
      </trkpt>
      <trkpt lat="44.47518" lon="6.69473">
        <ele>2236.8000488281</ele>
        <time>2022-03-11T12:54:38.000Z</time>
      </trkpt>
      <trkpt lat="44.4752" lon="6.6948">
        <ele>2235.6000976562</ele>
        <time>2022-03-11T12:54:39.000Z</time>
      </trkpt>
      <trkpt lat="44.47521" lon="6.69486">
        <ele>2234</ele>
        <time>2022-03-11T12:54:40.000Z</time>
      </trkpt>
      <trkpt lat="44.47522" lon="6.69491">
        <ele>2232.8000488281</ele>
        <time>2022-03-11T12:54:41.000Z</time>
      </trkpt>
      <trkpt lat="44.47525" lon="6.69495">
        <ele>2231.8000488281</ele>
        <time>2022-03-11T12:54:42.000Z</time>
      </trkpt>
      <trkpt lat="44.47528" lon="6.695">
        <ele>2230.3999023438</ele>
        <time>2022-03-11T12:54:43.000Z</time>
      </trkpt>
      <trkpt lat="44.4753" lon="6.69506">
        <ele>2229</ele>
        <time>2022-03-11T12:54:44.000Z</time>
      </trkpt>
      <trkpt lat="44.4753" lon="6.69512">
        <ele>2227.8000488281</ele>
        <time>2022-03-11T12:54:45.000Z</time>
      </trkpt>
      <trkpt lat="44.47531" lon="6.69518">
        <ele>2226.1999511719</ele>
        <time>2022-03-11T12:54:46.000Z</time>
      </trkpt>
      <trkpt lat="44.47534" lon="6.69523">
        <ele>2225.1999511719</ele>
        <time>2022-03-11T12:54:47.000Z</time>
      </trkpt>
      <trkpt lat="44.47536" lon="6.69527">
        <ele>2223.8000488281</ele>
        <time>2022-03-11T12:54:48.000Z</time>
      </trkpt>
      <trkpt lat="44.4754" lon="6.69531">
        <ele>2222.3999023438</ele>
        <time>2022-03-11T12:54:49.000Z</time>
      </trkpt>
      <trkpt lat="44.47543" lon="6.69536">
        <ele>2221</ele>
        <time>2022-03-11T12:54:50.000Z</time>
      </trkpt>
      <trkpt lat="44.47545" lon="6.69541">
        <ele>2220</ele>
        <time>2022-03-11T12:54:51.000Z</time>
      </trkpt>
      <trkpt lat="44.47548" lon="6.69546">
        <ele>2218.1999511719</ele>
        <time>2022-03-11T12:54:52.000Z</time>
      </trkpt>
      <trkpt lat="44.47549" lon="6.69554">
        <ele>2217.1999511719</ele>
        <time>2022-03-11T12:54:53.000Z</time>
      </trkpt>
      <trkpt lat="44.47549" lon="6.69559">
        <ele>2215.8000488281</ele>
        <time>2022-03-11T12:54:54.000Z</time>
      </trkpt>
      <trkpt lat="44.47549" lon="6.69564">
        <ele>2214.1999511719</ele>
        <time>2022-03-11T12:54:55.000Z</time>
      </trkpt>
      <trkpt lat="44.47549" lon="6.69568">
        <ele>2212.6000976562</ele>
        <time>2022-03-11T12:54:56.000Z</time>
      </trkpt>
      <trkpt lat="44.47548" lon="6.69569">
        <ele>2211</ele>
        <time>2022-03-11T12:54:57.000Z</time>
      </trkpt>
      <trkpt lat="44.47547" lon="6.69571">
        <ele>2209.6000976562</ele>
        <time>2022-03-11T12:54:59.000Z</time>
      </trkpt>
      <trkpt lat="44.47545" lon="6.69573">
        <ele>2209</ele>
        <time>2022-03-11T12:55:03.000Z</time>
      </trkpt>
      <trkpt lat="44.47545" lon="6.69575">
        <ele>2209</ele>
        <time>2022-03-11T12:55:05.000Z</time>
      </trkpt>
      <trkpt lat="44.47545" lon="6.69576">
        <ele>2208.8000488281</ele>
        <time>2022-03-11T12:55:09.000Z</time>
      </trkpt>
      <trkpt lat="44.47548" lon="6.69575">
        <ele>2209</ele>
        <time>2022-03-11T12:55:16.000Z</time>
      </trkpt>
      <trkpt lat="44.47547" lon="6.69575">
        <ele>2209</ele>
        <time>2022-03-11T12:55:18.000Z</time>
      </trkpt>
      <trkpt lat="44.47548" lon="6.69575">
        <ele>2209</ele>
        <time>2022-03-11T12:55:27.000Z</time>
      </trkpt>
      <trkpt lat="44.4755" lon="6.69574">
        <ele>2208.3999023438</ele>
        <time>2022-03-11T12:55:28.000Z</time>
      </trkpt>
      <trkpt lat="44.47551" lon="6.69574">
        <ele>2207.8000488281</ele>
        <time>2022-03-11T12:55:29.000Z</time>
      </trkpt>
      <trkpt lat="44.47552" lon="6.69573">
        <ele>2207.1999511719</ele>
        <time>2022-03-11T12:55:31.000Z</time>
      </trkpt>
      <trkpt lat="44.47555" lon="6.69572">
        <ele>2207.1999511719</ele>
        <time>2022-03-11T12:55:33.000Z</time>
      </trkpt>
      <trkpt lat="44.47556" lon="6.69572">
        <ele>2207</ele>
        <time>2022-03-11T12:55:39.000Z</time>
      </trkpt>
      <trkpt lat="44.47557" lon="6.69573">
        <ele>2207.1999511719</ele>
        <time>2022-03-11T12:55:45.000Z</time>
      </trkpt>
      <trkpt lat="44.47558" lon="6.69572">
        <ele>2207.1999511719</ele>
        <time>2022-03-11T12:55:54.000Z</time>
      </trkpt>
      <trkpt lat="44.47561" lon="6.69572">
        <ele>2207.1999511719</ele>
        <time>2022-03-11T12:55:57.000Z</time>
      </trkpt>
      <trkpt lat="44.47564" lon="6.69573">
        <ele>2207</ele>
        <time>2022-03-11T12:55:59.000Z</time>
      </trkpt>
      <trkpt lat="44.47567" lon="6.69575">
        <ele>2205.6000976562</ele>
        <time>2022-03-11T12:56:01.000Z</time>
      </trkpt>
      <trkpt lat="44.47568" lon="6.69577">
        <ele>2204.3999023438</ele>
        <time>2022-03-11T12:56:02.000Z</time>
      </trkpt>
      <trkpt lat="44.4757" lon="6.69579">
        <ele>2203</ele>
        <time>2022-03-11T12:56:03.000Z</time>
      </trkpt>
      <trkpt lat="44.47572" lon="6.69581">
        <ele>2201.6000976562</ele>
        <time>2022-03-11T12:56:04.000Z</time>
      </trkpt>
      <trkpt lat="44.47576" lon="6.69582">
        <ele>2199.3999023438</ele>
        <time>2022-03-11T12:56:05.000Z</time>
      </trkpt>
      <trkpt lat="44.4758" lon="6.69582">
        <ele>2198.3999023438</ele>
        <time>2022-03-11T12:56:06.000Z</time>
      </trkpt>
      <trkpt lat="44.47583" lon="6.69586">
        <ele>2196.8000488281</ele>
        <time>2022-03-11T12:56:07.000Z</time>
      </trkpt>
      <trkpt lat="44.47584" lon="6.69589">
        <ele>2195.1999511719</ele>
        <time>2022-03-11T12:56:08.000Z</time>
      </trkpt>
      <trkpt lat="44.47585" lon="6.69591">
        <ele>2193.6000976562</ele>
        <time>2022-03-11T12:56:09.000Z</time>
      </trkpt>
      <trkpt lat="44.47587" lon="6.69595">
        <ele>2192.1999511719</ele>
        <time>2022-03-11T12:56:10.000Z</time>
      </trkpt>
      <trkpt lat="44.47591" lon="6.69598">
        <ele>2190.3999023438</ele>
        <time>2022-03-11T12:56:11.000Z</time>
      </trkpt>
      <trkpt lat="44.47594" lon="6.69602">
        <ele>2187.8000488281</ele>
        <time>2022-03-11T12:56:12.000Z</time>
      </trkpt>
      <trkpt lat="44.47598" lon="6.69603">
        <ele>2185.1999511719</ele>
        <time>2022-03-11T12:56:13.000Z</time>
      </trkpt>
      <trkpt lat="44.47599" lon="6.69605">
        <ele>2183.1999511719</ele>
        <time>2022-03-11T12:56:14.000Z</time>
      </trkpt>
      <trkpt lat="44.47599" lon="6.69608">
        <ele>2182</ele>
        <time>2022-03-11T12:56:15.000Z</time>
      </trkpt>
      <trkpt lat="44.47599" lon="6.69612">
        <ele>2180.1999511719</ele>
        <time>2022-03-11T12:56:16.000Z</time>
      </trkpt>
      <trkpt lat="44.47601" lon="6.69615">
        <ele>2178.1999511719</ele>
        <time>2022-03-11T12:56:17.000Z</time>
      </trkpt>
      <trkpt lat="44.47604" lon="6.69617">
        <ele>2176</ele>
        <time>2022-03-11T12:56:18.000Z</time>
      </trkpt>
      <trkpt lat="44.47606" lon="6.69617">
        <ele>2174.1999511719</ele>
        <time>2022-03-11T12:56:19.000Z</time>
      </trkpt>
      <trkpt lat="44.47609" lon="6.69617">
        <ele>2172.8000488281</ele>
        <time>2022-03-11T12:56:20.000Z</time>
      </trkpt>
      <trkpt lat="44.47611" lon="6.69617">
        <ele>2171</ele>
        <time>2022-03-11T12:56:21.000Z</time>
      </trkpt>
      <trkpt lat="44.47619" lon="6.69614">
        <ele>2169</ele>
        <time>2022-03-11T12:56:23.000Z</time>
      </trkpt>
      <trkpt lat="44.47623" lon="6.69614">
        <ele>2167.1999511719</ele>
        <time>2022-03-11T12:56:24.000Z</time>
      </trkpt>
      <trkpt lat="44.47627" lon="6.69617">
        <ele>2165.6000976562</ele>
        <time>2022-03-11T12:56:25.000Z</time>
      </trkpt>
      <trkpt lat="44.4763" lon="6.6962">
        <ele>2163.8000488281</ele>
        <time>2022-03-11T12:56:26.000Z</time>
      </trkpt>
      <trkpt lat="44.47632" lon="6.69621">
        <ele>2161.1999511719</ele>
        <time>2022-03-11T12:56:27.000Z</time>
      </trkpt>
      <trkpt lat="44.47633" lon="6.69622">
        <ele>2159.6000976562</ele>
        <time>2022-03-11T12:56:28.000Z</time>
      </trkpt>
      <trkpt lat="44.47633" lon="6.69623">
        <ele>2157.3999023438</ele>
        <time>2022-03-11T12:56:29.000Z</time>
      </trkpt>
      <trkpt lat="44.47633" lon="6.69624">
        <ele>2156.3999023438</ele>
        <time>2022-03-11T12:56:30.000Z</time>
      </trkpt>
      <trkpt lat="44.47634" lon="6.69624">
        <ele>2155.3999023438</ele>
        <time>2022-03-11T12:56:32.000Z</time>
      </trkpt>
      <trkpt lat="44.4764" lon="6.69623">
        <ele>2155</ele>
        <time>2022-03-11T12:56:37.000Z</time>
      </trkpt>
      <trkpt lat="44.47641" lon="6.69625">
        <ele>2155</ele>
        <time>2022-03-11T12:56:47.000Z</time>
      </trkpt>
      <trkpt lat="44.4764" lon="6.69624">
        <ele>2154.8000488281</ele>
        <time>2022-03-11T12:56:56.000Z</time>
      </trkpt>
      <trkpt lat="44.47641" lon="6.69624">
        <ele>2154.6000976562</ele>
        <time>2022-03-11T12:57:01.000Z</time>
      </trkpt>
      <trkpt lat="44.47643" lon="6.69619">
        <ele>2154.6000976562</ele>
        <time>2022-03-11T12:57:22.000Z</time>
      </trkpt>
      <trkpt lat="44.47646" lon="6.69621">
        <ele>2154.6000976562</ele>
        <time>2022-03-11T12:57:29.000Z</time>
      </trkpt>
      <trkpt lat="44.4765" lon="6.69624">
        <ele>2154.1999511719</ele>
        <time>2022-03-11T12:57:31.000Z</time>
      </trkpt>
      <trkpt lat="44.4765" lon="6.69628">
        <ele>2154</ele>
        <time>2022-03-11T12:57:32.000Z</time>
      </trkpt>
      <trkpt lat="44.47652" lon="6.69633">
        <ele>2151.8000488281</ele>
        <time>2022-03-11T12:57:34.000Z</time>
      </trkpt>
      <trkpt lat="44.47655" lon="6.69637">
        <ele>2149.8000488281</ele>
        <time>2022-03-11T12:57:36.000Z</time>
      </trkpt>
      <trkpt lat="44.47656" lon="6.69638">
        <ele>2148.6000976562</ele>
        <time>2022-03-11T12:57:37.000Z</time>
      </trkpt>
      <trkpt lat="44.47657" lon="6.6964">
        <ele>2146</ele>
        <time>2022-03-11T12:57:38.000Z</time>
      </trkpt>
      <trkpt lat="44.47658" lon="6.69644">
        <ele>2144.1999511719</ele>
        <time>2022-03-11T12:57:39.000Z</time>
      </trkpt>
      <trkpt lat="44.47658" lon="6.69649">
        <ele>2143</ele>
        <time>2022-03-11T12:57:40.000Z</time>
      </trkpt>
      <trkpt lat="44.47658" lon="6.69655">
        <ele>2141.3999023438</ele>
        <time>2022-03-11T12:57:41.000Z</time>
      </trkpt>
      <trkpt lat="44.47657" lon="6.69658">
        <ele>2139.1999511719</ele>
        <time>2022-03-11T12:57:42.000Z</time>
      </trkpt>
      <trkpt lat="44.47657" lon="6.6966">
        <ele>2138</ele>
        <time>2022-03-11T12:57:43.000Z</time>
      </trkpt>
      <trkpt lat="44.47656" lon="6.69665">
        <ele>2137</ele>
        <time>2022-03-11T12:57:44.000Z</time>
      </trkpt>
      <trkpt lat="44.47655" lon="6.69669">
        <ele>2136.3999023438</ele>
        <time>2022-03-11T12:57:45.000Z</time>
      </trkpt>
      <trkpt lat="44.47655" lon="6.69673">
        <ele>2135.3999023438</ele>
        <time>2022-03-11T12:57:46.000Z</time>
      </trkpt>
      <trkpt lat="44.47657" lon="6.69677">
        <ele>2133.6000976562</ele>
        <time>2022-03-11T12:57:47.000Z</time>
      </trkpt>
      <trkpt lat="44.4766" lon="6.69681">
        <ele>2132.3999023438</ele>
        <time>2022-03-11T12:57:48.000Z</time>
      </trkpt>
      <trkpt lat="44.47663" lon="6.69683">
        <ele>2130.8000488281</ele>
        <time>2022-03-11T12:57:49.000Z</time>
      </trkpt>
      <trkpt lat="44.47667" lon="6.69684">
        <ele>2129.6000976562</ele>
        <time>2022-03-11T12:57:50.000Z</time>
      </trkpt>
      <trkpt lat="44.47669" lon="6.69684">
        <ele>2127.1999511719</ele>
        <time>2022-03-11T12:57:51.000Z</time>
      </trkpt>
      <trkpt lat="44.47673" lon="6.69683">
        <ele>2125</ele>
        <time>2022-03-11T12:57:52.000Z</time>
      </trkpt>
      <trkpt lat="44.47677" lon="6.69683">
        <ele>2123.3999023438</ele>
        <time>2022-03-11T12:57:53.000Z</time>
      </trkpt>
      <trkpt lat="44.47681" lon="6.69685">
        <ele>2122</ele>
        <time>2022-03-11T12:57:54.000Z</time>
      </trkpt>
      <trkpt lat="44.47686" lon="6.69687">
        <ele>2120.1999511719</ele>
        <time>2022-03-11T12:57:55.000Z</time>
      </trkpt>
      <trkpt lat="44.4769" lon="6.6969">
        <ele>2119.1999511719</ele>
        <time>2022-03-11T12:57:56.000Z</time>
      </trkpt>
      <trkpt lat="44.47694" lon="6.69693">
        <ele>2117.3999023438</ele>
        <time>2022-03-11T12:57:57.000Z</time>
      </trkpt>
      <trkpt lat="44.47698" lon="6.69693">
        <ele>2116</ele>
        <time>2022-03-11T12:57:58.000Z</time>
      </trkpt>
      <trkpt lat="44.47701" lon="6.69693">
        <ele>2114.1999511719</ele>
        <time>2022-03-11T12:57:59.000Z</time>
      </trkpt>
      <trkpt lat="44.47704" lon="6.69692">
        <ele>2112.1999511719</ele>
        <time>2022-03-11T12:58:00.000Z</time>
      </trkpt>
      <trkpt lat="44.47707" lon="6.69689">
        <ele>2110.8000488281</ele>
        <time>2022-03-11T12:58:01.000Z</time>
      </trkpt>
      <trkpt lat="44.47712" lon="6.69688">
        <ele>2109.6000976562</ele>
        <time>2022-03-11T12:58:02.000Z</time>
      </trkpt>
      <trkpt lat="44.4772" lon="6.69689">
        <ele>2107.6000976562</ele>
        <time>2022-03-11T12:58:04.000Z</time>
      </trkpt>
      <trkpt lat="44.47724" lon="6.69691">
        <ele>2106</ele>
        <time>2022-03-11T12:58:05.000Z</time>
      </trkpt>
      <trkpt lat="44.47726" lon="6.69694">
        <ele>2104.6000976562</ele>
        <time>2022-03-11T12:58:06.000Z</time>
      </trkpt>
      <trkpt lat="44.47727" lon="6.69697">
        <ele>2103.1999511719</ele>
        <time>2022-03-11T12:58:07.000Z</time>
      </trkpt>
      <trkpt lat="44.47729" lon="6.697">
        <ele>2102</ele>
        <time>2022-03-11T12:58:08.000Z</time>
      </trkpt>
      <trkpt lat="44.4773" lon="6.69705">
        <ele>2100.8000488281</ele>
        <time>2022-03-11T12:58:09.000Z</time>
      </trkpt>
      <trkpt lat="44.47731" lon="6.69708">
        <ele>2100</ele>
        <time>2022-03-11T12:58:10.000Z</time>
      </trkpt>
      <trkpt lat="44.47731" lon="6.69712">
        <ele>2098.6000976562</ele>
        <time>2022-03-11T12:58:11.000Z</time>
      </trkpt>
      <trkpt lat="44.47731" lon="6.69715">
        <ele>2097</ele>
        <time>2022-03-11T12:58:12.000Z</time>
      </trkpt>
      <trkpt lat="44.4773" lon="6.69715">
        <ele>2096</ele>
        <time>2022-03-11T12:58:13.000Z</time>
      </trkpt>
      <trkpt lat="44.47728" lon="6.69715">
        <ele>2095.3999023438</ele>
        <time>2022-03-11T12:58:14.000Z</time>
      </trkpt>
      <trkpt lat="44.47727" lon="6.69718">
        <ele>2095</ele>
        <time>2022-03-11T12:58:17.000Z</time>
      </trkpt>
      <trkpt lat="44.4772" lon="6.69718">
        <ele>2095</ele>
        <time>2022-03-11T12:58:33.000Z</time>
      </trkpt>
      <trkpt lat="44.47723" lon="6.69716">
        <ele>2095</ele>
        <time>2022-03-11T12:59:25.000Z</time>
      </trkpt>
      <trkpt lat="44.47723" lon="6.69721">
        <ele>2095</ele>
        <time>2022-03-11T12:59:26.000Z</time>
      </trkpt>
      <trkpt lat="44.47723" lon="6.69731">
        <ele>2093.6000976562</ele>
        <time>2022-03-11T12:59:28.000Z</time>
      </trkpt>
      <trkpt lat="44.47719" lon="6.69741">
        <ele>2092.3999023438</ele>
        <time>2022-03-11T12:59:30.000Z</time>
      </trkpt>
      <trkpt lat="44.47717" lon="6.69748">
        <ele>2091.8000488281</ele>
        <time>2022-03-11T12:59:31.000Z</time>
      </trkpt>
      <trkpt lat="44.47716" lon="6.69755">
        <ele>2090.6000976562</ele>
        <time>2022-03-11T12:59:32.000Z</time>
      </trkpt>
      <trkpt lat="44.47715" lon="6.69761">
        <ele>2089.6000976562</ele>
        <time>2022-03-11T12:59:33.000Z</time>
      </trkpt>
      <trkpt lat="44.47716" lon="6.69766">
        <ele>2088.3999023438</ele>
        <time>2022-03-11T12:59:34.000Z</time>
      </trkpt>
      <trkpt lat="44.47718" lon="6.69773">
        <ele>2087.1999511719</ele>
        <time>2022-03-11T12:59:36.000Z</time>
      </trkpt>
      <trkpt lat="44.47719" lon="6.69783">
        <ele>2085.8000488281</ele>
        <time>2022-03-11T12:59:38.000Z</time>
      </trkpt>
      <trkpt lat="44.4772" lon="6.69788">
        <ele>2085.3999023438</ele>
        <time>2022-03-11T12:59:39.000Z</time>
      </trkpt>
      <trkpt lat="44.47722" lon="6.69795">
        <ele>2084.1999511719</ele>
        <time>2022-03-11T12:59:41.000Z</time>
      </trkpt>
      <trkpt lat="44.47725" lon="6.69807">
        <ele>2082.8000488281</ele>
        <time>2022-03-11T12:59:43.000Z</time>
      </trkpt>
      <trkpt lat="44.47726" lon="6.69811">
        <ele>2081.3999023438</ele>
        <time>2022-03-11T12:59:44.000Z</time>
      </trkpt>
      <trkpt lat="44.47727" lon="6.69817">
        <ele>2080.1999511719</ele>
        <time>2022-03-11T12:59:45.000Z</time>
      </trkpt>
      <trkpt lat="44.47728" lon="6.69823">
        <ele>2079</ele>
        <time>2022-03-11T12:59:46.000Z</time>
      </trkpt>
      <trkpt lat="44.47728" lon="6.69834">
        <ele>2077.1999511719</ele>
        <time>2022-03-11T12:59:48.000Z</time>
      </trkpt>
      <trkpt lat="44.47728" lon="6.69846">
        <ele>2076.1999511719</ele>
        <time>2022-03-11T12:59:50.000Z</time>
      </trkpt>
      <trkpt lat="44.47729" lon="6.69851">
        <ele>2075.1999511719</ele>
        <time>2022-03-11T12:59:51.000Z</time>
      </trkpt>
      <trkpt lat="44.47729" lon="6.69857">
        <ele>2074.6000976562</ele>
        <time>2022-03-11T12:59:52.000Z</time>
      </trkpt>
      <trkpt lat="44.47728" lon="6.69868">
        <ele>2073.1999511719</ele>
        <time>2022-03-11T12:59:54.000Z</time>
      </trkpt>
      <trkpt lat="44.47726" lon="6.69881">
        <ele>2072.1999511719</ele>
        <time>2022-03-11T12:59:56.000Z</time>
      </trkpt>
      <trkpt lat="44.47725" lon="6.69888">
        <ele>2071.1999511719</ele>
        <time>2022-03-11T12:59:57.000Z</time>
      </trkpt>
      <trkpt lat="44.47725" lon="6.69897">
        <ele>2070</ele>
        <time>2022-03-11T12:59:59.000Z</time>
      </trkpt>
      <trkpt lat="44.47724" lon="6.69901">
        <ele>2069.1999511719</ele>
        <time>2022-03-11T13:00:00.000Z</time>
      </trkpt>
      <trkpt lat="44.47723" lon="6.69901">
        <ele>2069</ele>
        <time>2022-03-11T13:00:01.000Z</time>
      </trkpt>
      <trkpt lat="44.47721" lon="6.69897">
        <ele>2068.6000976562</ele>
        <time>2022-03-11T13:00:06.000Z</time>
      </trkpt>
      <trkpt lat="44.4772" lon="6.69897">
        <ele>2068.8000488281</ele>
        <time>2022-03-11T13:00:12.000Z</time>
      </trkpt>
      <trkpt lat="44.4772" lon="6.69899">
        <ele>2068.8000488281</ele>
        <time>2022-03-11T13:00:18.000Z</time>
      </trkpt>
      <trkpt lat="44.4772" lon="6.69899">
        <ele>2068.8000488281</ele>
        <time>2022-03-11T13:00:20.000Z</time>
      </trkpt>
      <trkpt lat="44.4772" lon="6.69901">
        <ele>2068.6000976562</ele>
        <time>2022-03-11T13:00:33.000Z</time>
      </trkpt>
      <trkpt lat="44.4772" lon="6.69902">
        <ele>2068</ele>
        <time>2022-03-11T13:00:49.000Z</time>
      </trkpt>
      <trkpt lat="44.47723" lon="6.69905">
        <ele>2066.3999023438</ele>
        <time>2022-03-11T13:00:50.000Z</time>
      </trkpt>
      <trkpt lat="44.47729" lon="6.69904">
        <ele>2065</ele>
        <time>2022-03-11T13:00:51.000Z</time>
      </trkpt>
      <trkpt lat="44.47733" lon="6.69904">
        <ele>2063.1999511719</ele>
        <time>2022-03-11T13:00:52.000Z</time>
      </trkpt>
      <trkpt lat="44.47736" lon="6.69904">
        <ele>2061.8000488281</ele>
        <time>2022-03-11T13:00:53.000Z</time>
      </trkpt>
      <trkpt lat="44.47739" lon="6.69907">
        <ele>2060.6000976562</ele>
        <time>2022-03-11T13:00:54.000Z</time>
      </trkpt>
      <trkpt lat="44.47742" lon="6.6991">
        <ele>2059.1999511719</ele>
        <time>2022-03-11T13:00:55.000Z</time>
      </trkpt>
      <trkpt lat="44.47744" lon="6.69913">
        <ele>2057</ele>
        <time>2022-03-11T13:00:56.000Z</time>
      </trkpt>
      <trkpt lat="44.47748" lon="6.69916">
        <ele>2055.6000976562</ele>
        <time>2022-03-11T13:00:57.000Z</time>
      </trkpt>
      <trkpt lat="44.47752" lon="6.69917">
        <ele>2053.3999023438</ele>
        <time>2022-03-11T13:00:58.000Z</time>
      </trkpt>
      <trkpt lat="44.47755" lon="6.69918">
        <ele>2051</ele>
        <time>2022-03-11T13:00:59.000Z</time>
      </trkpt>
      <trkpt lat="44.47759" lon="6.69921">
        <ele>2049.1999511719</ele>
        <time>2022-03-11T13:01:00.000Z</time>
      </trkpt>
      <trkpt lat="44.47761" lon="6.69923">
        <ele>2046.4000244141</ele>
        <time>2022-03-11T13:01:01.000Z</time>
      </trkpt>
      <trkpt lat="44.47765" lon="6.69925">
        <ele>2044.8000488281</ele>
        <time>2022-03-11T13:01:02.000Z</time>
      </trkpt>
      <trkpt lat="44.47769" lon="6.69927">
        <ele>2042.8000488281</ele>
        <time>2022-03-11T13:01:03.000Z</time>
      </trkpt>
      <trkpt lat="44.47773" lon="6.69929">
        <ele>2041.4000244141</ele>
        <time>2022-03-11T13:01:04.000Z</time>
      </trkpt>
      <trkpt lat="44.47777" lon="6.69931">
        <ele>2040</ele>
        <time>2022-03-11T13:01:05.000Z</time>
      </trkpt>
      <trkpt lat="44.47782" lon="6.69933">
        <ele>2038.1999511719</ele>
        <time>2022-03-11T13:01:06.000Z</time>
      </trkpt>
      <trkpt lat="44.47786" lon="6.69933">
        <ele>2036.4000244141</ele>
        <time>2022-03-11T13:01:07.000Z</time>
      </trkpt>
      <trkpt lat="44.4779" lon="6.69933">
        <ele>2034.4000244141</ele>
        <time>2022-03-11T13:01:08.000Z</time>
      </trkpt>
      <trkpt lat="44.47794" lon="6.69933">
        <ele>2032.8000488281</ele>
        <time>2022-03-11T13:01:09.000Z</time>
      </trkpt>
      <trkpt lat="44.47799" lon="6.69931">
        <ele>2031.4000244141</ele>
        <time>2022-03-11T13:01:10.000Z</time>
      </trkpt>
      <trkpt lat="44.47805" lon="6.69932">
        <ele>2029.5999755859</ele>
        <time>2022-03-11T13:01:11.000Z</time>
      </trkpt>
      <trkpt lat="44.4781" lon="6.69934">
        <ele>2028</ele>
        <time>2022-03-11T13:01:12.000Z</time>
      </trkpt>
      <trkpt lat="44.47816" lon="6.69938">
        <ele>2026.4000244141</ele>
        <time>2022-03-11T13:01:13.000Z</time>
      </trkpt>
      <trkpt lat="44.47819" lon="6.69941">
        <ele>2024.1999511719</ele>
        <time>2022-03-11T13:01:14.000Z</time>
      </trkpt>
      <trkpt lat="44.47823" lon="6.69944">
        <ele>2021.5999755859</ele>
        <time>2022-03-11T13:01:15.000Z</time>
      </trkpt>
      <trkpt lat="44.47826" lon="6.69947">
        <ele>2020.1999511719</ele>
        <time>2022-03-11T13:01:16.000Z</time>
      </trkpt>
      <trkpt lat="44.47829" lon="6.69952">
        <ele>2017.5999755859</ele>
        <time>2022-03-11T13:01:17.000Z</time>
      </trkpt>
      <trkpt lat="44.47833" lon="6.69957">
        <ele>2015.8000488281</ele>
        <time>2022-03-11T13:01:18.000Z</time>
      </trkpt>
      <trkpt lat="44.47837" lon="6.69967">
        <ele>2013.8000488281</ele>
        <time>2022-03-11T13:01:19.000Z</time>
      </trkpt>
      <trkpt lat="44.47841" lon="6.69977">
        <ele>2012.1999511719</ele>
        <time>2022-03-11T13:01:20.000Z</time>
      </trkpt>
      <trkpt lat="44.47844" lon="6.69984">
        <ele>2010.1999511719</ele>
        <time>2022-03-11T13:01:21.000Z</time>
      </trkpt>
      <trkpt lat="44.47847" lon="6.69992">
        <ele>2009.1999511719</ele>
        <time>2022-03-11T13:01:22.000Z</time>
      </trkpt>
      <trkpt lat="44.4785" lon="6.69999">
        <ele>2005.8000488281</ele>
        <time>2022-03-11T13:01:23.000Z</time>
      </trkpt>
      <trkpt lat="44.47854" lon="6.70006">
        <ele>2003.8000488281</ele>
        <time>2022-03-11T13:01:24.000Z</time>
      </trkpt>
      <trkpt lat="44.47856" lon="6.70014">
        <ele>2002</ele>
        <time>2022-03-11T13:01:25.000Z</time>
      </trkpt>
      <trkpt lat="44.47858" lon="6.70021">
        <ele>2001</ele>
        <time>2022-03-11T13:01:26.000Z</time>
      </trkpt>
      <trkpt lat="44.47858" lon="6.70028">
        <ele>2000.1999511719</ele>
        <time>2022-03-11T13:01:27.000Z</time>
      </trkpt>
      <trkpt lat="44.47857" lon="6.70036">
        <ele>1998.8000488281</ele>
        <time>2022-03-11T13:01:28.000Z</time>
      </trkpt>
      <trkpt lat="44.47856" lon="6.70053">
        <ele>1996.8000488281</ele>
        <time>2022-03-11T13:01:30.000Z</time>
      </trkpt>
      <trkpt lat="44.47855" lon="6.7006">
        <ele>1995.5999755859</ele>
        <time>2022-03-11T13:01:31.000Z</time>
      </trkpt>
      <trkpt lat="44.47852" lon="6.70065">
        <ele>1993.8000488281</ele>
        <time>2022-03-11T13:01:32.000Z</time>
      </trkpt>
      <trkpt lat="44.4785" lon="6.70071">
        <ele>1992</ele>
        <time>2022-03-11T13:01:33.000Z</time>
      </trkpt>
      <trkpt lat="44.47842" lon="6.70079">
        <ele>1990.4000244141</ele>
        <time>2022-03-11T13:01:35.000Z</time>
      </trkpt>
      <trkpt lat="44.47837" lon="6.7008">
        <ele>1990.1999511719</ele>
        <time>2022-03-11T13:01:36.000Z</time>
      </trkpt>
      <trkpt lat="44.47834" lon="6.70083">
        <ele>1990</ele>
        <time>2022-03-11T13:01:37.000Z</time>
      </trkpt>
      <trkpt lat="44.47828" lon="6.70085">
        <ele>1990</ele>
        <time>2022-03-11T13:01:41.000Z</time>
      </trkpt>
      <trkpt lat="44.47836" lon="6.70079">
        <ele>1989.8000488281</ele>
        <time>2022-03-11T13:01:49.000Z</time>
      </trkpt>
      <trkpt lat="44.47844" lon="6.70078">
        <ele>1989.8000488281</ele>
        <time>2022-03-11T13:01:55.000Z</time>
      </trkpt>
      <trkpt lat="44.47844" lon="6.7008">
        <ele>1989.5999755859</ele>
        <time>2022-03-11T13:01:56.000Z</time>
      </trkpt>
      <trkpt lat="44.47844" lon="6.70082">
        <ele>1988.8000488281</ele>
        <time>2022-03-11T13:01:57.000Z</time>
      </trkpt>
      <trkpt lat="44.47845" lon="6.70092">
        <ele>1987</ele>
        <time>2022-03-11T13:02:00.000Z</time>
      </trkpt>
      <trkpt lat="44.47846" lon="6.70094">
        <ele>1985.8000488281</ele>
        <time>2022-03-11T13:02:01.000Z</time>
      </trkpt>
      <trkpt lat="44.47848" lon="6.70097">
        <ele>1985.1999511719</ele>
        <time>2022-03-11T13:02:02.000Z</time>
      </trkpt>
      <trkpt lat="44.47849" lon="6.701">
        <ele>1984.1999511719</ele>
        <time>2022-03-11T13:02:03.000Z</time>
      </trkpt>
      <trkpt lat="44.47852" lon="6.70102">
        <ele>1982.5999755859</ele>
        <time>2022-03-11T13:02:04.000Z</time>
      </trkpt>
      <trkpt lat="44.47853" lon="6.70102">
        <ele>1981</ele>
        <time>2022-03-11T13:02:05.000Z</time>
      </trkpt>
      <trkpt lat="44.47856" lon="6.70107">
        <ele>1979.5999755859</ele>
        <time>2022-03-11T13:02:07.000Z</time>
      </trkpt>
      <trkpt lat="44.47857" lon="6.70112">
        <ele>1978.5999755859</ele>
        <time>2022-03-11T13:02:08.000Z</time>
      </trkpt>
      <trkpt lat="44.47856" lon="6.70119">
        <ele>1976.8000488281</ele>
        <time>2022-03-11T13:02:09.000Z</time>
      </trkpt>
      <trkpt lat="44.47855" lon="6.70123">
        <ele>1975.4000244141</ele>
        <time>2022-03-11T13:02:10.000Z</time>
      </trkpt>
      <trkpt lat="44.47854" lon="6.70128">
        <ele>1974</ele>
        <time>2022-03-11T13:02:11.000Z</time>
      </trkpt>
      <trkpt lat="44.47853" lon="6.70134">
        <ele>1973.1999511719</ele>
        <time>2022-03-11T13:02:12.000Z</time>
      </trkpt>
      <trkpt lat="44.47851" lon="6.7014">
        <ele>1972</ele>
        <time>2022-03-11T13:02:13.000Z</time>
      </trkpt>
      <trkpt lat="44.47848" lon="6.70147">
        <ele>1971</ele>
        <time>2022-03-11T13:02:14.000Z</time>
      </trkpt>
      <trkpt lat="44.47845" lon="6.70158">
        <ele>1969.8000488281</ele>
        <time>2022-03-11T13:02:16.000Z</time>
      </trkpt>
      <trkpt lat="44.47838" lon="6.7016">
        <ele>1969.1999511719</ele>
        <time>2022-03-11T13:02:20.000Z</time>
      </trkpt>
      <trkpt lat="44.47837" lon="6.70162">
        <ele>1969.1999511719</ele>
        <time>2022-03-11T13:02:26.000Z</time>
      </trkpt>
      <trkpt lat="44.47836" lon="6.70158">
        <ele>1969</ele>
        <time>2022-03-11T13:02:33.000Z</time>
      </trkpt>
      <trkpt lat="44.47834" lon="6.70159">
        <ele>1969</ele>
        <time>2022-03-11T13:02:41.000Z</time>
      </trkpt>
      <trkpt lat="44.47834" lon="6.70157">
        <ele>1969.1999511719</ele>
        <time>2022-03-11T13:02:48.000Z</time>
      </trkpt>
      <trkpt lat="44.47844" lon="6.70146">
        <ele>1969.4000244141</ele>
        <time>2022-03-11T13:04:46.000Z</time>
      </trkpt>
      <trkpt lat="44.47839" lon="6.70145">
        <ele>1969.5999755859</ele>
        <time>2022-03-11T13:04:53.000Z</time>
      </trkpt>
      <trkpt lat="44.47838" lon="6.70147">
        <ele>1969.8000488281</ele>
        <time>2022-03-11T13:04:58.000Z</time>
      </trkpt>
      <trkpt lat="44.47839" lon="6.70149">
        <ele>1969.8000488281</ele>
        <time>2022-03-11T13:05:04.000Z</time>
      </trkpt>
      <trkpt lat="44.47841" lon="6.70156">
        <ele>1969.5999755859</ele>
        <time>2022-03-11T13:05:11.000Z</time>
      </trkpt>
      <trkpt lat="44.47841" lon="6.70154">
        <ele>1969.4000244141</ele>
        <time>2022-03-11T13:05:16.000Z</time>
      </trkpt>
      <trkpt lat="44.47843" lon="6.70152">
        <ele>1969.1999511719</ele>
        <time>2022-03-11T13:05:26.000Z</time>
      </trkpt>
      <trkpt lat="44.47842" lon="6.70153">
        <ele>1969.1999511719</ele>
        <time>2022-03-11T13:05:50.000Z</time>
      </trkpt>
      <trkpt lat="44.4784" lon="6.70154">
        <ele>1969</ele>
        <time>2022-03-11T13:06:02.000Z</time>
      </trkpt>
      <trkpt lat="44.47839" lon="6.70151">
        <ele>1968.8000488281</ele>
        <time>2022-03-11T13:06:09.000Z</time>
      </trkpt>
      <trkpt lat="44.47839" lon="6.70151">
        <ele>1969</ele>
        <time>2022-03-11T13:06:10.000Z</time>
      </trkpt>
      <trkpt lat="44.47837" lon="6.70152">
        <ele>1969</ele>
        <time>2022-03-11T13:06:14.000Z</time>
      </trkpt>
      <trkpt lat="44.47836" lon="6.70152">
        <ele>1969.1999511719</ele>
        <time>2022-03-11T13:06:15.000Z</time>
      </trkpt>
      <trkpt lat="44.47836" lon="6.70153">
        <ele>1969.1999511719</ele>
        <time>2022-03-11T13:06:19.000Z</time>
      </trkpt>
      <trkpt lat="44.47838" lon="6.70152">
        <ele>1969</ele>
        <time>2022-03-11T13:06:29.000Z</time>
      </trkpt>
      <trkpt lat="44.47839" lon="6.70151">
        <ele>1969</ele>
        <time>2022-03-11T13:06:34.000Z</time>
      </trkpt>
      <trkpt lat="44.47841" lon="6.70152">
        <ele>1969.1999511719</ele>
        <time>2022-03-11T13:06:39.000Z</time>
      </trkpt>
      <trkpt lat="44.4784" lon="6.70153">
        <ele>1968.8000488281</ele>
        <time>2022-03-11T13:06:44.000Z</time>
      </trkpt>
      <trkpt lat="44.4784" lon="6.70153">
        <ele>1968.8000488281</ele>
        <time>2022-03-11T13:06:46.000Z</time>
      </trkpt>
      <trkpt lat="44.47841" lon="6.70153">
        <ele>1969</ele>
        <time>2022-03-11T13:06:52.000Z</time>
      </trkpt>
      <trkpt lat="44.47843" lon="6.70152">
        <ele>1969</ele>
        <time>2022-03-11T13:06:55.000Z</time>
      </trkpt>
      <trkpt lat="44.47845" lon="6.70151">
        <ele>1968.8000488281</ele>
        <time>2022-03-11T13:07:05.000Z</time>
      </trkpt>
      <trkpt lat="44.47847" lon="6.7015">
        <ele>1969.1999511719</ele>
        <time>2022-03-11T13:07:13.000Z</time>
      </trkpt>
      <trkpt lat="44.47844" lon="6.70153">
        <ele>1969</ele>
        <time>2022-03-11T13:07:23.000Z</time>
      </trkpt>
      <trkpt lat="44.47843" lon="6.7015">
        <ele>1969</ele>
        <time>2022-03-11T13:07:29.000Z</time>
      </trkpt>
      <trkpt lat="44.47845" lon="6.7015">
        <ele>1969</ele>
        <time>2022-03-11T13:07:36.000Z</time>
      </trkpt>
      <trkpt lat="44.47842" lon="6.70148">
        <ele>1969.1999511719</ele>
        <time>2022-03-11T13:07:41.000Z</time>
      </trkpt>
      <trkpt lat="44.47842" lon="6.70146">
        <ele>1969.4000244141</ele>
        <time>2022-03-11T13:07:46.000Z</time>
      </trkpt>
      <trkpt lat="44.47842" lon="6.70146">
        <ele>1969.4000244141</ele>
        <time>2022-03-11T13:07:58.000Z</time>
      </trkpt>
      <trkpt lat="44.47839" lon="6.70148">
        <ele>1969.4000244141</ele>
        <time>2022-03-11T13:08:06.000Z</time>
      </trkpt>
      <trkpt lat="44.47838" lon="6.7015">
        <ele>1969.5999755859</ele>
        <time>2022-03-11T13:08:12.000Z</time>
      </trkpt>
      <trkpt lat="44.4784" lon="6.70149">
        <ele>1969.5999755859</ele>
        <time>2022-03-11T13:08:21.000Z</time>
      </trkpt>
      <trkpt lat="44.47838" lon="6.7015">
        <ele>1969.4000244141</ele>
        <time>2022-03-11T13:08:28.000Z</time>
      </trkpt>
      <trkpt lat="44.47834" lon="6.7015">
        <ele>1969.1999511719</ele>
        <time>2022-03-11T13:08:38.000Z</time>
      </trkpt>
      <trkpt lat="44.4783" lon="6.7015">
        <ele>1968.8000488281</ele>
        <time>2022-03-11T13:08:47.000Z</time>
      </trkpt>
      <trkpt lat="44.47838" lon="6.70145">
        <ele>1969.1999511719</ele>
        <time>2022-03-11T13:09:59.000Z</time>
      </trkpt>
      <trkpt lat="44.47834" lon="6.70145">
        <ele>1969.1999511719</ele>
        <time>2022-03-11T13:10:01.000Z</time>
      </trkpt>
      <trkpt lat="44.47832" lon="6.70145">
        <ele>1969.1999511719</ele>
        <time>2022-03-11T13:10:06.000Z</time>
      </trkpt>
      <trkpt lat="44.47833" lon="6.70145">
        <ele>1969.5999755859</ele>
        <time>2022-03-11T13:10:11.000Z</time>
      </trkpt>
      <trkpt lat="44.47834" lon="6.70146">
        <ele>1969.4000244141</ele>
        <time>2022-03-11T13:10:17.000Z</time>
      </trkpt>
      <trkpt lat="44.47834" lon="6.70146">
        <ele>1969.8000488281</ele>
        <time>2022-03-11T13:10:29.000Z</time>
      </trkpt>
      <trkpt lat="44.47832" lon="6.70147">
        <ele>1969.5999755859</ele>
        <time>2022-03-11T13:10:31.000Z</time>
      </trkpt>
      <trkpt lat="44.47831" lon="6.70148">
        <ele>1969.4000244141</ele>
        <time>2022-03-11T13:10:37.000Z</time>
      </trkpt>
      <trkpt lat="44.47832" lon="6.70148">
        <ele>1969.8000488281</ele>
        <time>2022-03-11T13:10:51.000Z</time>
      </trkpt>
      <trkpt lat="44.47832" lon="6.70148">
        <ele>1969.8000488281</ele>
        <time>2022-03-11T13:10:52.000Z</time>
      </trkpt>
      <trkpt lat="44.47832" lon="6.70149">
        <ele>1969.8000488281</ele>
        <time>2022-03-11T13:10:58.000Z</time>
      </trkpt>
      <trkpt lat="44.47837" lon="6.7015">
        <ele>1969.5999755859</ele>
        <time>2022-03-11T13:11:54.000Z</time>
      </trkpt>
      <trkpt lat="44.47835" lon="6.70149">
        <ele>1969.5999755859</ele>
        <time>2022-03-11T13:12:04.000Z</time>
      </trkpt>
      <trkpt lat="44.47833" lon="6.70148">
        <ele>1969.5999755859</ele>
        <time>2022-03-11T13:12:32.000Z</time>
      </trkpt>
      <trkpt lat="44.47843" lon="6.70144">
        <ele>1969</ele>
        <time>2022-03-11T13:13:22.000Z</time>
      </trkpt>
      <trkpt lat="44.47843" lon="6.70141">
        <ele>1969.1999511719</ele>
        <time>2022-03-11T13:13:24.000Z</time>
      </trkpt>
      <trkpt lat="44.47843" lon="6.70133">
        <ele>1970</ele>
        <time>2022-03-11T13:13:30.000Z</time>
      </trkpt>
      <trkpt lat="44.47844" lon="6.70129">
        <ele>1970.1999511719</ele>
        <time>2022-03-11T13:13:35.000Z</time>
      </trkpt>
      <trkpt lat="44.47843" lon="6.70128">
        <ele>1970.5999755859</ele>
        <time>2022-03-11T13:13:37.000Z</time>
      </trkpt>
      <trkpt lat="44.47843" lon="6.70127">
        <ele>1970.5999755859</ele>
        <time>2022-03-11T13:13:38.000Z</time>
      </trkpt>
      <trkpt lat="44.47842" lon="6.70126">
        <ele>1970.8000488281</ele>
        <time>2022-03-11T13:13:39.000Z</time>
      </trkpt>
      <trkpt lat="44.47841" lon="6.70125">
        <ele>1971</ele>
        <time>2022-03-11T13:13:40.000Z</time>
      </trkpt>
      <trkpt lat="44.47839" lon="6.70125">
        <ele>1971.4000244141</ele>
        <time>2022-03-11T13:13:43.000Z</time>
      </trkpt>
      <trkpt lat="44.47841" lon="6.70124">
        <ele>1972</ele>
        <time>2022-03-11T13:13:47.000Z</time>
      </trkpt>
      <trkpt lat="44.47841" lon="6.7012">
        <ele>1972.5999755859</ele>
        <time>2022-03-11T13:13:53.000Z</time>
      </trkpt>
      <trkpt lat="44.4784" lon="6.70121">
        <ele>1972.8000488281</ele>
        <time>2022-03-11T13:14:00.000Z</time>
      </trkpt>
      <trkpt lat="44.4784" lon="6.70121">
        <ele>1973</ele>
        <time>2022-03-11T13:14:02.000Z</time>
      </trkpt>
      <trkpt lat="44.47841" lon="6.7012">
        <ele>1973.4000244141</ele>
        <time>2022-03-11T13:14:06.000Z</time>
      </trkpt>
      <trkpt lat="44.47843" lon="6.70118">
        <ele>1973.8000488281</ele>
        <time>2022-03-11T13:14:09.000Z</time>
      </trkpt>
      <trkpt lat="44.47844" lon="6.70117">
        <ele>1974.1999511719</ele>
        <time>2022-03-11T13:14:11.000Z</time>
      </trkpt>
      <trkpt lat="44.47845" lon="6.70115">
        <ele>1974.8000488281</ele>
        <time>2022-03-11T13:14:15.000Z</time>
      </trkpt>
      <trkpt lat="44.47845" lon="6.70114">
        <ele>1975.1999511719</ele>
        <time>2022-03-11T13:14:18.000Z</time>
      </trkpt>
      <trkpt lat="44.47844" lon="6.70115">
        <ele>1975.5999755859</ele>
        <time>2022-03-11T13:14:21.000Z</time>
      </trkpt>
      <trkpt lat="44.47842" lon="6.70116">
        <ele>1976.1999511719</ele>
        <time>2022-03-11T13:14:25.000Z</time>
      </trkpt>
      <trkpt lat="44.47841" lon="6.70116">
        <ele>1976.4000244141</ele>
        <time>2022-03-11T13:14:26.000Z</time>
      </trkpt>
      <trkpt lat="44.47839" lon="6.70116">
        <ele>1976.8000488281</ele>
        <time>2022-03-11T13:14:28.000Z</time>
      </trkpt>
      <trkpt lat="44.47836" lon="6.70116">
        <ele>1977.1999511719</ele>
        <time>2022-03-11T13:14:31.000Z</time>
      </trkpt>
      <trkpt lat="44.47836" lon="6.70115">
        <ele>1977.5999755859</ele>
        <time>2022-03-11T13:14:32.000Z</time>
      </trkpt>
      <trkpt lat="44.47836" lon="6.70112">
        <ele>1978</ele>
        <time>2022-03-11T13:14:34.000Z</time>
      </trkpt>
      <trkpt lat="44.47835" lon="6.70108">
        <ele>1978.5999755859</ele>
        <time>2022-03-11T13:14:38.000Z</time>
      </trkpt>
      <trkpt lat="44.47835" lon="6.70108">
        <ele>1978.8000488281</ele>
        <time>2022-03-11T13:14:39.000Z</time>
      </trkpt>
      <trkpt lat="44.47834" lon="6.70105">
        <ele>1979.8000488281</ele>
        <time>2022-03-11T13:14:43.000Z</time>
      </trkpt>
      <trkpt lat="44.47834" lon="6.70103">
        <ele>1980.1999511719</ele>
        <time>2022-03-11T13:14:45.000Z</time>
      </trkpt>
      <trkpt lat="44.47835" lon="6.70099">
        <ele>1981</ele>
        <time>2022-03-11T13:14:49.000Z</time>
      </trkpt>
      <trkpt lat="44.47836" lon="6.70099">
        <ele>1981.5999755859</ele>
        <time>2022-03-11T13:14:52.000Z</time>
      </trkpt>
      <trkpt lat="44.47836" lon="6.70099">
        <ele>1982.1999511719</ele>
        <time>2022-03-11T13:14:56.000Z</time>
      </trkpt>
      <trkpt lat="44.47836" lon="6.70099">
        <ele>1982.4000244141</ele>
        <time>2022-03-11T13:14:59.000Z</time>
      </trkpt>
      <trkpt lat="44.47833" lon="6.70099">
        <ele>1983.1999511719</ele>
        <time>2022-03-11T13:15:05.000Z</time>
      </trkpt>
      <trkpt lat="44.47834" lon="6.70099">
        <ele>1983.4000244141</ele>
        <time>2022-03-11T13:15:06.000Z</time>
      </trkpt>
      <trkpt lat="44.47833" lon="6.701">
        <ele>1984</ele>
        <time>2022-03-11T13:15:11.000Z</time>
      </trkpt>
      <trkpt lat="44.47833" lon="6.701">
        <ele>1984.4000244141</ele>
        <time>2022-03-11T13:15:14.000Z</time>
      </trkpt>
      <trkpt lat="44.47829" lon="6.701">
        <ele>1984.8000488281</ele>
        <time>2022-03-11T13:15:16.000Z</time>
      </trkpt>
      <trkpt lat="44.47827" lon="6.701">
        <ele>1985</ele>
        <time>2022-03-11T13:15:17.000Z</time>
      </trkpt>
      <trkpt lat="44.47824" lon="6.70099">
        <ele>1985.4000244141</ele>
        <time>2022-03-11T13:15:20.000Z</time>
      </trkpt>
      <trkpt lat="44.47825" lon="6.70097">
        <ele>1986</ele>
        <time>2022-03-11T13:15:23.000Z</time>
      </trkpt>
      <trkpt lat="44.47825" lon="6.70096">
        <ele>1986</ele>
        <time>2022-03-11T13:15:24.000Z</time>
      </trkpt>
      <trkpt lat="44.47825" lon="6.70092">
        <ele>1986.5999755859</ele>
        <time>2022-03-11T13:15:27.000Z</time>
      </trkpt>
      <trkpt lat="44.47825" lon="6.70092">
        <ele>1986.8000488281</ele>
        <time>2022-03-11T13:15:28.000Z</time>
      </trkpt>
      <trkpt lat="44.47824" lon="6.70088">
        <ele>1987.5999755859</ele>
        <time>2022-03-11T13:15:32.000Z</time>
      </trkpt>
      <trkpt lat="44.47823" lon="6.70087">
        <ele>1988</ele>
        <time>2022-03-11T13:15:35.000Z</time>
      </trkpt>
      <trkpt lat="44.47821" lon="6.70085">
        <ele>1988.1999511719</ele>
        <time>2022-03-11T13:15:37.000Z</time>
      </trkpt>
      <trkpt lat="44.47818" lon="6.70083">
        <ele>1988.5999755859</ele>
        <time>2022-03-11T13:15:40.000Z</time>
      </trkpt>
      <trkpt lat="44.47818" lon="6.70082">
        <ele>1989</ele>
        <time>2022-03-11T13:15:42.000Z</time>
      </trkpt>
      <trkpt lat="44.47821" lon="6.70079">
        <ele>1989.4000244141</ele>
        <time>2022-03-11T13:15:47.000Z</time>
      </trkpt>
      <trkpt lat="44.47822" lon="6.7008">
        <ele>1989.8000488281</ele>
        <time>2022-03-11T13:15:48.000Z</time>
      </trkpt>
      <trkpt lat="44.4782" lon="6.70078">
        <ele>1990.4000244141</ele>
        <time>2022-03-11T13:15:52.000Z</time>
      </trkpt>
      <trkpt lat="44.47816" lon="6.70077">
        <ele>1991</ele>
        <time>2022-03-11T13:15:55.000Z</time>
      </trkpt>
      <trkpt lat="44.47816" lon="6.70077">
        <ele>1991</ele>
        <time>2022-03-11T13:15:56.000Z</time>
      </trkpt>
      <trkpt lat="44.47815" lon="6.70076">
        <ele>1991.4000244141</ele>
        <time>2022-03-11T13:15:58.000Z</time>
      </trkpt>
      <trkpt lat="44.47816" lon="6.70074">
        <ele>1991.5999755859</ele>
        <time>2022-03-11T13:16:00.000Z</time>
      </trkpt>
      <trkpt lat="44.47816" lon="6.70072">
        <ele>1991.8000488281</ele>
        <time>2022-03-11T13:16:02.000Z</time>
      </trkpt>
      <trkpt lat="44.47817" lon="6.70071">
        <ele>1992</ele>
        <time>2022-03-11T13:16:03.000Z</time>
      </trkpt>
      <trkpt lat="44.47818" lon="6.7007">
        <ele>1992</ele>
        <time>2022-03-11T13:16:04.000Z</time>
      </trkpt>
      <trkpt lat="44.47819" lon="6.70069">
        <ele>1992.1999511719</ele>
        <time>2022-03-11T13:16:05.000Z</time>
      </trkpt>
      <trkpt lat="44.47818" lon="6.70066">
        <ele>1992.8000488281</ele>
        <time>2022-03-11T13:16:11.000Z</time>
      </trkpt>
      <trkpt lat="44.47818" lon="6.70066">
        <ele>1993.1999511719</ele>
        <time>2022-03-11T13:16:13.000Z</time>
      </trkpt>
      <trkpt lat="44.47817" lon="6.70065">
        <ele>1993.5999755859</ele>
        <time>2022-03-11T13:16:17.000Z</time>
      </trkpt>
      <trkpt lat="44.47817" lon="6.70064">
        <ele>1994</ele>
        <time>2022-03-11T13:16:22.000Z</time>
      </trkpt>
      <trkpt lat="44.47818" lon="6.70062">
        <ele>1994.4000244141</ele>
        <time>2022-03-11T13:16:25.000Z</time>
      </trkpt>
      <trkpt lat="44.47823" lon="6.7006">
        <ele>1995</ele>
        <time>2022-03-11T13:16:30.000Z</time>
      </trkpt>
      <trkpt lat="44.47823" lon="6.7006">
        <ele>1995.4000244141</ele>
        <time>2022-03-11T13:16:35.000Z</time>
      </trkpt>
      <trkpt lat="44.47822" lon="6.7006">
        <ele>1995.8000488281</ele>
        <time>2022-03-11T13:16:36.000Z</time>
      </trkpt>
      <trkpt lat="44.47821" lon="6.70059">
        <ele>1996.5999755859</ele>
        <time>2022-03-11T13:16:41.000Z</time>
      </trkpt>
      <trkpt lat="44.47821" lon="6.70058">
        <ele>1996.8000488281</ele>
        <time>2022-03-11T13:16:42.000Z</time>
      </trkpt>
      <trkpt lat="44.47824" lon="6.70057">
        <ele>1997</ele>
        <time>2022-03-11T13:16:44.000Z</time>
      </trkpt>
      <trkpt lat="44.47827" lon="6.70057">
        <ele>1997.1999511719</ele>
        <time>2022-03-11T13:16:47.000Z</time>
      </trkpt>
      <trkpt lat="44.47826" lon="6.70054">
        <ele>1997.4000244141</ele>
        <time>2022-03-11T13:16:52.000Z</time>
      </trkpt>
      <trkpt lat="44.47823" lon="6.70052">
        <ele>1997.1999511719</ele>
        <time>2022-03-11T13:16:58.000Z</time>
      </trkpt>
      <trkpt lat="44.47821" lon="6.70052">
        <ele>1997.4000244141</ele>
        <time>2022-03-11T13:16:59.000Z</time>
      </trkpt>
      <trkpt lat="44.47814" lon="6.70054">
        <ele>1997.4000244141</ele>
        <time>2022-03-11T13:17:03.000Z</time>
      </trkpt>
      <trkpt lat="44.47812" lon="6.70054">
        <ele>1997.1999511719</ele>
        <time>2022-03-11T13:17:08.000Z</time>
      </trkpt>
      <trkpt lat="44.47818" lon="6.70052">
        <ele>1997</ele>
        <time>2022-03-11T13:17:14.000Z</time>
      </trkpt>
      <trkpt lat="44.47816" lon="6.70052">
        <ele>1996.8000488281</ele>
        <time>2022-03-11T13:17:20.000Z</time>
      </trkpt>
      <trkpt lat="44.47814" lon="6.70051">
        <ele>1997</ele>
        <time>2022-03-11T13:17:21.000Z</time>
      </trkpt>
      <trkpt lat="44.47813" lon="6.70051">
        <ele>1997.1999511719</ele>
        <time>2022-03-11T13:17:26.000Z</time>
      </trkpt>
      <trkpt lat="44.47809" lon="6.70049">
        <ele>1997.4000244141</ele>
        <time>2022-03-11T13:17:31.000Z</time>
      </trkpt>
      <trkpt lat="44.47807" lon="6.70049">
        <ele>1997.4000244141</ele>
        <time>2022-03-11T13:17:34.000Z</time>
      </trkpt>
      <trkpt lat="44.47808" lon="6.70048">
        <ele>1997.4000244141</ele>
        <time>2022-03-11T13:17:35.000Z</time>
      </trkpt>
      <trkpt lat="44.47808" lon="6.70048">
        <ele>1997.4000244141</ele>
        <time>2022-03-11T13:17:36.000Z</time>
      </trkpt>
      <trkpt lat="44.47806" lon="6.70047">
        <ele>1997.1999511719</ele>
        <time>2022-03-11T13:17:39.000Z</time>
      </trkpt>
      <trkpt lat="44.47804" lon="6.70045">
        <ele>1997.4000244141</ele>
        <time>2022-03-11T13:17:44.000Z</time>
      </trkpt>
      <trkpt lat="44.47804" lon="6.70045">
        <ele>1997.4000244141</ele>
        <time>2022-03-11T13:17:45.000Z</time>
      </trkpt>
      <trkpt lat="44.47805" lon="6.70044">
        <ele>1997.5999755859</ele>
        <time>2022-03-11T13:17:46.000Z</time>
      </trkpt>
      <trkpt lat="44.47809" lon="6.70042">
        <ele>1998.1999511719</ele>
        <time>2022-03-11T13:17:50.000Z</time>
      </trkpt>
      <trkpt lat="44.47811" lon="6.70041">
        <ele>1998.4000244141</ele>
        <time>2022-03-11T13:17:51.000Z</time>
      </trkpt>
      <trkpt lat="44.47813" lon="6.70038">
        <ele>1998.8000488281</ele>
        <time>2022-03-11T13:17:53.000Z</time>
      </trkpt>
      <trkpt lat="44.47814" lon="6.70035">
        <ele>1999.4000244141</ele>
        <time>2022-03-11T13:17:56.000Z</time>
      </trkpt>
      <trkpt lat="44.47817" lon="6.70033">
        <ele>2000</ele>
        <time>2022-03-11T13:17:58.000Z</time>
      </trkpt>
      <trkpt lat="44.47818" lon="6.70032">
        <ele>2000.1999511719</ele>
        <time>2022-03-11T13:17:59.000Z</time>
      </trkpt>
      <trkpt lat="44.4782" lon="6.7003">
        <ele>2000.4000244141</ele>
        <time>2022-03-11T13:18:01.000Z</time>
      </trkpt>
      <trkpt lat="44.47821" lon="6.70024">
        <ele>2001</ele>
        <time>2022-03-11T13:18:06.000Z</time>
      </trkpt>
      <trkpt lat="44.47822" lon="6.70023">
        <ele>2001.5999755859</ele>
        <time>2022-03-11T13:18:08.000Z</time>
      </trkpt>
      <trkpt lat="44.47825" lon="6.7002">
        <ele>2002.1999511719</ele>
        <time>2022-03-11T13:18:12.000Z</time>
      </trkpt>
      <trkpt lat="44.47826" lon="6.70017">
        <ele>2002.4000244141</ele>
        <time>2022-03-11T13:18:14.000Z</time>
      </trkpt>
      <trkpt lat="44.4783" lon="6.70011">
        <ele>2003.1999511719</ele>
        <time>2022-03-11T13:18:19.000Z</time>
      </trkpt>
      <trkpt lat="44.4783" lon="6.70011">
        <ele>2003.1999511719</ele>
        <time>2022-03-11T13:18:20.000Z</time>
      </trkpt>
      <trkpt lat="44.4783" lon="6.7001">
        <ele>2003.4000244141</ele>
        <time>2022-03-11T13:18:21.000Z</time>
      </trkpt>
      <trkpt lat="44.47827" lon="6.70009">
        <ele>2004.1999511719</ele>
        <time>2022-03-11T13:18:29.000Z</time>
      </trkpt>
      <trkpt lat="44.47826" lon="6.7001">
        <ele>2004.1999511719</ele>
        <time>2022-03-11T13:18:32.000Z</time>
      </trkpt>
      <trkpt lat="44.47825" lon="6.70012">
        <ele>2004.4000244141</ele>
        <time>2022-03-11T13:18:34.000Z</time>
      </trkpt>
      <trkpt lat="44.47825" lon="6.70012">
        <ele>2004.8000488281</ele>
        <time>2022-03-11T13:18:35.000Z</time>
      </trkpt>
      <trkpt lat="44.47823" lon="6.70011">
        <ele>2005.4000244141</ele>
        <time>2022-03-11T13:18:37.000Z</time>
      </trkpt>
      <trkpt lat="44.4782" lon="6.7001">
        <ele>2005.8000488281</ele>
        <time>2022-03-11T13:18:40.000Z</time>
      </trkpt>
      <trkpt lat="44.47819" lon="6.7001">
        <ele>2006.4000244141</ele>
        <time>2022-03-11T13:18:43.000Z</time>
      </trkpt>
      <trkpt lat="44.47818" lon="6.7001">
        <ele>2006.8000488281</ele>
        <time>2022-03-11T13:18:45.000Z</time>
      </trkpt>
      <trkpt lat="44.47816" lon="6.7001">
        <ele>2007.5999755859</ele>
        <time>2022-03-11T13:18:49.000Z</time>
      </trkpt>
      <trkpt lat="44.47816" lon="6.7001">
        <ele>2007.8000488281</ele>
        <time>2022-03-11T13:18:50.000Z</time>
      </trkpt>
      <trkpt lat="44.47812" lon="6.70008">
        <ele>2008.8000488281</ele>
        <time>2022-03-11T13:18:55.000Z</time>
      </trkpt>
      <trkpt lat="44.4781" lon="6.70008">
        <ele>2009.1999511719</ele>
        <time>2022-03-11T13:18:57.000Z</time>
      </trkpt>
      <trkpt lat="44.478" lon="6.7001">
        <ele>2009.8000488281</ele>
        <time>2022-03-11T13:19:04.000Z</time>
      </trkpt>
      <trkpt lat="44.47799" lon="6.7001">
        <ele>2010.1999511719</ele>
        <time>2022-03-11T13:19:06.000Z</time>
      </trkpt>
      <trkpt lat="44.47799" lon="6.70009">
        <ele>2010.5999755859</ele>
        <time>2022-03-11T13:19:08.000Z</time>
      </trkpt>
      <trkpt lat="44.47798" lon="6.70009">
        <ele>2011</ele>
        <time>2022-03-11T13:19:10.000Z</time>
      </trkpt>
      <trkpt lat="44.47798" lon="6.7001">
        <ele>2011.1999511719</ele>
        <time>2022-03-11T13:19:12.000Z</time>
      </trkpt>
      <trkpt lat="44.47798" lon="6.7001">
        <ele>2011.5999755859</ele>
        <time>2022-03-11T13:19:14.000Z</time>
      </trkpt>
      <trkpt lat="44.47797" lon="6.7001">
        <ele>2012.1999511719</ele>
        <time>2022-03-11T13:19:16.000Z</time>
      </trkpt>
      <trkpt lat="44.47797" lon="6.70009">
        <ele>2013.1999511719</ele>
        <time>2022-03-11T13:19:21.000Z</time>
      </trkpt>
      <trkpt lat="44.47795" lon="6.7001">
        <ele>2014</ele>
        <time>2022-03-11T13:19:25.000Z</time>
      </trkpt>
      <trkpt lat="44.47793" lon="6.7001">
        <ele>2014.1999511719</ele>
        <time>2022-03-11T13:19:27.000Z</time>
      </trkpt>
      <trkpt lat="44.47792" lon="6.70011">
        <ele>2014.4000244141</ele>
        <time>2022-03-11T13:19:28.000Z</time>
      </trkpt>
      <trkpt lat="44.47788" lon="6.70014">
        <ele>2015.4000244141</ele>
        <time>2022-03-11T13:19:33.000Z</time>
      </trkpt>
      <trkpt lat="44.47787" lon="6.70015">
        <ele>2015.8000488281</ele>
        <time>2022-03-11T13:19:35.000Z</time>
      </trkpt>
      <trkpt lat="44.47785" lon="6.70016">
        <ele>2016.5999755859</ele>
        <time>2022-03-11T13:19:39.000Z</time>
      </trkpt>
      <trkpt lat="44.47784" lon="6.70016">
        <ele>2016.8000488281</ele>
        <time>2022-03-11T13:19:40.000Z</time>
      </trkpt>
      <trkpt lat="44.47781" lon="6.70013">
        <ele>2017.4000244141</ele>
        <time>2022-03-11T13:19:43.000Z</time>
      </trkpt>
      <trkpt lat="44.47781" lon="6.70012">
        <ele>2017.4000244141</ele>
        <time>2022-03-11T13:19:44.000Z</time>
      </trkpt>
      <trkpt lat="44.47779" lon="6.70011">
        <ele>2017.5999755859</ele>
        <time>2022-03-11T13:19:45.000Z</time>
      </trkpt>
      <trkpt lat="44.47774" lon="6.70009">
        <ele>2018.4000244141</ele>
        <time>2022-03-11T13:19:49.000Z</time>
      </trkpt>
      <trkpt lat="44.47773" lon="6.70009">
        <ele>2018.5999755859</ele>
        <time>2022-03-11T13:19:50.000Z</time>
      </trkpt>
      <trkpt lat="44.4777" lon="6.70007">
        <ele>2019</ele>
        <time>2022-03-11T13:19:54.000Z</time>
      </trkpt>
      <trkpt lat="44.47772" lon="6.70008">
        <ele>2019.4000244141</ele>
        <time>2022-03-11T13:19:57.000Z</time>
      </trkpt>
      <trkpt lat="44.47772" lon="6.70008">
        <ele>2019.4000244141</ele>
        <time>2022-03-11T13:19:58.000Z</time>
      </trkpt>
      <trkpt lat="44.47771" lon="6.70009">
        <ele>2019.5999755859</ele>
        <time>2022-03-11T13:20:01.000Z</time>
      </trkpt>
      <trkpt lat="44.47773" lon="6.70011">
        <ele>2020.1999511719</ele>
        <time>2022-03-11T13:20:04.000Z</time>
      </trkpt>
      <trkpt lat="44.47775" lon="6.70013">
        <ele>2020.5999755859</ele>
        <time>2022-03-11T13:20:07.000Z</time>
      </trkpt>
      <trkpt lat="44.47775" lon="6.70015">
        <ele>2021</ele>
        <time>2022-03-11T13:20:09.000Z</time>
      </trkpt>
      <trkpt lat="44.47778" lon="6.70019">
        <ele>2021.5999755859</ele>
        <time>2022-03-11T13:20:15.000Z</time>
      </trkpt>
      <trkpt lat="44.47779" lon="6.70018">
        <ele>2021.8000488281</ele>
        <time>2022-03-11T13:20:17.000Z</time>
      </trkpt>
      <trkpt lat="44.47776" lon="6.70017">
        <ele>2022.1999511719</ele>
        <time>2022-03-11T13:20:21.000Z</time>
      </trkpt>
      <trkpt lat="44.47774" lon="6.70017">
        <ele>2023</ele>
        <time>2022-03-11T13:20:26.000Z</time>
      </trkpt>
      <trkpt lat="44.47773" lon="6.70016">
        <ele>2023.1999511719</ele>
        <time>2022-03-11T13:20:27.000Z</time>
      </trkpt>
      <trkpt lat="44.47772" lon="6.70013">
        <ele>2024</ele>
        <time>2022-03-11T13:20:31.000Z</time>
      </trkpt>
      <trkpt lat="44.47771" lon="6.70012">
        <ele>2024.1999511719</ele>
        <time>2022-03-11T13:20:32.000Z</time>
      </trkpt>
      <trkpt lat="44.47768" lon="6.70008">
        <ele>2024.5999755859</ele>
        <time>2022-03-11T13:20:36.000Z</time>
      </trkpt>
      <trkpt lat="44.4777" lon="6.70006">
        <ele>2025.1999511719</ele>
        <time>2022-03-11T13:20:38.000Z</time>
      </trkpt>
      <trkpt lat="44.4777" lon="6.70005">
        <ele>2025.1999511719</ele>
        <time>2022-03-11T13:20:39.000Z</time>
      </trkpt>
      <trkpt lat="44.47768" lon="6.70001">
        <ele>2025.5999755859</ele>
        <time>2022-03-11T13:20:42.000Z</time>
      </trkpt>
      <trkpt lat="44.47768" lon="6.7">
        <ele>2025.8000488281</ele>
        <time>2022-03-11T13:20:43.000Z</time>
      </trkpt>
      <trkpt lat="44.4777" lon="6.69995">
        <ele>2026.1999511719</ele>
        <time>2022-03-11T13:20:47.000Z</time>
      </trkpt>
      <trkpt lat="44.47771" lon="6.69994">
        <ele>2026.4000244141</ele>
        <time>2022-03-11T13:20:48.000Z</time>
      </trkpt>
      <trkpt lat="44.47769" lon="6.6999">
        <ele>2027.1999511719</ele>
        <time>2022-03-11T13:20:53.000Z</time>
      </trkpt>
      <trkpt lat="44.47769" lon="6.69989">
        <ele>2027.4000244141</ele>
        <time>2022-03-11T13:20:54.000Z</time>
      </trkpt>
      <trkpt lat="44.47766" lon="6.69986">
        <ele>2027.8000488281</ele>
        <time>2022-03-11T13:20:57.000Z</time>
      </trkpt>
      <trkpt lat="44.47764" lon="6.69985">
        <ele>2028</ele>
        <time>2022-03-11T13:20:58.000Z</time>
      </trkpt>
      <trkpt lat="44.47764" lon="6.69984">
        <ele>2028.1999511719</ele>
        <time>2022-03-11T13:20:59.000Z</time>
      </trkpt>
      <trkpt lat="44.47763" lon="6.69982">
        <ele>2028.5999755859</ele>
        <time>2022-03-11T13:21:01.000Z</time>
      </trkpt>
      <trkpt lat="44.47764" lon="6.69977">
        <ele>2029.4000244141</ele>
        <time>2022-03-11T13:21:07.000Z</time>
      </trkpt>
      <trkpt lat="44.47764" lon="6.69978">
        <ele>2029.5999755859</ele>
        <time>2022-03-11T13:21:09.000Z</time>
      </trkpt>
      <trkpt lat="44.47763" lon="6.69978">
        <ele>2029.8000488281</ele>
        <time>2022-03-11T13:21:13.000Z</time>
      </trkpt>
      <trkpt lat="44.47763" lon="6.69979">
        <ele>2030</ele>
        <time>2022-03-11T13:21:15.000Z</time>
      </trkpt>
      <trkpt lat="44.47764" lon="6.6998">
        <ele>2030.4000244141</ele>
        <time>2022-03-11T13:21:18.000Z</time>
      </trkpt>
      <trkpt lat="44.47766" lon="6.69981">
        <ele>2030.5999755859</ele>
        <time>2022-03-11T13:21:21.000Z</time>
      </trkpt>
      <trkpt lat="44.47764" lon="6.69982">
        <ele>2031.1999511719</ele>
        <time>2022-03-11T13:21:24.000Z</time>
      </trkpt>
      <trkpt lat="44.47764" lon="6.69983">
        <ele>2031.4000244141</ele>
        <time>2022-03-11T13:21:25.000Z</time>
      </trkpt>
      <trkpt lat="44.47766" lon="6.69985">
        <ele>2031.8000488281</ele>
        <time>2022-03-11T13:21:27.000Z</time>
      </trkpt>
      <trkpt lat="44.47764" lon="6.69985">
        <ele>2032.4000244141</ele>
        <time>2022-03-11T13:21:30.000Z</time>
      </trkpt>
      <trkpt lat="44.47764" lon="6.69982">
        <ele>2032.8000488281</ele>
        <time>2022-03-11T13:21:33.000Z</time>
      </trkpt>
      <trkpt lat="44.47765" lon="6.69982">
        <ele>2033</ele>
        <time>2022-03-11T13:21:34.000Z</time>
      </trkpt>
      <trkpt lat="44.47765" lon="6.6998">
        <ele>2033</ele>
        <time>2022-03-11T13:21:36.000Z</time>
      </trkpt>
      <trkpt lat="44.47764" lon="6.69978">
        <ele>2033.4000244141</ele>
        <time>2022-03-11T13:21:38.000Z</time>
      </trkpt>
      <trkpt lat="44.47764" lon="6.69975">
        <ele>2034</ele>
        <time>2022-03-11T13:21:42.000Z</time>
      </trkpt>
      <trkpt lat="44.4776" lon="6.69968">
        <ele>2035</ele>
        <time>2022-03-11T13:21:48.000Z</time>
      </trkpt>
      <trkpt lat="44.47762" lon="6.69965">
        <ele>2036</ele>
        <time>2022-03-11T13:21:54.000Z</time>
      </trkpt>
      <trkpt lat="44.47761" lon="6.69964">
        <ele>2036</ele>
        <time>2022-03-11T13:21:55.000Z</time>
      </trkpt>
      <trkpt lat="44.47764" lon="6.69966">
        <ele>2036.5999755859</ele>
        <time>2022-03-11T13:21:59.000Z</time>
      </trkpt>
      <trkpt lat="44.47764" lon="6.69968">
        <ele>2037</ele>
        <time>2022-03-11T13:22:03.000Z</time>
      </trkpt>
      <trkpt lat="44.47765" lon="6.69969">
        <ele>2037.1999511719</ele>
        <time>2022-03-11T13:22:04.000Z</time>
      </trkpt>
      <trkpt lat="44.47766" lon="6.69971">
        <ele>2038.1999511719</ele>
        <time>2022-03-11T13:22:09.000Z</time>
      </trkpt>
      <trkpt lat="44.47763" lon="6.6997">
        <ele>2038.5999755859</ele>
        <time>2022-03-11T13:22:11.000Z</time>
      </trkpt>
      <trkpt lat="44.47759" lon="6.6997">
        <ele>2039</ele>
        <time>2022-03-11T13:22:14.000Z</time>
      </trkpt>
      <trkpt lat="44.47758" lon="6.6997">
        <ele>2039.4000244141</ele>
        <time>2022-03-11T13:22:16.000Z</time>
      </trkpt>
      <trkpt lat="44.47759" lon="6.6997">
        <ele>2039.5999755859</ele>
        <time>2022-03-11T13:22:17.000Z</time>
      </trkpt>
      <trkpt lat="44.47762" lon="6.69972">
        <ele>2040</ele>
        <time>2022-03-11T13:22:19.000Z</time>
      </trkpt>
      <trkpt lat="44.47763" lon="6.69973">
        <ele>2040.4000244141</ele>
        <time>2022-03-11T13:22:22.000Z</time>
      </trkpt>
      <trkpt lat="44.47763" lon="6.69973">
        <ele>2040.4000244141</ele>
        <time>2022-03-11T13:22:23.000Z</time>
      </trkpt>
      <trkpt lat="44.47763" lon="6.69974">
        <ele>2041</ele>
        <time>2022-03-11T13:22:27.000Z</time>
      </trkpt>
      <trkpt lat="44.47761" lon="6.69975">
        <ele>2041.4000244141</ele>
        <time>2022-03-11T13:22:31.000Z</time>
      </trkpt>
      <trkpt lat="44.4776" lon="6.69975">
        <ele>2041.8000488281</ele>
        <time>2022-03-11T13:22:32.000Z</time>
      </trkpt>
      <trkpt lat="44.47758" lon="6.69971">
        <ele>2042.4000244141</ele>
        <time>2022-03-11T13:22:37.000Z</time>
      </trkpt>
      <trkpt lat="44.47756" lon="6.6997">
        <ele>2042.4000244141</ele>
        <time>2022-03-11T13:22:38.000Z</time>
      </trkpt>
      <trkpt lat="44.47755" lon="6.69969">
        <ele>2042.5999755859</ele>
        <time>2022-03-11T13:22:39.000Z</time>
      </trkpt>
      <trkpt lat="44.47753" lon="6.69968">
        <ele>2043</ele>
        <time>2022-03-11T13:22:41.000Z</time>
      </trkpt>
      <trkpt lat="44.47755" lon="6.69966">
        <ele>2043.5999755859</ele>
        <time>2022-03-11T13:22:43.000Z</time>
      </trkpt>
      <trkpt lat="44.47758" lon="6.69962">
        <ele>2044.1999511719</ele>
        <time>2022-03-11T13:22:47.000Z</time>
      </trkpt>
      <trkpt lat="44.47757" lon="6.6996">
        <ele>2044.5999755859</ele>
        <time>2022-03-11T13:22:49.000Z</time>
      </trkpt>
      <trkpt lat="44.47756" lon="6.6996">
        <ele>2044.5999755859</ele>
        <time>2022-03-11T13:22:50.000Z</time>
      </trkpt>
      <trkpt lat="44.47753" lon="6.6996">
        <ele>2045</ele>
        <time>2022-03-11T13:22:52.000Z</time>
      </trkpt>
      <trkpt lat="44.4775" lon="6.69958">
        <ele>2045.8000488281</ele>
        <time>2022-03-11T13:22:56.000Z</time>
      </trkpt>
      <trkpt lat="44.4775" lon="6.69957">
        <ele>2046</ele>
        <time>2022-03-11T13:22:58.000Z</time>
      </trkpt>
      <trkpt lat="44.47753" lon="6.69954">
        <ele>2046.8000488281</ele>
        <time>2022-03-11T13:23:04.000Z</time>
      </trkpt>
      <trkpt lat="44.47752" lon="6.69954">
        <ele>2047</ele>
        <time>2022-03-11T13:23:05.000Z</time>
      </trkpt>
      <trkpt lat="44.47751" lon="6.69956">
        <ele>2047.4000244141</ele>
        <time>2022-03-11T13:23:09.000Z</time>
      </trkpt>
      <trkpt lat="44.47751" lon="6.69958">
        <ele>2048</ele>
        <time>2022-03-11T13:23:12.000Z</time>
      </trkpt>
      <trkpt lat="44.47753" lon="6.69959">
        <ele>2048.3999023438</ele>
        <time>2022-03-11T13:23:15.000Z</time>
      </trkpt>
      <trkpt lat="44.4775" lon="6.69961">
        <ele>2049</ele>
        <time>2022-03-11T13:23:20.000Z</time>
      </trkpt>
      <trkpt lat="44.47751" lon="6.69961">
        <ele>2049.1999511719</ele>
        <time>2022-03-11T13:23:21.000Z</time>
      </trkpt>
      <trkpt lat="44.47748" lon="6.69964">
        <ele>2049.8000488281</ele>
        <time>2022-03-11T13:23:27.000Z</time>
      </trkpt>
      <trkpt lat="44.47746" lon="6.69965">
        <ele>2050.1999511719</ele>
        <time>2022-03-11T13:23:30.000Z</time>
      </trkpt>
      <trkpt lat="44.47746" lon="6.69966">
        <ele>2050.3999023438</ele>
        <time>2022-03-11T13:23:31.000Z</time>
      </trkpt>
      <trkpt lat="44.47743" lon="6.69967">
        <ele>2050.8000488281</ele>
        <time>2022-03-11T13:23:34.000Z</time>
      </trkpt>
      <trkpt lat="44.47741" lon="6.69968">
        <ele>2051</ele>
        <time>2022-03-11T13:23:35.000Z</time>
      </trkpt>
      <trkpt lat="44.47739" lon="6.69968">
        <ele>2051.3999023438</ele>
        <time>2022-03-11T13:23:37.000Z</time>
      </trkpt>
      <trkpt lat="44.47735" lon="6.69968">
        <ele>2052.6000976562</ele>
        <time>2022-03-11T13:23:42.000Z</time>
      </trkpt>
      <trkpt lat="44.47735" lon="6.69968">
        <ele>2052.8000488281</ele>
        <time>2022-03-11T13:23:43.000Z</time>
      </trkpt>
      <trkpt lat="44.47734" lon="6.69969">
        <ele>2053.1999511719</ele>
        <time>2022-03-11T13:23:45.000Z</time>
      </trkpt>
      <trkpt lat="44.47733" lon="6.69969">
        <ele>2053.6000976562</ele>
        <time>2022-03-11T13:23:47.000Z</time>
      </trkpt>
      <trkpt lat="44.47733" lon="6.69969">
        <ele>2054</ele>
        <time>2022-03-11T13:23:50.000Z</time>
      </trkpt>
      <trkpt lat="44.47729" lon="6.69968">
        <ele>2054.1999511719</ele>
        <time>2022-03-11T13:23:56.000Z</time>
      </trkpt>
      <trkpt lat="44.47726" lon="6.69966">
        <ele>2054.1999511719</ele>
        <time>2022-03-11T13:23:58.000Z</time>
      </trkpt>
      <trkpt lat="44.47725" lon="6.69962">
        <ele>2054.3999023438</ele>
        <time>2022-03-11T13:24:01.000Z</time>
      </trkpt>
      <trkpt lat="44.47725" lon="6.6996">
        <ele>2054.6000976562</ele>
        <time>2022-03-11T13:24:03.000Z</time>
      </trkpt>
      <trkpt lat="44.47727" lon="6.69956">
        <ele>2055.3999023438</ele>
        <time>2022-03-11T13:24:07.000Z</time>
      </trkpt>
      <trkpt lat="44.47728" lon="6.69956">
        <ele>2055.6000976562</ele>
        <time>2022-03-11T13:24:09.000Z</time>
      </trkpt>
      <trkpt lat="44.47726" lon="6.69951">
        <ele>2056.1999511719</ele>
        <time>2022-03-11T13:24:13.000Z</time>
      </trkpt>
      <trkpt lat="44.47724" lon="6.69947">
        <ele>2056.8000488281</ele>
        <time>2022-03-11T13:24:17.000Z</time>
      </trkpt>
      <trkpt lat="44.47724" lon="6.69944">
        <ele>2057.1999511719</ele>
        <time>2022-03-11T13:24:20.000Z</time>
      </trkpt>
      <trkpt lat="44.47727" lon="6.69938">
        <ele>2058</ele>
        <time>2022-03-11T13:24:24.000Z</time>
      </trkpt>
      <trkpt lat="44.47727" lon="6.69936">
        <ele>2058.3999023438</ele>
        <time>2022-03-11T13:24:26.000Z</time>
      </trkpt>
      <trkpt lat="44.47724" lon="6.69934">
        <ele>2059</ele>
        <time>2022-03-11T13:24:29.000Z</time>
      </trkpt>
      <trkpt lat="44.47725" lon="6.69932">
        <ele>2059.1999511719</ele>
        <time>2022-03-11T13:24:31.000Z</time>
      </trkpt>
      <trkpt lat="44.47725" lon="6.69931">
        <ele>2059.8000488281</ele>
        <time>2022-03-11T13:24:37.000Z</time>
      </trkpt>
      <trkpt lat="44.47725" lon="6.69932">
        <ele>2060</ele>
        <time>2022-03-11T13:24:39.000Z</time>
      </trkpt>
      <trkpt lat="44.47727" lon="6.6993">
        <ele>2060.1999511719</ele>
        <time>2022-03-11T13:24:42.000Z</time>
      </trkpt>
      <trkpt lat="44.47728" lon="6.6993">
        <ele>2060.3999023438</ele>
        <time>2022-03-11T13:24:43.000Z</time>
      </trkpt>
      <trkpt lat="44.47726" lon="6.69932">
        <ele>2060.3999023438</ele>
        <time>2022-03-11T13:24:45.000Z</time>
      </trkpt>
      <trkpt lat="44.47726" lon="6.69933">
        <ele>2060.6000976562</ele>
        <time>2022-03-11T13:24:46.000Z</time>
      </trkpt>
      <trkpt lat="44.47727" lon="6.69936">
        <ele>2061</ele>
        <time>2022-03-11T13:24:49.000Z</time>
      </trkpt>
      <trkpt lat="44.47726" lon="6.69937">
        <ele>2061.1999511719</ele>
        <time>2022-03-11T13:24:50.000Z</time>
      </trkpt>
      <trkpt lat="44.47724" lon="6.69939">
        <ele>2061.3999023438</ele>
        <time>2022-03-11T13:24:53.000Z</time>
      </trkpt>
      <trkpt lat="44.47723" lon="6.6994">
        <ele>2061.6000976562</ele>
        <time>2022-03-11T13:24:54.000Z</time>
      </trkpt>
      <trkpt lat="44.47723" lon="6.69942">
        <ele>2062.1999511719</ele>
        <time>2022-03-11T13:24:58.000Z</time>
      </trkpt>
      <trkpt lat="44.47721" lon="6.69942">
        <ele>2062.1999511719</ele>
        <time>2022-03-11T13:24:59.000Z</time>
      </trkpt>
      <trkpt lat="44.47716" lon="6.69942">
        <ele>2062.8000488281</ele>
        <time>2022-03-11T13:25:02.000Z</time>
      </trkpt>
      <trkpt lat="44.47717" lon="6.69944">
        <ele>2063.1999511719</ele>
        <time>2022-03-11T13:25:06.000Z</time>
      </trkpt>
      <trkpt lat="44.47717" lon="6.69945">
        <ele>2063.3999023438</ele>
        <time>2022-03-11T13:25:07.000Z</time>
      </trkpt>
      <trkpt lat="44.47711" lon="6.69948">
        <ele>2064.3999023438</ele>
        <time>2022-03-11T13:25:12.000Z</time>
      </trkpt>
      <trkpt lat="44.47708" lon="6.69949">
        <ele>2064.8000488281</ele>
        <time>2022-03-11T13:25:13.000Z</time>
      </trkpt>
      <trkpt lat="44.47705" lon="6.69949">
        <ele>2065.1999511719</ele>
        <time>2022-03-11T13:25:16.000Z</time>
      </trkpt>
      <trkpt lat="44.47702" lon="6.6995">
        <ele>2065.6000976562</ele>
        <time>2022-03-11T13:25:19.000Z</time>
      </trkpt>
      <trkpt lat="44.47701" lon="6.6995">
        <ele>2065.8000488281</ele>
        <time>2022-03-11T13:25:21.000Z</time>
      </trkpt>
      <trkpt lat="44.47697" lon="6.69945">
        <ele>2066.8000488281</ele>
        <time>2022-03-11T13:25:26.000Z</time>
      </trkpt>
      <trkpt lat="44.47696" lon="6.69942">
        <ele>2067</ele>
        <time>2022-03-11T13:25:27.000Z</time>
      </trkpt>
      <trkpt lat="44.47695" lon="6.6994">
        <ele>2067.3999023438</ele>
        <time>2022-03-11T13:25:29.000Z</time>
      </trkpt>
      <trkpt lat="44.47696" lon="6.69936">
        <ele>2068</ele>
        <time>2022-03-11T13:25:33.000Z</time>
      </trkpt>
      <trkpt lat="44.47696" lon="6.69935">
        <ele>2068.1999511719</ele>
        <time>2022-03-11T13:25:34.000Z</time>
      </trkpt>
      <trkpt lat="44.47694" lon="6.69932">
        <ele>2069</ele>
        <time>2022-03-11T13:25:38.000Z</time>
      </trkpt>
      <trkpt lat="44.47693" lon="6.69929">
        <ele>2069.3999023438</ele>
        <time>2022-03-11T13:25:40.000Z</time>
      </trkpt>
      <trkpt lat="44.47692" lon="6.69927">
        <ele>2069.6000976562</ele>
        <time>2022-03-11T13:25:42.000Z</time>
      </trkpt>
      <trkpt lat="44.47691" lon="6.69926">
        <ele>2069.8000488281</ele>
        <time>2022-03-11T13:25:44.000Z</time>
      </trkpt>
      <trkpt lat="44.47691" lon="6.69925">
        <ele>2070</ele>
        <time>2022-03-11T13:25:45.000Z</time>
      </trkpt>
      <trkpt lat="44.47692" lon="6.69924">
        <ele>2070.1999511719</ele>
        <time>2022-03-11T13:25:46.000Z</time>
      </trkpt>
      <trkpt lat="44.47694" lon="6.69923">
        <ele>2070.6000976562</ele>
        <time>2022-03-11T13:25:48.000Z</time>
      </trkpt>
      <trkpt lat="44.47693" lon="6.69919">
        <ele>2071.1999511719</ele>
        <time>2022-03-11T13:25:52.000Z</time>
      </trkpt>
      <trkpt lat="44.47693" lon="6.69917">
        <ele>2072</ele>
        <time>2022-03-11T13:25:55.000Z</time>
      </trkpt>
      <trkpt lat="44.47692" lon="6.69913">
        <ele>2072.1999511719</ele>
        <time>2022-03-11T13:25:59.000Z</time>
      </trkpt>
      <trkpt lat="44.47691" lon="6.69911">
        <ele>2073</ele>
        <time>2022-03-11T13:26:02.000Z</time>
      </trkpt>
      <trkpt lat="44.47692" lon="6.6991">
        <ele>2073.3999023438</ele>
        <time>2022-03-11T13:26:04.000Z</time>
      </trkpt>
      <trkpt lat="44.47692" lon="6.69908">
        <ele>2073.8000488281</ele>
        <time>2022-03-11T13:26:07.000Z</time>
      </trkpt>
      <trkpt lat="44.47697" lon="6.69905">
        <ele>2074.3999023438</ele>
        <time>2022-03-11T13:26:13.000Z</time>
      </trkpt>
      <trkpt lat="44.47698" lon="6.69897">
        <ele>2075.6000976562</ele>
        <time>2022-03-11T13:26:20.000Z</time>
      </trkpt>
      <trkpt lat="44.47696" lon="6.69895">
        <ele>2075.8000488281</ele>
        <time>2022-03-11T13:26:25.000Z</time>
      </trkpt>
      <trkpt lat="44.47695" lon="6.69895">
        <ele>2075.8000488281</ele>
        <time>2022-03-11T13:26:26.000Z</time>
      </trkpt>
      <trkpt lat="44.47694" lon="6.69896">
        <ele>2076.1999511719</ele>
        <time>2022-03-11T13:26:30.000Z</time>
      </trkpt>
      <trkpt lat="44.47697" lon="6.69896">
        <ele>2076.6000976562</ele>
        <time>2022-03-11T13:26:34.000Z</time>
      </trkpt>
      <trkpt lat="44.47701" lon="6.699">
        <ele>2077.1999511719</ele>
        <time>2022-03-11T13:26:40.000Z</time>
      </trkpt>
      <trkpt lat="44.477" lon="6.69901">
        <ele>2077.6000976562</ele>
        <time>2022-03-11T13:26:43.000Z</time>
      </trkpt>
      <trkpt lat="44.477" lon="6.699">
        <ele>2078</ele>
        <time>2022-03-11T13:26:45.000Z</time>
      </trkpt>
      <trkpt lat="44.477" lon="6.699">
        <ele>2078.1999511719</ele>
        <time>2022-03-11T13:26:47.000Z</time>
      </trkpt>
      <trkpt lat="44.47698" lon="6.699">
        <ele>2078.6000976562</ele>
        <time>2022-03-11T13:26:49.000Z</time>
      </trkpt>
      <trkpt lat="44.47698" lon="6.699">
        <ele>2078.8000488281</ele>
        <time>2022-03-11T13:26:50.000Z</time>
      </trkpt>
      <trkpt lat="44.47697" lon="6.69903">
        <ele>2079.8000488281</ele>
        <time>2022-03-11T13:26:55.000Z</time>
      </trkpt>
      <trkpt lat="44.47695" lon="6.69905">
        <ele>2080.1999511719</ele>
        <time>2022-03-11T13:26:57.000Z</time>
      </trkpt>
      <trkpt lat="44.47692" lon="6.69907">
        <ele>2081</ele>
        <time>2022-03-11T13:27:02.000Z</time>
      </trkpt>
      <trkpt lat="44.47691" lon="6.69907">
        <ele>2081.3999023438</ele>
        <time>2022-03-11T13:27:05.000Z</time>
      </trkpt>
      <trkpt lat="44.47691" lon="6.69908">
        <ele>2081.6000976562</ele>
        <time>2022-03-11T13:27:07.000Z</time>
      </trkpt>
      <trkpt lat="44.47693" lon="6.69908">
        <ele>2081.8000488281</ele>
        <time>2022-03-11T13:27:14.000Z</time>
      </trkpt>
      <trkpt lat="44.47693" lon="6.69908">
        <ele>2081.8000488281</ele>
        <time>2022-03-11T13:27:23.000Z</time>
      </trkpt>
      <trkpt lat="44.47693" lon="6.69908">
        <ele>2082</ele>
        <time>2022-03-11T13:27:24.000Z</time>
      </trkpt>
      <trkpt lat="44.47693" lon="6.69909">
        <ele>2083</ele>
        <time>2022-03-11T13:27:36.000Z</time>
      </trkpt>
      <trkpt lat="44.47687" lon="6.69909">
        <ele>2084.1999511719</ele>
        <time>2022-03-11T13:27:44.000Z</time>
      </trkpt>
      <trkpt lat="44.47682" lon="6.69906">
        <ele>2085.1999511719</ele>
        <time>2022-03-11T13:27:50.000Z</time>
      </trkpt>
      <trkpt lat="44.47678" lon="6.69898">
        <ele>2086</ele>
        <time>2022-03-11T13:27:54.000Z</time>
      </trkpt>
      <trkpt lat="44.47676" lon="6.69896">
        <ele>2086.3999023438</ele>
        <time>2022-03-11T13:27:56.000Z</time>
      </trkpt>
      <trkpt lat="44.47676" lon="6.69895">
        <ele>2086.6000976562</ele>
        <time>2022-03-11T13:27:57.000Z</time>
      </trkpt>
      <trkpt lat="44.47677" lon="6.69892">
        <ele>2087.1999511719</ele>
        <time>2022-03-11T13:28:01.000Z</time>
      </trkpt>
      <trkpt lat="44.47677" lon="6.69891">
        <ele>2087.3999023438</ele>
        <time>2022-03-11T13:28:03.000Z</time>
      </trkpt>
      <trkpt lat="44.47675" lon="6.69887">
        <ele>2087.8000488281</ele>
        <time>2022-03-11T13:28:07.000Z</time>
      </trkpt>
      <trkpt lat="44.47673" lon="6.6988">
        <ele>2088.6000976562</ele>
        <time>2022-03-11T13:28:13.000Z</time>
      </trkpt>
      <trkpt lat="44.47673" lon="6.69879">
        <ele>2088.8000488281</ele>
        <time>2022-03-11T13:28:14.000Z</time>
      </trkpt>
      <trkpt lat="44.47675" lon="6.69875">
        <ele>2089.3999023438</ele>
        <time>2022-03-11T13:28:18.000Z</time>
      </trkpt>
      <trkpt lat="44.47675" lon="6.69872">
        <ele>2089.8000488281</ele>
        <time>2022-03-11T13:28:22.000Z</time>
      </trkpt>
      <trkpt lat="44.47674" lon="6.69871">
        <ele>2089.8000488281</ele>
        <time>2022-03-11T13:28:23.000Z</time>
      </trkpt>
      <trkpt lat="44.47674" lon="6.69866">
        <ele>2090.8000488281</ele>
        <time>2022-03-11T13:28:31.000Z</time>
      </trkpt>
      <trkpt lat="44.47676" lon="6.69864">
        <ele>2091.6000976562</ele>
        <time>2022-03-11T13:28:36.000Z</time>
      </trkpt>
      <trkpt lat="44.47678" lon="6.69864">
        <ele>2091.8000488281</ele>
        <time>2022-03-11T13:28:40.000Z</time>
      </trkpt>
      <trkpt lat="44.47677" lon="6.69863">
        <ele>2091.8000488281</ele>
        <time>2022-03-11T13:28:42.000Z</time>
      </trkpt>
      <trkpt lat="44.47681" lon="6.69865">
        <ele>2092.8000488281</ele>
        <time>2022-03-11T13:28:53.000Z</time>
      </trkpt>
      <trkpt lat="44.47681" lon="6.69865">
        <ele>2092.8000488281</ele>
        <time>2022-03-11T13:28:54.000Z</time>
      </trkpt>
      <trkpt lat="44.47681" lon="6.69865">
        <ele>2092.8000488281</ele>
        <time>2022-03-11T13:28:55.000Z</time>
      </trkpt>
      <trkpt lat="44.47681" lon="6.69866">
        <ele>2093</ele>
        <time>2022-03-11T13:28:56.000Z</time>
      </trkpt>
      <trkpt lat="44.47682" lon="6.69868">
        <ele>2094</ele>
        <time>2022-03-11T13:29:01.000Z</time>
      </trkpt>
      <trkpt lat="44.47683" lon="6.69868">
        <ele>2094</ele>
        <time>2022-03-11T13:29:02.000Z</time>
      </trkpt>
      <trkpt lat="44.47688" lon="6.69867">
        <ele>2094.3999023438</ele>
        <time>2022-03-11T13:29:10.000Z</time>
      </trkpt>
      <trkpt lat="44.47688" lon="6.69867">
        <ele>2094.3999023438</ele>
        <time>2022-03-11T13:29:20.000Z</time>
      </trkpt>
      <trkpt lat="44.47688" lon="6.69867">
        <ele>2094.3999023438</ele>
        <time>2022-03-11T13:29:27.000Z</time>
      </trkpt>
      <trkpt lat="44.47696" lon="6.69867">
        <ele>2094.1999511719</ele>
        <time>2022-03-11T13:30:15.000Z</time>
      </trkpt>
      <trkpt lat="44.47701" lon="6.69869">
        <ele>2094</ele>
        <time>2022-03-11T13:30:25.000Z</time>
      </trkpt>
      <trkpt lat="44.477" lon="6.69868">
        <ele>2094.3999023438</ele>
        <time>2022-03-11T13:30:43.000Z</time>
      </trkpt>
      <trkpt lat="44.47696" lon="6.69863">
        <ele>2095</ele>
        <time>2022-03-11T13:31:38.000Z</time>
      </trkpt>
      <trkpt lat="44.47703" lon="6.69867">
        <ele>2095</ele>
        <time>2022-03-11T13:32:04.000Z</time>
      </trkpt>
      <trkpt lat="44.47707" lon="6.69873">
        <ele>2095.3999023438</ele>
        <time>2022-03-11T13:32:09.000Z</time>
      </trkpt>
      <trkpt lat="44.47704" lon="6.69875">
        <ele>2095.8000488281</ele>
        <time>2022-03-11T13:32:14.000Z</time>
      </trkpt>
      <trkpt lat="44.47704" lon="6.69877">
        <ele>2096</ele>
        <time>2022-03-11T13:32:17.000Z</time>
      </trkpt>
      <trkpt lat="44.47704" lon="6.69879">
        <ele>2096.3999023438</ele>
        <time>2022-03-11T13:32:21.000Z</time>
      </trkpt>
      <trkpt lat="44.47703" lon="6.69881">
        <ele>2096.6000976562</ele>
        <time>2022-03-11T13:32:27.000Z</time>
      </trkpt>
      <trkpt lat="44.477" lon="6.69881">
        <ele>2097</ele>
        <time>2022-03-11T13:32:30.000Z</time>
      </trkpt>
      <trkpt lat="44.47694" lon="6.6988">
        <ele>2097.1999511719</ele>
        <time>2022-03-11T13:32:32.000Z</time>
      </trkpt>
      <trkpt lat="44.4769" lon="6.69881">
        <ele>2097.1999511719</ele>
        <time>2022-03-11T13:32:37.000Z</time>
      </trkpt>
      <trkpt lat="44.47687" lon="6.69884">
        <ele>2098</ele>
        <time>2022-03-11T13:32:44.000Z</time>
      </trkpt>
      <trkpt lat="44.47687" lon="6.69885">
        <ele>2098</ele>
        <time>2022-03-11T13:32:45.000Z</time>
      </trkpt>
      <trkpt lat="44.47686" lon="6.69886">
        <ele>2098.3999023438</ele>
        <time>2022-03-11T13:32:49.000Z</time>
      </trkpt>
      <trkpt lat="44.47689" lon="6.6989">
        <ele>2098.8000488281</ele>
        <time>2022-03-11T13:32:53.000Z</time>
      </trkpt>
      <trkpt lat="44.47694" lon="6.69893">
        <ele>2099.1999511719</ele>
        <time>2022-03-11T13:32:59.000Z</time>
      </trkpt>
      <trkpt lat="44.47693" lon="6.69892">
        <ele>2099.1999511719</ele>
        <time>2022-03-11T13:33:00.000Z</time>
      </trkpt>
      <trkpt lat="44.4769" lon="6.69891">
        <ele>2100.1999511719</ele>
        <time>2022-03-11T13:33:06.000Z</time>
      </trkpt>
      <trkpt lat="44.47687" lon="6.69891">
        <ele>2100.3999023438</ele>
        <time>2022-03-11T13:33:07.000Z</time>
      </trkpt>
      <trkpt lat="44.47684" lon="6.6989">
        <ele>2100.8000488281</ele>
        <time>2022-03-11T13:33:12.000Z</time>
      </trkpt>
      <trkpt lat="44.47684" lon="6.6989">
        <ele>2101.1999511719</ele>
        <time>2022-03-11T13:33:19.000Z</time>
      </trkpt>
      <trkpt lat="44.47686" lon="6.69888">
        <ele>2102</ele>
        <time>2022-03-11T13:33:25.000Z</time>
      </trkpt>
      <trkpt lat="44.47686" lon="6.69888">
        <ele>2102</ele>
        <time>2022-03-11T13:33:26.000Z</time>
      </trkpt>
      <trkpt lat="44.47686" lon="6.69887">
        <ele>2102.3999023438</ele>
        <time>2022-03-11T13:33:28.000Z</time>
      </trkpt>
      <trkpt lat="44.47684" lon="6.69886">
        <ele>2102.3999023438</ele>
        <time>2022-03-11T13:33:29.000Z</time>
      </trkpt>
      <trkpt lat="44.47677" lon="6.69882">
        <ele>2103</ele>
        <time>2022-03-11T13:33:33.000Z</time>
      </trkpt>
      <trkpt lat="44.47675" lon="6.6988">
        <ele>2103.3999023438</ele>
        <time>2022-03-11T13:33:36.000Z</time>
      </trkpt>
      <trkpt lat="44.47672" lon="6.69879">
        <ele>2103.6000976562</ele>
        <time>2022-03-11T13:33:38.000Z</time>
      </trkpt>
      <trkpt lat="44.47661" lon="6.69874">
        <ele>2104.1999511719</ele>
        <time>2022-03-11T13:33:45.000Z</time>
      </trkpt>
      <trkpt lat="44.47663" lon="6.69871">
        <ele>2104.3999023438</ele>
        <time>2022-03-11T13:33:48.000Z</time>
      </trkpt>
      <trkpt lat="44.47661" lon="6.69867">
        <ele>2105</ele>
        <time>2022-03-11T13:33:51.000Z</time>
      </trkpt>
      <trkpt lat="44.47658" lon="6.69865">
        <ele>2105.6000976562</ele>
        <time>2022-03-11T13:33:55.000Z</time>
      </trkpt>
      <trkpt lat="44.47659" lon="6.69864">
        <ele>2105.8000488281</ele>
        <time>2022-03-11T13:33:56.000Z</time>
      </trkpt>
      <trkpt lat="44.47659" lon="6.69864">
        <ele>2105.8000488281</ele>
        <time>2022-03-11T13:33:57.000Z</time>
      </trkpt>
      <trkpt lat="44.47655" lon="6.69858">
        <ele>2106.3999023438</ele>
        <time>2022-03-11T13:34:04.000Z</time>
      </trkpt>
      <trkpt lat="44.47654" lon="6.69858">
        <ele>2106.6000976562</ele>
        <time>2022-03-11T13:34:05.000Z</time>
      </trkpt>
      <trkpt lat="44.47654" lon="6.69858">
        <ele>2107</ele>
        <time>2022-03-11T13:34:10.000Z</time>
      </trkpt>
      <trkpt lat="44.47652" lon="6.69859">
        <ele>2107.6000976562</ele>
        <time>2022-03-11T13:34:15.000Z</time>
      </trkpt>
      <trkpt lat="44.47652" lon="6.6986">
        <ele>2107.6000976562</ele>
        <time>2022-03-11T13:34:16.000Z</time>
      </trkpt>
      <trkpt lat="44.47652" lon="6.6986">
        <ele>2108</ele>
        <time>2022-03-11T13:34:18.000Z</time>
      </trkpt>
      <trkpt lat="44.47651" lon="6.69863">
        <ele>2108.8000488281</ele>
        <time>2022-03-11T13:34:23.000Z</time>
      </trkpt>
      <trkpt lat="44.47651" lon="6.69863">
        <ele>2108.8000488281</ele>
        <time>2022-03-11T13:34:24.000Z</time>
      </trkpt>
      <trkpt lat="44.47649" lon="6.69864">
        <ele>2109</ele>
        <time>2022-03-11T13:34:29.000Z</time>
      </trkpt>
      <trkpt lat="44.4765" lon="6.69866">
        <ele>2109.3999023438</ele>
        <time>2022-03-11T13:34:33.000Z</time>
      </trkpt>
      <trkpt lat="44.47648" lon="6.69866">
        <ele>2109.8000488281</ele>
        <time>2022-03-11T13:34:38.000Z</time>
      </trkpt>
      <trkpt lat="44.47648" lon="6.69867">
        <ele>2110</ele>
        <time>2022-03-11T13:34:40.000Z</time>
      </trkpt>
      <trkpt lat="44.47647" lon="6.69868">
        <ele>2110.1999511719</ele>
        <time>2022-03-11T13:34:41.000Z</time>
      </trkpt>
      <trkpt lat="44.47647" lon="6.69871">
        <ele>2110.8000488281</ele>
        <time>2022-03-11T13:34:46.000Z</time>
      </trkpt>
      <trkpt lat="44.47647" lon="6.69871">
        <ele>2110.8000488281</ele>
        <time>2022-03-11T13:34:47.000Z</time>
      </trkpt>
      <trkpt lat="44.47639" lon="6.69873">
        <ele>2111.3999023438</ele>
        <time>2022-03-11T13:34:53.000Z</time>
      </trkpt>
      <trkpt lat="44.47639" lon="6.69873">
        <ele>2111.8000488281</ele>
        <time>2022-03-11T13:34:55.000Z</time>
      </trkpt>
      <trkpt lat="44.47638" lon="6.69872">
        <ele>2112.3999023438</ele>
        <time>2022-03-11T13:34:57.000Z</time>
      </trkpt>
      <trkpt lat="44.47638" lon="6.69872">
        <ele>2112.6000976562</ele>
        <time>2022-03-11T13:34:58.000Z</time>
      </trkpt>
      <trkpt lat="44.47641" lon="6.69871">
        <ele>2113</ele>
        <time>2022-03-11T13:35:01.000Z</time>
      </trkpt>
      <trkpt lat="44.47641" lon="6.6987">
        <ele>2113.1999511719</ele>
        <time>2022-03-11T13:35:03.000Z</time>
      </trkpt>
      <trkpt lat="44.4764" lon="6.69867">
        <ele>2114</ele>
        <time>2022-03-11T13:35:10.000Z</time>
      </trkpt>
      <trkpt lat="44.47637" lon="6.69862">
        <ele>2114.8000488281</ele>
        <time>2022-03-11T13:35:16.000Z</time>
      </trkpt>
      <trkpt lat="44.47637" lon="6.6986">
        <ele>2115.1999511719</ele>
        <time>2022-03-11T13:35:19.000Z</time>
      </trkpt>
      <trkpt lat="44.47631" lon="6.69857">
        <ele>2115.6000976562</ele>
        <time>2022-03-11T13:35:23.000Z</time>
      </trkpt>
      <trkpt lat="44.47633" lon="6.69859">
        <ele>2116.1999511719</ele>
        <time>2022-03-11T13:35:30.000Z</time>
      </trkpt>
      <trkpt lat="44.47633" lon="6.69859">
        <ele>2116.1999511719</ele>
        <time>2022-03-11T13:35:31.000Z</time>
      </trkpt>
      <trkpt lat="44.47634" lon="6.69859">
        <ele>2117</ele>
        <time>2022-03-11T13:35:37.000Z</time>
      </trkpt>
      <trkpt lat="44.47634" lon="6.6986">
        <ele>2117.1999511719</ele>
        <time>2022-03-11T13:35:38.000Z</time>
      </trkpt>
      <trkpt lat="44.47632" lon="6.69861">
        <ele>2118</ele>
        <time>2022-03-11T13:35:44.000Z</time>
      </trkpt>
      <trkpt lat="44.47631" lon="6.69862">
        <ele>2118.3999023438</ele>
        <time>2022-03-11T13:35:46.000Z</time>
      </trkpt>
      <trkpt lat="44.47628" lon="6.69861">
        <ele>2118.8000488281</ele>
        <time>2022-03-11T13:35:50.000Z</time>
      </trkpt>
      <trkpt lat="44.47627" lon="6.69861">
        <ele>2118.8000488281</ele>
        <time>2022-03-11T13:35:51.000Z</time>
      </trkpt>
      <trkpt lat="44.47626" lon="6.69862">
        <ele>2119.1999511719</ele>
        <time>2022-03-11T13:35:54.000Z</time>
      </trkpt>
      <trkpt lat="44.47626" lon="6.69862">
        <ele>2119.1999511719</ele>
        <time>2022-03-11T13:35:55.000Z</time>
      </trkpt>
      <trkpt lat="44.47626" lon="6.69862">
        <ele>2119.3999023438</ele>
        <time>2022-03-11T13:35:56.000Z</time>
      </trkpt>
      <trkpt lat="44.47622" lon="6.69861">
        <ele>2119.6000976562</ele>
        <time>2022-03-11T13:35:59.000Z</time>
      </trkpt>
      <trkpt lat="44.47621" lon="6.69861">
        <ele>2119.8000488281</ele>
        <time>2022-03-11T13:36:01.000Z</time>
      </trkpt>
      <trkpt lat="44.4762" lon="6.69859">
        <ele>2120.3999023438</ele>
        <time>2022-03-11T13:36:04.000Z</time>
      </trkpt>
      <trkpt lat="44.47618" lon="6.6986">
        <ele>2120.8000488281</ele>
        <time>2022-03-11T13:36:07.000Z</time>
      </trkpt>
      <trkpt lat="44.47615" lon="6.6986">
        <ele>2121.3999023438</ele>
        <time>2022-03-11T13:36:12.000Z</time>
      </trkpt>
      <trkpt lat="44.47616" lon="6.69859">
        <ele>2121.8000488281</ele>
        <time>2022-03-11T13:36:15.000Z</time>
      </trkpt>
      <trkpt lat="44.47614" lon="6.69857">
        <ele>2122.1999511719</ele>
        <time>2022-03-11T13:36:18.000Z</time>
      </trkpt>
      <trkpt lat="44.47613" lon="6.69857">
        <ele>2122.3999023438</ele>
        <time>2022-03-11T13:36:19.000Z</time>
      </trkpt>
      <trkpt lat="44.47613" lon="6.69857">
        <ele>2122.6000976562</ele>
        <time>2022-03-11T13:36:20.000Z</time>
      </trkpt>
      <trkpt lat="44.47611" lon="6.69856">
        <ele>2123</ele>
        <time>2022-03-11T13:36:25.000Z</time>
      </trkpt>
      <trkpt lat="44.4761" lon="6.69858">
        <ele>2123.6000976562</ele>
        <time>2022-03-11T13:36:29.000Z</time>
      </trkpt>
      <trkpt lat="44.4761" lon="6.69858">
        <ele>2123.8000488281</ele>
        <time>2022-03-11T13:36:33.000Z</time>
      </trkpt>
      <trkpt lat="44.47611" lon="6.69859">
        <ele>2124.1999511719</ele>
        <time>2022-03-11T13:36:35.000Z</time>
      </trkpt>
      <trkpt lat="44.47614" lon="6.69861">
        <ele>2124.6000976562</ele>
        <time>2022-03-11T13:36:39.000Z</time>
      </trkpt>
      <trkpt lat="44.47614" lon="6.69862">
        <ele>2124.8000488281</ele>
        <time>2022-03-11T13:36:40.000Z</time>
      </trkpt>
      <trkpt lat="44.4761" lon="6.6986">
        <ele>2125.8000488281</ele>
        <time>2022-03-11T13:36:49.000Z</time>
      </trkpt>
      <trkpt lat="44.476" lon="6.69855">
        <ele>2126.6000976562</ele>
        <time>2022-03-11T13:36:55.000Z</time>
      </trkpt>
      <trkpt lat="44.47599" lon="6.69853">
        <ele>2126.8000488281</ele>
        <time>2022-03-11T13:36:57.000Z</time>
      </trkpt>
      <trkpt lat="44.47595" lon="6.69849">
        <ele>2127.8000488281</ele>
        <time>2022-03-11T13:37:04.000Z</time>
      </trkpt>
      <trkpt lat="44.47595" lon="6.69848">
        <ele>2128</ele>
        <time>2022-03-11T13:37:05.000Z</time>
      </trkpt>
      <trkpt lat="44.47593" lon="6.69843">
        <ele>2128.6000976562</ele>
        <time>2022-03-11T13:37:10.000Z</time>
      </trkpt>
      <trkpt lat="44.47592" lon="6.6984">
        <ele>2129.1999511719</ele>
        <time>2022-03-11T13:37:13.000Z</time>
      </trkpt>
      <trkpt lat="44.47595" lon="6.69835">
        <ele>2129.6000976562</ele>
        <time>2022-03-11T13:37:17.000Z</time>
      </trkpt>
      <trkpt lat="44.47594" lon="6.69828">
        <ele>2130.1999511719</ele>
        <time>2022-03-11T13:37:21.000Z</time>
      </trkpt>
      <trkpt lat="44.47592" lon="6.69827">
        <ele>2130.3999023438</ele>
        <time>2022-03-11T13:37:25.000Z</time>
      </trkpt>
      <trkpt lat="44.47591" lon="6.69825">
        <ele>2131</ele>
        <time>2022-03-11T13:37:30.000Z</time>
      </trkpt>
      <trkpt lat="44.47589" lon="6.69822">
        <ele>2131.1999511719</ele>
        <time>2022-03-11T13:37:34.000Z</time>
      </trkpt>
      <trkpt lat="44.47592" lon="6.69822">
        <ele>2131.3999023438</ele>
        <time>2022-03-11T13:37:35.000Z</time>
      </trkpt>
      <trkpt lat="44.47591" lon="6.69822">
        <ele>2132</ele>
        <time>2022-03-11T13:37:40.000Z</time>
      </trkpt>
      <trkpt lat="44.47591" lon="6.69822">
        <ele>2132.1999511719</ele>
        <time>2022-03-11T13:37:42.000Z</time>
      </trkpt>
      <trkpt lat="44.47588" lon="6.69822">
        <ele>2132.3999023438</ele>
        <time>2022-03-11T13:37:44.000Z</time>
      </trkpt>
      <trkpt lat="44.47586" lon="6.69823">
        <ele>2132.6000976562</ele>
        <time>2022-03-11T13:37:48.000Z</time>
      </trkpt>
      <trkpt lat="44.47585" lon="6.69823">
        <ele>2133.3999023438</ele>
        <time>2022-03-11T13:37:52.000Z</time>
      </trkpt>
      <trkpt lat="44.47583" lon="6.69824">
        <ele>2133.8000488281</ele>
        <time>2022-03-11T13:37:56.000Z</time>
      </trkpt>
      <trkpt lat="44.47578" lon="6.69826">
        <ele>2134.3999023438</ele>
        <time>2022-03-11T13:38:03.000Z</time>
      </trkpt>
      <trkpt lat="44.4758" lon="6.69826">
        <ele>2134.6000976562</ele>
        <time>2022-03-11T13:38:05.000Z</time>
      </trkpt>
      <trkpt lat="44.47575" lon="6.69829">
        <ele>2135.1999511719</ele>
        <time>2022-03-11T13:38:10.000Z</time>
      </trkpt>
      <trkpt lat="44.47576" lon="6.69828">
        <ele>2135.6000976562</ele>
        <time>2022-03-11T13:38:13.000Z</time>
      </trkpt>
      <trkpt lat="44.47576" lon="6.69827">
        <ele>2135.8000488281</ele>
        <time>2022-03-11T13:38:16.000Z</time>
      </trkpt>
      <trkpt lat="44.47579" lon="6.69824">
        <ele>2136.8000488281</ele>
        <time>2022-03-11T13:38:21.000Z</time>
      </trkpt>
      <trkpt lat="44.47579" lon="6.69822">
        <ele>2137</ele>
        <time>2022-03-11T13:38:24.000Z</time>
      </trkpt>
      <trkpt lat="44.47582" lon="6.69819">
        <ele>2137.3999023438</ele>
        <time>2022-03-11T13:38:27.000Z</time>
      </trkpt>
      <trkpt lat="44.47586" lon="6.69818">
        <ele>2137.8000488281</ele>
        <time>2022-03-11T13:38:29.000Z</time>
      </trkpt>
      <trkpt lat="44.47592" lon="6.69817">
        <ele>2138.3999023438</ele>
        <time>2022-03-11T13:38:32.000Z</time>
      </trkpt>
      <trkpt lat="44.47593" lon="6.69816">
        <ele>2138.8000488281</ele>
        <time>2022-03-11T13:38:34.000Z</time>
      </trkpt>
      <trkpt lat="44.47592" lon="6.69816">
        <ele>2139.1999511719</ele>
        <time>2022-03-11T13:38:36.000Z</time>
      </trkpt>
      <trkpt lat="44.47587" lon="6.69814">
        <ele>2139.8000488281</ele>
        <time>2022-03-11T13:38:40.000Z</time>
      </trkpt>
      <trkpt lat="44.47584" lon="6.69813">
        <ele>2139.8000488281</ele>
        <time>2022-03-11T13:38:41.000Z</time>
      </trkpt>
      <trkpt lat="44.47579" lon="6.69802">
        <ele>2140.1999511719</ele>
        <time>2022-03-11T13:38:46.000Z</time>
      </trkpt>
      <trkpt lat="44.47577" lon="6.698">
        <ele>2140.8000488281</ele>
        <time>2022-03-11T13:38:49.000Z</time>
      </trkpt>
      <trkpt lat="44.47576" lon="6.698">
        <ele>2141.1999511719</ele>
        <time>2022-03-11T13:38:51.000Z</time>
      </trkpt>
      <trkpt lat="44.47579" lon="6.69798">
        <ele>2141.6000976562</ele>
        <time>2022-03-11T13:38:55.000Z</time>
      </trkpt>
      <trkpt lat="44.47579" lon="6.69799">
        <ele>2141.8000488281</ele>
        <time>2022-03-11T13:38:57.000Z</time>
      </trkpt>
      <trkpt lat="44.47578" lon="6.69802">
        <ele>2142.1999511719</ele>
        <time>2022-03-11T13:39:01.000Z</time>
      </trkpt>
      <trkpt lat="44.47574" lon="6.698">
        <ele>2142.3999023438</ele>
        <time>2022-03-11T13:39:05.000Z</time>
      </trkpt>
      <trkpt lat="44.47573" lon="6.698">
        <ele>2142.6000976562</ele>
        <time>2022-03-11T13:39:07.000Z</time>
      </trkpt>
      <trkpt lat="44.47572" lon="6.698">
        <ele>2143</ele>
        <time>2022-03-11T13:39:09.000Z</time>
      </trkpt>
      <trkpt lat="44.47571" lon="6.69801">
        <ele>2143.6000976562</ele>
        <time>2022-03-11T13:39:13.000Z</time>
      </trkpt>
      <trkpt lat="44.47571" lon="6.69801">
        <ele>2143.8000488281</ele>
        <time>2022-03-11T13:39:14.000Z</time>
      </trkpt>
      <trkpt lat="44.47571" lon="6.69803">
        <ele>2144</ele>
        <time>2022-03-11T13:39:17.000Z</time>
      </trkpt>
      <trkpt lat="44.47574" lon="6.69805">
        <ele>2144</ele>
        <time>2022-03-11T13:39:20.000Z</time>
      </trkpt>
      <trkpt lat="44.47575" lon="6.69807">
        <ele>2144.3999023438</ele>
        <time>2022-03-11T13:39:23.000Z</time>
      </trkpt>
      <trkpt lat="44.47571" lon="6.69805">
        <ele>2145.1999511719</ele>
        <time>2022-03-11T13:39:28.000Z</time>
      </trkpt>
      <trkpt lat="44.4757" lon="6.69805">
        <ele>2145.6000976562</ele>
        <time>2022-03-11T13:39:30.000Z</time>
      </trkpt>
      <trkpt lat="44.47572" lon="6.69809">
        <ele>2146.1999511719</ele>
        <time>2022-03-11T13:39:35.000Z</time>
      </trkpt>
      <trkpt lat="44.47571" lon="6.69809">
        <ele>2146.6000976562</ele>
        <time>2022-03-11T13:39:38.000Z</time>
      </trkpt>
      <trkpt lat="44.47569" lon="6.69809">
        <ele>2146.8000488281</ele>
        <time>2022-03-11T13:39:40.000Z</time>
      </trkpt>
      <trkpt lat="44.47564" lon="6.69811">
        <ele>2147.3999023438</ele>
        <time>2022-03-11T13:39:43.000Z</time>
      </trkpt>
      <trkpt lat="44.47563" lon="6.69813">
        <ele>2147.8000488281</ele>
        <time>2022-03-11T13:39:46.000Z</time>
      </trkpt>
      <trkpt lat="44.47561" lon="6.69812">
        <ele>2148.3999023438</ele>
        <time>2022-03-11T13:39:51.000Z</time>
      </trkpt>
      <trkpt lat="44.47562" lon="6.69811">
        <ele>2148.8000488281</ele>
        <time>2022-03-11T13:39:53.000Z</time>
      </trkpt>
      <trkpt lat="44.47563" lon="6.69812">
        <ele>2148.8000488281</ele>
        <time>2022-03-11T13:39:59.000Z</time>
      </trkpt>
      <trkpt lat="44.47559" lon="6.6981">
        <ele>2149.3999023438</ele>
        <time>2022-03-11T13:40:05.000Z</time>
      </trkpt>
      <trkpt lat="44.47558" lon="6.6981">
        <ele>2149.6000976562</ele>
        <time>2022-03-11T13:40:06.000Z</time>
      </trkpt>
      <trkpt lat="44.47553" lon="6.69809">
        <ele>2150</ele>
        <time>2022-03-11T13:40:12.000Z</time>
      </trkpt>
      <trkpt lat="44.47552" lon="6.69803">
        <ele>2150.6000976562</ele>
        <time>2022-03-11T13:40:15.000Z</time>
      </trkpt>
      <trkpt lat="44.47552" lon="6.69803">
        <ele>2151</ele>
        <time>2022-03-11T13:40:18.000Z</time>
      </trkpt>
      <trkpt lat="44.47551" lon="6.69802">
        <ele>2151.6000976562</ele>
        <time>2022-03-11T13:40:23.000Z</time>
      </trkpt>
      <trkpt lat="44.47551" lon="6.69801">
        <ele>2152</ele>
        <time>2022-03-11T13:40:25.000Z</time>
      </trkpt>
      <trkpt lat="44.47551" lon="6.69799">
        <ele>2152.3999023438</ele>
        <time>2022-03-11T13:40:33.000Z</time>
      </trkpt>
      <trkpt lat="44.47553" lon="6.698">
        <ele>2152.8000488281</ele>
        <time>2022-03-11T13:40:35.000Z</time>
      </trkpt>
      <trkpt lat="44.47554" lon="6.69801">
        <ele>2153.1999511719</ele>
        <time>2022-03-11T13:40:39.000Z</time>
      </trkpt>
      <trkpt lat="44.47552" lon="6.69802">
        <ele>2153.8000488281</ele>
        <time>2022-03-11T13:40:43.000Z</time>
      </trkpt>
      <trkpt lat="44.47551" lon="6.69803">
        <ele>2153.8000488281</ele>
        <time>2022-03-11T13:40:44.000Z</time>
      </trkpt>
      <trkpt lat="44.47549" lon="6.69803">
        <ele>2154.3999023438</ele>
        <time>2022-03-11T13:40:50.000Z</time>
      </trkpt>
      <trkpt lat="44.4755" lon="6.69805">
        <ele>2154.8000488281</ele>
        <time>2022-03-11T13:40:54.000Z</time>
      </trkpt>
      <trkpt lat="44.4755" lon="6.69805">
        <ele>2155</ele>
        <time>2022-03-11T13:40:57.000Z</time>
      </trkpt>
      <trkpt lat="44.47547" lon="6.69807">
        <ele>2155.3999023438</ele>
        <time>2022-03-11T13:41:01.000Z</time>
      </trkpt>
      <trkpt lat="44.4754" lon="6.6981">
        <ele>2155.8000488281</ele>
        <time>2022-03-11T13:41:06.000Z</time>
      </trkpt>
      <trkpt lat="44.4754" lon="6.69811">
        <ele>2156.1999511719</ele>
        <time>2022-03-11T13:41:08.000Z</time>
      </trkpt>
      <trkpt lat="44.47538" lon="6.69807">
        <ele>2156.6000976562</ele>
        <time>2022-03-11T13:41:14.000Z</time>
      </trkpt>
      <trkpt lat="44.47536" lon="6.69805">
        <ele>2157</ele>
        <time>2022-03-11T13:41:17.000Z</time>
      </trkpt>
      <trkpt lat="44.47535" lon="6.69804">
        <ele>2157</ele>
        <time>2022-03-11T13:41:19.000Z</time>
      </trkpt>
      <trkpt lat="44.47534" lon="6.69804">
        <ele>2158</ele>
        <time>2022-03-11T13:41:27.000Z</time>
      </trkpt>
      <trkpt lat="44.47531" lon="6.69802">
        <ele>2158</ele>
        <time>2022-03-11T13:41:28.000Z</time>
      </trkpt>
      <trkpt lat="44.47514" lon="6.69797">
        <ele>2158.3999023438</ele>
        <time>2022-03-11T13:41:33.000Z</time>
      </trkpt>
      <trkpt lat="44.47506" lon="6.69793">
        <ele>2159</ele>
        <time>2022-03-11T13:41:37.000Z</time>
      </trkpt>
      <trkpt lat="44.47506" lon="6.69791">
        <ele>2159</ele>
        <time>2022-03-11T13:41:38.000Z</time>
      </trkpt>
      <trkpt lat="44.47508" lon="6.69789">
        <ele>2159.1999511719</ele>
        <time>2022-03-11T13:41:41.000Z</time>
      </trkpt>
      <trkpt lat="44.47511" lon="6.69788">
        <ele>2159.6000976562</ele>
        <time>2022-03-11T13:41:46.000Z</time>
      </trkpt>
      <trkpt lat="44.47514" lon="6.69786">
        <ele>2160.1999511719</ele>
        <time>2022-03-11T13:41:51.000Z</time>
      </trkpt>
      <trkpt lat="44.4752" lon="6.69783">
        <ele>2161.1999511719</ele>
        <time>2022-03-11T13:41:57.000Z</time>
      </trkpt>
      <trkpt lat="44.47527" lon="6.69781">
        <ele>2162</ele>
        <time>2022-03-11T13:42:04.000Z</time>
      </trkpt>
      <trkpt lat="44.47531" lon="6.69776">
        <ele>2162.3999023438</ele>
        <time>2022-03-11T13:42:07.000Z</time>
      </trkpt>
      <trkpt lat="44.47533" lon="6.69773">
        <ele>2162.6000976562</ele>
        <time>2022-03-11T13:42:09.000Z</time>
      </trkpt>
      <trkpt lat="44.47534" lon="6.6977">
        <ele>2162.8000488281</ele>
        <time>2022-03-11T13:42:13.000Z</time>
      </trkpt>
      <trkpt lat="44.47533" lon="6.69766">
        <ele>2163.3999023438</ele>
        <time>2022-03-11T13:42:17.000Z</time>
      </trkpt>
      <trkpt lat="44.47531" lon="6.69765">
        <ele>2164</ele>
        <time>2022-03-11T13:42:20.000Z</time>
      </trkpt>
      <trkpt lat="44.4753" lon="6.69763">
        <ele>2164.1999511719</ele>
        <time>2022-03-11T13:42:23.000Z</time>
      </trkpt>
      <trkpt lat="44.47527" lon="6.69761">
        <ele>2164.6000976562</ele>
        <time>2022-03-11T13:42:26.000Z</time>
      </trkpt>
      <trkpt lat="44.47523" lon="6.69761">
        <ele>2164.6000976562</ele>
        <time>2022-03-11T13:42:28.000Z</time>
      </trkpt>
      <trkpt lat="44.47517" lon="6.6976">
        <ele>2165.1999511719</ele>
        <time>2022-03-11T13:42:32.000Z</time>
      </trkpt>
      <trkpt lat="44.47519" lon="6.69762">
        <ele>2165.6000976562</ele>
        <time>2022-03-11T13:42:36.000Z</time>
      </trkpt>
      <trkpt lat="44.47519" lon="6.69762">
        <ele>2165.6000976562</ele>
        <time>2022-03-11T13:42:37.000Z</time>
      </trkpt>
      <trkpt lat="44.4752" lon="6.69762">
        <ele>2166.3999023438</ele>
        <time>2022-03-11T13:42:43.000Z</time>
      </trkpt>
      <trkpt lat="44.4752" lon="6.69762">
        <ele>2166.6000976562</ele>
        <time>2022-03-11T13:42:45.000Z</time>
      </trkpt>
      <trkpt lat="44.47524" lon="6.6976">
        <ele>2167.6000976562</ele>
        <time>2022-03-11T13:42:57.000Z</time>
      </trkpt>
      <trkpt lat="44.47525" lon="6.69758">
        <ele>2167.8000488281</ele>
        <time>2022-03-11T13:42:58.000Z</time>
      </trkpt>
      <trkpt lat="44.47534" lon="6.69751">
        <ele>2168.3999023438</ele>
        <time>2022-03-11T13:43:03.000Z</time>
      </trkpt>
      <trkpt lat="44.47536" lon="6.6975">
        <ele>2168.8000488281</ele>
        <time>2022-03-11T13:43:06.000Z</time>
      </trkpt>
      <trkpt lat="44.47537" lon="6.69749">
        <ele>2169</ele>
        <time>2022-03-11T13:43:07.000Z</time>
      </trkpt>
      <trkpt lat="44.47538" lon="6.69749">
        <ele>2169.1999511719</ele>
        <time>2022-03-11T13:43:08.000Z</time>
      </trkpt>
      <trkpt lat="44.4754" lon="6.69747">
        <ele>2169.8000488281</ele>
        <time>2022-03-11T13:43:11.000Z</time>
      </trkpt>
      <trkpt lat="44.47543" lon="6.69745">
        <ele>2170</ele>
        <time>2022-03-11T13:43:13.000Z</time>
      </trkpt>
      <trkpt lat="44.47544" lon="6.69743">
        <ele>2170.8000488281</ele>
        <time>2022-03-11T13:43:18.000Z</time>
      </trkpt>
      <trkpt lat="44.47545" lon="6.69742">
        <ele>2171</ele>
        <time>2022-03-11T13:43:21.000Z</time>
      </trkpt>
      <trkpt lat="44.47544" lon="6.69741">
        <ele>2172</ele>
        <time>2022-03-11T13:43:26.000Z</time>
      </trkpt>
      <trkpt lat="44.47541" lon="6.69739">
        <ele>2172.3999023438</ele>
        <time>2022-03-11T13:43:29.000Z</time>
      </trkpt>
      <trkpt lat="44.47539" lon="6.69738">
        <ele>2172.3999023438</ele>
        <time>2022-03-11T13:43:30.000Z</time>
      </trkpt>
      <trkpt lat="44.47539" lon="6.69738">
        <ele>2172.6000976562</ele>
        <time>2022-03-11T13:43:31.000Z</time>
      </trkpt>
      <trkpt lat="44.47538" lon="6.69737">
        <ele>2172.8000488281</ele>
        <time>2022-03-11T13:43:33.000Z</time>
      </trkpt>
      <trkpt lat="44.47537" lon="6.69735">
        <ele>2173</ele>
        <time>2022-03-11T13:43:35.000Z</time>
      </trkpt>
      <trkpt lat="44.47537" lon="6.69736">
        <ele>2173.1999511719</ele>
        <time>2022-03-11T13:43:39.000Z</time>
      </trkpt>
      <trkpt lat="44.47537" lon="6.69736">
        <ele>2174</ele>
        <time>2022-03-11T13:43:46.000Z</time>
      </trkpt>
      <trkpt lat="44.47536" lon="6.69732">
        <ele>2175</ele>
        <time>2022-03-11T13:43:51.000Z</time>
      </trkpt>
      <trkpt lat="44.47535" lon="6.69731">
        <ele>2175.1999511719</ele>
        <time>2022-03-11T13:43:52.000Z</time>
      </trkpt>
      <trkpt lat="44.47535" lon="6.6973">
        <ele>2176.1999511719</ele>
        <time>2022-03-11T13:43:57.000Z</time>
      </trkpt>
      <trkpt lat="44.47535" lon="6.6973">
        <ele>2176.1999511719</ele>
        <time>2022-03-11T13:43:58.000Z</time>
      </trkpt>
      <trkpt lat="44.47535" lon="6.69729">
        <ele>2176.8000488281</ele>
        <time>2022-03-11T13:44:01.000Z</time>
      </trkpt>
      <trkpt lat="44.47531" lon="6.69727">
        <ele>2177.3999023438</ele>
        <time>2022-03-11T13:44:05.000Z</time>
      </trkpt>
      <trkpt lat="44.47531" lon="6.69727">
        <ele>2177.6000976562</ele>
        <time>2022-03-11T13:44:06.000Z</time>
      </trkpt>
      <trkpt lat="44.4753" lon="6.69726">
        <ele>2178.1999511719</ele>
        <time>2022-03-11T13:44:10.000Z</time>
      </trkpt>
      <trkpt lat="44.4753" lon="6.69726">
        <ele>2178.3999023438</ele>
        <time>2022-03-11T13:44:11.000Z</time>
      </trkpt>
      <trkpt lat="44.4753" lon="6.69723">
        <ele>2179.1999511719</ele>
        <time>2022-03-11T13:44:16.000Z</time>
      </trkpt>
      <trkpt lat="44.4753" lon="6.69722">
        <ele>2179.3999023438</ele>
        <time>2022-03-11T13:44:17.000Z</time>
      </trkpt>
      <trkpt lat="44.47529" lon="6.69717">
        <ele>2180.1999511719</ele>
        <time>2022-03-11T13:44:22.000Z</time>
      </trkpt>
      <trkpt lat="44.4753" lon="6.69715">
        <ele>2180.6000976562</ele>
        <time>2022-03-11T13:44:25.000Z</time>
      </trkpt>
      <trkpt lat="44.47531" lon="6.69715">
        <ele>2180.6000976562</ele>
        <time>2022-03-11T13:44:26.000Z</time>
      </trkpt>
      <trkpt lat="44.47531" lon="6.69713">
        <ele>2181.3999023438</ele>
        <time>2022-03-11T13:44:30.000Z</time>
      </trkpt>
      <trkpt lat="44.47531" lon="6.69712">
        <ele>2181.6000976562</ele>
        <time>2022-03-11T13:44:31.000Z</time>
      </trkpt>
      <trkpt lat="44.47531" lon="6.69709">
        <ele>2182.1999511719</ele>
        <time>2022-03-11T13:44:36.000Z</time>
      </trkpt>
      <trkpt lat="44.47532" lon="6.69706">
        <ele>2182.6000976562</ele>
        <time>2022-03-11T13:44:40.000Z</time>
      </trkpt>
      <trkpt lat="44.47535" lon="6.69704">
        <ele>2182.8000488281</ele>
        <time>2022-03-11T13:44:42.000Z</time>
      </trkpt>
      <trkpt lat="44.47536" lon="6.69701">
        <ele>2183</ele>
        <time>2022-03-11T13:44:45.000Z</time>
      </trkpt>
      <trkpt lat="44.4754" lon="6.69696">
        <ele>2183.6000976562</ele>
        <time>2022-03-11T13:44:49.000Z</time>
      </trkpt>
      <trkpt lat="44.47541" lon="6.69694">
        <ele>2184</ele>
        <time>2022-03-11T13:44:51.000Z</time>
      </trkpt>
      <trkpt lat="44.47541" lon="6.6969">
        <ele>2184.8000488281</ele>
        <time>2022-03-11T13:44:57.000Z</time>
      </trkpt>
      <trkpt lat="44.4754" lon="6.6969">
        <ele>2185</ele>
        <time>2022-03-11T13:44:58.000Z</time>
      </trkpt>
      <trkpt lat="44.4754" lon="6.69684">
        <ele>2185.3999023438</ele>
        <time>2022-03-11T13:45:03.000Z</time>
      </trkpt>
      <trkpt lat="44.47539" lon="6.69683">
        <ele>2185.8000488281</ele>
        <time>2022-03-11T13:45:06.000Z</time>
      </trkpt>
      <trkpt lat="44.47539" lon="6.69682">
        <ele>2186.3999023438</ele>
        <time>2022-03-11T13:45:09.000Z</time>
      </trkpt>
      <trkpt lat="44.47544" lon="6.69676">
        <ele>2187</ele>
        <time>2022-03-11T13:45:13.000Z</time>
      </trkpt>
      <trkpt lat="44.47546" lon="6.69673">
        <ele>2187.3999023438</ele>
        <time>2022-03-11T13:45:15.000Z</time>
      </trkpt>
      <trkpt lat="44.47547" lon="6.69676">
        <ele>2188</ele>
        <time>2022-03-11T13:45:20.000Z</time>
      </trkpt>
      <trkpt lat="44.47551" lon="6.69676">
        <ele>2189.1999511719</ele>
        <time>2022-03-11T13:45:27.000Z</time>
      </trkpt>
      <trkpt lat="44.47552" lon="6.69676">
        <ele>2189.3999023438</ele>
        <time>2022-03-11T13:45:28.000Z</time>
      </trkpt>
      <trkpt lat="44.47551" lon="6.69674">
        <ele>2190</ele>
        <time>2022-03-11T13:45:34.000Z</time>
      </trkpt>
      <trkpt lat="44.4755" lon="6.69674">
        <ele>2190.1999511719</ele>
        <time>2022-03-11T13:45:37.000Z</time>
      </trkpt>
      <trkpt lat="44.47552" lon="6.69674">
        <ele>2190.6000976562</ele>
        <time>2022-03-11T13:45:41.000Z</time>
      </trkpt>
      <trkpt lat="44.47552" lon="6.69674">
        <ele>2190.8000488281</ele>
        <time>2022-03-11T13:45:51.000Z</time>
      </trkpt>
      <trkpt lat="44.47551" lon="6.69674">
        <ele>2191</ele>
        <time>2022-03-11T13:45:53.000Z</time>
      </trkpt>
      <trkpt lat="44.47547" lon="6.69675">
        <ele>2190.8000488281</ele>
        <time>2022-03-11T13:46:00.000Z</time>
      </trkpt>
      <trkpt lat="44.47544" lon="6.69673">
        <ele>2191.1999511719</ele>
        <time>2022-03-11T13:46:04.000Z</time>
      </trkpt>
      <trkpt lat="44.47542" lon="6.69672">
        <ele>2191.3999023438</ele>
        <time>2022-03-11T13:46:05.000Z</time>
      </trkpt>
      <trkpt lat="44.47542" lon="6.69668">
        <ele>2191.8000488281</ele>
        <time>2022-03-11T13:46:09.000Z</time>
      </trkpt>
      <trkpt lat="44.47542" lon="6.69663">
        <ele>2192.3999023438</ele>
        <time>2022-03-11T13:46:15.000Z</time>
      </trkpt>
      <trkpt lat="44.47539" lon="6.69654">
        <ele>2193.3999023438</ele>
        <time>2022-03-11T13:46:22.000Z</time>
      </trkpt>
      <trkpt lat="44.47537" lon="6.69653">
        <ele>2193.6000976562</ele>
        <time>2022-03-11T13:46:23.000Z</time>
      </trkpt>
      <trkpt lat="44.47538" lon="6.69654">
        <ele>2194</ele>
        <time>2022-03-11T13:46:29.000Z</time>
      </trkpt>
      <trkpt lat="44.47537" lon="6.69654">
        <ele>2194.6000976562</ele>
        <time>2022-03-11T13:46:33.000Z</time>
      </trkpt>
      <trkpt lat="44.47538" lon="6.69655">
        <ele>2194.8000488281</ele>
        <time>2022-03-11T13:46:36.000Z</time>
      </trkpt>
      <trkpt lat="44.4754" lon="6.69659">
        <ele>2195.6000976562</ele>
        <time>2022-03-11T13:46:41.000Z</time>
      </trkpt>
      <trkpt lat="44.47541" lon="6.69659">
        <ele>2195.8000488281</ele>
        <time>2022-03-11T13:46:42.000Z</time>
      </trkpt>
      <trkpt lat="44.47544" lon="6.69661">
        <ele>2196.6000976562</ele>
        <time>2022-03-11T13:46:49.000Z</time>
      </trkpt>
      <trkpt lat="44.47545" lon="6.69661">
        <ele>2196.8000488281</ele>
        <time>2022-03-11T13:46:50.000Z</time>
      </trkpt>
      <trkpt lat="44.47548" lon="6.69662">
        <ele>2197.1999511719</ele>
        <time>2022-03-11T13:46:55.000Z</time>
      </trkpt>
      <trkpt lat="44.47542" lon="6.69658">
        <ele>2197.6000976562</ele>
        <time>2022-03-11T13:47:01.000Z</time>
      </trkpt>
      <trkpt lat="44.47541" lon="6.69657">
        <ele>2197.8000488281</ele>
        <time>2022-03-11T13:47:03.000Z</time>
      </trkpt>
      <trkpt lat="44.47539" lon="6.69651">
        <ele>2198.8000488281</ele>
        <time>2022-03-11T13:47:11.000Z</time>
      </trkpt>
      <trkpt lat="44.47539" lon="6.6965">
        <ele>2199</ele>
        <time>2022-03-11T13:47:12.000Z</time>
      </trkpt>
      <trkpt lat="44.47534" lon="6.69646">
        <ele>2199.8000488281</ele>
        <time>2022-03-11T13:47:18.000Z</time>
      </trkpt>
      <trkpt lat="44.47535" lon="6.69646">
        <ele>2200</ele>
        <time>2022-03-11T13:47:20.000Z</time>
      </trkpt>
      <trkpt lat="44.47534" lon="6.6964">
        <ele>2201</ele>
        <time>2022-03-11T13:47:25.000Z</time>
      </trkpt>
      <trkpt lat="44.47534" lon="6.69639">
        <ele>2201.1999511719</ele>
        <time>2022-03-11T13:47:26.000Z</time>
      </trkpt>
      <trkpt lat="44.47535" lon="6.69634">
        <ele>2201.6000976562</ele>
        <time>2022-03-11T13:47:32.000Z</time>
      </trkpt>
      <trkpt lat="44.47535" lon="6.69632">
        <ele>2201.8000488281</ele>
        <time>2022-03-11T13:47:34.000Z</time>
      </trkpt>
      <trkpt lat="44.47535" lon="6.6963">
        <ele>2202.1999511719</ele>
        <time>2022-03-11T13:47:37.000Z</time>
      </trkpt>
      <trkpt lat="44.47535" lon="6.6963">
        <ele>2202.1999511719</ele>
        <time>2022-03-11T13:47:38.000Z</time>
      </trkpt>
      <trkpt lat="44.47536" lon="6.69629">
        <ele>2202.8000488281</ele>
        <time>2022-03-11T13:47:43.000Z</time>
      </trkpt>
      <trkpt lat="44.47535" lon="6.69627">
        <ele>2203.1999511719</ele>
        <time>2022-03-11T13:47:46.000Z</time>
      </trkpt>
      <trkpt lat="44.47536" lon="6.69626">
        <ele>2203.6000976562</ele>
        <time>2022-03-11T13:47:48.000Z</time>
      </trkpt>
      <trkpt lat="44.47535" lon="6.6962">
        <ele>2204.1999511719</ele>
        <time>2022-03-11T13:47:54.000Z</time>
      </trkpt>
      <trkpt lat="44.47536" lon="6.6962">
        <ele>2204.3999023438</ele>
        <time>2022-03-11T13:47:55.000Z</time>
      </trkpt>
      <trkpt lat="44.47536" lon="6.69619">
        <ele>2205.3999023438</ele>
        <time>2022-03-11T13:48:01.000Z</time>
      </trkpt>
      <trkpt lat="44.47536" lon="6.69619">
        <ele>2205.6000976562</ele>
        <time>2022-03-11T13:48:02.000Z</time>
      </trkpt>
      <trkpt lat="44.47533" lon="6.69613">
        <ele>2206.3999023438</ele>
        <time>2022-03-11T13:48:06.000Z</time>
      </trkpt>
      <trkpt lat="44.47531" lon="6.69611">
        <ele>2207.1999511719</ele>
        <time>2022-03-11T13:48:12.000Z</time>
      </trkpt>
      <trkpt lat="44.47533" lon="6.69612">
        <ele>2207.6000976562</ele>
        <time>2022-03-11T13:48:15.000Z</time>
      </trkpt>
      <trkpt lat="44.47531" lon="6.69609">
        <ele>2208</ele>
        <time>2022-03-11T13:48:19.000Z</time>
      </trkpt>
      <trkpt lat="44.47529" lon="6.69611">
        <ele>2208.6000976562</ele>
        <time>2022-03-11T13:48:23.000Z</time>
      </trkpt>
      <trkpt lat="44.47529" lon="6.69609">
        <ele>2208.8000488281</ele>
        <time>2022-03-11T13:48:25.000Z</time>
      </trkpt>
      <trkpt lat="44.47531" lon="6.69609">
        <ele>2209.6000976562</ele>
        <time>2022-03-11T13:48:30.000Z</time>
      </trkpt>
      <trkpt lat="44.4753" lon="6.69609">
        <ele>2209.8000488281</ele>
        <time>2022-03-11T13:48:32.000Z</time>
      </trkpt>
      <trkpt lat="44.4753" lon="6.6961">
        <ele>2210.8000488281</ele>
        <time>2022-03-11T13:48:38.000Z</time>
      </trkpt>
      <trkpt lat="44.47529" lon="6.6961">
        <ele>2211.1999511719</ele>
        <time>2022-03-11T13:48:40.000Z</time>
      </trkpt>
      <trkpt lat="44.47528" lon="6.69609">
        <ele>2211.3999023438</ele>
        <time>2022-03-11T13:48:43.000Z</time>
      </trkpt>
      <trkpt lat="44.47524" lon="6.69609">
        <ele>2211.6000976562</ele>
        <time>2022-03-11T13:48:45.000Z</time>
      </trkpt>
      <trkpt lat="44.47523" lon="6.69608">
        <ele>2211.8000488281</ele>
        <time>2022-03-11T13:48:46.000Z</time>
      </trkpt>
      <trkpt lat="44.47521" lon="6.69605">
        <ele>2212.1999511719</ele>
        <time>2022-03-11T13:48:48.000Z</time>
      </trkpt>
      <trkpt lat="44.4752" lon="6.69604">
        <ele>2212.1999511719</ele>
        <time>2022-03-11T13:48:49.000Z</time>
      </trkpt>
      <trkpt lat="44.47518" lon="6.696">
        <ele>2213</ele>
        <time>2022-03-11T13:48:54.000Z</time>
      </trkpt>
      <trkpt lat="44.47518" lon="6.69599">
        <ele>2213.1999511719</ele>
        <time>2022-03-11T13:48:55.000Z</time>
      </trkpt>
      <trkpt lat="44.47515" lon="6.69596">
        <ele>2213.6000976562</ele>
        <time>2022-03-11T13:49:00.000Z</time>
      </trkpt>
      <trkpt lat="44.47514" lon="6.69595">
        <ele>2214</ele>
        <time>2022-03-11T13:49:03.000Z</time>
      </trkpt>
      <trkpt lat="44.47512" lon="6.69594">
        <ele>2214.6000976562</ele>
        <time>2022-03-11T13:49:07.000Z</time>
      </trkpt>
      <trkpt lat="44.47511" lon="6.69593">
        <ele>2214.6000976562</ele>
        <time>2022-03-11T13:49:08.000Z</time>
      </trkpt>
      <trkpt lat="44.47511" lon="6.69593">
        <ele>2215.1999511719</ele>
        <time>2022-03-11T13:49:11.000Z</time>
      </trkpt>
      <trkpt lat="44.47512" lon="6.69593">
        <ele>2215.3999023438</ele>
        <time>2022-03-11T13:49:12.000Z</time>
      </trkpt>
      <trkpt lat="44.47513" lon="6.69594">
        <ele>2216.3999023438</ele>
        <time>2022-03-11T13:49:17.000Z</time>
      </trkpt>
      <trkpt lat="44.47511" lon="6.69593">
        <ele>2216.8000488281</ele>
        <time>2022-03-11T13:49:22.000Z</time>
      </trkpt>
      <trkpt lat="44.47506" lon="6.69589">
        <ele>2217.6000976562</ele>
        <time>2022-03-11T13:49:26.000Z</time>
      </trkpt>
      <trkpt lat="44.47504" lon="6.69588">
        <ele>2218</ele>
        <time>2022-03-11T13:49:28.000Z</time>
      </trkpt>
      <trkpt lat="44.47505" lon="6.69588">
        <ele>2218.6000976562</ele>
        <time>2022-03-11T13:49:32.000Z</time>
      </trkpt>
      <trkpt lat="44.47505" lon="6.69589">
        <ele>2218.8000488281</ele>
        <time>2022-03-11T13:49:34.000Z</time>
      </trkpt>
      <trkpt lat="44.47504" lon="6.6959">
        <ele>2219.8000488281</ele>
        <time>2022-03-11T13:49:40.000Z</time>
      </trkpt>
      <trkpt lat="44.47504" lon="6.6959">
        <ele>2219.8000488281</ele>
        <time>2022-03-11T13:49:41.000Z</time>
      </trkpt>
      <trkpt lat="44.475" lon="6.6959">
        <ele>2220.3999023438</ele>
        <time>2022-03-11T13:49:46.000Z</time>
      </trkpt>
      <trkpt lat="44.475" lon="6.69589">
        <ele>2220.8000488281</ele>
        <time>2022-03-11T13:49:49.000Z</time>
      </trkpt>
      <trkpt lat="44.47499" lon="6.69589">
        <ele>2221</ele>
        <time>2022-03-11T13:49:50.000Z</time>
      </trkpt>
      <trkpt lat="44.47496" lon="6.6959">
        <ele>2221.1999511719</ele>
        <time>2022-03-11T13:49:55.000Z</time>
      </trkpt>
      <trkpt lat="44.47492" lon="6.6959">
        <ele>2222</ele>
        <time>2022-03-11T13:49:59.000Z</time>
      </trkpt>
      <trkpt lat="44.47489" lon="6.69587">
        <ele>2222.3999023438</ele>
        <time>2022-03-11T13:50:03.000Z</time>
      </trkpt>
      <trkpt lat="44.47484" lon="6.69585">
        <ele>2223</ele>
        <time>2022-03-11T13:50:08.000Z</time>
      </trkpt>
      <trkpt lat="44.47481" lon="6.69582">
        <ele>2223.1999511719</ele>
        <time>2022-03-11T13:50:10.000Z</time>
      </trkpt>
      <trkpt lat="44.47474" lon="6.6957">
        <ele>2223.8000488281</ele>
        <time>2022-03-11T13:50:15.000Z</time>
      </trkpt>
      <trkpt lat="44.47475" lon="6.6957">
        <ele>2224</ele>
        <time>2022-03-11T13:50:16.000Z</time>
      </trkpt>
      <trkpt lat="44.47474" lon="6.69566">
        <ele>2224.6000976562</ele>
        <time>2022-03-11T13:50:21.000Z</time>
      </trkpt>
      <trkpt lat="44.47473" lon="6.69564">
        <ele>2224.8000488281</ele>
        <time>2022-03-11T13:50:23.000Z</time>
      </trkpt>
      <trkpt lat="44.47469" lon="6.69562">
        <ele>2225.1999511719</ele>
        <time>2022-03-11T13:50:25.000Z</time>
      </trkpt>
      <trkpt lat="44.47466" lon="6.69559">
        <ele>2225.3999023438</ele>
        <time>2022-03-11T13:50:29.000Z</time>
      </trkpt>
      <trkpt lat="44.47467" lon="6.69555">
        <ele>2225.8000488281</ele>
        <time>2022-03-11T13:50:33.000Z</time>
      </trkpt>
      <trkpt lat="44.47471" lon="6.69555">
        <ele>2226.1999511719</ele>
        <time>2022-03-11T13:50:36.000Z</time>
      </trkpt>
      <trkpt lat="44.47471" lon="6.69554">
        <ele>2226.6000976562</ele>
        <time>2022-03-11T13:50:39.000Z</time>
      </trkpt>
      <trkpt lat="44.47468" lon="6.69552">
        <ele>2227</ele>
        <time>2022-03-11T13:50:41.000Z</time>
      </trkpt>
      <trkpt lat="44.47473" lon="6.69552">
        <ele>2227.1999511719</ele>
        <time>2022-03-11T13:50:43.000Z</time>
      </trkpt>
      <trkpt lat="44.47479" lon="6.6955">
        <ele>2227.3999023438</ele>
        <time>2022-03-11T13:50:47.000Z</time>
      </trkpt>
      <trkpt lat="44.47486" lon="6.69551">
        <ele>2227.6000976562</ele>
        <time>2022-03-11T13:50:51.000Z</time>
      </trkpt>
      <trkpt lat="44.47488" lon="6.69548">
        <ele>2228.1999511719</ele>
        <time>2022-03-11T13:50:56.000Z</time>
      </trkpt>
      <trkpt lat="44.47489" lon="6.69546">
        <ele>2228.3999023438</ele>
        <time>2022-03-11T13:50:58.000Z</time>
      </trkpt>
      <trkpt lat="44.4749" lon="6.69542">
        <ele>2228.6000976562</ele>
        <time>2022-03-11T13:51:03.000Z</time>
      </trkpt>
      <trkpt lat="44.47494" lon="6.69534">
        <ele>2228.8000488281</ele>
        <time>2022-03-11T13:51:08.000Z</time>
      </trkpt>
      <trkpt lat="44.47496" lon="6.69526">
        <ele>2229.3999023438</ele>
        <time>2022-03-11T13:51:15.000Z</time>
      </trkpt>
      <trkpt lat="44.47495" lon="6.69521">
        <ele>2230.6000976562</ele>
        <time>2022-03-11T13:51:22.000Z</time>
      </trkpt>
      <trkpt lat="44.47491" lon="6.69521">
        <ele>2231.6000976562</ele>
        <time>2022-03-11T13:51:30.000Z</time>
      </trkpt>
      <trkpt lat="44.4749" lon="6.6952">
        <ele>2231.8000488281</ele>
        <time>2022-03-11T13:51:31.000Z</time>
      </trkpt>
      <trkpt lat="44.47487" lon="6.6952">
        <ele>2232.8000488281</ele>
        <time>2022-03-11T13:51:39.000Z</time>
      </trkpt>
      <trkpt lat="44.4749" lon="6.6952">
        <ele>2233.3999023438</ele>
        <time>2022-03-11T13:51:46.000Z</time>
      </trkpt>
      <trkpt lat="44.4749" lon="6.69519">
        <ele>2233.8000488281</ele>
        <time>2022-03-11T13:51:48.000Z</time>
      </trkpt>
      <trkpt lat="44.47489" lon="6.69516">
        <ele>2234.3999023438</ele>
        <time>2022-03-11T13:51:54.000Z</time>
      </trkpt>
      <trkpt lat="44.4749" lon="6.69513">
        <ele>2235</ele>
        <time>2022-03-11T13:51:57.000Z</time>
      </trkpt>
      <trkpt lat="44.47491" lon="6.69511">
        <ele>2235.1999511719</ele>
        <time>2022-03-11T13:51:59.000Z</time>
      </trkpt>
      <trkpt lat="44.4749" lon="6.69509">
        <ele>2236</ele>
        <time>2022-03-11T13:52:05.000Z</time>
      </trkpt>
      <trkpt lat="44.4749" lon="6.69506">
        <ele>2237</ele>
        <time>2022-03-11T13:52:10.000Z</time>
      </trkpt>
      <trkpt lat="44.47488" lon="6.69501">
        <ele>2237.8000488281</ele>
        <time>2022-03-11T13:52:16.000Z</time>
      </trkpt>
      <trkpt lat="44.47489" lon="6.695">
        <ele>2238.1999511719</ele>
        <time>2022-03-11T13:52:18.000Z</time>
      </trkpt>
      <trkpt lat="44.4749" lon="6.69496">
        <ele>2238.8000488281</ele>
        <time>2022-03-11T13:52:22.000Z</time>
      </trkpt>
      <trkpt lat="44.4749" lon="6.69496">
        <ele>2239.1999511719</ele>
        <time>2022-03-11T13:52:28.000Z</time>
      </trkpt>
      <trkpt lat="44.47492" lon="6.69495">
        <ele>2239.1999511719</ele>
        <time>2022-03-11T13:52:30.000Z</time>
      </trkpt>
      <trkpt lat="44.47491" lon="6.69494">
        <ele>2239.3999023438</ele>
        <time>2022-03-11T13:52:36.000Z</time>
      </trkpt>
      <trkpt lat="44.47492" lon="6.69488">
        <ele>2239.6000976562</ele>
        <time>2022-03-11T13:53:05.000Z</time>
      </trkpt>
      <trkpt lat="44.47492" lon="6.69474">
        <ele>2240.3999023438</ele>
        <time>2022-03-11T13:53:20.000Z</time>
      </trkpt>
      <trkpt lat="44.47492" lon="6.69473">
        <ele>2241.3999023438</ele>
        <time>2022-03-11T13:53:26.000Z</time>
      </trkpt>
      <trkpt lat="44.47492" lon="6.6947">
        <ele>2242.6000976562</ele>
        <time>2022-03-11T13:53:38.000Z</time>
      </trkpt>
      <trkpt lat="44.47492" lon="6.69467">
        <ele>2243.6000976562</ele>
        <time>2022-03-11T13:53:47.000Z</time>
      </trkpt>
      <trkpt lat="44.47493" lon="6.69462">
        <ele>2244.6000976562</ele>
        <time>2022-03-11T13:53:58.000Z</time>
      </trkpt>
      <trkpt lat="44.47493" lon="6.69461">
        <ele>2245.8000488281</ele>
        <time>2022-03-11T13:54:10.000Z</time>
      </trkpt>
      <trkpt lat="44.47494" lon="6.69461">
        <ele>2247</ele>
        <time>2022-03-11T13:54:17.000Z</time>
      </trkpt>
      <trkpt lat="44.47493" lon="6.6946">
        <ele>2248</ele>
        <time>2022-03-11T13:54:28.000Z</time>
      </trkpt>
      <trkpt lat="44.47492" lon="6.69457">
        <ele>2249</ele>
        <time>2022-03-11T13:54:33.000Z</time>
      </trkpt>
      <trkpt lat="44.47491" lon="6.69456">
        <ele>2249.3999023438</ele>
        <time>2022-03-11T13:54:35.000Z</time>
      </trkpt>
      <trkpt lat="44.47488" lon="6.69452">
        <ele>2249.6000976562</ele>
        <time>2022-03-11T13:54:37.000Z</time>
      </trkpt>
      <trkpt lat="44.47483" lon="6.69447">
        <ele>2250</ele>
        <time>2022-03-11T13:54:41.000Z</time>
      </trkpt>
      <trkpt lat="44.4748" lon="6.69443">
        <ele>2250.6000976562</ele>
        <time>2022-03-11T13:54:44.000Z</time>
      </trkpt>
      <trkpt lat="44.47479" lon="6.69444">
        <ele>2251</ele>
        <time>2022-03-11T13:54:49.000Z</time>
      </trkpt>
      <trkpt lat="44.4748" lon="6.69444">
        <ele>2251.1999511719</ele>
        <time>2022-03-11T13:54:50.000Z</time>
      </trkpt>
      <trkpt lat="44.4748" lon="6.69444">
        <ele>2251.8000488281</ele>
        <time>2022-03-11T13:54:55.000Z</time>
      </trkpt>
      <trkpt lat="44.47481" lon="6.69443">
        <ele>2252.3999023438</ele>
        <time>2022-03-11T13:54:59.000Z</time>
      </trkpt>
      <trkpt lat="44.47482" lon="6.69444">
        <ele>2252.8000488281</ele>
        <time>2022-03-11T13:55:02.000Z</time>
      </trkpt>
      <trkpt lat="44.47482" lon="6.69445">
        <ele>2253</ele>
        <time>2022-03-11T13:55:03.000Z</time>
      </trkpt>
      <trkpt lat="44.47478" lon="6.69448">
        <ele>2253.3999023438</ele>
        <time>2022-03-11T13:55:06.000Z</time>
      </trkpt>
      <trkpt lat="44.47477" lon="6.69447">
        <ele>2253.6000976562</ele>
        <time>2022-03-11T13:55:07.000Z</time>
      </trkpt>
      <trkpt lat="44.47475" lon="6.69445">
        <ele>2254</ele>
        <time>2022-03-11T13:55:11.000Z</time>
      </trkpt>
      <trkpt lat="44.47474" lon="6.69443">
        <ele>2254.6000976562</ele>
        <time>2022-03-11T13:55:15.000Z</time>
      </trkpt>
      <trkpt lat="44.47472" lon="6.6944">
        <ele>2254.8000488281</ele>
        <time>2022-03-11T13:55:18.000Z</time>
      </trkpt>
      <trkpt lat="44.47466" lon="6.69435">
        <ele>2255.8000488281</ele>
        <time>2022-03-11T13:55:25.000Z</time>
      </trkpt>
      <trkpt lat="44.47465" lon="6.69429">
        <ele>2256.8000488281</ele>
        <time>2022-03-11T13:55:33.000Z</time>
      </trkpt>
      <trkpt lat="44.47468" lon="6.69432">
        <ele>2257.6000976562</ele>
        <time>2022-03-11T13:55:39.000Z</time>
      </trkpt>
      <trkpt lat="44.47469" lon="6.69433">
        <ele>2257.8000488281</ele>
        <time>2022-03-11T13:55:41.000Z</time>
      </trkpt>
      <trkpt lat="44.4747" lon="6.69434">
        <ele>2257.8000488281</ele>
        <time>2022-03-11T13:55:42.000Z</time>
      </trkpt>
      <trkpt lat="44.47471" lon="6.69434">
        <ele>2258</ele>
        <time>2022-03-11T13:55:43.000Z</time>
      </trkpt>
      <trkpt lat="44.47471" lon="6.69438">
        <ele>2258.1999511719</ele>
        <time>2022-03-11T13:55:50.000Z</time>
      </trkpt>
      <trkpt lat="44.47469" lon="6.69438">
        <ele>2258.6000976562</ele>
        <time>2022-03-11T13:55:55.000Z</time>
      </trkpt>
      <trkpt lat="44.47471" lon="6.69437">
        <ele>2258.8000488281</ele>
        <time>2022-03-11T13:55:59.000Z</time>
      </trkpt>
      <trkpt lat="44.47471" lon="6.69437">
        <ele>2258.8000488281</ele>
        <time>2022-03-11T13:56:01.000Z</time>
      </trkpt>
      <trkpt lat="44.47468" lon="6.69441">
        <ele>2260</ele>
        <time>2022-03-11T13:56:12.000Z</time>
      </trkpt>
      <trkpt lat="44.47467" lon="6.69442">
        <ele>2260.1999511719</ele>
        <time>2022-03-11T13:56:13.000Z</time>
      </trkpt>
      <trkpt lat="44.47463" lon="6.69446">
        <ele>2260.8000488281</ele>
        <time>2022-03-11T13:56:18.000Z</time>
      </trkpt>
      <trkpt lat="44.47463" lon="6.69446">
        <ele>2261</ele>
        <time>2022-03-11T13:56:19.000Z</time>
      </trkpt>
      <trkpt lat="44.47461" lon="6.69448">
        <ele>2261.8000488281</ele>
        <time>2022-03-11T13:56:24.000Z</time>
      </trkpt>
      <trkpt lat="44.47459" lon="6.69448">
        <ele>2262</ele>
        <time>2022-03-11T13:56:26.000Z</time>
      </trkpt>
      <trkpt lat="44.47457" lon="6.6945">
        <ele>2262.3999023438</ele>
        <time>2022-03-11T13:56:30.000Z</time>
      </trkpt>
      <trkpt lat="44.47453" lon="6.69457">
        <ele>2262.6000976562</ele>
        <time>2022-03-11T13:56:38.000Z</time>
      </trkpt>
      <trkpt lat="44.47448" lon="6.69457">
        <ele>2263.1999511719</ele>
        <time>2022-03-11T13:56:43.000Z</time>
      </trkpt>
      <trkpt lat="44.47447" lon="6.69457">
        <ele>2263.3999023438</ele>
        <time>2022-03-11T13:56:44.000Z</time>
      </trkpt>
      <trkpt lat="44.47441" lon="6.69459">
        <ele>2264.1999511719</ele>
        <time>2022-03-11T13:56:50.000Z</time>
      </trkpt>
      <trkpt lat="44.47438" lon="6.69461">
        <ele>2264.6000976562</ele>
        <time>2022-03-11T13:56:56.000Z</time>
      </trkpt>
      <trkpt lat="44.47434" lon="6.69462">
        <ele>2265.3999023438</ele>
        <time>2022-03-11T13:57:01.000Z</time>
      </trkpt>
      <trkpt lat="44.47433" lon="6.69462">
        <ele>2266</ele>
        <time>2022-03-11T13:57:04.000Z</time>
      </trkpt>
      <trkpt lat="44.47429" lon="6.6946">
        <ele>2266.3999023438</ele>
        <time>2022-03-11T13:57:08.000Z</time>
      </trkpt>
      <trkpt lat="44.47421" lon="6.69459">
        <ele>2267.3999023438</ele>
        <time>2022-03-11T13:57:14.000Z</time>
      </trkpt>
      <trkpt lat="44.47418" lon="6.69459">
        <ele>2267.6000976562</ele>
        <time>2022-03-11T13:57:15.000Z</time>
      </trkpt>
      <trkpt lat="44.47413" lon="6.6946">
        <ele>2268.3999023438</ele>
        <time>2022-03-11T13:57:22.000Z</time>
      </trkpt>
      <trkpt lat="44.47411" lon="6.69461">
        <ele>2268.8000488281</ele>
        <time>2022-03-11T13:57:25.000Z</time>
      </trkpt>
      <trkpt lat="44.47408" lon="6.6946">
        <ele>2269.3999023438</ele>
        <time>2022-03-11T13:57:29.000Z</time>
      </trkpt>
      <trkpt lat="44.47407" lon="6.6946">
        <ele>2269.8000488281</ele>
        <time>2022-03-11T13:57:31.000Z</time>
      </trkpt>
      <trkpt lat="44.47406" lon="6.69462">
        <ele>2270.1999511719</ele>
        <time>2022-03-11T13:57:34.000Z</time>
      </trkpt>
      <trkpt lat="44.47404" lon="6.69465">
        <ele>2271</ele>
        <time>2022-03-11T13:57:39.000Z</time>
      </trkpt>
      <trkpt lat="44.47401" lon="6.69464">
        <ele>2271.3999023438</ele>
        <time>2022-03-11T13:57:42.000Z</time>
      </trkpt>
      <trkpt lat="44.47398" lon="6.69464">
        <ele>2271.8000488281</ele>
        <time>2022-03-11T13:57:46.000Z</time>
      </trkpt>
      <trkpt lat="44.47396" lon="6.69464">
        <ele>2272</ele>
        <time>2022-03-11T13:57:47.000Z</time>
      </trkpt>
      <trkpt lat="44.47395" lon="6.69463">
        <ele>2272.1999511719</ele>
        <time>2022-03-11T13:57:48.000Z</time>
      </trkpt>
      <trkpt lat="44.47394" lon="6.69462">
        <ele>2273</ele>
        <time>2022-03-11T13:57:54.000Z</time>
      </trkpt>
      <trkpt lat="44.47393" lon="6.69462">
        <ele>2273.1999511719</ele>
        <time>2022-03-11T13:57:56.000Z</time>
      </trkpt>
      <trkpt lat="44.47391" lon="6.69464">
        <ele>2274.1999511719</ele>
        <time>2022-03-11T13:58:03.000Z</time>
      </trkpt>
      <trkpt lat="44.47388" lon="6.69466">
        <ele>2275.1999511719</ele>
        <time>2022-03-11T13:58:12.000Z</time>
      </trkpt>
      <trkpt lat="44.47387" lon="6.69466">
        <ele>2275.3999023438</ele>
        <time>2022-03-11T13:58:13.000Z</time>
      </trkpt>
      <trkpt lat="44.47384" lon="6.69462">
        <ele>2276.3999023438</ele>
        <time>2022-03-11T13:58:20.000Z</time>
      </trkpt>
      <trkpt lat="44.47384" lon="6.69459">
        <ele>2277.1999511719</ele>
        <time>2022-03-11T13:58:26.000Z</time>
      </trkpt>
      <trkpt lat="44.47384" lon="6.69458">
        <ele>2277.3999023438</ele>
        <time>2022-03-11T13:58:28.000Z</time>
      </trkpt>
      <trkpt lat="44.47382" lon="6.69454">
        <ele>2278.3999023438</ele>
        <time>2022-03-11T13:58:34.000Z</time>
      </trkpt>
      <trkpt lat="44.47382" lon="6.69454">
        <ele>2278.6000976562</ele>
        <time>2022-03-11T13:58:35.000Z</time>
      </trkpt>
      <trkpt lat="44.47385" lon="6.69456">
        <ele>2279.3999023438</ele>
        <time>2022-03-11T13:58:43.000Z</time>
      </trkpt>
      <trkpt lat="44.47385" lon="6.69457">
        <ele>2279.3999023438</ele>
        <time>2022-03-11T13:58:44.000Z</time>
      </trkpt>
      <trkpt lat="44.47382" lon="6.69457">
        <ele>2280</ele>
        <time>2022-03-11T13:58:48.000Z</time>
      </trkpt>
      <trkpt lat="44.4738" lon="6.69456">
        <ele>2280.6000976562</ele>
        <time>2022-03-11T13:58:51.000Z</time>
      </trkpt>
      <trkpt lat="44.47378" lon="6.69457">
        <ele>2281.1999511719</ele>
        <time>2022-03-11T13:58:55.000Z</time>
      </trkpt>
      <trkpt lat="44.47374" lon="6.69457">
        <ele>2281.8000488281</ele>
        <time>2022-03-11T13:58:59.000Z</time>
      </trkpt>
      <trkpt lat="44.47374" lon="6.69456">
        <ele>2282.1999511719</ele>
        <time>2022-03-11T13:59:01.000Z</time>
      </trkpt>
      <trkpt lat="44.47372" lon="6.69456">
        <ele>2282.8000488281</ele>
        <time>2022-03-11T13:59:06.000Z</time>
      </trkpt>
      <trkpt lat="44.47372" lon="6.69456">
        <ele>2283.3999023438</ele>
        <time>2022-03-11T13:59:08.000Z</time>
      </trkpt>
      <trkpt lat="44.4737" lon="6.69457">
        <ele>2284</ele>
        <time>2022-03-11T13:59:13.000Z</time>
      </trkpt>
      <trkpt lat="44.47368" lon="6.69458">
        <ele>2285</ele>
        <time>2022-03-11T13:59:19.000Z</time>
      </trkpt>
      <trkpt lat="44.47368" lon="6.69458">
        <ele>2285</ele>
        <time>2022-03-11T13:59:20.000Z</time>
      </trkpt>
      <trkpt lat="44.47365" lon="6.69459">
        <ele>2285.8000488281</ele>
        <time>2022-03-11T13:59:27.000Z</time>
      </trkpt>
      <trkpt lat="44.47364" lon="6.69459">
        <ele>2286</ele>
        <time>2022-03-11T13:59:29.000Z</time>
      </trkpt>
      <trkpt lat="44.47361" lon="6.6946">
        <ele>2287</ele>
        <time>2022-03-11T13:59:34.000Z</time>
      </trkpt>
      <trkpt lat="44.47361" lon="6.6946">
        <ele>2287.1999511719</ele>
        <time>2022-03-11T13:59:36.000Z</time>
      </trkpt>
      <trkpt lat="44.47361" lon="6.69463">
        <ele>2288.1999511719</ele>
        <time>2022-03-11T13:59:42.000Z</time>
      </trkpt>
      <trkpt lat="44.47361" lon="6.69463">
        <ele>2288.1999511719</ele>
        <time>2022-03-11T13:59:43.000Z</time>
      </trkpt>
      <trkpt lat="44.47362" lon="6.69465">
        <ele>2289.1999511719</ele>
        <time>2022-03-11T13:59:52.000Z</time>
      </trkpt>
      <trkpt lat="44.47362" lon="6.69465">
        <ele>2289.1999511719</ele>
        <time>2022-03-11T13:59:58.000Z</time>
      </trkpt>
      <trkpt lat="44.47364" lon="6.69465">
        <ele>2289.6000976562</ele>
        <time>2022-03-11T14:00:21.000Z</time>
      </trkpt>
      <trkpt lat="44.47362" lon="6.69464">
        <ele>2290.1999511719</ele>
        <time>2022-03-11T14:00:43.000Z</time>
      </trkpt>
      <trkpt lat="44.47361" lon="6.69463">
        <ele>2290.3999023438</ele>
        <time>2022-03-11T14:00:44.000Z</time>
      </trkpt>
      <trkpt lat="44.4736" lon="6.69463">
        <ele>2291.3999023438</ele>
        <time>2022-03-11T14:00:51.000Z</time>
      </trkpt>
      <trkpt lat="44.47359" lon="6.69462">
        <ele>2292.6000976562</ele>
        <time>2022-03-11T14:00:57.000Z</time>
      </trkpt>
      <trkpt lat="44.47355" lon="6.69461">
        <ele>2293.6000976562</ele>
        <time>2022-03-11T14:01:04.000Z</time>
      </trkpt>
      <trkpt lat="44.47352" lon="6.69456">
        <ele>2294.6000976562</ele>
        <time>2022-03-11T14:01:12.000Z</time>
      </trkpt>
      <trkpt lat="44.47349" lon="6.69446">
        <ele>2295.3999023438</ele>
        <time>2022-03-11T14:01:17.000Z</time>
      </trkpt>
      <trkpt lat="44.47348" lon="6.69436">
        <ele>2295.8000488281</ele>
        <time>2022-03-11T14:01:21.000Z</time>
      </trkpt>
      <trkpt lat="44.47346" lon="6.6943">
        <ele>2296.3999023438</ele>
        <time>2022-03-11T14:01:25.000Z</time>
      </trkpt>
      <trkpt lat="44.47344" lon="6.69427">
        <ele>2296.8000488281</ele>
        <time>2022-03-11T14:01:28.000Z</time>
      </trkpt>
      <trkpt lat="44.47344" lon="6.69422">
        <ele>2298</ele>
        <time>2022-03-11T14:01:35.000Z</time>
      </trkpt>
      <trkpt lat="44.47349" lon="6.69416">
        <ele>2299</ele>
        <time>2022-03-11T14:01:42.000Z</time>
      </trkpt>
      <trkpt lat="44.47352" lon="6.69413">
        <ele>2300</ele>
        <time>2022-03-11T14:01:48.000Z</time>
      </trkpt>
      <trkpt lat="44.47352" lon="6.69413">
        <ele>2300.1999511719</ele>
        <time>2022-03-11T14:01:49.000Z</time>
      </trkpt>
      <trkpt lat="44.47352" lon="6.69414">
        <ele>2300.8000488281</ele>
        <time>2022-03-11T14:01:53.000Z</time>
      </trkpt>
      <trkpt lat="44.47351" lon="6.69414">
        <ele>2301.1999511719</ele>
        <time>2022-03-11T14:01:55.000Z</time>
      </trkpt>
      <trkpt lat="44.47351" lon="6.69414">
        <ele>2301.6000976562</ele>
        <time>2022-03-11T14:02:00.000Z</time>
      </trkpt>
      <trkpt lat="44.47351" lon="6.69414">
        <ele>2302.1999511719</ele>
        <time>2022-03-11T14:02:08.000Z</time>
      </trkpt>
      <trkpt lat="44.4735" lon="6.69414">
        <ele>2303.3999023438</ele>
        <time>2022-03-11T14:02:16.000Z</time>
      </trkpt>
      <trkpt lat="44.47347" lon="6.69414">
        <ele>2304.6000976562</ele>
        <time>2022-03-11T14:02:23.000Z</time>
      </trkpt>
      <trkpt lat="44.47342" lon="6.69413">
        <ele>2305.8000488281</ele>
        <time>2022-03-11T14:02:32.000Z</time>
      </trkpt>
      <trkpt lat="44.4734" lon="6.69413">
        <ele>2306.8000488281</ele>
        <time>2022-03-11T14:02:40.000Z</time>
      </trkpt>
      <trkpt lat="44.47338" lon="6.69413">
        <ele>2308</ele>
        <time>2022-03-11T14:02:48.000Z</time>
      </trkpt>
      <trkpt lat="44.47337" lon="6.69414">
        <ele>2309</ele>
        <time>2022-03-11T14:02:57.000Z</time>
      </trkpt>
      <trkpt lat="44.47336" lon="6.69417">
        <ele>2310.1999511719</ele>
        <time>2022-03-11T14:03:10.000Z</time>
      </trkpt>
      <trkpt lat="44.47335" lon="6.69417">
        <ele>2311.1999511719</ele>
        <time>2022-03-11T14:03:16.000Z</time>
      </trkpt>
      <trkpt lat="44.47333" lon="6.69413">
        <ele>2312.3999023438</ele>
        <time>2022-03-11T14:03:24.000Z</time>
      </trkpt>
      <trkpt lat="44.47331" lon="6.69399">
        <ele>2313.3999023438</ele>
        <time>2022-03-11T14:03:43.000Z</time>
      </trkpt>
      <trkpt lat="44.47331" lon="6.69399">
        <ele>2314.3999023438</ele>
        <time>2022-03-11T14:04:01.000Z</time>
      </trkpt>
      <trkpt lat="44.47328" lon="6.69399">
        <ele>2315.3999023438</ele>
        <time>2022-03-11T14:04:14.000Z</time>
      </trkpt>
      <trkpt lat="44.47327" lon="6.69399">
        <ele>2315.3999023438</ele>
        <time>2022-03-11T14:04:16.000Z</time>
      </trkpt>
      <trkpt lat="44.47324" lon="6.69399">
        <ele>2315.8000488281</ele>
        <time>2022-03-11T14:04:20.000Z</time>
      </trkpt>
      <trkpt lat="44.47325" lon="6.69395">
        <ele>2316.3999023438</ele>
        <time>2022-03-11T14:04:26.000Z</time>
      </trkpt>
      <trkpt lat="44.47327" lon="6.69391">
        <ele>2317.6000976562</ele>
        <time>2022-03-11T14:04:31.000Z</time>
      </trkpt>
      <trkpt lat="44.47327" lon="6.69391">
        <ele>2317.6000976562</ele>
        <time>2022-03-11T14:04:32.000Z</time>
      </trkpt>
      <trkpt lat="44.47325" lon="6.6939">
        <ele>2318.6000976562</ele>
        <time>2022-03-11T14:04:37.000Z</time>
      </trkpt>
      <trkpt lat="44.47326" lon="6.6939">
        <ele>2318.8000488281</ele>
        <time>2022-03-11T14:04:39.000Z</time>
      </trkpt>
      <trkpt lat="44.47325" lon="6.69391">
        <ele>2319.1999511719</ele>
        <time>2022-03-11T14:04:44.000Z</time>
      </trkpt>
      <trkpt lat="44.47324" lon="6.69391">
        <ele>2319.6000976562</ele>
        <time>2022-03-11T14:04:48.000Z</time>
      </trkpt>
      <trkpt lat="44.47324" lon="6.69392">
        <ele>2320</ele>
        <time>2022-03-11T14:04:51.000Z</time>
      </trkpt>
      <trkpt lat="44.47323" lon="6.69392">
        <ele>2320.8000488281</ele>
        <time>2022-03-11T14:04:54.000Z</time>
      </trkpt>
      <trkpt lat="44.47321" lon="6.69394">
        <ele>2321.3999023438</ele>
        <time>2022-03-11T14:04:59.000Z</time>
      </trkpt>
      <trkpt lat="44.47321" lon="6.69394">
        <ele>2321.8000488281</ele>
        <time>2022-03-11T14:05:02.000Z</time>
      </trkpt>
      <trkpt lat="44.47322" lon="6.69385">
        <ele>2323</ele>
        <time>2022-03-11T14:05:15.000Z</time>
      </trkpt>
      <trkpt lat="44.47323" lon="6.69384">
        <ele>2323</ele>
        <time>2022-03-11T14:05:16.000Z</time>
      </trkpt>
      <trkpt lat="44.47323" lon="6.69377">
        <ele>2324</ele>
        <time>2022-03-11T14:05:22.000Z</time>
      </trkpt>
      <trkpt lat="44.47324" lon="6.69376">
        <ele>2324</ele>
        <time>2022-03-11T14:05:23.000Z</time>
      </trkpt>
      <trkpt lat="44.47327" lon="6.69371">
        <ele>2325</ele>
        <time>2022-03-11T14:05:29.000Z</time>
      </trkpt>
      <trkpt lat="44.47328" lon="6.69371">
        <ele>2325</ele>
        <time>2022-03-11T14:05:30.000Z</time>
      </trkpt>
      <trkpt lat="44.47327" lon="6.6937">
        <ele>2325.8000488281</ele>
        <time>2022-03-11T14:05:35.000Z</time>
      </trkpt>
      <trkpt lat="44.47324" lon="6.69372">
        <ele>2326.1999511719</ele>
        <time>2022-03-11T14:05:39.000Z</time>
      </trkpt>
      <trkpt lat="44.47321" lon="6.69371">
        <ele>2326.3999023438</ele>
        <time>2022-03-11T14:05:42.000Z</time>
      </trkpt>
      <trkpt lat="44.47317" lon="6.6937">
        <ele>2327.1999511719</ele>
        <time>2022-03-11T14:05:48.000Z</time>
      </trkpt>
      <trkpt lat="44.47316" lon="6.6937">
        <ele>2327.3999023438</ele>
        <time>2022-03-11T14:05:50.000Z</time>
      </trkpt>
      <trkpt lat="44.47314" lon="6.69369">
        <ele>2328.1999511719</ele>
        <time>2022-03-11T14:05:57.000Z</time>
      </trkpt>
      <trkpt lat="44.47312" lon="6.69367">
        <ele>2328.6000976562</ele>
        <time>2022-03-11T14:06:00.000Z</time>
      </trkpt>
      <trkpt lat="44.47312" lon="6.69363">
        <ele>2329.1999511719</ele>
        <time>2022-03-11T14:06:03.000Z</time>
      </trkpt>
      <trkpt lat="44.47314" lon="6.69359">
        <ele>2329.6000976562</ele>
        <time>2022-03-11T14:06:07.000Z</time>
      </trkpt>
      <trkpt lat="44.47316" lon="6.69354">
        <ele>2330.3999023438</ele>
        <time>2022-03-11T14:06:14.000Z</time>
      </trkpt>
      <trkpt lat="44.47317" lon="6.69352">
        <ele>2330.8000488281</ele>
        <time>2022-03-11T14:06:16.000Z</time>
      </trkpt>
      <trkpt lat="44.47318" lon="6.69349">
        <ele>2331.6000976562</ele>
        <time>2022-03-11T14:06:20.000Z</time>
      </trkpt>
      <trkpt lat="44.47318" lon="6.69346">
        <ele>2332</ele>
        <time>2022-03-11T14:06:23.000Z</time>
      </trkpt>
      <trkpt lat="44.47318" lon="6.69345">
        <ele>2332.8000488281</ele>
        <time>2022-03-11T14:06:26.000Z</time>
      </trkpt>
      <trkpt lat="44.47316" lon="6.69342">
        <ele>2333.8000488281</ele>
        <time>2022-03-11T14:06:32.000Z</time>
      </trkpt>
      <trkpt lat="44.47315" lon="6.69342">
        <ele>2333.8000488281</ele>
        <time>2022-03-11T14:06:33.000Z</time>
      </trkpt>
      <trkpt lat="44.47309" lon="6.69339">
        <ele>2334.8000488281</ele>
        <time>2022-03-11T14:06:42.000Z</time>
      </trkpt>
      <trkpt lat="44.47307" lon="6.69337">
        <ele>2335</ele>
        <time>2022-03-11T14:06:43.000Z</time>
      </trkpt>
      <trkpt lat="44.47304" lon="6.69333">
        <ele>2336</ele>
        <time>2022-03-11T14:06:50.000Z</time>
      </trkpt>
      <trkpt lat="44.47303" lon="6.69333">
        <ele>2336.1999511719</ele>
        <time>2022-03-11T14:06:52.000Z</time>
      </trkpt>
      <trkpt lat="44.47302" lon="6.69332">
        <ele>2337.1999511719</ele>
        <time>2022-03-11T14:06:58.000Z</time>
      </trkpt>
      <trkpt lat="44.47302" lon="6.69331">
        <ele>2337.6000976562</ele>
        <time>2022-03-11T14:07:02.000Z</time>
      </trkpt>
      <trkpt lat="44.47302" lon="6.69331">
        <ele>2337.6000976562</ele>
        <time>2022-03-11T14:07:09.000Z</time>
      </trkpt>
      <trkpt lat="44.47302" lon="6.69331">
        <ele>2337.3999023438</ele>
        <time>2022-03-11T14:07:16.000Z</time>
      </trkpt>
      <trkpt lat="44.47302" lon="6.69328">
        <ele>2337.3999023438</ele>
        <time>2022-03-11T14:08:06.000Z</time>
      </trkpt>
      <trkpt lat="44.47302" lon="6.6933">
        <ele>2337</ele>
        <time>2022-03-11T14:08:41.000Z</time>
      </trkpt>
      <trkpt lat="44.47303" lon="6.6933">
        <ele>2337.3999023438</ele>
        <time>2022-03-11T14:10:43.000Z</time>
      </trkpt>
      <trkpt lat="44.47304" lon="6.6933">
        <ele>2337.8000488281</ele>
        <time>2022-03-11T14:13:25.000Z</time>
      </trkpt>
      <trkpt lat="44.47305" lon="6.69328">
        <ele>2338</ele>
        <time>2022-03-11T14:13:34.000Z</time>
      </trkpt>
      <trkpt lat="44.47306" lon="6.69328">
        <ele>2337.8000488281</ele>
        <time>2022-03-11T14:13:46.000Z</time>
      </trkpt>
      <trkpt lat="44.47307" lon="6.6933">
        <ele>2337.8000488281</ele>
        <time>2022-03-11T14:14:55.000Z</time>
      </trkpt>
      <trkpt lat="44.47307" lon="6.69331">
        <ele>2337.6000976562</ele>
        <time>2022-03-11T14:16:02.000Z</time>
      </trkpt>
      <trkpt lat="44.47306" lon="6.69333">
        <ele>2337.6000976562</ele>
        <time>2022-03-11T14:16:42.000Z</time>
      </trkpt>
      <trkpt lat="44.47306" lon="6.69333">
        <ele>2337.3999023438</ele>
        <time>2022-03-11T14:16:56.000Z</time>
      </trkpt>
      <trkpt lat="44.47304" lon="6.69329">
        <ele>2338</ele>
        <time>2022-03-11T14:19:06.000Z</time>
      </trkpt>
      <trkpt lat="44.47303" lon="6.69329">
        <ele>2338</ele>
        <time>2022-03-11T14:20:22.000Z</time>
      </trkpt>
      <trkpt lat="44.47303" lon="6.69329">
        <ele>2338</ele>
        <time>2022-03-11T14:20:58.000Z</time>
      </trkpt>
      <trkpt lat="44.47303" lon="6.69328">
        <ele>2338.1999511719</ele>
        <time>2022-03-11T14:23:01.000Z</time>
      </trkpt>
      <trkpt lat="44.47304" lon="6.69328">
        <ele>2338</ele>
        <time>2022-03-11T14:23:44.000Z</time>
      </trkpt>
      <trkpt lat="44.47304" lon="6.69328">
        <ele>2338</ele>
        <time>2022-03-11T14:25:14.000Z</time>
      </trkpt>
      <trkpt lat="44.47309" lon="6.69335">
        <ele>2337.6000976562</ele>
        <time>2022-03-11T14:25:17.000Z</time>
      </trkpt>
      <trkpt lat="44.47313" lon="6.69341">
        <ele>2336.3999023438</ele>
        <time>2022-03-11T14:25:18.000Z</time>
      </trkpt>
      <trkpt lat="44.47314" lon="6.69347">
        <ele>2334.8000488281</ele>
        <time>2022-03-11T14:25:19.000Z</time>
      </trkpt>
      <trkpt lat="44.47315" lon="6.69352">
        <ele>2333.6000976562</ele>
        <time>2022-03-11T14:25:20.000Z</time>
      </trkpt>
      <trkpt lat="44.47317" lon="6.69356">
        <ele>2332.3999023438</ele>
        <time>2022-03-11T14:25:21.000Z</time>
      </trkpt>
      <trkpt lat="44.4732" lon="6.69359">
        <ele>2331</ele>
        <time>2022-03-11T14:25:22.000Z</time>
      </trkpt>
      <trkpt lat="44.47323" lon="6.69359">
        <ele>2328.8000488281</ele>
        <time>2022-03-11T14:25:23.000Z</time>
      </trkpt>
      <trkpt lat="44.47325" lon="6.69359">
        <ele>2327.6000976562</ele>
        <time>2022-03-11T14:25:24.000Z</time>
      </trkpt>
      <trkpt lat="44.47329" lon="6.6936">
        <ele>2326.1999511719</ele>
        <time>2022-03-11T14:25:26.000Z</time>
      </trkpt>
      <trkpt lat="44.47333" lon="6.69362">
        <ele>2325</ele>
        <time>2022-03-11T14:25:30.000Z</time>
      </trkpt>
      <trkpt lat="44.47334" lon="6.69362">
        <ele>2324.8000488281</ele>
        <time>2022-03-11T14:25:31.000Z</time>
      </trkpt>
      <trkpt lat="44.47337" lon="6.69361">
        <ele>2324.3999023438</ele>
        <time>2022-03-11T14:25:33.000Z</time>
      </trkpt>
      <trkpt lat="44.47338" lon="6.69361">
        <ele>2323.8000488281</ele>
        <time>2022-03-11T14:25:34.000Z</time>
      </trkpt>
      <trkpt lat="44.47339" lon="6.69361">
        <ele>2322.8000488281</ele>
        <time>2022-03-11T14:25:36.000Z</time>
      </trkpt>
      <trkpt lat="44.47341" lon="6.6936">
        <ele>2322.6000976562</ele>
        <time>2022-03-11T14:25:37.000Z</time>
      </trkpt>
      <trkpt lat="44.47347" lon="6.69355">
        <ele>2321.6000976562</ele>
        <time>2022-03-11T14:25:41.000Z</time>
      </trkpt>
      <trkpt lat="44.4735" lon="6.69356">
        <ele>2320.8000488281</ele>
        <time>2022-03-11T14:25:42.000Z</time>
      </trkpt>
      <trkpt lat="44.47354" lon="6.69357">
        <ele>2319.6000976562</ele>
        <time>2022-03-11T14:25:43.000Z</time>
      </trkpt>
      <trkpt lat="44.47358" lon="6.69357">
        <ele>2318.1999511719</ele>
        <time>2022-03-11T14:25:44.000Z</time>
      </trkpt>
      <trkpt lat="44.47361" lon="6.69356">
        <ele>2316.6000976562</ele>
        <time>2022-03-11T14:25:45.000Z</time>
      </trkpt>
      <trkpt lat="44.47365" lon="6.69355">
        <ele>2315.3999023438</ele>
        <time>2022-03-11T14:25:46.000Z</time>
      </trkpt>
      <trkpt lat="44.4737" lon="6.6935">
        <ele>2314</ele>
        <time>2022-03-11T14:25:48.000Z</time>
      </trkpt>
      <trkpt lat="44.47374" lon="6.69346">
        <ele>2312.8000488281</ele>
        <time>2022-03-11T14:25:50.000Z</time>
      </trkpt>
      <trkpt lat="44.47377" lon="6.69344">
        <ele>2312.3999023438</ele>
        <time>2022-03-11T14:25:51.000Z</time>
      </trkpt>
      <trkpt lat="44.47385" lon="6.69344">
        <ele>2311</ele>
        <time>2022-03-11T14:25:54.000Z</time>
      </trkpt>
      <trkpt lat="44.47387" lon="6.69347">
        <ele>2310.1999511719</ele>
        <time>2022-03-11T14:25:55.000Z</time>
      </trkpt>
      <trkpt lat="44.47389" lon="6.69348">
        <ele>2309.6000976562</ele>
        <time>2022-03-11T14:25:56.000Z</time>
      </trkpt>
      <trkpt lat="44.47395" lon="6.69352">
        <ele>2308.3999023438</ele>
        <time>2022-03-11T14:25:58.000Z</time>
      </trkpt>
      <trkpt lat="44.47398" lon="6.69355">
        <ele>2307.1999511719</ele>
        <time>2022-03-11T14:25:59.000Z</time>
      </trkpt>
      <trkpt lat="44.474" lon="6.69359">
        <ele>2305.6000976562</ele>
        <time>2022-03-11T14:26:00.000Z</time>
      </trkpt>
      <trkpt lat="44.47401" lon="6.69364">
        <ele>2304.3999023438</ele>
        <time>2022-03-11T14:26:01.000Z</time>
      </trkpt>
      <trkpt lat="44.47402" lon="6.69369">
        <ele>2303.3999023438</ele>
        <time>2022-03-11T14:26:02.000Z</time>
      </trkpt>
      <trkpt lat="44.47404" lon="6.69374">
        <ele>2302.1999511719</ele>
        <time>2022-03-11T14:26:03.000Z</time>
      </trkpt>
      <trkpt lat="44.47405" lon="6.69378">
        <ele>2301</ele>
        <time>2022-03-11T14:26:04.000Z</time>
      </trkpt>
      <trkpt lat="44.47407" lon="6.69382">
        <ele>2298.8000488281</ele>
        <time>2022-03-11T14:26:05.000Z</time>
      </trkpt>
      <trkpt lat="44.47408" lon="6.69385">
        <ele>2297.3999023438</ele>
        <time>2022-03-11T14:26:06.000Z</time>
      </trkpt>
      <trkpt lat="44.47409" lon="6.69391">
        <ele>2295.6000976562</ele>
        <time>2022-03-11T14:26:08.000Z</time>
      </trkpt>
      <trkpt lat="44.47411" lon="6.69393">
        <ele>2293.8000488281</ele>
        <time>2022-03-11T14:26:10.000Z</time>
      </trkpt>
      <trkpt lat="44.47412" lon="6.69392">
        <ele>2293.1999511719</ele>
        <time>2022-03-11T14:26:11.000Z</time>
      </trkpt>
      <trkpt lat="44.47414" lon="6.6939">
        <ele>2292.6000976562</ele>
        <time>2022-03-11T14:26:13.000Z</time>
      </trkpt>
      <trkpt lat="44.47416" lon="6.69392">
        <ele>2292.3999023438</ele>
        <time>2022-03-11T14:26:16.000Z</time>
      </trkpt>
      <trkpt lat="44.47418" lon="6.69397">
        <ele>2292.1999511719</ele>
        <time>2022-03-11T14:26:19.000Z</time>
      </trkpt>
      <trkpt lat="44.47418" lon="6.69401">
        <ele>2292</ele>
        <time>2022-03-11T14:26:21.000Z</time>
      </trkpt>
      <trkpt lat="44.47418" lon="6.69403">
        <ele>2291.8000488281</ele>
        <time>2022-03-11T14:26:27.000Z</time>
      </trkpt>
      <trkpt lat="44.47417" lon="6.69405">
        <ele>2292.1999511719</ele>
        <time>2022-03-11T14:26:33.000Z</time>
      </trkpt>
      <trkpt lat="44.47415" lon="6.69407">
        <ele>2292.3999023438</ele>
        <time>2022-03-11T14:26:39.000Z</time>
      </trkpt>
      <trkpt lat="44.47413" lon="6.69407">
        <ele>2293.1999511719</ele>
        <time>2022-03-11T14:26:47.000Z</time>
      </trkpt>
      <trkpt lat="44.47409" lon="6.69409">
        <ele>2293.3999023438</ele>
        <time>2022-03-11T14:26:54.000Z</time>
      </trkpt>
      <trkpt lat="44.47408" lon="6.69409">
        <ele>2293.1999511719</ele>
        <time>2022-03-11T14:26:56.000Z</time>
      </trkpt>
      <trkpt lat="44.47407" lon="6.6941">
        <ele>2293.1999511719</ele>
        <time>2022-03-11T14:26:57.000Z</time>
      </trkpt>
      <trkpt lat="44.47404" lon="6.69415">
        <ele>2292.8000488281</ele>
        <time>2022-03-11T14:27:02.000Z</time>
      </trkpt>
      <trkpt lat="44.47404" lon="6.69419">
        <ele>2291.6000976562</ele>
        <time>2022-03-11T14:27:08.000Z</time>
      </trkpt>
      <trkpt lat="44.47405" lon="6.69422">
        <ele>2291.1999511719</ele>
        <time>2022-03-11T14:27:09.000Z</time>
      </trkpt>
      <trkpt lat="44.47408" lon="6.69429">
        <ele>2289.3999023438</ele>
        <time>2022-03-11T14:27:11.000Z</time>
      </trkpt>
      <trkpt lat="44.4741" lon="6.69433">
        <ele>2287.3999023438</ele>
        <time>2022-03-11T14:27:12.000Z</time>
      </trkpt>
      <trkpt lat="44.47411" lon="6.69437">
        <ele>2286</ele>
        <time>2022-03-11T14:27:13.000Z</time>
      </trkpt>
      <trkpt lat="44.47413" lon="6.69443">
        <ele>2283.8000488281</ele>
        <time>2022-03-11T14:27:14.000Z</time>
      </trkpt>
      <trkpt lat="44.47414" lon="6.69449">
        <ele>2281</ele>
        <time>2022-03-11T14:27:15.000Z</time>
      </trkpt>
      <trkpt lat="44.47415" lon="6.69454">
        <ele>2278.8000488281</ele>
        <time>2022-03-11T14:27:16.000Z</time>
      </trkpt>
      <trkpt lat="44.47416" lon="6.69458">
        <ele>2276.8000488281</ele>
        <time>2022-03-11T14:27:17.000Z</time>
      </trkpt>
      <trkpt lat="44.47419" lon="6.69461">
        <ele>2275.1999511719</ele>
        <time>2022-03-11T14:27:18.000Z</time>
      </trkpt>
      <trkpt lat="44.47422" lon="6.69464">
        <ele>2273.3999023438</ele>
        <time>2022-03-11T14:27:19.000Z</time>
      </trkpt>
      <trkpt lat="44.47424" lon="6.69467">
        <ele>2271.6000976562</ele>
        <time>2022-03-11T14:27:20.000Z</time>
      </trkpt>
      <trkpt lat="44.47426" lon="6.69468">
        <ele>2270.3999023438</ele>
        <time>2022-03-11T14:27:21.000Z</time>
      </trkpt>
      <trkpt lat="44.47426" lon="6.69469">
        <ele>2268.6000976562</ele>
        <time>2022-03-11T14:27:23.000Z</time>
      </trkpt>
      <trkpt lat="44.47426" lon="6.69469">
        <ele>2268.1999511719</ele>
        <time>2022-03-11T14:27:24.000Z</time>
      </trkpt>
      <trkpt lat="44.47426" lon="6.69468">
        <ele>2267.6000976562</ele>
        <time>2022-03-11T14:27:27.000Z</time>
      </trkpt>
      <trkpt lat="44.47425" lon="6.6947">
        <ele>2267.3999023438</ele>
        <time>2022-03-11T14:27:31.000Z</time>
      </trkpt>
      <trkpt lat="44.47422" lon="6.69472">
        <ele>2267.6000976562</ele>
        <time>2022-03-11T14:28:09.000Z</time>
      </trkpt>
      <trkpt lat="44.47422" lon="6.69472">
        <ele>2267.3999023438</ele>
        <time>2022-03-11T14:28:15.000Z</time>
      </trkpt>
      <trkpt lat="44.47431" lon="6.69474">
        <ele>2266.6000976562</ele>
        <time>2022-03-11T14:28:17.000Z</time>
      </trkpt>
      <trkpt lat="44.47439" lon="6.69476">
        <ele>2264.8000488281</ele>
        <time>2022-03-11T14:28:19.000Z</time>
      </trkpt>
      <trkpt lat="44.47443" lon="6.69477">
        <ele>2263.6000976562</ele>
        <time>2022-03-11T14:28:20.000Z</time>
      </trkpt>
      <trkpt lat="44.47447" lon="6.69477">
        <ele>2262.1999511719</ele>
        <time>2022-03-11T14:28:21.000Z</time>
      </trkpt>
      <trkpt lat="44.4745" lon="6.69478">
        <ele>2260.8000488281</ele>
        <time>2022-03-11T14:28:22.000Z</time>
      </trkpt>
      <trkpt lat="44.47455" lon="6.69479">
        <ele>2259.1999511719</ele>
        <time>2022-03-11T14:28:24.000Z</time>
      </trkpt>
      <trkpt lat="44.47458" lon="6.69476">
        <ele>2258.3999023438</ele>
        <time>2022-03-11T14:28:25.000Z</time>
      </trkpt>
      <trkpt lat="44.47461" lon="6.69471">
        <ele>2257.1999511719</ele>
        <time>2022-03-11T14:28:26.000Z</time>
      </trkpt>
      <trkpt lat="44.47464" lon="6.69467">
        <ele>2255.8000488281</ele>
        <time>2022-03-11T14:28:27.000Z</time>
      </trkpt>
      <trkpt lat="44.47471" lon="6.69463">
        <ele>2254.3999023438</ele>
        <time>2022-03-11T14:28:29.000Z</time>
      </trkpt>
      <trkpt lat="44.47473" lon="6.69463">
        <ele>2253.8000488281</ele>
        <time>2022-03-11T14:28:30.000Z</time>
      </trkpt>
      <trkpt lat="44.47475" lon="6.69462">
        <ele>2252.8000488281</ele>
        <time>2022-03-11T14:28:31.000Z</time>
      </trkpt>
      <trkpt lat="44.47482" lon="6.69461">
        <ele>2250.6000976562</ele>
        <time>2022-03-11T14:28:33.000Z</time>
      </trkpt>
      <trkpt lat="44.47485" lon="6.69462">
        <ele>2248.6000976562</ele>
        <time>2022-03-11T14:28:34.000Z</time>
      </trkpt>
      <trkpt lat="44.47488" lon="6.69462">
        <ele>2247.6000976562</ele>
        <time>2022-03-11T14:28:35.000Z</time>
      </trkpt>
      <trkpt lat="44.47492" lon="6.69461">
        <ele>2246</ele>
        <time>2022-03-11T14:28:36.000Z</time>
      </trkpt>
      <trkpt lat="44.47497" lon="6.6946">
        <ele>2244.1999511719</ele>
        <time>2022-03-11T14:28:37.000Z</time>
      </trkpt>
      <trkpt lat="44.47502" lon="6.69461">
        <ele>2242.8000488281</ele>
        <time>2022-03-11T14:28:38.000Z</time>
      </trkpt>
      <trkpt lat="44.47507" lon="6.69463">
        <ele>2241.1999511719</ele>
        <time>2022-03-11T14:28:39.000Z</time>
      </trkpt>
      <trkpt lat="44.47513" lon="6.69463">
        <ele>2239.6000976562</ele>
        <time>2022-03-11T14:28:40.000Z</time>
      </trkpt>
      <trkpt lat="44.47516" lon="6.69464">
        <ele>2238.6000976562</ele>
        <time>2022-03-11T14:28:41.000Z</time>
      </trkpt>
      <trkpt lat="44.47518" lon="6.69465">
        <ele>2237.6000976562</ele>
        <time>2022-03-11T14:28:42.000Z</time>
      </trkpt>
      <trkpt lat="44.4752" lon="6.69466">
        <ele>2236.1999511719</ele>
        <time>2022-03-11T14:28:43.000Z</time>
      </trkpt>
      <trkpt lat="44.47522" lon="6.69468">
        <ele>2235</ele>
        <time>2022-03-11T14:28:46.000Z</time>
      </trkpt>
      <trkpt lat="44.47523" lon="6.69467">
        <ele>2234.8000488281</ele>
        <time>2022-03-11T14:28:47.000Z</time>
      </trkpt>
      <trkpt lat="44.47524" lon="6.69464">
        <ele>2234.6000976562</ele>
        <time>2022-03-11T14:28:50.000Z</time>
      </trkpt>
      <trkpt lat="44.4753" lon="6.69461">
        <ele>2234.1999511719</ele>
        <time>2022-03-11T14:28:53.000Z</time>
      </trkpt>
      <trkpt lat="44.47532" lon="6.69458">
        <ele>2233.8000488281</ele>
        <time>2022-03-11T14:28:54.000Z</time>
      </trkpt>
      <trkpt lat="44.47535" lon="6.69454">
        <ele>2233.1999511719</ele>
        <time>2022-03-11T14:28:55.000Z</time>
      </trkpt>
      <trkpt lat="44.47539" lon="6.69451">
        <ele>2232.3999023438</ele>
        <time>2022-03-11T14:28:56.000Z</time>
      </trkpt>
      <trkpt lat="44.47544" lon="6.69449">
        <ele>2231.8000488281</ele>
        <time>2022-03-11T14:28:57.000Z</time>
      </trkpt>
      <trkpt lat="44.47549" lon="6.69447">
        <ele>2230.8000488281</ele>
        <time>2022-03-11T14:28:58.000Z</time>
      </trkpt>
      <trkpt lat="44.47553" lon="6.69445">
        <ele>2229.6000976562</ele>
        <time>2022-03-11T14:28:59.000Z</time>
      </trkpt>
      <trkpt lat="44.4756" lon="6.69442">
        <ele>2228.1999511719</ele>
        <time>2022-03-11T14:29:01.000Z</time>
      </trkpt>
      <trkpt lat="44.47562" lon="6.69441">
        <ele>2228</ele>
        <time>2022-03-11T14:29:02.000Z</time>
      </trkpt>
      <trkpt lat="44.47565" lon="6.69442">
        <ele>2227.6000976562</ele>
        <time>2022-03-11T14:29:04.000Z</time>
      </trkpt>
      <trkpt lat="44.47566" lon="6.69446">
        <ele>2227.3999023438</ele>
        <time>2022-03-11T14:29:05.000Z</time>
      </trkpt>
      <trkpt lat="44.4757" lon="6.69453">
        <ele>2226.8000488281</ele>
        <time>2022-03-11T14:29:07.000Z</time>
      </trkpt>
      <trkpt lat="44.47574" lon="6.6946">
        <ele>2224</ele>
        <time>2022-03-11T14:29:09.000Z</time>
      </trkpt>
      <trkpt lat="44.47578" lon="6.69464">
        <ele>2221.6000976562</ele>
        <time>2022-03-11T14:29:10.000Z</time>
      </trkpt>
      <trkpt lat="44.47582" lon="6.69468">
        <ele>2219.6000976562</ele>
        <time>2022-03-11T14:29:11.000Z</time>
      </trkpt>
      <trkpt lat="44.47586" lon="6.69472">
        <ele>2217.8000488281</ele>
        <time>2022-03-11T14:29:12.000Z</time>
      </trkpt>
      <trkpt lat="44.4759" lon="6.69477">
        <ele>2216.3999023438</ele>
        <time>2022-03-11T14:29:13.000Z</time>
      </trkpt>
      <trkpt lat="44.47594" lon="6.69482">
        <ele>2214.3999023438</ele>
        <time>2022-03-11T14:29:14.000Z</time>
      </trkpt>
      <trkpt lat="44.47598" lon="6.69487">
        <ele>2213</ele>
        <time>2022-03-11T14:29:15.000Z</time>
      </trkpt>
      <trkpt lat="44.47601" lon="6.69492">
        <ele>2210.6000976562</ele>
        <time>2022-03-11T14:29:16.000Z</time>
      </trkpt>
      <trkpt lat="44.47603" lon="6.69496">
        <ele>2209.1999511719</ele>
        <time>2022-03-11T14:29:17.000Z</time>
      </trkpt>
      <trkpt lat="44.47606" lon="6.695">
        <ele>2207</ele>
        <time>2022-03-11T14:29:18.000Z</time>
      </trkpt>
      <trkpt lat="44.47609" lon="6.69505">
        <ele>2205</ele>
        <time>2022-03-11T14:29:19.000Z</time>
      </trkpt>
      <trkpt lat="44.47611" lon="6.69509">
        <ele>2202.6000976562</ele>
        <time>2022-03-11T14:29:20.000Z</time>
      </trkpt>
      <trkpt lat="44.47614" lon="6.69513">
        <ele>2200.3999023438</ele>
        <time>2022-03-11T14:29:21.000Z</time>
      </trkpt>
      <trkpt lat="44.47616" lon="6.69516">
        <ele>2199</ele>
        <time>2022-03-11T14:29:22.000Z</time>
      </trkpt>
      <trkpt lat="44.47619" lon="6.69519">
        <ele>2198</ele>
        <time>2022-03-11T14:29:23.000Z</time>
      </trkpt>
      <trkpt lat="44.4762" lon="6.69521">
        <ele>2196.8000488281</ele>
        <time>2022-03-11T14:29:24.000Z</time>
      </trkpt>
      <trkpt lat="44.4762" lon="6.69522">
        <ele>2196</ele>
        <time>2022-03-11T14:29:25.000Z</time>
      </trkpt>
      <trkpt lat="44.4762" lon="6.69524">
        <ele>2195.8000488281</ele>
        <time>2022-03-11T14:29:26.000Z</time>
      </trkpt>
      <trkpt lat="44.47618" lon="6.6953">
        <ele>2195.1999511719</ele>
        <time>2022-03-11T14:29:30.000Z</time>
      </trkpt>
      <trkpt lat="44.47617" lon="6.69533">
        <ele>2195.1999511719</ele>
        <time>2022-03-11T14:29:39.000Z</time>
      </trkpt>
      <trkpt lat="44.47622" lon="6.69533">
        <ele>2195</ele>
        <time>2022-03-11T14:29:53.000Z</time>
      </trkpt>
      <trkpt lat="44.47624" lon="6.6953">
        <ele>2194.6000976562</ele>
        <time>2022-03-11T14:30:30.000Z</time>
      </trkpt>
      <trkpt lat="44.47625" lon="6.69531">
        <ele>2193.3999023438</ele>
        <time>2022-03-11T14:31:07.000Z</time>
      </trkpt>
      <trkpt lat="44.47627" lon="6.69535">
        <ele>2192.1999511719</ele>
        <time>2022-03-11T14:31:08.000Z</time>
      </trkpt>
      <trkpt lat="44.4763" lon="6.69538">
        <ele>2190.3999023438</ele>
        <time>2022-03-11T14:31:09.000Z</time>
      </trkpt>
      <trkpt lat="44.47634" lon="6.69542">
        <ele>2188.6000976562</ele>
        <time>2022-03-11T14:31:10.000Z</time>
      </trkpt>
      <trkpt lat="44.47637" lon="6.69545">
        <ele>2186</ele>
        <time>2022-03-11T14:31:11.000Z</time>
      </trkpt>
      <trkpt lat="44.47642" lon="6.69549">
        <ele>2183.1999511719</ele>
        <time>2022-03-11T14:31:12.000Z</time>
      </trkpt>
      <trkpt lat="44.47648" lon="6.69553">
        <ele>2181</ele>
        <time>2022-03-11T14:31:13.000Z</time>
      </trkpt>
      <trkpt lat="44.47654" lon="6.69557">
        <ele>2177.8000488281</ele>
        <time>2022-03-11T14:31:14.000Z</time>
      </trkpt>
      <trkpt lat="44.4766" lon="6.69562">
        <ele>2173.8000488281</ele>
        <time>2022-03-11T14:31:15.000Z</time>
      </trkpt>
      <trkpt lat="44.47667" lon="6.69567">
        <ele>2169.6000976562</ele>
        <time>2022-03-11T14:31:16.000Z</time>
      </trkpt>
      <trkpt lat="44.47674" lon="6.69571">
        <ele>2167</ele>
        <time>2022-03-11T14:31:17.000Z</time>
      </trkpt>
      <trkpt lat="44.47676" lon="6.69579">
        <ele>2164</ele>
        <time>2022-03-11T14:31:18.000Z</time>
      </trkpt>
      <trkpt lat="44.47677" lon="6.69585">
        <ele>2161.8000488281</ele>
        <time>2022-03-11T14:31:19.000Z</time>
      </trkpt>
      <trkpt lat="44.47677" lon="6.69589">
        <ele>2159.6000976562</ele>
        <time>2022-03-11T14:31:20.000Z</time>
      </trkpt>
      <trkpt lat="44.47677" lon="6.69591">
        <ele>2158</ele>
        <time>2022-03-11T14:31:21.000Z</time>
      </trkpt>
      <trkpt lat="44.47676" lon="6.69592">
        <ele>2157.1999511719</ele>
        <time>2022-03-11T14:31:22.000Z</time>
      </trkpt>
      <trkpt lat="44.47675" lon="6.69593">
        <ele>2156.8000488281</ele>
        <time>2022-03-11T14:31:23.000Z</time>
      </trkpt>
      <trkpt lat="44.4767" lon="6.69596">
        <ele>2156.1999511719</ele>
        <time>2022-03-11T14:31:28.000Z</time>
      </trkpt>
      <trkpt lat="44.47667" lon="6.69605">
        <ele>2156.1999511719</ele>
        <time>2022-03-11T14:31:36.000Z</time>
      </trkpt>
      <trkpt lat="44.47663" lon="6.69609">
        <ele>2156.1999511719</ele>
        <time>2022-03-11T14:31:55.000Z</time>
      </trkpt>
      <trkpt lat="44.47662" lon="6.69609">
        <ele>2156</ele>
        <time>2022-03-11T14:32:14.000Z</time>
      </trkpt>
      <trkpt lat="44.47664" lon="6.69609">
        <ele>2155.8000488281</ele>
        <time>2022-03-11T14:32:15.000Z</time>
      </trkpt>
      <trkpt lat="44.47667" lon="6.69608">
        <ele>2154.6000976562</ele>
        <time>2022-03-11T14:32:16.000Z</time>
      </trkpt>
      <trkpt lat="44.47672" lon="6.69606">
        <ele>2153.3999023438</ele>
        <time>2022-03-11T14:32:18.000Z</time>
      </trkpt>
      <trkpt lat="44.47675" lon="6.69603">
        <ele>2151.8000488281</ele>
        <time>2022-03-11T14:32:20.000Z</time>
      </trkpt>
      <trkpt lat="44.47677" lon="6.69602">
        <ele>2151.1999511719</ele>
        <time>2022-03-11T14:32:21.000Z</time>
      </trkpt>
      <trkpt lat="44.47679" lon="6.69602">
        <ele>2151</ele>
        <time>2022-03-11T14:32:22.000Z</time>
      </trkpt>
      <trkpt lat="44.47681" lon="6.69604">
        <ele>2150.8000488281</ele>
        <time>2022-03-11T14:32:23.000Z</time>
      </trkpt>
      <trkpt lat="44.47682" lon="6.69608">
        <ele>2150.6000976562</ele>
        <time>2022-03-11T14:32:24.000Z</time>
      </trkpt>
      <trkpt lat="44.47686" lon="6.69614">
        <ele>2148.3999023438</ele>
        <time>2022-03-11T14:32:26.000Z</time>
      </trkpt>
      <trkpt lat="44.47689" lon="6.69616">
        <ele>2146.8000488281</ele>
        <time>2022-03-11T14:32:27.000Z</time>
      </trkpt>
      <trkpt lat="44.47691" lon="6.69618">
        <ele>2145</ele>
        <time>2022-03-11T14:32:28.000Z</time>
      </trkpt>
      <trkpt lat="44.47694" lon="6.69621">
        <ele>2143</ele>
        <time>2022-03-11T14:32:29.000Z</time>
      </trkpt>
      <trkpt lat="44.47696" lon="6.69623">
        <ele>2140.8000488281</ele>
        <time>2022-03-11T14:32:30.000Z</time>
      </trkpt>
      <trkpt lat="44.47698" lon="6.69623">
        <ele>2137.6000976562</ele>
        <time>2022-03-11T14:32:31.000Z</time>
      </trkpt>
      <trkpt lat="44.477" lon="6.69622">
        <ele>2134.8000488281</ele>
        <time>2022-03-11T14:32:32.000Z</time>
      </trkpt>
      <trkpt lat="44.47701" lon="6.69624">
        <ele>2133.3999023438</ele>
        <time>2022-03-11T14:32:33.000Z</time>
      </trkpt>
      <trkpt lat="44.47702" lon="6.69626">
        <ele>2132.1999511719</ele>
        <time>2022-03-11T14:32:34.000Z</time>
      </trkpt>
      <trkpt lat="44.47703" lon="6.69629">
        <ele>2131</ele>
        <time>2022-03-11T14:32:35.000Z</time>
      </trkpt>
      <trkpt lat="44.47705" lon="6.69631">
        <ele>2129.8000488281</ele>
        <time>2022-03-11T14:32:36.000Z</time>
      </trkpt>
      <trkpt lat="44.47707" lon="6.69631">
        <ele>2128.8000488281</ele>
        <time>2022-03-11T14:32:37.000Z</time>
      </trkpt>
      <trkpt lat="44.47709" lon="6.6963">
        <ele>2127.1999511719</ele>
        <time>2022-03-11T14:32:38.000Z</time>
      </trkpt>
      <trkpt lat="44.47712" lon="6.69629">
        <ele>2125.8000488281</ele>
        <time>2022-03-11T14:32:39.000Z</time>
      </trkpt>
      <trkpt lat="44.47716" lon="6.69628">
        <ele>2124.8000488281</ele>
        <time>2022-03-11T14:32:40.000Z</time>
      </trkpt>
      <trkpt lat="44.47719" lon="6.69631">
        <ele>2124</ele>
        <time>2022-03-11T14:32:41.000Z</time>
      </trkpt>
      <trkpt lat="44.47722" lon="6.69635">
        <ele>2122.3999023438</ele>
        <time>2022-03-11T14:32:42.000Z</time>
      </trkpt>
      <trkpt lat="44.47725" lon="6.6964">
        <ele>2120.6000976562</ele>
        <time>2022-03-11T14:32:43.000Z</time>
      </trkpt>
      <trkpt lat="44.47728" lon="6.69646">
        <ele>2118.8000488281</ele>
        <time>2022-03-11T14:32:44.000Z</time>
      </trkpt>
      <trkpt lat="44.47729" lon="6.69653">
        <ele>2117</ele>
        <time>2022-03-11T14:32:45.000Z</time>
      </trkpt>
      <trkpt lat="44.4773" lon="6.6966">
        <ele>2114.6000976562</ele>
        <time>2022-03-11T14:32:46.000Z</time>
      </trkpt>
      <trkpt lat="44.47731" lon="6.69665">
        <ele>2112.6000976562</ele>
        <time>2022-03-11T14:32:47.000Z</time>
      </trkpt>
      <trkpt lat="44.47731" lon="6.6967">
        <ele>2111</ele>
        <time>2022-03-11T14:32:48.000Z</time>
      </trkpt>
      <trkpt lat="44.47729" lon="6.69674">
        <ele>2110</ele>
        <time>2022-03-11T14:32:49.000Z</time>
      </trkpt>
      <trkpt lat="44.47728" lon="6.69678">
        <ele>2109.6000976562</ele>
        <time>2022-03-11T14:32:50.000Z</time>
      </trkpt>
      <trkpt lat="44.47725" lon="6.69687">
        <ele>2108.1999511719</ele>
        <time>2022-03-11T14:32:52.000Z</time>
      </trkpt>
      <trkpt lat="44.47723" lon="6.69692">
        <ele>2107</ele>
        <time>2022-03-11T14:32:54.000Z</time>
      </trkpt>
      <trkpt lat="44.47722" lon="6.69693">
        <ele>2106.6000976562</ele>
        <time>2022-03-11T14:32:55.000Z</time>
      </trkpt>
      <trkpt lat="44.47722" lon="6.69693">
        <ele>2106.3999023438</ele>
        <time>2022-03-11T14:33:01.000Z</time>
      </trkpt>
      <trkpt lat="44.4772" lon="6.6969">
        <ele>2106.3999023438</ele>
        <time>2022-03-11T14:33:12.000Z</time>
      </trkpt>
      <trkpt lat="44.4772" lon="6.69691">
        <ele>2106</ele>
        <time>2022-03-11T14:33:29.000Z</time>
      </trkpt>
      <trkpt lat="44.47722" lon="6.69689">
        <ele>2105</ele>
        <time>2022-03-11T14:33:34.000Z</time>
      </trkpt>
      <trkpt lat="44.47723" lon="6.69687">
        <ele>2104.8000488281</ele>
        <time>2022-03-11T14:33:35.000Z</time>
      </trkpt>
      <trkpt lat="44.47727" lon="6.69683">
        <ele>2104</ele>
        <time>2022-03-11T14:33:37.000Z</time>
      </trkpt>
      <trkpt lat="44.47729" lon="6.69682">
        <ele>2103.6000976562</ele>
        <time>2022-03-11T14:33:38.000Z</time>
      </trkpt>
      <trkpt lat="44.47732" lon="6.69682">
        <ele>2103</ele>
        <time>2022-03-11T14:33:39.000Z</time>
      </trkpt>
      <trkpt lat="44.47735" lon="6.6968">
        <ele>2102.3999023438</ele>
        <time>2022-03-11T14:33:40.000Z</time>
      </trkpt>
      <trkpt lat="44.47738" lon="6.69678">
        <ele>2101.6000976562</ele>
        <time>2022-03-11T14:33:43.000Z</time>
      </trkpt>
      <trkpt lat="44.47738" lon="6.69678">
        <ele>2101.3999023438</ele>
        <time>2022-03-11T14:33:44.000Z</time>
      </trkpt>
      <trkpt lat="44.47738" lon="6.69683">
        <ele>2101</ele>
        <time>2022-03-11T14:33:50.000Z</time>
      </trkpt>
      <trkpt lat="44.47738" lon="6.69685">
        <ele>2101</ele>
        <time>2022-03-11T14:33:51.000Z</time>
      </trkpt>
      <trkpt lat="44.47735" lon="6.69697">
        <ele>2100</ele>
        <time>2022-03-11T14:33:54.000Z</time>
      </trkpt>
      <trkpt lat="44.47733" lon="6.69707">
        <ele>2098.3999023438</ele>
        <time>2022-03-11T14:33:56.000Z</time>
      </trkpt>
      <trkpt lat="44.4773" lon="6.69717">
        <ele>2096.6000976562</ele>
        <time>2022-03-11T14:33:58.000Z</time>
      </trkpt>
      <trkpt lat="44.47726" lon="6.69727">
        <ele>2095.6000976562</ele>
        <time>2022-03-11T14:34:01.000Z</time>
      </trkpt>
      <trkpt lat="44.47725" lon="6.69729">
        <ele>2095.3999023438</ele>
        <time>2022-03-11T14:34:02.000Z</time>
      </trkpt>
      <trkpt lat="44.47728" lon="6.69732">
        <ele>2095</ele>
        <time>2022-03-11T14:34:04.000Z</time>
      </trkpt>
      <trkpt lat="44.47731" lon="6.69733">
        <ele>2094.1999511719</ele>
        <time>2022-03-11T14:34:05.000Z</time>
      </trkpt>
      <trkpt lat="44.47736" lon="6.69737">
        <ele>2091</ele>
        <time>2022-03-11T14:34:07.000Z</time>
      </trkpt>
      <trkpt lat="44.47738" lon="6.69738">
        <ele>2089.3999023438</ele>
        <time>2022-03-11T14:34:08.000Z</time>
      </trkpt>
      <trkpt lat="44.47739" lon="6.69743">
        <ele>2088.3999023438</ele>
        <time>2022-03-11T14:34:09.000Z</time>
      </trkpt>
      <trkpt lat="44.47739" lon="6.69748">
        <ele>2086.6000976562</ele>
        <time>2022-03-11T14:34:10.000Z</time>
      </trkpt>
      <trkpt lat="44.47739" lon="6.69753">
        <ele>2083.8000488281</ele>
        <time>2022-03-11T14:34:11.000Z</time>
      </trkpt>
      <trkpt lat="44.47738" lon="6.69756">
        <ele>2082.3999023438</ele>
        <time>2022-03-11T14:34:12.000Z</time>
      </trkpt>
      <trkpt lat="44.47739" lon="6.69758">
        <ele>2081.1999511719</ele>
        <time>2022-03-11T14:34:13.000Z</time>
      </trkpt>
      <trkpt lat="44.47741" lon="6.69762">
        <ele>2080</ele>
        <time>2022-03-11T14:34:14.000Z</time>
      </trkpt>
      <trkpt lat="44.47743" lon="6.69765">
        <ele>2079.1999511719</ele>
        <time>2022-03-11T14:34:15.000Z</time>
      </trkpt>
      <trkpt lat="44.47746" lon="6.69768">
        <ele>2077.3999023438</ele>
        <time>2022-03-11T14:34:16.000Z</time>
      </trkpt>
      <trkpt lat="44.47749" lon="6.69772">
        <ele>2076</ele>
        <time>2022-03-11T14:34:17.000Z</time>
      </trkpt>
      <trkpt lat="44.47751" lon="6.69777">
        <ele>2074.6000976562</ele>
        <time>2022-03-11T14:34:18.000Z</time>
      </trkpt>
      <trkpt lat="44.47754" lon="6.69782">
        <ele>2072.3999023438</ele>
        <time>2022-03-11T14:34:19.000Z</time>
      </trkpt>
      <trkpt lat="44.47756" lon="6.69789">
        <ele>2071</ele>
        <time>2022-03-11T14:34:20.000Z</time>
      </trkpt>
      <trkpt lat="44.47759" lon="6.69796">
        <ele>2069.1999511719</ele>
        <time>2022-03-11T14:34:21.000Z</time>
      </trkpt>
      <trkpt lat="44.47761" lon="6.69803">
        <ele>2067</ele>
        <time>2022-03-11T14:34:22.000Z</time>
      </trkpt>
      <trkpt lat="44.47764" lon="6.69811">
        <ele>2065.1999511719</ele>
        <time>2022-03-11T14:34:23.000Z</time>
      </trkpt>
      <trkpt lat="44.47766" lon="6.6982">
        <ele>2063.6000976562</ele>
        <time>2022-03-11T14:34:24.000Z</time>
      </trkpt>
      <trkpt lat="44.47769" lon="6.69829">
        <ele>2061.1999511719</ele>
        <time>2022-03-11T14:34:25.000Z</time>
      </trkpt>
      <trkpt lat="44.47771" lon="6.69839">
        <ele>2058.3999023438</ele>
        <time>2022-03-11T14:34:26.000Z</time>
      </trkpt>
      <trkpt lat="44.47772" lon="6.69848">
        <ele>2056.8000488281</ele>
        <time>2022-03-11T14:34:27.000Z</time>
      </trkpt>
      <trkpt lat="44.47773" lon="6.69855">
        <ele>2054.8000488281</ele>
        <time>2022-03-11T14:34:28.000Z</time>
      </trkpt>
      <trkpt lat="44.47773" lon="6.69862">
        <ele>2052.8000488281</ele>
        <time>2022-03-11T14:34:29.000Z</time>
      </trkpt>
      <trkpt lat="44.47772" lon="6.69867">
        <ele>2051.6000976562</ele>
        <time>2022-03-11T14:34:30.000Z</time>
      </trkpt>
      <trkpt lat="44.47767" lon="6.69875">
        <ele>2050.6000976562</ele>
        <time>2022-03-11T14:34:33.000Z</time>
      </trkpt>
      <trkpt lat="44.47767" lon="6.69872">
        <ele>2050.3999023438</ele>
        <time>2022-03-11T14:34:38.000Z</time>
      </trkpt>
      <trkpt lat="44.47767" lon="6.69873">
        <ele>2050.6000976562</ele>
        <time>2022-03-11T14:34:46.000Z</time>
      </trkpt>
      <trkpt lat="44.47762" lon="6.69868">
        <ele>2050.3999023438</ele>
        <time>2022-03-11T14:35:07.000Z</time>
      </trkpt>
      <trkpt lat="44.47766" lon="6.69866">
        <ele>2050.3999023438</ele>
        <time>2022-03-11T14:35:08.000Z</time>
      </trkpt>
      <trkpt lat="44.4777" lon="6.69864">
        <ele>2049.6000976562</ele>
        <time>2022-03-11T14:35:09.000Z</time>
      </trkpt>
      <trkpt lat="44.47774" lon="6.69863">
        <ele>2048.1999511719</ele>
        <time>2022-03-11T14:35:10.000Z</time>
      </trkpt>
      <trkpt lat="44.47782" lon="6.69858">
        <ele>2045.8000488281</ele>
        <time>2022-03-11T14:35:12.000Z</time>
      </trkpt>
      <trkpt lat="44.47784" lon="6.69853">
        <ele>2043.8000488281</ele>
        <time>2022-03-11T14:35:13.000Z</time>
      </trkpt>
      <trkpt lat="44.47787" lon="6.69849">
        <ele>2042</ele>
        <time>2022-03-11T14:35:14.000Z</time>
      </trkpt>
      <trkpt lat="44.47789" lon="6.69845">
        <ele>2040.8000488281</ele>
        <time>2022-03-11T14:35:15.000Z</time>
      </trkpt>
      <trkpt lat="44.47793" lon="6.69835">
        <ele>2039.1999511719</ele>
        <time>2022-03-11T14:35:17.000Z</time>
      </trkpt>
      <trkpt lat="44.47796" lon="6.6983">
        <ele>2038</ele>
        <time>2022-03-11T14:35:18.000Z</time>
      </trkpt>
      <trkpt lat="44.478" lon="6.69826">
        <ele>2036.4000244141</ele>
        <time>2022-03-11T14:35:19.000Z</time>
      </trkpt>
      <trkpt lat="44.47808" lon="6.69822">
        <ele>2034.4000244141</ele>
        <time>2022-03-11T14:35:21.000Z</time>
      </trkpt>
      <trkpt lat="44.47815" lon="6.6982">
        <ele>2031.8000488281</ele>
        <time>2022-03-11T14:35:23.000Z</time>
      </trkpt>
      <trkpt lat="44.4782" lon="6.69816">
        <ele>2029.5999755859</ele>
        <time>2022-03-11T14:35:24.000Z</time>
      </trkpt>
      <trkpt lat="44.47824" lon="6.69814">
        <ele>2028.4000244141</ele>
        <time>2022-03-11T14:35:25.000Z</time>
      </trkpt>
      <trkpt lat="44.47828" lon="6.6981">
        <ele>2026.8000488281</ele>
        <time>2022-03-11T14:35:26.000Z</time>
      </trkpt>
      <trkpt lat="44.47831" lon="6.69807">
        <ele>2025</ele>
        <time>2022-03-11T14:35:27.000Z</time>
      </trkpt>
      <trkpt lat="44.47833" lon="6.69803">
        <ele>2023.8000488281</ele>
        <time>2022-03-11T14:35:28.000Z</time>
      </trkpt>
      <trkpt lat="44.47833" lon="6.69799">
        <ele>2022.1999511719</ele>
        <time>2022-03-11T14:35:29.000Z</time>
      </trkpt>
      <trkpt lat="44.47833" lon="6.69797">
        <ele>2021</ele>
        <time>2022-03-11T14:35:30.000Z</time>
      </trkpt>
      <trkpt lat="44.47834" lon="6.69796">
        <ele>2019.8000488281</ele>
        <time>2022-03-11T14:35:32.000Z</time>
      </trkpt>
      <trkpt lat="44.47833" lon="6.69796">
        <ele>2019.5999755859</ele>
        <time>2022-03-11T14:35:34.000Z</time>
      </trkpt>
      <trkpt lat="44.4784" lon="6.69798">
        <ele>2019.4000244141</ele>
        <time>2022-03-11T14:35:42.000Z</time>
      </trkpt>
      <trkpt lat="44.47838" lon="6.69793">
        <ele>2019.4000244141</ele>
        <time>2022-03-11T14:35:50.000Z</time>
      </trkpt>
      <trkpt lat="44.4784" lon="6.69792">
        <ele>2019.4000244141</ele>
        <time>2022-03-11T14:35:51.000Z</time>
      </trkpt>
      <trkpt lat="44.47844" lon="6.6979">
        <ele>2019.4000244141</ele>
        <time>2022-03-11T14:36:02.000Z</time>
      </trkpt>
      <trkpt lat="44.47846" lon="6.69782">
        <ele>2018.5999755859</ele>
        <time>2022-03-11T14:36:06.000Z</time>
      </trkpt>
      <trkpt lat="44.47846" lon="6.69781">
        <ele>2018.1999511719</ele>
        <time>2022-03-11T14:36:07.000Z</time>
      </trkpt>
      <trkpt lat="44.47847" lon="6.69779">
        <ele>2018</ele>
        <time>2022-03-11T14:36:08.000Z</time>
      </trkpt>
      <trkpt lat="44.47856" lon="6.69776">
        <ele>2017.1999511719</ele>
        <time>2022-03-11T14:36:11.000Z</time>
      </trkpt>
      <trkpt lat="44.47859" lon="6.69777">
        <ele>2015.4000244141</ele>
        <time>2022-03-11T14:36:12.000Z</time>
      </trkpt>
      <trkpt lat="44.47862" lon="6.69778">
        <ele>2014</ele>
        <time>2022-03-11T14:36:13.000Z</time>
      </trkpt>
      <trkpt lat="44.47867" lon="6.69779">
        <ele>2012</ele>
        <time>2022-03-11T14:36:15.000Z</time>
      </trkpt>
      <trkpt lat="44.47868" lon="6.69778">
        <ele>2010.5999755859</ele>
        <time>2022-03-11T14:36:16.000Z</time>
      </trkpt>
      <trkpt lat="44.4787" lon="6.69777">
        <ele>2008.4000244141</ele>
        <time>2022-03-11T14:36:17.000Z</time>
      </trkpt>
      <trkpt lat="44.4787" lon="6.69774">
        <ele>2006.5999755859</ele>
        <time>2022-03-11T14:36:18.000Z</time>
      </trkpt>
      <trkpt lat="44.4787" lon="6.69771">
        <ele>2005.4000244141</ele>
        <time>2022-03-11T14:36:19.000Z</time>
      </trkpt>
      <trkpt lat="44.4787" lon="6.69767">
        <ele>2004.1999511719</ele>
        <time>2022-03-11T14:36:20.000Z</time>
      </trkpt>
      <trkpt lat="44.47872" lon="6.69758">
        <ele>2002.4000244141</ele>
        <time>2022-03-11T14:36:22.000Z</time>
      </trkpt>
      <trkpt lat="44.47875" lon="6.69756">
        <ele>2001.1999511719</ele>
        <time>2022-03-11T14:36:23.000Z</time>
      </trkpt>
      <trkpt lat="44.47882" lon="6.69755">
        <ele>1999.1999511719</ele>
        <time>2022-03-11T14:36:25.000Z</time>
      </trkpt>
      <trkpt lat="44.47886" lon="6.69756">
        <ele>1996.8000488281</ele>
        <time>2022-03-11T14:36:26.000Z</time>
      </trkpt>
      <trkpt lat="44.47889" lon="6.69757">
        <ele>1994.4000244141</ele>
        <time>2022-03-11T14:36:27.000Z</time>
      </trkpt>
      <trkpt lat="44.47892" lon="6.69756">
        <ele>1992.4000244141</ele>
        <time>2022-03-11T14:36:28.000Z</time>
      </trkpt>
      <trkpt lat="44.47893" lon="6.69755">
        <ele>1989.8000488281</ele>
        <time>2022-03-11T14:36:29.000Z</time>
      </trkpt>
      <trkpt lat="44.47894" lon="6.69755">
        <ele>1988</ele>
        <time>2022-03-11T14:36:30.000Z</time>
      </trkpt>
      <trkpt lat="44.47894" lon="6.69754">
        <ele>1986.4000244141</ele>
        <time>2022-03-11T14:36:32.000Z</time>
      </trkpt>
      <trkpt lat="44.47893" lon="6.69754">
        <ele>1986</ele>
        <time>2022-03-11T14:36:33.000Z</time>
      </trkpt>
      <trkpt lat="44.47897" lon="6.69754">
        <ele>1985.5999755859</ele>
        <time>2022-03-11T14:36:37.000Z</time>
      </trkpt>
      <trkpt lat="44.47901" lon="6.69755">
        <ele>1985.1999511719</ele>
        <time>2022-03-11T14:36:38.000Z</time>
      </trkpt>
      <trkpt lat="44.47904" lon="6.69758">
        <ele>1984.8000488281</ele>
        <time>2022-03-11T14:36:39.000Z</time>
      </trkpt>
      <trkpt lat="44.47906" lon="6.69762">
        <ele>1983.4000244141</ele>
        <time>2022-03-11T14:36:40.000Z</time>
      </trkpt>
      <trkpt lat="44.47909" lon="6.69766">
        <ele>1981.5999755859</ele>
        <time>2022-03-11T14:36:41.000Z</time>
      </trkpt>
      <trkpt lat="44.47913" lon="6.6977">
        <ele>1980</ele>
        <time>2022-03-11T14:36:42.000Z</time>
      </trkpt>
      <trkpt lat="44.47917" lon="6.69773">
        <ele>1979</ele>
        <time>2022-03-11T14:36:43.000Z</time>
      </trkpt>
      <trkpt lat="44.4792" lon="6.69774">
        <ele>1976.8000488281</ele>
        <time>2022-03-11T14:36:44.000Z</time>
      </trkpt>
      <trkpt lat="44.47923" lon="6.69775">
        <ele>1975.5999755859</ele>
        <time>2022-03-11T14:36:45.000Z</time>
      </trkpt>
      <trkpt lat="44.47926" lon="6.69776">
        <ele>1973.4000244141</ele>
        <time>2022-03-11T14:36:46.000Z</time>
      </trkpt>
      <trkpt lat="44.47927" lon="6.69777">
        <ele>1972</ele>
        <time>2022-03-11T14:36:47.000Z</time>
      </trkpt>
      <trkpt lat="44.47927" lon="6.69777">
        <ele>1970</ele>
        <time>2022-03-11T14:36:48.000Z</time>
      </trkpt>
      <trkpt lat="44.47928" lon="6.69778">
        <ele>1969</ele>
        <time>2022-03-11T14:36:49.000Z</time>
      </trkpt>
      <trkpt lat="44.47928" lon="6.69779">
        <ele>1967.8000488281</ele>
        <time>2022-03-11T14:36:52.000Z</time>
      </trkpt>
      <trkpt lat="44.4793" lon="6.69776">
        <ele>1967.4000244141</ele>
        <time>2022-03-11T14:36:55.000Z</time>
      </trkpt>
      <trkpt lat="44.47931" lon="6.6977">
        <ele>1966.5999755859</ele>
        <time>2022-03-11T14:36:57.000Z</time>
      </trkpt>
      <trkpt lat="44.47932" lon="6.69766">
        <ele>1965.5999755859</ele>
        <time>2022-03-11T14:36:58.000Z</time>
      </trkpt>
      <trkpt lat="44.47934" lon="6.69764">
        <ele>1964.4000244141</ele>
        <time>2022-03-11T14:36:59.000Z</time>
      </trkpt>
      <trkpt lat="44.47938" lon="6.69754">
        <ele>1961.4000244141</ele>
        <time>2022-03-11T14:37:01.000Z</time>
      </trkpt>
      <trkpt lat="44.47939" lon="6.69749">
        <ele>1959</ele>
        <time>2022-03-11T14:37:02.000Z</time>
      </trkpt>
      <trkpt lat="44.47939" lon="6.69744">
        <ele>1957.1999511719</ele>
        <time>2022-03-11T14:37:03.000Z</time>
      </trkpt>
      <trkpt lat="44.47939" lon="6.69741">
        <ele>1956.1999511719</ele>
        <time>2022-03-11T14:37:04.000Z</time>
      </trkpt>
      <trkpt lat="44.47938" lon="6.69734">
        <ele>1955</ele>
        <time>2022-03-11T14:37:07.000Z</time>
      </trkpt>
      <trkpt lat="44.47939" lon="6.69733">
        <ele>1954.8000488281</ele>
        <time>2022-03-11T14:37:11.000Z</time>
      </trkpt>
      <trkpt lat="44.47944" lon="6.69728">
        <ele>1954.8000488281</ele>
        <time>2022-03-11T14:37:17.000Z</time>
      </trkpt>
      <trkpt lat="44.47946" lon="6.69727">
        <ele>1954.8000488281</ele>
        <time>2022-03-11T14:37:25.000Z</time>
      </trkpt>
      <trkpt lat="44.47946" lon="6.69731">
        <ele>1954.8000488281</ele>
        <time>2022-03-11T14:37:33.000Z</time>
      </trkpt>
      <trkpt lat="44.47943" lon="6.69735">
        <ele>1954.8000488281</ele>
        <time>2022-03-11T14:37:40.000Z</time>
      </trkpt>
      <trkpt lat="44.47941" lon="6.69729">
        <ele>1954.4000244141</ele>
        <time>2022-03-11T14:37:47.000Z</time>
      </trkpt>
      <trkpt lat="44.47942" lon="6.69717">
        <ele>1953.8000488281</ele>
        <time>2022-03-11T14:37:50.000Z</time>
      </trkpt>
      <trkpt lat="44.47943" lon="6.69713">
        <ele>1953.1999511719</ele>
        <time>2022-03-11T14:37:51.000Z</time>
      </trkpt>
      <trkpt lat="44.47945" lon="6.69707">
        <ele>1952.5999755859</ele>
        <time>2022-03-11T14:37:52.000Z</time>
      </trkpt>
      <trkpt lat="44.47948" lon="6.69697">
        <ele>1951.1999511719</ele>
        <time>2022-03-11T14:37:54.000Z</time>
      </trkpt>
      <trkpt lat="44.47948" lon="6.69693">
        <ele>1950.4000244141</ele>
        <time>2022-03-11T14:37:55.000Z</time>
      </trkpt>
      <trkpt lat="44.47948" lon="6.69691">
        <ele>1949.5999755859</ele>
        <time>2022-03-11T14:37:56.000Z</time>
      </trkpt>
      <trkpt lat="44.47949" lon="6.69687">
        <ele>1948.5999755859</ele>
        <time>2022-03-11T14:37:58.000Z</time>
      </trkpt>
      <trkpt lat="44.47949" lon="6.69687">
        <ele>1948.4000244141</ele>
        <time>2022-03-11T14:37:59.000Z</time>
      </trkpt>
      <trkpt lat="44.47953" lon="6.69683">
        <ele>1948.4000244141</ele>
        <time>2022-03-11T14:38:11.000Z</time>
      </trkpt>
      <trkpt lat="44.47953" lon="6.69684">
        <ele>1948.4000244141</ele>
        <time>2022-03-11T14:38:20.000Z</time>
      </trkpt>
      <trkpt lat="44.47953" lon="6.69684">
        <ele>1948.5999755859</ele>
        <time>2022-03-11T14:39:09.000Z</time>
      </trkpt>
      <trkpt lat="44.47958" lon="6.69681">
        <ele>1948.5999755859</ele>
        <time>2022-03-11T14:39:13.000Z</time>
      </trkpt>
      <trkpt lat="44.47962" lon="6.69682">
        <ele>1948.5999755859</ele>
        <time>2022-03-11T14:39:14.000Z</time>
      </trkpt>
      <trkpt lat="44.47966" lon="6.69681">
        <ele>1947.5999755859</ele>
        <time>2022-03-11T14:39:15.000Z</time>
      </trkpt>
      <trkpt lat="44.47971" lon="6.69682">
        <ele>1946.8000488281</ele>
        <time>2022-03-11T14:39:16.000Z</time>
      </trkpt>
      <trkpt lat="44.47976" lon="6.69682">
        <ele>1944.4000244141</ele>
        <time>2022-03-11T14:39:17.000Z</time>
      </trkpt>
      <trkpt lat="44.4798" lon="6.69682">
        <ele>1941.8000488281</ele>
        <time>2022-03-11T14:39:18.000Z</time>
      </trkpt>
      <trkpt lat="44.47985" lon="6.69679">
        <ele>1940</ele>
        <time>2022-03-11T14:39:19.000Z</time>
      </trkpt>
      <trkpt lat="44.47989" lon="6.69674">
        <ele>1938.5999755859</ele>
        <time>2022-03-11T14:39:20.000Z</time>
      </trkpt>
      <trkpt lat="44.47991" lon="6.69668">
        <ele>1937.1999511719</ele>
        <time>2022-03-11T14:39:21.000Z</time>
      </trkpt>
      <trkpt lat="44.47997" lon="6.69661">
        <ele>1935</ele>
        <time>2022-03-11T14:39:23.000Z</time>
      </trkpt>
      <trkpt lat="44.47999" lon="6.6966">
        <ele>1934.1999511719</ele>
        <time>2022-03-11T14:39:24.000Z</time>
      </trkpt>
      <trkpt lat="44.48001" lon="6.6966">
        <ele>1932.5999755859</ele>
        <time>2022-03-11T14:39:25.000Z</time>
      </trkpt>
      <trkpt lat="44.48004" lon="6.69661">
        <ele>1931.5999755859</ele>
        <time>2022-03-11T14:39:26.000Z</time>
      </trkpt>
      <trkpt lat="44.48005" lon="6.69663">
        <ele>1930.1999511719</ele>
        <time>2022-03-11T14:39:27.000Z</time>
      </trkpt>
      <trkpt lat="44.48006" lon="6.69662">
        <ele>1928</ele>
        <time>2022-03-11T14:39:28.000Z</time>
      </trkpt>
      <trkpt lat="44.48008" lon="6.69662">
        <ele>1926.4000244141</ele>
        <time>2022-03-11T14:39:29.000Z</time>
      </trkpt>
      <trkpt lat="44.4801" lon="6.69663">
        <ele>1925.4000244141</ele>
        <time>2022-03-11T14:39:30.000Z</time>
      </trkpt>
      <trkpt lat="44.48012" lon="6.69666">
        <ele>1924</ele>
        <time>2022-03-11T14:39:31.000Z</time>
      </trkpt>
      <trkpt lat="44.48014" lon="6.69668">
        <ele>1921.4000244141</ele>
        <time>2022-03-11T14:39:32.000Z</time>
      </trkpt>
      <trkpt lat="44.48015" lon="6.69669">
        <ele>1919.4000244141</ele>
        <time>2022-03-11T14:39:33.000Z</time>
      </trkpt>
      <trkpt lat="44.48015" lon="6.69671">
        <ele>1918.4000244141</ele>
        <time>2022-03-11T14:39:34.000Z</time>
      </trkpt>
      <trkpt lat="44.48016" lon="6.69669">
        <ele>1916.5999755859</ele>
        <time>2022-03-11T14:39:35.000Z</time>
      </trkpt>
      <trkpt lat="44.48016" lon="6.69666">
        <ele>1915.4000244141</ele>
        <time>2022-03-11T14:39:36.000Z</time>
      </trkpt>
      <trkpt lat="44.48016" lon="6.69657">
        <ele>1913.5999755859</ele>
        <time>2022-03-11T14:39:38.000Z</time>
      </trkpt>
      <trkpt lat="44.48017" lon="6.69651">
        <ele>1912.5999755859</ele>
        <time>2022-03-11T14:39:39.000Z</time>
      </trkpt>
      <trkpt lat="44.48017" lon="6.69648">
        <ele>1911</ele>
        <time>2022-03-11T14:39:40.000Z</time>
      </trkpt>
      <trkpt lat="44.48018" lon="6.69647">
        <ele>1910</ele>
        <time>2022-03-11T14:39:41.000Z</time>
      </trkpt>
      <trkpt lat="44.48018" lon="6.69651">
        <ele>1908.4000244141</ele>
        <time>2022-03-11T14:39:42.000Z</time>
      </trkpt>
      <trkpt lat="44.48021" lon="6.69653">
        <ele>1907.1999511719</ele>
        <time>2022-03-11T14:39:43.000Z</time>
      </trkpt>
      <trkpt lat="44.48023" lon="6.69655">
        <ele>1905.4000244141</ele>
        <time>2022-03-11T14:39:44.000Z</time>
      </trkpt>
      <trkpt lat="44.48025" lon="6.69655">
        <ele>1904.1999511719</ele>
        <time>2022-03-11T14:39:45.000Z</time>
      </trkpt>
      <trkpt lat="44.48026" lon="6.69654">
        <ele>1902.5999755859</ele>
        <time>2022-03-11T14:39:46.000Z</time>
      </trkpt>
      <trkpt lat="44.48027" lon="6.69651">
        <ele>1901.5999755859</ele>
        <time>2022-03-11T14:39:47.000Z</time>
      </trkpt>
      <trkpt lat="44.48029" lon="6.69644">
        <ele>1899.8000488281</ele>
        <time>2022-03-11T14:39:49.000Z</time>
      </trkpt>
      <trkpt lat="44.4803" lon="6.6964">
        <ele>1899.1999511719</ele>
        <time>2022-03-11T14:39:50.000Z</time>
      </trkpt>
      <trkpt lat="44.4803" lon="6.69637">
        <ele>1898.5999755859</ele>
        <time>2022-03-11T14:39:51.000Z</time>
      </trkpt>
      <trkpt lat="44.48032" lon="6.69633">
        <ele>1897.8000488281</ele>
        <time>2022-03-11T14:39:54.000Z</time>
      </trkpt>
      <trkpt lat="44.48028" lon="6.6963">
        <ele>1897.4000244141</ele>
        <time>2022-03-11T14:39:57.000Z</time>
      </trkpt>
      <trkpt lat="44.48024" lon="6.69629">
        <ele>1897.4000244141</ele>
        <time>2022-03-11T14:40:02.000Z</time>
      </trkpt>
      <trkpt lat="44.48035" lon="6.69632">
        <ele>1897.4000244141</ele>
        <time>2022-03-11T14:40:07.000Z</time>
      </trkpt>
      <trkpt lat="44.48038" lon="6.69634">
        <ele>1897.1999511719</ele>
        <time>2022-03-11T14:40:08.000Z</time>
      </trkpt>
      <trkpt lat="44.48045" lon="6.69639">
        <ele>1896.4000244141</ele>
        <time>2022-03-11T14:40:10.000Z</time>
      </trkpt>
      <trkpt lat="44.48051" lon="6.69641">
        <ele>1894.8000488281</ele>
        <time>2022-03-11T14:40:12.000Z</time>
      </trkpt>
      <trkpt lat="44.48052" lon="6.69643">
        <ele>1893.4000244141</ele>
        <time>2022-03-11T14:40:15.000Z</time>
      </trkpt>
      <trkpt lat="44.48057" lon="6.69644">
        <ele>1892.1999511719</ele>
        <time>2022-03-11T14:40:17.000Z</time>
      </trkpt>
      <trkpt lat="44.4806" lon="6.69644">
        <ele>1891.1999511719</ele>
        <time>2022-03-11T14:40:18.000Z</time>
      </trkpt>
      <trkpt lat="44.48064" lon="6.69646">
        <ele>1889.4000244141</ele>
        <time>2022-03-11T14:40:19.000Z</time>
      </trkpt>
      <trkpt lat="44.48068" lon="6.69649">
        <ele>1888.4000244141</ele>
        <time>2022-03-11T14:40:20.000Z</time>
      </trkpt>
      <trkpt lat="44.4807" lon="6.69652">
        <ele>1886.4000244141</ele>
        <time>2022-03-11T14:40:21.000Z</time>
      </trkpt>
      <trkpt lat="44.48073" lon="6.69654">
        <ele>1884.1999511719</ele>
        <time>2022-03-11T14:40:22.000Z</time>
      </trkpt>
      <trkpt lat="44.48074" lon="6.69656">
        <ele>1883</ele>
        <time>2022-03-11T14:40:23.000Z</time>
      </trkpt>
      <trkpt lat="44.48074" lon="6.69654">
        <ele>1882</ele>
        <time>2022-03-11T14:40:24.000Z</time>
      </trkpt>
      <trkpt lat="44.48074" lon="6.69655">
        <ele>1881.5999755859</ele>
        <time>2022-03-11T14:40:25.000Z</time>
      </trkpt>
      <trkpt lat="44.48071" lon="6.69654">
        <ele>1880</ele>
        <time>2022-03-11T14:40:27.000Z</time>
      </trkpt>
      <trkpt lat="44.48071" lon="6.69652">
        <ele>1879.1999511719</ele>
        <time>2022-03-11T14:40:28.000Z</time>
      </trkpt>
      <trkpt lat="44.48071" lon="6.6965">
        <ele>1878.8000488281</ele>
        <time>2022-03-11T14:40:29.000Z</time>
      </trkpt>
      <trkpt lat="44.48072" lon="6.69642">
        <ele>1877.5999755859</ele>
        <time>2022-03-11T14:40:31.000Z</time>
      </trkpt>
      <trkpt lat="44.48074" lon="6.6964">
        <ele>1877.1999511719</ele>
        <time>2022-03-11T14:40:32.000Z</time>
      </trkpt>
      <trkpt lat="44.48076" lon="6.6964">
        <ele>1876.5999755859</ele>
        <time>2022-03-11T14:40:33.000Z</time>
      </trkpt>
      <trkpt lat="44.48081" lon="6.69643">
        <ele>1873.8000488281</ele>
        <time>2022-03-11T14:40:35.000Z</time>
      </trkpt>
      <trkpt lat="44.48082" lon="6.69643">
        <ele>1872.5999755859</ele>
        <time>2022-03-11T14:40:36.000Z</time>
      </trkpt>
      <trkpt lat="44.48084" lon="6.69643">
        <ele>1871.1999511719</ele>
        <time>2022-03-11T14:40:38.000Z</time>
      </trkpt>
      <trkpt lat="44.48086" lon="6.69644">
        <ele>1870.4000244141</ele>
        <time>2022-03-11T14:40:40.000Z</time>
      </trkpt>
      <trkpt lat="44.48085" lon="6.69644">
        <ele>1870.1999511719</ele>
        <time>2022-03-11T14:40:41.000Z</time>
      </trkpt>
      <trkpt lat="44.48082" lon="6.69651">
        <ele>1869.5999755859</ele>
        <time>2022-03-11T14:40:47.000Z</time>
      </trkpt>
      <trkpt lat="44.4808" lon="6.69653">
        <ele>1869.5999755859</ele>
        <time>2022-03-11T14:40:55.000Z</time>
      </trkpt>
      <trkpt lat="44.48078" lon="6.69648">
        <ele>1869.4000244141</ele>
        <time>2022-03-11T14:41:03.000Z</time>
      </trkpt>
      <trkpt lat="44.48078" lon="6.69648">
        <ele>1869.5999755859</ele>
        <time>2022-03-11T14:41:15.000Z</time>
      </trkpt>
      <trkpt lat="44.48076" lon="6.69644">
        <ele>1869.8000488281</ele>
        <time>2022-03-11T14:41:36.000Z</time>
      </trkpt>
      <trkpt lat="44.48075" lon="6.69641">
        <ele>1868.5999755859</ele>
        <time>2022-03-11T14:41:37.000Z</time>
      </trkpt>
      <trkpt lat="44.48074" lon="6.69638">
        <ele>1867.4000244141</ele>
        <time>2022-03-11T14:41:38.000Z</time>
      </trkpt>
      <trkpt lat="44.48073" lon="6.69634">
        <ele>1866.4000244141</ele>
        <time>2022-03-11T14:41:40.000Z</time>
      </trkpt>
      <trkpt lat="44.48071" lon="6.69619">
        <ele>1865.8000488281</ele>
        <time>2022-03-11T14:41:44.000Z</time>
      </trkpt>
      <trkpt lat="44.48072" lon="6.6961">
        <ele>1865.1999511719</ele>
        <time>2022-03-11T14:41:46.000Z</time>
      </trkpt>
      <trkpt lat="44.48075" lon="6.69604">
        <ele>1864.4000244141</ele>
        <time>2022-03-11T14:41:48.000Z</time>
      </trkpt>
      <trkpt lat="44.48077" lon="6.69602">
        <ele>1864</ele>
        <time>2022-03-11T14:41:49.000Z</time>
      </trkpt>
      <trkpt lat="44.48082" lon="6.696">
        <ele>1862.8000488281</ele>
        <time>2022-03-11T14:41:51.000Z</time>
      </trkpt>
      <trkpt lat="44.48083" lon="6.69598">
        <ele>1861.8000488281</ele>
        <time>2022-03-11T14:41:52.000Z</time>
      </trkpt>
      <trkpt lat="44.48084" lon="6.69597">
        <ele>1860.1999511719</ele>
        <time>2022-03-11T14:41:53.000Z</time>
      </trkpt>
      <trkpt lat="44.48088" lon="6.69595">
        <ele>1858.1999511719</ele>
        <time>2022-03-11T14:41:55.000Z</time>
      </trkpt>
      <trkpt lat="44.4809" lon="6.69594">
        <ele>1856.1999511719</ele>
        <time>2022-03-11T14:41:57.000Z</time>
      </trkpt>
      <trkpt lat="44.48091" lon="6.69592">
        <ele>1855.1999511719</ele>
        <time>2022-03-11T14:41:58.000Z</time>
      </trkpt>
      <trkpt lat="44.48094" lon="6.69591">
        <ele>1853.4000244141</ele>
        <time>2022-03-11T14:41:59.000Z</time>
      </trkpt>
      <trkpt lat="44.481" lon="6.69592">
        <ele>1851.8000488281</ele>
        <time>2022-03-11T14:42:01.000Z</time>
      </trkpt>
      <trkpt lat="44.48104" lon="6.69594">
        <ele>1849.4000244141</ele>
        <time>2022-03-11T14:42:03.000Z</time>
      </trkpt>
      <trkpt lat="44.48105" lon="6.69594">
        <ele>1848.1999511719</ele>
        <time>2022-03-11T14:42:04.000Z</time>
      </trkpt>
      <trkpt lat="44.48106" lon="6.69595">
        <ele>1847.5999755859</ele>
        <time>2022-03-11T14:42:05.000Z</time>
      </trkpt>
      <trkpt lat="44.48109" lon="6.69594">
        <ele>1847.1999511719</ele>
        <time>2022-03-11T14:42:07.000Z</time>
      </trkpt>
      <trkpt lat="44.48109" lon="6.69595">
        <ele>1847.1999511719</ele>
        <time>2022-03-11T14:42:09.000Z</time>
      </trkpt>
      <trkpt lat="44.48106" lon="6.69594">
        <ele>1847</ele>
        <time>2022-03-11T14:42:13.000Z</time>
      </trkpt>
      <trkpt lat="44.48103" lon="6.69595">
        <ele>1847</ele>
        <time>2022-03-11T14:42:19.000Z</time>
      </trkpt>
      <trkpt lat="44.48101" lon="6.69597">
        <ele>1847</ele>
        <time>2022-03-11T14:42:27.000Z</time>
      </trkpt>
      <trkpt lat="44.48101" lon="6.69589">
        <ele>1846.4000244141</ele>
        <time>2022-03-11T14:42:36.000Z</time>
      </trkpt>
      <trkpt lat="44.48101" lon="6.69587">
        <ele>1846.1999511719</ele>
        <time>2022-03-11T14:42:37.000Z</time>
      </trkpt>
      <trkpt lat="44.48104" lon="6.69585">
        <ele>1845.5999755859</ele>
        <time>2022-03-11T14:42:41.000Z</time>
      </trkpt>
      <trkpt lat="44.48107" lon="6.69583">
        <ele>1845</ele>
        <time>2022-03-11T14:42:45.000Z</time>
      </trkpt>
      <trkpt lat="44.48108" lon="6.69583">
        <ele>1844.8000488281</ele>
        <time>2022-03-11T14:42:46.000Z</time>
      </trkpt>
      <trkpt lat="44.48112" lon="6.69582">
        <ele>1843.5999755859</ele>
        <time>2022-03-11T14:42:51.000Z</time>
      </trkpt>
      <trkpt lat="44.48113" lon="6.69581">
        <ele>1843.1999511719</ele>
        <time>2022-03-11T14:42:52.000Z</time>
      </trkpt>
      <trkpt lat="44.48111" lon="6.69578">
        <ele>1842.5999755859</ele>
        <time>2022-03-11T14:42:55.000Z</time>
      </trkpt>
      <trkpt lat="44.48112" lon="6.6958">
        <ele>1842.4000244141</ele>
        <time>2022-03-11T14:42:59.000Z</time>
      </trkpt>
      <trkpt lat="44.48113" lon="6.6958">
        <ele>1841.5999755859</ele>
        <time>2022-03-11T14:43:03.000Z</time>
      </trkpt>
      <trkpt lat="44.48112" lon="6.69581">
        <ele>1841.1999511719</ele>
        <time>2022-03-11T14:43:04.000Z</time>
      </trkpt>
      <trkpt lat="44.48112" lon="6.69583">
        <ele>1840.4000244141</ele>
        <time>2022-03-11T14:43:08.000Z</time>
      </trkpt>
      <trkpt lat="44.48113" lon="6.69584">
        <ele>1839.8000488281</ele>
        <time>2022-03-11T14:43:11.000Z</time>
      </trkpt>
      <trkpt lat="44.48114" lon="6.69584">
        <ele>1839.4000244141</ele>
        <time>2022-03-11T14:43:17.000Z</time>
      </trkpt>
      <trkpt lat="44.48115" lon="6.69583">
        <ele>1839.4000244141</ele>
        <time>2022-03-11T14:43:20.000Z</time>
      </trkpt>
      <trkpt lat="44.48116" lon="6.69582">
        <ele>1838.1999511719</ele>
        <time>2022-03-11T14:43:25.000Z</time>
      </trkpt>
      <trkpt lat="44.48115" lon="6.69583">
        <ele>1838</ele>
        <time>2022-03-11T14:43:29.000Z</time>
      </trkpt>
      <trkpt lat="44.48117" lon="6.69582">
        <ele>1837.8000488281</ele>
        <time>2022-03-11T14:43:31.000Z</time>
      </trkpt>
      <trkpt lat="44.48119" lon="6.69576">
        <ele>1837.4000244141</ele>
        <time>2022-03-11T14:43:33.000Z</time>
      </trkpt>
      <trkpt lat="44.48119" lon="6.69573">
        <ele>1836.4000244141</ele>
        <time>2022-03-11T14:43:34.000Z</time>
      </trkpt>
      <trkpt lat="44.4812" lon="6.69571">
        <ele>1834.8000488281</ele>
        <time>2022-03-11T14:43:36.000Z</time>
      </trkpt>
      <trkpt lat="44.48122" lon="6.6957">
        <ele>1834.1999511719</ele>
        <time>2022-03-11T14:43:37.000Z</time>
      </trkpt>
      <trkpt lat="44.48124" lon="6.69571">
        <ele>1833.8000488281</ele>
        <time>2022-03-11T14:43:39.000Z</time>
      </trkpt>
      <trkpt lat="44.48126" lon="6.69575">
        <ele>1833.8000488281</ele>
        <time>2022-03-11T14:43:41.000Z</time>
      </trkpt>
      <trkpt lat="44.48129" lon="6.69587">
        <ele>1833.4000244141</ele>
        <time>2022-03-11T14:43:48.000Z</time>
      </trkpt>
      <trkpt lat="44.48129" lon="6.69588">
        <ele>1833.1999511719</ele>
        <time>2022-03-11T14:43:53.000Z</time>
      </trkpt>
      <trkpt lat="44.48132" lon="6.69592">
        <ele>1833.1999511719</ele>
        <time>2022-03-11T14:44:01.000Z</time>
      </trkpt>
      <trkpt lat="44.48133" lon="6.69592">
        <ele>1833</ele>
        <time>2022-03-11T14:44:11.000Z</time>
      </trkpt>
      <trkpt lat="44.48132" lon="6.69592">
        <ele>1832.8000488281</ele>
        <time>2022-03-11T14:44:25.000Z</time>
      </trkpt>
      <trkpt lat="44.48132" lon="6.69592">
        <ele>1832.8000488281</ele>
        <time>2022-03-11T14:44:31.000Z</time>
      </trkpt>
      <trkpt lat="44.48125" lon="6.69589">
        <ele>1832.5999755859</ele>
        <time>2022-03-11T14:44:48.000Z</time>
      </trkpt>
      <trkpt lat="44.48127" lon="6.69602">
        <ele>1832.5999755859</ele>
        <time>2022-03-11T14:45:19.000Z</time>
      </trkpt>
      <trkpt lat="44.48131" lon="6.6962">
        <ele>1832.1999511719</ele>
        <time>2022-03-11T14:45:26.000Z</time>
      </trkpt>
      <trkpt lat="44.48131" lon="6.6962">
        <ele>1832.1999511719</ele>
        <time>2022-03-11T14:45:27.000Z</time>
      </trkpt>
      <trkpt lat="44.48132" lon="6.69627">
        <ele>1832</ele>
        <time>2022-03-11T14:45:31.000Z</time>
      </trkpt>
      <trkpt lat="44.48135" lon="6.69644">
        <ele>1831.8000488281</ele>
        <time>2022-03-11T14:45:37.000Z</time>
      </trkpt>
      <trkpt lat="44.48136" lon="6.69648">
        <ele>1831.8000488281</ele>
        <time>2022-03-11T14:45:38.000Z</time>
      </trkpt>
      <trkpt lat="44.4814" lon="6.69672">
        <ele>1831.5999755859</ele>
        <time>2022-03-11T14:45:45.000Z</time>
      </trkpt>
      <trkpt lat="44.48142" lon="6.69682">
        <ele>1830.8000488281</ele>
        <time>2022-03-11T14:45:48.000Z</time>
      </trkpt>
      <trkpt lat="44.48142" lon="6.69689">
        <ele>1830.4000244141</ele>
        <time>2022-03-11T14:45:50.000Z</time>
      </trkpt>
      <trkpt lat="44.48152" lon="6.69728">
        <ele>1829.8000488281</ele>
        <time>2022-03-11T14:46:00.000Z</time>
      </trkpt>
      <trkpt lat="44.48153" lon="6.69735">
        <ele>1829.5999755859</ele>
        <time>2022-03-11T14:46:02.000Z</time>
      </trkpt>
      <trkpt lat="44.48154" lon="6.69752">
        <ele>1829.4000244141</ele>
        <time>2022-03-11T14:46:06.000Z</time>
      </trkpt>
      <trkpt lat="44.48156" lon="6.69777">
        <ele>1829</ele>
        <time>2022-03-11T14:46:12.000Z</time>
      </trkpt>
      <trkpt lat="44.48156" lon="6.69792">
        <ele>1828.5999755859</ele>
        <time>2022-03-11T14:46:16.000Z</time>
      </trkpt>
      <trkpt lat="44.48156" lon="6.69795">
        <ele>1828.5999755859</ele>
        <time>2022-03-11T14:46:17.000Z</time>
      </trkpt>
      <trkpt lat="44.48156" lon="6.698">
        <ele>1828.4000244141</ele>
        <time>2022-03-11T14:46:18.000Z</time>
      </trkpt>
      <trkpt lat="44.48158" lon="6.6982">
        <ele>1827.5999755859</ele>
        <time>2022-03-11T14:46:23.000Z</time>
      </trkpt>
      <trkpt lat="44.48164" lon="6.69841">
        <ele>1826.4000244141</ele>
        <time>2022-03-11T14:46:28.000Z</time>
      </trkpt>
      <trkpt lat="44.48165" lon="6.69848">
        <ele>1825.5999755859</ele>
        <time>2022-03-11T14:46:29.000Z</time>
      </trkpt>
      <trkpt lat="44.48167" lon="6.69854">
        <ele>1825.1999511719</ele>
        <time>2022-03-11T14:46:30.000Z</time>
      </trkpt>
      <trkpt lat="44.48173" lon="6.69876">
        <ele>1824.4000244141</ele>
        <time>2022-03-11T14:46:34.000Z</time>
      </trkpt>
      <trkpt lat="44.48174" lon="6.69881">
        <ele>1824.1999511719</ele>
        <time>2022-03-11T14:46:35.000Z</time>
      </trkpt>
      <trkpt lat="44.4818" lon="6.69903">
        <ele>1823</ele>
        <time>2022-03-11T14:46:38.000Z</time>
      </trkpt>
      <trkpt lat="44.48182" lon="6.69918">
        <ele>1821.8000488281</ele>
        <time>2022-03-11T14:46:40.000Z</time>
      </trkpt>
      <trkpt lat="44.48184" lon="6.69938">
        <ele>1820.4000244141</ele>
        <time>2022-03-11T14:46:43.000Z</time>
      </trkpt>
      <trkpt lat="44.48185" lon="6.69953">
        <ele>1819.5999755859</ele>
        <time>2022-03-11T14:46:45.000Z</time>
      </trkpt>
      <trkpt lat="44.48185" lon="6.6996">
        <ele>1819.1999511719</ele>
        <time>2022-03-11T14:46:46.000Z</time>
      </trkpt>
      <trkpt lat="44.48183" lon="6.69968">
        <ele>1818.4000244141</ele>
        <time>2022-03-11T14:46:47.000Z</time>
      </trkpt>
      <trkpt lat="44.48181" lon="6.69974">
        <ele>1817.8000488281</ele>
        <time>2022-03-11T14:46:48.000Z</time>
      </trkpt>
      <trkpt lat="44.48176" lon="6.69989">
        <ele>1816.4000244141</ele>
        <time>2022-03-11T14:46:50.000Z</time>
      </trkpt>
      <trkpt lat="44.48173" lon="6.70006">
        <ele>1815.4000244141</ele>
        <time>2022-03-11T14:46:52.000Z</time>
      </trkpt>
      <trkpt lat="44.4817" lon="6.7002">
        <ele>1814.5999755859</ele>
        <time>2022-03-11T14:46:54.000Z</time>
      </trkpt>
      <trkpt lat="44.4817" lon="6.70028">
        <ele>1814.1999511719</ele>
        <time>2022-03-11T14:46:55.000Z</time>
      </trkpt>
      <trkpt lat="44.4817" lon="6.70036">
        <ele>1813.5999755859</ele>
        <time>2022-03-11T14:46:56.000Z</time>
      </trkpt>
      <trkpt lat="44.48171" lon="6.70044">
        <ele>1812.8000488281</ele>
        <time>2022-03-11T14:46:57.000Z</time>
      </trkpt>
      <trkpt lat="44.48173" lon="6.70061">
        <ele>1812</ele>
        <time>2022-03-11T14:46:59.000Z</time>
      </trkpt>
      <trkpt lat="44.48171" lon="6.70069">
        <ele>1811.4000244141</ele>
        <time>2022-03-11T14:47:00.000Z</time>
      </trkpt>
      <trkpt lat="44.48168" lon="6.70077">
        <ele>1811</ele>
        <time>2022-03-11T14:47:01.000Z</time>
      </trkpt>
      <trkpt lat="44.48165" lon="6.70084">
        <ele>1810</ele>
        <time>2022-03-11T14:47:02.000Z</time>
      </trkpt>
      <trkpt lat="44.48159" lon="6.70101">
        <ele>1808.8000488281</ele>
        <time>2022-03-11T14:47:04.000Z</time>
      </trkpt>
      <trkpt lat="44.48156" lon="6.70116">
        <ele>1807.5999755859</ele>
        <time>2022-03-11T14:47:06.000Z</time>
      </trkpt>
      <trkpt lat="44.48151" lon="6.70134">
        <ele>1806.4000244141</ele>
        <time>2022-03-11T14:47:08.000Z</time>
      </trkpt>
      <trkpt lat="44.48149" lon="6.70149">
        <ele>1805</ele>
        <time>2022-03-11T14:47:10.000Z</time>
      </trkpt>
      <trkpt lat="44.48149" lon="6.70165">
        <ele>1804.5999755859</ele>
        <time>2022-03-11T14:47:12.000Z</time>
      </trkpt>
      <trkpt lat="44.48148" lon="6.70179">
        <ele>1804.1999511719</ele>
        <time>2022-03-11T14:47:14.000Z</time>
      </trkpt>
      <trkpt lat="44.48147" lon="6.70184">
        <ele>1803.5999755859</ele>
        <time>2022-03-11T14:47:15.000Z</time>
      </trkpt>
      <trkpt lat="44.48147" lon="6.70196">
        <ele>1803</ele>
        <time>2022-03-11T14:47:17.000Z</time>
      </trkpt>
      <trkpt lat="44.48146" lon="6.70207">
        <ele>1803</ele>
        <time>2022-03-11T14:47:19.000Z</time>
      </trkpt>
      <trkpt lat="44.48143" lon="6.70221">
        <ele>1803</ele>
        <time>2022-03-11T14:47:22.000Z</time>
      </trkpt>
      <trkpt lat="44.4814" lon="6.70235">
        <ele>1802.1999511719</ele>
        <time>2022-03-11T14:47:25.000Z</time>
      </trkpt>
      <trkpt lat="44.48139" lon="6.70248">
        <ele>1801.8000488281</ele>
        <time>2022-03-11T14:47:28.000Z</time>
      </trkpt>
      <trkpt lat="44.48139" lon="6.70267">
        <ele>1801.1999511719</ele>
        <time>2022-03-11T14:47:32.000Z</time>
      </trkpt>
      <trkpt lat="44.48138" lon="6.70281">
        <ele>1800.8000488281</ele>
        <time>2022-03-11T14:47:35.000Z</time>
      </trkpt>
      <trkpt lat="44.48134" lon="6.70306">
        <ele>1800.4000244141</ele>
        <time>2022-03-11T14:47:40.000Z</time>
      </trkpt>
      <trkpt lat="44.48131" lon="6.7032">
        <ele>1800</ele>
        <time>2022-03-11T14:47:43.000Z</time>
      </trkpt>
      <trkpt lat="44.48127" lon="6.70334">
        <ele>1799.4000244141</ele>
        <time>2022-03-11T14:47:46.000Z</time>
      </trkpt>
      <trkpt lat="44.48123" lon="6.70344">
        <ele>1799</ele>
        <time>2022-03-11T14:47:48.000Z</time>
      </trkpt>
      <trkpt lat="44.4812" lon="6.7036">
        <ele>1798.4000244141</ele>
        <time>2022-03-11T14:47:51.000Z</time>
      </trkpt>
      <trkpt lat="44.48114" lon="6.7038">
        <ele>1797.8000488281</ele>
        <time>2022-03-11T14:47:55.000Z</time>
      </trkpt>
      <trkpt lat="44.48112" lon="6.70385">
        <ele>1797.8000488281</ele>
        <time>2022-03-11T14:47:56.000Z</time>
      </trkpt>
      <trkpt lat="44.48103" lon="6.70399">
        <ele>1796.8000488281</ele>
        <time>2022-03-11T14:48:00.000Z</time>
      </trkpt>
      <trkpt lat="44.48101" lon="6.70401">
        <ele>1796.4000244141</ele>
        <time>2022-03-11T14:48:01.000Z</time>
      </trkpt>
      <trkpt lat="44.48098" lon="6.70402">
        <ele>1796.1999511719</ele>
        <time>2022-03-11T14:48:03.000Z</time>
      </trkpt>
      <trkpt lat="44.48098" lon="6.70402">
        <ele>1795.8000488281</ele>
        <time>2022-03-11T14:48:08.000Z</time>
      </trkpt>
      <trkpt lat="44.48099" lon="6.70404">
        <ele>1795.8000488281</ele>
        <time>2022-03-11T14:48:12.000Z</time>
      </trkpt>
      <trkpt lat="44.48099" lon="6.70406">
        <ele>1795.8000488281</ele>
        <time>2022-03-11T14:48:13.000Z</time>
      </trkpt>
      <trkpt lat="44.48097" lon="6.70408">
        <ele>1795.8000488281</ele>
        <time>2022-03-11T14:48:14.000Z</time>
      </trkpt>
      <trkpt lat="44.48086" lon="6.70417">
        <ele>1795.1999511719</ele>
        <time>2022-03-11T14:48:18.000Z</time>
      </trkpt>
      <trkpt lat="44.4808" lon="6.7043">
        <ele>1794.5999755859</ele>
        <time>2022-03-11T14:48:22.000Z</time>
      </trkpt>
      <trkpt lat="44.48078" lon="6.70438">
        <ele>1794.5999755859</ele>
        <time>2022-03-11T14:48:24.000Z</time>
      </trkpt>
      <trkpt lat="44.48072" lon="6.70464">
        <ele>1794.4000244141</ele>
        <time>2022-03-11T14:48:30.000Z</time>
      </trkpt>
      <trkpt lat="44.48063" lon="6.70485">
        <ele>1793.5999755859</ele>
        <time>2022-03-11T14:48:34.000Z</time>
      </trkpt>
      <trkpt lat="44.48054" lon="6.70507">
        <ele>1792.5999755859</ele>
        <time>2022-03-11T14:48:38.000Z</time>
      </trkpt>
      <trkpt lat="44.48048" lon="6.70518">
        <ele>1792.1999511719</ele>
        <time>2022-03-11T14:48:40.000Z</time>
      </trkpt>
      <trkpt lat="44.4804" lon="6.70534">
        <ele>1791.4000244141</ele>
        <time>2022-03-11T14:48:43.000Z</time>
      </trkpt>
      <trkpt lat="44.48031" lon="6.70554">
        <ele>1790</ele>
        <time>2022-03-11T14:48:47.000Z</time>
      </trkpt>
      <trkpt lat="44.48025" lon="6.70564">
        <ele>1789.5999755859</ele>
        <time>2022-03-11T14:48:49.000Z</time>
      </trkpt>
      <trkpt lat="44.48018" lon="6.7058">
        <ele>1788.5999755859</ele>
        <time>2022-03-11T14:48:52.000Z</time>
      </trkpt>
      <trkpt lat="44.48014" lon="6.70591">
        <ele>1788</ele>
        <time>2022-03-11T14:48:54.000Z</time>
      </trkpt>
      <trkpt lat="44.48013" lon="6.70597">
        <ele>1787.5999755859</ele>
        <time>2022-03-11T14:48:55.000Z</time>
      </trkpt>
      <trkpt lat="44.48008" lon="6.70623">
        <ele>1786.5999755859</ele>
        <time>2022-03-11T14:48:59.000Z</time>
      </trkpt>
      <trkpt lat="44.48008" lon="6.7063">
        <ele>1786.4000244141</ele>
        <time>2022-03-11T14:49:00.000Z</time>
      </trkpt>
      <trkpt lat="44.48009" lon="6.70638">
        <ele>1786</ele>
        <time>2022-03-11T14:49:01.000Z</time>
      </trkpt>
      <trkpt lat="44.48008" lon="6.70645">
        <ele>1785.4000244141</ele>
        <time>2022-03-11T14:49:02.000Z</time>
      </trkpt>
      <trkpt lat="44.48007" lon="6.70659">
        <ele>1784.8000488281</ele>
        <time>2022-03-11T14:49:04.000Z</time>
      </trkpt>
      <trkpt lat="44.48007" lon="6.70665">
        <ele>1784.5999755859</ele>
        <time>2022-03-11T14:49:05.000Z</time>
      </trkpt>
      <trkpt lat="44.48008" lon="6.70672">
        <ele>1784.4000244141</ele>
        <time>2022-03-11T14:49:06.000Z</time>
      </trkpt>
      <trkpt lat="44.48007" lon="6.70695">
        <ele>1783.5999755859</ele>
        <time>2022-03-11T14:49:10.000Z</time>
      </trkpt>
      <trkpt lat="44.48007" lon="6.70713">
        <ele>1783.1999511719</ele>
        <time>2022-03-11T14:49:13.000Z</time>
      </trkpt>
      <trkpt lat="44.48007" lon="6.70724">
        <ele>1782.4000244141</ele>
        <time>2022-03-11T14:49:15.000Z</time>
      </trkpt>
      <trkpt lat="44.48007" lon="6.70729">
        <ele>1782.1999511719</ele>
        <time>2022-03-11T14:49:16.000Z</time>
      </trkpt>
      <trkpt lat="44.48007" lon="6.7074">
        <ele>1782</ele>
        <time>2022-03-11T14:49:18.000Z</time>
      </trkpt>
      <trkpt lat="44.48008" lon="6.70756">
        <ele>1781.4000244141</ele>
        <time>2022-03-11T14:49:21.000Z</time>
      </trkpt>
      <trkpt lat="44.48008" lon="6.70761">
        <ele>1781.1999511719</ele>
        <time>2022-03-11T14:49:22.000Z</time>
      </trkpt>
      <trkpt lat="44.48008" lon="6.70773">
        <ele>1780.5999755859</ele>
        <time>2022-03-11T14:49:25.000Z</time>
      </trkpt>
      <trkpt lat="44.48007" lon="6.70807">
        <ele>1779.8000488281</ele>
        <time>2022-03-11T14:49:32.000Z</time>
      </trkpt>
      <trkpt lat="44.48006" lon="6.70812">
        <ele>1779.5999755859</ele>
        <time>2022-03-11T14:49:33.000Z</time>
      </trkpt>
      <trkpt lat="44.48005" lon="6.70825">
        <ele>1779.1999511719</ele>
        <time>2022-03-11T14:49:36.000Z</time>
      </trkpt>
      <trkpt lat="44.48006" lon="6.70833">
        <ele>1778.5999755859</ele>
        <time>2022-03-11T14:49:38.000Z</time>
      </trkpt>
      <trkpt lat="44.48008" lon="6.70838">
        <ele>1778.5999755859</ele>
        <time>2022-03-11T14:49:39.000Z</time>
      </trkpt>
      <trkpt lat="44.48018" lon="6.70867">
        <ele>1777.5999755859</ele>
        <time>2022-03-11T14:49:46.000Z</time>
      </trkpt>
      <trkpt lat="44.48023" lon="6.7088">
        <ele>1777.4000244141</ele>
        <time>2022-03-11T14:49:49.000Z</time>
      </trkpt>
      <trkpt lat="44.48029" lon="6.70899">
        <ele>1776.5999755859</ele>
        <time>2022-03-11T14:49:54.000Z</time>
      </trkpt>
      <trkpt lat="44.4803" lon="6.70906">
        <ele>1776.4000244141</ele>
        <time>2022-03-11T14:49:56.000Z</time>
      </trkpt>
      <trkpt lat="44.48031" lon="6.70916">
        <ele>1776.1999511719</ele>
        <time>2022-03-11T14:49:58.000Z</time>
      </trkpt>
      <trkpt lat="44.48031" lon="6.70931">
        <ele>1775.5999755859</ele>
        <time>2022-03-11T14:50:03.000Z</time>
      </trkpt>
      <trkpt lat="44.48033" lon="6.70938">
        <ele>1775.4000244141</ele>
        <time>2022-03-11T14:50:05.000Z</time>
      </trkpt>
      <trkpt lat="44.48035" lon="6.70954">
        <ele>1774.4000244141</ele>
        <time>2022-03-11T14:50:09.000Z</time>
      </trkpt>
      <trkpt lat="44.48037" lon="6.70961">
        <ele>1774.1999511719</ele>
        <time>2022-03-11T14:50:11.000Z</time>
      </trkpt>
      <trkpt lat="44.48038" lon="6.70965">
        <ele>1774.1999511719</ele>
        <time>2022-03-11T14:50:12.000Z</time>
      </trkpt>
      <trkpt lat="44.48041" lon="6.70979">
        <ele>1773.8000488281</ele>
        <time>2022-03-11T14:50:17.000Z</time>
      </trkpt>
      <trkpt lat="44.48044" lon="6.70996">
        <ele>1773.1999511719</ele>
        <time>2022-03-11T14:50:22.000Z</time>
      </trkpt>
      <trkpt lat="44.48048" lon="6.71013">
        <ele>1772.4000244141</ele>
        <time>2022-03-11T14:50:27.000Z</time>
      </trkpt>
      <trkpt lat="44.48049" lon="6.71018">
        <ele>1772</ele>
        <time>2022-03-11T14:50:29.000Z</time>
      </trkpt>
      <trkpt lat="44.48049" lon="6.71021">
        <ele>1771.8000488281</ele>
        <time>2022-03-11T14:50:32.000Z</time>
      </trkpt>
      <trkpt lat="44.48049" lon="6.71019">
        <ele>1771.8000488281</ele>
        <time>2022-03-11T14:50:37.000Z</time>
      </trkpt>
      <trkpt lat="44.48048" lon="6.71022">
        <ele>1771.5999755859</ele>
        <time>2022-03-11T14:50:42.000Z</time>
      </trkpt>
      <trkpt lat="44.48048" lon="6.71024">
        <ele>1771.4000244141</ele>
        <time>2022-03-11T14:50:47.000Z</time>
      </trkpt>
      <trkpt lat="44.48049" lon="6.71027">
        <ele>1771.4000244141</ele>
        <time>2022-03-11T14:50:57.000Z</time>
      </trkpt>
      <trkpt lat="44.4805" lon="6.71029">
        <ele>1771.1999511719</ele>
        <time>2022-03-11T14:50:59.000Z</time>
      </trkpt>
      <trkpt lat="44.48046" lon="6.71026">
        <ele>1771.1999511719</ele>
        <time>2022-03-11T14:51:03.000Z</time>
      </trkpt>
      <trkpt lat="44.48044" lon="6.71028">
        <ele>1771.5999755859</ele>
        <time>2022-03-11T14:51:11.000Z</time>
      </trkpt>
      <trkpt lat="44.48045" lon="6.71029">
        <ele>1771.5999755859</ele>
        <time>2022-03-11T14:51:17.000Z</time>
      </trkpt>
      <trkpt lat="44.48045" lon="6.71031">
        <ele>1771.5999755859</ele>
        <time>2022-03-11T14:51:22.000Z</time>
      </trkpt>
      <trkpt lat="44.48049" lon="6.71037">
        <ele>1771.4000244141</ele>
        <time>2022-03-11T14:51:28.000Z</time>
      </trkpt>
      <trkpt lat="44.48053" lon="6.71052">
        <ele>1771</ele>
        <time>2022-03-11T14:51:36.000Z</time>
      </trkpt>
      <trkpt lat="44.48054" lon="6.71071">
        <ele>1770.1999511719</ele>
        <time>2022-03-11T14:51:46.000Z</time>
      </trkpt>
      <trkpt lat="44.48052" lon="6.7109">
        <ele>1770</ele>
        <time>2022-03-11T14:51:55.000Z</time>
      </trkpt>
      <trkpt lat="44.48047" lon="6.71104">
        <ele>1769</ele>
        <time>2022-03-11T14:52:04.000Z</time>
      </trkpt>
      <trkpt lat="44.4804" lon="6.71115">
        <ele>1769</ele>
        <time>2022-03-11T14:52:12.000Z</time>
      </trkpt>
      <trkpt lat="44.48038" lon="6.71124">
        <ele>1768.8000488281</ele>
        <time>2022-03-11T14:52:16.000Z</time>
      </trkpt>
      <trkpt lat="44.48032" lon="6.71136">
        <ele>1768.8000488281</ele>
        <time>2022-03-11T14:52:23.000Z</time>
      </trkpt>
      <trkpt lat="44.48027" lon="6.71147">
        <ele>1768.4000244141</ele>
        <time>2022-03-11T14:52:32.000Z</time>
      </trkpt>
      <trkpt lat="44.48019" lon="6.71154">
        <ele>1768.1999511719</ele>
        <time>2022-03-11T14:52:40.000Z</time>
      </trkpt>
      <trkpt lat="44.48012" lon="6.71158">
        <ele>1768</ele>
        <time>2022-03-11T14:52:48.000Z</time>
      </trkpt>
      <trkpt lat="44.48006" lon="6.71161">
        <ele>1767.8000488281</ele>
        <time>2022-03-11T14:52:54.000Z</time>
      </trkpt>
      <trkpt lat="44.48004" lon="6.71162">
        <ele>1767.8000488281</ele>
        <time>2022-03-11T14:52:56.000Z</time>
      </trkpt>
      <trkpt lat="44.48" lon="6.71164">
        <ele>1767.5999755859</ele>
        <time>2022-03-11T14:53:02.000Z</time>
      </trkpt>
      <trkpt lat="44.47999" lon="6.71164">
        <ele>1767.5999755859</ele>
        <time>2022-03-11T14:53:04.000Z</time>
      </trkpt>
    </trkseg>
  </trk>
</gpx>